Graceful Lady — 00 — position and weather

sailwx.info

Track history (hours):
 
Tides and Currents Weather Stations Pressure Air Temp Water Temp Dewpoint Dewpoint Depression Visibility Wind Speed Wind Dir Waves Ship Positions

Graceful Lady

Last reported at 2017-Jul-26 02:31 UTC. Time now 2017-Jul-26 02:44 UTC.
Position N 29°55' E 122°04'.

Length 6 m.

Type: Pollution control. MMSI: 316014038.

Date/timePositionNaut miles runAvg speedWind from/ knotsBaromVisibWave heightAir tempDewpointWater temp
2017-Jul-26 02:31N 29°55' E 122°04'105379742.3
2017-Jul-26 02:31N 31°33' E 121°18'100180871.5
2017-Jul-26 02:30N 29°56' E 121°51'375450237.3
2017-Jul-26 02:30N 24°32' E 118°19'278100213.4
2017-Jul-26 02:30N 22°59' E 113°32'9641156355.5
2017-Jul-26 02:30N 37°33' E 121°23'459275151.1
2017-Jul-26 02:30N 29°56' E 122°19'408366873.5
2017-Jul-26 02:30N 24°26' E 117°50'39031193.7
2017-Jul-26 02:29N 29°46' E 122°00'61013467.0
2017-Jul-26 02:27N 22°56' E 113°37'9431131045.1
2017-Jul-26 02:27N 38°10' E 118°05'1293825.2
2017-Jul-26 02:25N 39°56' E 119°39'276.0
2017-Jul-26 02:23N 39°56' E 119°42'50111781.1
2017-Jul-26 02:20N 31°41' E 121°11'40613783.9
2017-Jul-26 02:19N 38°11' E 118°57'110363.0
2017-Jul-26 02:01N 39°56' E 119°39'934420428.4
2017-Jul-26 02:00N 24°26' E 117°50'464334314.9
2017-Jul-26 02:00N 31°33' E 121°18'6592370826.3
2017-Jul-26 02:00N 23°01' E 113°32'962866047.1
2017-Jul-26 02:00N 37°33' E 121°23'796106158.0
2017-Jul-26 02:00N 24°32' E 118°19'455818422.4
2017-Jul-26 02:00N 31°41' E 121°09'111199901.5
2017-Jul-26 02:00N 29°56' E 121°51'246123.3
2017-Jul-26 01:59N 29°56' E 122°19'173919.0
2017-Jul-26 01:59N 29°56' E 121°59'9225.2
2017-Jul-26 01:57N 29°48' E 122°03'6199775.4
2017-Jul-26 01:53N 39°56' E 119°42'1101998.8
2017-Jul-26 01:50N 38°10' E 119°01'51352729.8
2017-Jul-26 01:49N 30°01' E 122°05'101325.4
2017-Jul-26 01:30N 31°33' E 121°18'4491616823.7
2017-Jul-26 01:30N 24°32' E 118°19'2747839.6
2017-Jul-26 01:30N 24°26' E 117°50'807181687.0
2017-Jul-26 01:30N 37°33' E 121°23'962577091.7
2017-Jul-26 01:30N 23°02' E 113°31'61573844.1
2017-Jul-26 01:30N 29°56' E 121°59'83001.8
2017-Jul-26 01:29N 29°51' E 122°06'10423.9
2017-Jul-26 01:28N 30°01' E 122°05'13677.2
2017-Jul-26 01:27N 29°56' E 121°51'61116525.9
2017-Jul-26 01:25N 22°56' E 113°36'106638379.8
2017-Jul-26 01:23N 39°56' E 119°42'6136290.1
2017-Jul-26 01:17N 29°56' E 122°19'6148032.4
2017-Jul-26 01:13N 39°56' E 119°39'1131387.2
2017-Jul-26 01:08N 38°07' E 119°02'9498037.2
2017-Jul-26 01:01N 23°02' E 113°31'279200662.2
2017-Jul-26 01:00N 24°32' E 118°19'2731891.4
2017-Jul-26 01:00N 24°26' E 117°50'394708920.3
2017-Jul-26 01:00N 29°56' E 121°51'45786545.6
2017-Jul-26 01:00N 37°33' E 121°23'360259193.9
2017-Jul-26 01:00N 31°33' E 121°18'10215314.5
2017-Jul-26 01:00N 29°57' E 121°59'92080.2
2017-Jul-26 00:59N 29°53' E 122°08'517103346.0
2017-Jul-26 00:59N 38°06' E 119°01'50979646.4
2017-Jul-26 00:59N 30°01' E 122°05'62297417.3
2017-Jul-26 00:58N 22°56' E 113°36'6297857.7
2017-Jul-26 00:53N 29°56' E 122°19'61381772.7
2017-Jul-26 00:53N 39°56' E 119°42'9352481.4
2017-Jul-26 00:30N 24°26' E 117°50'464557191.6
2017-Jul-26 00:30N 31°33' E 121°18'658263366.8
2017-Jul-26 00:30N 23°02' E 113°31'279250829.6
2017-Jul-26 00:30N 24°32' E 118°19'385277254.7
2017-Jul-26 00:30N 30°01' E 122°05'622320097.9
2017-Jul-26 00:30N 22°56' E 113°37'616138683.0
2017-Jul-26 00:30N 29°55' E 122°02'459206542.3
2017-Jul-26 00:30N 37°33' E 121°23'457822328.4
2017-Jul-26 00:29N 29°56' E 121°51'2442862.9
2017-Jul-26 00:29N 29°56' E 122°19'61376132.5
2017-Jul-26 00:29N 39°56' E 119°42'61313217.9
2017-Jul-26 00:26N 29°54' E 122°05'6134460.9
2017-Jul-26 00:18N 39°56' E 119°39'10755417.9
2017-Jul-26 00:06N 22°46' E 113°39'6346832.2
2017-Jul-26 00:00N 29°56' E 122°19'388698505.2
2017-Jul-26 00:00N 24°32' E 118°19'378339982.2
2017-Jul-26 00:00N 29°54' E 122°02'10627319.7
2017-Jul-26 00:00N 31°33' E 121°18'464417893.7
2017-Jul-26 00:00N 24°26' E 117°50'934420409.6
2017-Jul-26 00:00N 39°56' E 119°39'165197535.5
2017-Jul-26 00:00N 37°33' E 121°23'457328935.7
2017-Jul-26 00:00N 29°56' E 121°51'616369815.5
2017-Jul-26 00:00N 22°46' E 113°39'628133016.9
2017-Jul-25 23:59N 30°01' E 122°05'62245726.5
2017-Jul-25 23:59N 22°56' E 113°36'7118.7
2017-Jul-25 23:55N 23°02' E 113°31'106234458.4
2017-Jul-25 23:53N 39°56' E 119°42'5091360.2
2017-Jul-25 23:31N 31°33' E 121°18'449404205.9
2017-Jul-25 23:30N 24°32' E 118°19'27941802.4
2017-Jul-25 23:30N 22°49' E 113°36'1073551693.2
2017-Jul-25 23:30N 39°56' E 119°39'165296303.2
2017-Jul-25 23:30N 37°33' E 121°23'460150500.3
2017-Jul-25 23:30N 29°54' E 122°02'616158481.2
2017-Jul-25 23:29N 23°02' E 113°31'1062127496.0
2017-Jul-25 23:29N 39°56' E 119°42'609104388.7
2017-Jul-25 23:29N 29°56' E 121°51'6111098975.2
2017-Jul-25 23:29N 22°56' E 113°36'62214740.8
2017-Jul-25 23:26N 30°01' E 122°05'40418183.8
2017-Jul-25 23:25N 24°26' E 117°50'2765.7
2017-Jul-25 23:00N 24°32' E 118°19'449808411.8
2017-Jul-25 23:00N 31°33' E 121°18'106127245.8
2017-Jul-25 23:00N 29°54' E 122°02'154070.1
2017-Jul-25 23:00N 29°56' E 122°19'614169907.9
2017-Jul-25 23:00N 39°56' E 119°39'16574075.8
2017-Jul-25 23:00N 37°33' E 121°23'969134135.3
2017-Jul-25 22:59N 22°53' E 113°34'9978.6
2017-Jul-25 22:59N 23°02' E 113°31'62289636.7
2017-Jul-25 22:58N 30°01' E 122°05'4049091.9
2017-Jul-25 22:56N 24°26' E 117°50'249128144.2
2017-Jul-25 22:56N 22°56' E 113°36'61316966.4
2017-Jul-25 22:53N 29°58' E 121°53'6085622.1
2017-Jul-25 22:47N 39°56' E 119°42'6092223.3
2017-Jul-25 22:31N 29°56' E 121°51'457548226.1
2017-Jul-25 22:30N 37°33' E 121°23'7961433132.9
2017-Jul-25 22:30N 24°32' E 118°19'378453290.8
2017-Jul-25 22:30N 29°54' E 122°02'152944.4
2017-Jul-25 22:30N 29°56' E 122°19'4081467390.2
2017-Jul-25 22:30N 24°26' E 117°50'934480468.1
2017-Jul-25 22:30N 39°56' E 119°39'106546768.0
2017-Jul-25 22:29N 22°56' E 113°36'7364.0
2017-Jul-25 22:27N 23°02' E 113°31'62254656.5
2017-Jul-25 22:27N 30°01' E 122°05'101684.6
2017-Jul-25 22:18N 31°33' E 121°18'5094461.1
2017-Jul-25 22:11N 39°56' E 119°42'5092887.4
2017-Jul-25 22:00N 31°33' E 121°18'3601295990.9
2017-Jul-25 22:00N 37°33' E 121°23'4601657666.1
2017-Jul-25 22:00N 29°53' E 122°03'37885041.9
2017-Jul-25 22:00N 24°32' E 118°19'926303031.5
2017-Jul-25 22:00N 39°56' E 119°39'1062477729.1
2017-Jul-25 22:00N 23°02' E 113°31'629323394.1
2017-Jul-25 22:00N 29°56' E 122°19'62857972.0
2017-Jul-25 21:59N 22°59' E 113°34'1064765930.4
2017-Jul-25 21:59N 39°56' E 119°42'106635542.2
2017-Jul-25 21:57N 22°56' E 113°36'623224112.1
2017-Jul-25 21:57N 30°01' E 122°05'40496980.4
2017-Jul-25 21:57N 24°26' E 117°50'87126803.9
2017-Jul-25 21:55N 38°57' E 118°25'515038869.9
2017-Jul-25 21:47N 49°18' W 122°54'545230288.7
2017-Jul-25 21:36N 29°56' E 121°51'3754043.9
2017-Jul-25 21:30N 24°32' E 118°19'276199040.5
2017-Jul-25 21:30N 22°59' E 113°34'963866414.4
2017-Jul-25 21:30N 37°33' E 121°23'460828879.4
2017-Jul-25 21:30N 29°53' E 122°04'136801.8
2017-Jul-25 21:30N 29°56' E 122°19'408244575.2
2017-Jul-25 21:30N 24°26' E 117°50'934560546.1
2017-Jul-25 21:30N 39°56' E 119°39'84303049.0
2017-Jul-25 21:30N 38°53' E 118°26'865318.1
2017-Jul-25 21:29N 39°56' E 119°42'10623824879.0
2017-Jul-25 21:29N 23°02' E 113°31'62212660.5
2017-Jul-25 21:26N 30°01' E 122°05'1015759.0
2017-Jul-25 21:25N 31°33' E 121°18'100930.0
2017-Jul-25 21:18N 29°56' E 121°51'544863267.5
2017-Jul-25 21:13N 49°18' W 122°58'588527443.4
2017-Jul-25 21:00N 24°32' E 118°19'2731893.1
2017-Jul-25 21:00N 24°26' E 117°50'249897379.9
2017-Jul-25 21:00N 22°56' E 113°36'827169.0
2017-Jul-25 21:00N 23°02' E 113°31'617317322.2
2017-Jul-25 21:00N 29°53' E 122°04'4601657758.8
2017-Jul-25 21:00N 37°33' E 121°23'459206405.9
2017-Jul-25 21:00N 29°56' E 122°19'628753657.1
2017-Jul-25 21:00N 22°59' E 113°34'1063637778.5
2017-Jul-25 21:00N 39°56' E 119°39'2119.3
2017-Jul-25 20:59N 39°56' E 119°42'607109257.7
2017-Jul-25 20:59N 30°01' E 122°05'543499809.1
2017-Jul-25 20:55N 49°18' W 122°58'5448612902.9
2017-Jul-25 20:55N 29°56' E 121°51'1001010.6
2017-Jul-25 20:49N 31°33' E 121°18'101328.9
2017-Jul-25 20:30N 30°01' E 122°05'3851386273.6
2017-Jul-25 20:30N 24°32' E 118°19'2731893.1
2017-Jul-25 20:30N 24°26' E 117°50'808290701.3
2017-Jul-25 20:30N 37°33' E 121°23'16532921.5
2017-Jul-25 20:30N 39°56' E 119°39'1063318889.3
2017-Jul-25 20:30N 22°59' E 113°34'4654.2
2017-Jul-25 20:29N 23°02' E 113°31'617317320.2
2017-Jul-25 20:29N 29°53' E 122°04'614147305.5
2017-Jul-25 20:29N 39°56' E 119°42'609219185.8
2017-Jul-25 20:29N 29°56' E 121°51'10019022.0
2017-Jul-25 20:29N 31°33' E 121°18'66032087.5
2017-Jul-25 20:27N 22°56' E 113°36'618746696.9
2017-Jul-25 20:19N 49°18' W 122°58'588518715.8
2017-Jul-25 20:00N 24°32' E 118°19'279200662.2
2017-Jul-25 20:00N 23°02' E 113°31'962247329.2
2017-Jul-25 20:00N 37°33' E 121°23'808581402.7
2017-Jul-25 20:00N 24°26' E 117°50'464278595.8
2017-Jul-25 20:00N 31°33' E 121°18'509916988.8
2017-Jul-25 20:00N 39°56' E 119°39'1063294359.3
2017-Jul-25 20:00N 22°59' E 113°34'622746112.6
2017-Jul-25 20:00N 30°01' E 122°05'71080.2
2017-Jul-25 19:59N 29°53' E 122°04'617170863.4
2017-Jul-25 19:59N 22°56' E 113°36'1066767707.0
2017-Jul-25 19:59N 39°56' E 119°42'61319200.8
2017-Jul-25 19:57N 29°56' E 122°19'246637.6
2017-Jul-25 19:57N 29°56' E 121°51'5448222877.6
2017-Jul-25 19:55N 49°18' W 122°58'542713078.1
2017-Jul-25 19:30N 29°56' E 122°19'408366808.7
2017-Jul-25 19:30N 24°26' E 117°50'250449964.0
2017-Jul-25 19:30N 22°59' E 113°34'6162218568.9
2017-Jul-25 19:30N 29°53' E 122°04'46097515.2
2017-Jul-25 19:30N 37°33' E 121°23'360215998.5
2017-Jul-25 19:30N 31°33' E 121°18'509916988.8
2017-Jul-25 19:30N 39°56' E 119°39'2121.4
2017-Jul-25 19:29N 39°56' E 119°42'1062201305.0
2017-Jul-25 19:29N 23°02' E 113°31'61029698.6
2017-Jul-25 19:27N 29°56' E 121°51'5448158171.1
2017-Jul-25 19:25N 49°18' W 122°58'543482195.7
2017-Jul-25 19:21N 30°01' E 122°05'62333956.1
2017-Jul-25 19:20N 22°56' E 113°36'66128348.7
2017-Jul-25 19:19N 31°44' E 121°06'1 3.3
2017-Jul-25 19:04N 31°44' E 121°06'4577980.9
2017-Jul-25 19:00N 24°32' E 118°19'2731893.1
2017-Jul-25 19:00N 24°26' E 117°50'250449964.0
2017-Jul-25 19:00N 22°59' E 113°34'661396473.8
2017-Jul-25 19:00N 31°44' E 121°07'49789462.5
2017-Jul-25 19:00N 39°56' E 119°39'509458494.4
2017-Jul-25 19:00N 31°33' E 121°18'6601187161.0
2017-Jul-25 19:00N 22°56' E 113°36'8846.6
2017-Jul-25 18:59N 23°02' E 113°31'962865637.4
2017-Jul-25 18:59N 37°33' E 121°23'16442120.0
2017-Jul-25 18:59N 39°56' E 119°42'6098732.1
2017-Jul-25 18:55N 29°57' E 121°51'11228817.6
2017-Jul-25 18:55N 31°42' E 121°09'1249470.6
2017-Jul-25 18:54N 29°55' E 122°20'14241.7
2017-Jul-25 18:50N 30°01' E 122°05'543446247.2
2017-Jul-25 18:43N 49°18' W 122°58'539225276.3
2017-Jul-25 18:31N 31°33' E 121°18'100120512.0
2017-Jul-25 18:30N 29°56' E 121°51'375675448.4
2017-Jul-25 18:30N 24°32' E 118°19'378123862.5
2017-Jul-25 18:30N 29°53' E 122°04'6172221103.3
2017-Jul-25 18:30N 22°56' E 113°36'629377116.9
2017-Jul-25 18:30N 29°55' E 122°20'407293061.9
2017-Jul-25 18:30N 24°26' E 117°50'934420409.6
2017-Jul-25 18:30N 39°56' E 119°39'165296303.2
2017-Jul-25 18:30N 37°33' E 121°23'50896106242.4
2017-Jul-25 18:30N 49°18' W 122°58'61872783947.1
2017-Jul-25 18:30N 22°59' E 113°34'4578.2
2017-Jul-25 18:29N 23°02' E 113°31'1062191238.7
2017-Jul-25 18:29N 39°56' E 119°42'60710925.8
2017-Jul-25 18:26N 30°01' E 122°05'1072236.7
2017-Jul-25 18:23N 31°39' E 121°14'4821917.8
2017-Jul-25 18:08N 24°07' E 118°04'4827991.9
2017-Jul-25 18:04N 31°39' E 121°14'1181970.4
2017-Jul-25 18:00N 29°55' E 122°20'11136462.8
2017-Jul-25 18:00N 31°33' E 121°18'360215994.9
2017-Jul-25 18:00N 37°33' E 121°23'963385070.9
2017-Jul-25 18:00N 22°59' E 113°34'257308789.7
2017-Jul-25 18:00N 24°08' E 118°05'9511711927.1
2017-Jul-25 18:00N 39°56' E 119°39'5071826690.4
2017-Jul-25 18:00N 31°35' E 121°18'466139909.3
2017-Jul-25 18:00N 24°26' E 117°50'39494515.8
2017-Jul-25 17:59N 29°56' E 121°51'10716691.9
2017-Jul-25 17:59N 31°38' E 121°15'503258824.9
2017-Jul-25 17:59N 39°56' E 119°42'10623824754.2
2017-Jul-25 17:59N 23°02' E 113°31'81231.4
2017-Jul-25 17:59N 22°56' E 113°36'62245733.4
2017-Jul-25 17:58N 30°01' E 122°05'543438737.7
2017-Jul-25 17:49N 49°18' W 122°58'618719676.6
2017-Jul-25 17:30N 22°56' E 113°36'276496101.1
2017-Jul-25 17:30N 24°32' E 118°19'449538941.2
2017-Jul-25 17:30N 31°33' E 121°18'4641671574.7
2017-Jul-25 17:30N 24°26' E 117°50'252113487.5
2017-Jul-25 17:30N 23°02' E 113°31'264474477.1
2017-Jul-25 17:30N 24°11' E 118°08'473283830.9
2017-Jul-25 17:30N 31°31' E 121°24'36268534.6
2017-Jul-25 17:30N 37°33' E 121°23'963577606.4
2017-Jul-25 17:30N 22°59' E 113°34'628753438.2
2017-Jul-25 17:30N 29°55' E 122°20'61552709.6
2017-Jul-25 17:29N 39°56' E 119°42'614110478.1
2017-Jul-25 17:29N 29°53' E 122°04'7336.4
2017-Jul-25 17:27N 30°01' E 122°05'13241.3
2017-Jul-25 17:24N 29°56' E 121°51'609219246.7
2017-Jul-25 17:24N 39°56' E 119°39'50714140.8
2017-Jul-25 17:22N 31°35' E 121°18'539093734.0
2017-Jul-25 17:18N 49°18' W 122°59'508817055.7
2017-Jul-25 17:00N 37°33' E 121°23'7962866265.8
2017-Jul-25 17:00N 24°32' E 118°19'58855296528.1
2017-Jul-25 17:00N 49°18' W 122°59'618622270588.5
2017-Jul-25 17:00N 22°59' E 113°34'628161451.0
2017-Jul-25 17:00N 29°55' E 122°20'102366546.8
2017-Jul-25 17:00N 31°27' E 121°29'517155047.8
2017-Jul-25 17:00N 39°56' E 119°39'50976331.3
2017-Jul-25 17:00N 31°34' E 121°20'10725685.3
2017-Jul-25 16:59N 29°53' E 122°04'614122753.4
2017-Jul-25 16:59N 39°56' E 119°42'946309501.7
2017-Jul-25 16:59N 24°13' E 118°12'46976773.5
2017-Jul-25 16:58N 31°33' E 121°18'10022589.4
2017-Jul-25 16:58N 29°56' E 121°51'611156989.5
2017-Jul-25 16:58N 23°02' E 113°31'622131813.3
2017-Jul-25 16:58N 30°01' E 122°05'622560172.4
2017-Jul-25 16:58N 22°56' E 113°36'6412789.9
2017-Jul-25 16:44N 31°60' E 119°60'4562052.2
2017-Jul-25 16:30N 24°32' E 118°19'3871394605.0
2017-Jul-25 16:30N 29°55' E 122°20'407488436.4
2017-Jul-25 16:30N 24°26' E 117°50'4621663753.3
2017-Jul-25 16:30N 31°24' E 121°35'52172098.7
2017-Jul-25 16:30N 39°56' E 119°39'16532922.6
2017-Jul-25 16:30N 37°33' E 121°23'9651157567.4
2017-Jul-25 16:30N 22°56' E 113°36'641144204.7
2017-Jul-25 16:29N 31°59' E 120°00'165197490.0
2017-Jul-25 16:29N 29°53' E 122°04'614116292.7
2017-Jul-25 16:29N 39°56' E 119°42'1062546393.5
2017-Jul-25 16:29N 23°02' E 113°31'2715801.9
2017-Jul-25 16:26N 24°16' E 118°15'40180206.9
2017-Jul-25 16:26N 30°01' E 122°05'1018849.3
2017-Jul-25 16:25N 31°33' E 121°18'10024095.3
2017-Jul-25 16:25N 29°56' E 121°51'544816426.0
2017-Jul-25 16:05N 49°18' W 122°59'618784688.0
2017-Jul-25 16:01N 23°02' E 113°31'279250818.5
2017-Jul-25 16:00N 24°32' E 118°19'2723919.8
2017-Jul-25 16:00N 24°26' E 117°50'807581398.5
2017-Jul-25 16:00N 37°33' E 121°23'9651157554.1
2017-Jul-25 16:00N 22°56' E 113°36'61871113673.9
2017-Jul-25 16:00N 49°18' W 122°59'53852769566.4
2017-Jul-25 16:00N 31°20' E 121°41'8964246.1
2017-Jul-25 16:00N 29°53' E 122°04'10719242.3
2017-Jul-25 15:59N 31°33' E 121°18'10010326.0
2017-Jul-25 15:59N 29°56' E 121°51'610365915.4
2017-Jul-25 15:59N 22°59' E 113°34'62830137.5
2017-Jul-25 15:57N 29°55' E 122°20'17168438.6
2017-Jul-25 15:57N 31°58' E 120°02'1585878.5
2017-Jul-25 15:56N 30°01' E 122°05'3971924.0
2017-Jul-25 15:43N 24°18' E 118°20'4618092.5
2017-Jul-25 15:40N 31°28' E 121°28'4482845.5
2017-Jul-25 15:30N 24°32' E 118°19'2723919.8
2017-Jul-25 15:30N 24°26' E 117°50'250449964.0
2017-Jul-25 15:30N 22°59' E 113°34'42610.2
2017-Jul-25 15:30N 22°56' E 113°36'9651157560.8
2017-Jul-25 15:30N 37°33' E 121°23'460331328.7
2017-Jul-25 15:30N 29°55' E 122°20'147021.7
2017-Jul-25 15:30N 29°53' E 122°04'162116620.6
2017-Jul-25 15:30N 31°58' E 120°03'78140901.2
2017-Jul-25 15:30N 31°28' E 121°28'109142.3
2017-Jul-25 15:30N 31°33' E 121°18'100180714.9
2017-Jul-25 15:30N 29°56' E 121°51'61138558.8
2017-Jul-25 15:29N 23°02' E 113°31'622149388.4
2017-Jul-25 15:29N 30°01' E 122°05'811292.4
2017-Jul-25 15:25N 31°19' E 121°41'91224.0
2017-Jul-25 15:01N 29°54' E 122°18'4611658318.0
2017-Jul-25 15:00N 37°33' E 121°23'3671320402.0
2017-Jul-25 15:00N 31°26' E 121°30'447804076.5
2017-Jul-25 15:00N 24°32' E 118°19'4491616823.7
2017-Jul-25 15:00N 31°33' E 121°18'658789944.5
2017-Jul-25 15:00N 22°59' E 113°34'616369761.5
2017-Jul-25 15:00N 29°53' E 122°04'6172220808.5
2017-Jul-25 15:00N 22°56' E 113°36'642135929.4
2017-Jul-25 15:00N 31°58' E 120°05'156280859.6
2017-Jul-25 15:00N 30°01' E 122°05'40427975.1
2017-Jul-25 14:59N 24°26' E 117°50'25233625.9
2017-Jul-25 14:59N 23°02' E 113°31'6625698.2
2017-Jul-25 14:52N 31°19' E 121°41'831106.1
2017-Jul-25 14:47N 29°56' E 121°51'100129.3
2017-Jul-25 14:01N 31°33' E 121°18'111100240.7
2017-Jul-25 14:00N 29°52' E 122°14'3821376480.3
2017-Jul-25 14:00N 24°32' E 118°19'385346568.4
2017-Jul-25 14:00N 30°01' E 122°05'73700.5
2017-Jul-25 14:00N 29°53' E 122°04'460127518.2
2017-Jul-25 14:00N 37°33' E 121°23'457822209.7
2017-Jul-25 14:00N 29°56' E 121°51'6111099099.0
2017-Jul-25 14:00N 23°02' E 113°31'658118402.9
2017-Jul-25 14:00N 31°23' E 121°30'65937640.3
2017-Jul-25 13:59N 22°56' E 113°36'66233122.1
2017-Jul-25 13:57N 31°19' E 121°41'87922.1
2017-Jul-25 13:52N 31°57' E 120°09'164462.1
2017-Jul-25 13:31N 29°51' E 122°11'620223339.7
2017-Jul-25 13:30N 23°02' E 113°31'85403.1
2017-Jul-25 13:30N 22°56' E 113°36'6172220808.5
2017-Jul-25 13:30N 29°53' E 122°04'378170313.2
2017-Jul-25 13:30N 24°32' E 118°19'4491616823.7
2017-Jul-25 13:30N 31°33' E 121°18'10136281.9
2017-Jul-25 13:30N 30°01' E 122°05'62242232.8
2017-Jul-25 13:29N 22°59' E 113°34'963385070.9
2017-Jul-25 13:29N 37°33' E 121°23'37414013.1
2017-Jul-25 13:27N 31°19' E 121°41'461118473.8
2017-Jul-25 13:27N 24°26' E 117°50'4672838.1
2017-Jul-25 13:17N 31°57' E 120°12'1471068.1
2017-Jul-25 13:09N 29°56' E 121°51'100718.8
2017-Jul-25 13:01N 31°33' E 121°18'111133726.7
2017-Jul-25 13:00N 29°51' E 122°11'399478865.5
2017-Jul-25 13:00N 24°26' E 117°50'404181838.3
2017-Jul-25 13:00N 30°01' E 122°05'81146674.5
2017-Jul-25 13:00N 31°19' E 121°41'8817621.7
2017-Jul-25 13:00N 29°53' E 122°04'460552579.1
2017-Jul-25 13:00N 37°33' E 121°23'796409469.6
2017-Jul-25 13:00N 24°32' E 118°19'279200660.9
2017-Jul-25 13:00N 23°02' E 113°31'4800.2
2017-Jul-25 12:59N 22°59' E 113°34'64320861.1
2017-Jul-25 12:58N 31°57' E 120°13'1474295.3
2017-Jul-25 12:55N 29°56' E 121°51'6119393.2
2017-Jul-25 12:52N 22°56' E 113°36'6201759.5
2017-Jul-25 12:30N 29°51' E 122°11'111401219.8
2017-Jul-25 12:30N 31°33' E 121°18'464835787.4
2017-Jul-25 12:30N 24°26' E 117°50'3981431453.1
2017-Jul-25 12:30N 29°53' E 122°04'617555313.8
2017-Jul-25 12:30N 23°02' E 113°31'4846.6
2017-Jul-25 12:30N 22°59' E 113°34'9633465638.2
2017-Jul-25 12:30N 37°33' E 121°23'374448417.6
2017-Jul-25 12:30N 31°19' E 121°41'662103681.2
2017-Jul-25 12:30N 22°56' E 113°36'64683004.9
2017-Jul-25 12:29N 31°57' E 120°15'14643790.0
2017-Jul-25 12:29N 29°56' E 121°51'13461.7
2017-Jul-25 12:27N 30°01' E 122°05'1123.9
2017-Jul-25 12:00N 29°51' E 122°11'111200621.4
2017-Jul-25 12:00N 31°33' E 121°18'659263781.0
2017-Jul-25 12:00N 22°56' E 113°36'6172220808.5
2017-Jul-25 12:00N 29°53' E 122°04'116863.2
2017-Jul-25 12:00N 29°56' E 121°51'3751350781.6
2017-Jul-25 12:00N 24°32' E 118°19'444133324.2
2017-Jul-25 12:00N 31°19' E 121°41'374192179.0
2017-Jul-25 12:00N 37°33' E 121°23'807726748.1
2017-Jul-25 12:00N 24°26' E 117°50'404181838.3
2017-Jul-25 12:00N 30°01' E 122°05'622159881.3
2017-Jul-25 11:59N 22°59' E 113°34'4236.1
2017-Jul-25 11:58N 23°02' E 113°31'645178711.5
2017-Jul-25 11:58N 31°57' E 120°17'2201822.8
2017-Jul-25 11:51N 35°36' E 119°48'2602809.7
2017-Jul-25 11:45N 39°56' E 119°42'212.7
2017-Jul-25 11:36N 39°56' E 119°39'1651795.8
2017-Jul-25 11:30N 37°33' E 121°23'360323992.3
2017-Jul-25 11:30N 31°33' E 121°18'6582370284.1
2017-Jul-25 11:30N 23°02' E 113°31'6202231295.8
2017-Jul-25 11:30N 29°51' E 122°11'16071953.0
2017-Jul-25 11:30N 31°58' E 120°18'458235749.8
2017-Jul-25 11:30N 24°32' E 118°19'276199040.5
2017-Jul-25 11:30N 22°59' E 113°34'42175.1
2017-Jul-25 11:30N 22°56' E 113°36'662119233.4
2017-Jul-25 11:30N 31°19' E 121°41'52614124.4
2017-Jul-25 11:27N 39°56' E 119°42'60791048.1
2017-Jul-25 11:27N 30°01' E 122°05'60711752.3
2017-Jul-25 11:24N 39°56' E 119°39'6096040.0
2017-Jul-25 11:18N 29°56' E 121°51'3559134.4
2017-Jul-25 11:15N 35°36' E 119°48'2381238.0
2017-Jul-25 11:04N 31°47' E 121°01'1282209.2
2017-Jul-25 11:00N 29°52' E 122°09'400287706.7
2017-Jul-25 11:00N 24°26' E 117°50'8082907013.4
2017-Jul-25 11:00N 37°33' E 121°23'9633465657.5
2017-Jul-25 11:00N 22°59' E 113°34'616316940.4
2017-Jul-25 11:00N 29°53' E 122°04'378170315.5
2017-Jul-25 11:00N 24°32' E 118°19'449179647.1
2017-Jul-25 11:00N 31°33' E 121°18'5616706.9
2017-Jul-25 11:00N 31°60' E 120°21'649779280.5
2017-Jul-25 11:00N 23°02' E 113°31'662140111.0
2017-Jul-25 10:59N 31°19' E 121°41'837891.4
2017-Jul-25 10:59N 29°56' E 121°51'60941371.5
2017-Jul-25 10:58N 39°56' E 119°39'2210.4
2017-Jul-25 10:57N 39°56' E 119°42'607437030.8
2017-Jul-25 10:57N 30°01' E 122°05'11913397.9
2017-Jul-25 10:57N 31°46' E 121°02'4571043.4
2017-Jul-25 10:30N 24°32' E 118°19'378123864.2
2017-Jul-25 10:30N 29°53' E 122°04'616184880.7
2017-Jul-25 10:30N 22°59' E 113°34'963115521.3
2017-Jul-25 10:30N 37°33' E 121°23'360143996.6
2017-Jul-25 10:29N 31°33' E 121°18'1720553.1
2017-Jul-25 10:29N 31°46' E 121°05'662397318.9
2017-Jul-25 10:29N 22°56' E 113°36'62222184.9
2017-Jul-25 10:28N 30°01' E 122°05'607182096.2
2017-Jul-25 10:27N 39°56' E 119°42'106264828.5
2017-Jul-25 10:26N 23°02' E 113°31'25247786.2
2017-Jul-25 10:26N 24°26' E 117°50'47514613.9
2017-Jul-25 10:24N 32°02' E 120°23'47612972.0
2017-Jul-25 10:22N 39°56' E 119°39'85440.3
2017-Jul-25 10:10N 38°53' E 118°25'5723452.4
2017-Jul-25 10:00N 29°54' E 122°15'102672.4
2017-Jul-25 10:00N 29°53' E 122°04'4601657737.2
2017-Jul-25 10:00N 37°33' E 121°23'796409466.5
2017-Jul-25 10:00N 24°32' E 118°19'276199040.5
2017-Jul-25 10:00N 22°59' E 113°34'661339846.2
2017-Jul-25 10:00N 31°44' E 121°07'1417052.1
2017-Jul-25 10:00N 31°33' E 121°18'658338612.0
2017-Jul-25 10:00N 23°02' E 113°31'62243094.3
2017-Jul-25 09:59N 30°01' E 122°05'62239312.6
2017-Jul-25 09:58N 22°56' E 113°36'10651278398.5
2017-Jul-25 09:58N 39°56' E 119°39'2223.5
2017-Jul-25 09:57N 39°56' E 119°42'935210299.3
2017-Jul-25 09:57N 24°26' E 117°50'4783154.6
2017-Jul-25 09:48N 32°03' E 120°26'775359.9
2017-Jul-25 09:47N 31°19' E 121°41'44411749.0
2017-Jul-25 09:45N 38°05' E 118°03'5243759.3
2017-Jul-25 09:36N 29°56' E 121°51'3753731.3
2017-Jul-25 09:30N 24°32' E 118°19'449538941.2
2017-Jul-25 09:30N 31°33' E 121°18'6582370301.3
2017-Jul-25 09:30N 23°02' E 113°31'414391.4
2017-Jul-25 09:30N 22°59' E 113°34'9631155219.2
2017-Jul-25 09:30N 37°33' E 121°23'9651157567.2
2017-Jul-25 09:30N 22°56' E 113°36'6172220808.5
2017-Jul-25 09:30N 29°53' E 122°04'125575.8
2017-Jul-25 09:30N 29°55' E 122°18'40633239.6
2017-Jul-25 09:29N 24°26' E 117°50'461103664.6
2017-Jul-25 09:29N 31°19' E 121°41'876281.7
2017-Jul-25 09:28N 29°54' E 122°01'61388301.8
2017-Jul-25 09:28N 39°56' E 119°39'2230.8
2017-Jul-25 09:27N 39°56' E 119°42'13353301.8
2017-Jul-25 09:27N 38°07' E 118°03'52618762.7
2017-Jul-25 09:26N 30°01' E 122°05'1395.6
2017-Jul-25 09:17N 29°56' E 121°51'56331187.7
2017-Jul-25 09:16N 38°53' E 118°25'85125758.9
2017-Jul-25 09:14N 24°42' E 118°51'31133.3
2017-Jul-25 09:00N 24°32' E 118°19'2731893.1
2017-Jul-25 09:00N 24°26' E 117°50'9341681683.0
2017-Jul-25 09:00N 39°56' E 119°39'6141104602.2
2017-Jul-25 09:00N 29°54' E 122°02'616443431.8
2017-Jul-25 09:00N 22°56' E 113°36'9421695458.4
2017-Jul-25 09:00N 38°10' E 118°04'420302261.7
2017-Jul-25 09:00N 31°40' E 121°13'118105889.2
2017-Jul-25 09:00N 29°56' E 122°19'628113054.8
2017-Jul-25 09:00N 22°59' E 113°34'963866409.6
2017-Jul-25 09:00N 37°33' E 121°23'360647984.7
2017-Jul-25 09:00N 31°33' E 121°18'242143.0
2017-Jul-25 08:59N 31°19' E 121°41'48154161.1
2017-Jul-25 08:58N 38°53' E 118°25'865001.6
2017-Jul-25 08:57N 39°56' E 119°42'61416734.1
2017-Jul-25 08:55N 29°53' E 122°03'7688.5
2017-Jul-25 08:55N 30°01' E 122°05'13215.8
2017-Jul-25 08:51N 29°56' E 121°51'35022937.2
2017-Jul-25 08:50N 24°44' E 118°53'33102.0
2017-Jul-25 08:30N 24°32' E 118°19'279501644.4
2017-Jul-25 08:30N 23°02' E 113°31'314141205.6
2017-Jul-25 08:30N 24°45' E 118°55'351420698.0
2017-Jul-25 08:30N 29°54' E 122°02'397119108.9
2017-Jul-25 08:30N 24°26' E 117°50'464334311.0
2017-Jul-25 08:30N 31°33' E 121°18'11012336.4
2017-Jul-25 08:29N 29°56' E 122°19'6132208592.1
2017-Jul-25 08:29N 39°56' E 119°39'10631275482.0
2017-Jul-25 08:29N 22°59' E 113°34'66172149.1
2017-Jul-25 08:29N 31°19' E 121°41'811481.6
2017-Jul-25 08:26N 30°01' E 122°05'1347.9
2017-Jul-25 08:09N 29°56' E 121°51'609243549.0
2017-Jul-25 08:09N 39°56' E 119°42'862673.4
2017-Jul-25 08:07N 38°53' E 118°25'569136544.7
2017-Jul-25 08:07N 29°53' E 122°03'14128.5
2017-Jul-25 08:00N 29°56' E 122°19'388465634.4
2017-Jul-25 08:00N 24°32' E 118°19'4491616823.7
2017-Jul-25 08:00N 31°33' E 121°18'4641671554.8
2017-Jul-25 08:00N 24°26' E 117°50'397158751.5
2017-Jul-25 08:00N 29°53' E 122°02'347625057.3
2017-Jul-25 08:00N 24°48' E 118°57'314102913.3
2017-Jul-25 08:00N 22°59' E 113°34'963866409.6
2017-Jul-25 08:00N 37°33' E 121°23'45360464.0
2017-Jul-25 08:00N 30°01' E 122°05'622448180.4
2017-Jul-25 07:59N 23°02' E 113°31'10621273862.4
2017-Jul-25 07:59N 39°56' E 119°39'52641154.3
2017-Jul-25 07:59N 31°19' E 121°41'52624903.2
2017-Jul-25 07:57N 39°56' E 119°42'862650.6
2017-Jul-25 07:55N 38°53' E 118°25'569227574.6
2017-Jul-25 07:55N 29°53' E 122°03'61656865.2
2017-Jul-25 07:55N 22°56' E 113°36'6117136.3
2017-Jul-25 07:49N 29°56' E 121°51'1340.6
2017-Jul-25 07:31N 30°01' E 122°05'98117147.5
2017-Jul-25 07:30N 31°31' E 121°23'449808932.8
2017-Jul-25 07:30N 24°32' E 118°19'276248800.6
2017-Jul-25 07:30N 22°59' E 113°34'318103926.8
2017-Jul-25 07:30N 24°50' E 118°60'6834755.1
2017-Jul-25 07:30N 24°26' E 117°50'4081467320.6
2017-Jul-25 07:30N 29°56' E 122°19'158749.7
2017-Jul-25 07:30N 29°54' E 122°02'6161108557.9
2017-Jul-25 07:30N 22°56' E 113°36'9651736360.2
2017-Jul-25 07:30N 37°33' E 121°23'962138502.8
2017-Jul-25 07:29N 23°02' E 113°31'66239047.3
2017-Jul-25 07:28N 31°19' E 121°41'52629117.6
2017-Jul-25 07:27N 39°56' E 119°42'862650.7
2017-Jul-25 07:25N 38°53' E 118°25'852496.3
2017-Jul-25 07:23N 39°56' E 119°39'1152904.7
2017-Jul-25 07:21N 38°05' E 118°57'3731925.5
2017-Jul-25 07:09N 31°57' E 120°10'4553062.1
2017-Jul-25 07:00N 24°32' E 118°19'2723919.8
2017-Jul-25 07:00N 24°26' E 117°50'408733669.2
2017-Jul-25 07:00N 29°56' E 122°19'127450.6
2017-Jul-25 07:00N 30°01' E 122°05'453816263.4
2017-Jul-25 07:00N 37°33' E 121°23'769922913.3
2017-Jul-25 07:00N 24°53' E 119°02'3231162173.0
2017-Jul-25 07:00N 23°02' E 113°31'658197523.7
2017-Jul-25 07:00N 31°33' E 121°18'10625516.7
2017-Jul-25 07:00N 29°54' E 122°02'6152214871.1
2017-Jul-25 07:00N 22°59' E 113°34'1063255095.0
2017-Jul-25 06:59N 39°56' E 119°39'106575193.5
2017-Jul-25 06:59N 22°56' E 113°36'66288325.0
2017-Jul-25 06:58N 31°19' E 121°41'881861.2
2017-Jul-25 06:55N 29°53' E 122°03'1061.4
2017-Jul-25 06:46N 29°58' E 121°53'1142.9
2017-Jul-25 06:31N 30°01' E 122°05'9080587.3
2017-Jul-25 06:30N 31°25' E 121°31'4461607365.6
2017-Jul-25 06:30N 24°32' E 118°19'3781360003.8
2017-Jul-25 06:30N 29°54' E 122°02'10663791.9
2017-Jul-25 06:30N 31°33' E 121°18'110394801.6
2017-Jul-25 06:30N 29°56' E 122°19'40897822.6
2017-Jul-25 06:30N 24°26' E 117°50'250449964.0
2017-Jul-25 06:30N 22°59' E 113°34'963266587.6
2017-Jul-25 06:30N 37°33' E 121°23'16523696.0
2017-Jul-25 06:29N 39°56' E 119°39'1062238847.9
2017-Jul-25 06:29N 23°02' E 113°31'106236083.4
2017-Jul-25 06:27N 39°56' E 119°42'60956202.8
2017-Jul-25 06:27N 29°56' E 121°51'56325988.6
2017-Jul-25 06:25N 38°53' E 118°25'4818372.5
2017-Jul-25 06:22N 31°19' E 121°41'6627406.1
2017-Jul-25 06:17N 22°56' E 113°36'61610766.4
2017-Jul-25 06:13N 29°53' E 122°03'735.4
2017-Jul-25 06:01N 30°01' E 122°05'453816274.1
2017-Jul-25 06:00N 37°33' E 121°23'7961433143.4
2017-Jul-25 06:00N 24°32' E 118°19'3881396938.9
2017-Jul-25 06:00N 29°56' E 122°19'4081467372.9
2017-Jul-25 06:00N 24°26' E 117°50'397158749.2
2017-Jul-25 06:00N 29°54' E 122°02'106069.1
2017-Jul-25 06:00N 29°56' E 121°51'611104658.3
2017-Jul-25 06:00N 23°02' E 113°31'4571.7
2017-Jul-25 05:59N 22°59' E 113°34'66123810.6
2017-Jul-25 05:58N 31°19' E 121°41'48112650.5
2017-Jul-25 05:55N 38°53' E 118°25'569136544.7
2017-Jul-25 05:55N 29°53' E 122°03'6149688.2
2017-Jul-25 05:51N 39°56' E 119°42'230.0
2017-Jul-25 05:47N 39°56' E 119°39'106556394.0
2017-Jul-25 05:46N 22°56' E 113°36'6592514.8
2017-Jul-25 05:31N 31°33' E 121°18'100180756.3
2017-Jul-25 05:30N 29°56' E 121°51'375450209.8
2017-Jul-25 05:30N 24°32' E 118°19'2747822.3
2017-Jul-25 05:30N 24°26' E 117°50'250899898.1
2017-Jul-25 05:30N 22°59' E 113°34'662340550.1
2017-Jul-25 05:30N 31°21' E 121°40'9119175.7
2017-Jul-25 05:30N 29°56' E 122°19'139214.0
2017-Jul-25 05:30N 29°54' E 122°04'71054.1
2017-Jul-25 05:30N 30°01' E 122°05'622140052.6
2017-Jul-25 05:29N 23°02' E 113°31'66225072.0
2017-Jul-25 05:28N 31°19' E 121°41'52617054.8
2017-Jul-25 05:26N 39°56' E 119°39'8512688.0
2017-Jul-25 05:25N 38°53' E 118°25'98823721.9
2017-Jul-25 05:23N 22°56' E 113°36'6169727.0
2017-Jul-25 05:19N 29°53' E 122°03'1533220.2
2017-Jul-25 05:16N 32°04' E 120°30'47330985.4
2017-Jul-25 05:15N 39°56' E 119°42'5282127.3
2017-Jul-25 05:00N 31°17' E 121°44'460828807.9
2017-Jul-25 05:00N 24°26' E 117°50'808484600.9
2017-Jul-25 05:00N 37°33' E 121°23'796238857.2
2017-Jul-25 05:00N 24°32' E 118°19'276199040.5
2017-Jul-25 05:00N 22°59' E 113°34'42066.7
2017-Jul-25 05:00N 23°02' E 113°31'62237980.1
2017-Jul-25 04:59N 30°01' E 122°05'122638.3
2017-Jul-25 04:59N 29°56' E 122°19'121862.3
2017-Jul-25 04:58N 29°54' E 122°05'121723.7
2017-Jul-25 04:58N 29°56' E 121°51'60975583.1
2017-Jul-25 04:57N 39°56' E 119°42'278.1
2017-Jul-25 04:56N 39°56' E 119°39'61453888.3
2017-Jul-25 04:55N 29°53' E 122°03'887191.3
2017-Jul-25 04:54N 31°19' E 121°41'66216112.4
2017-Jul-25 04:52N 22°56' E 113°36'681986744.9
2017-Jul-25 04:47N 33°37' W 117°55'599294615.4
2017-Jul-25 04:43N 38°53' E 118°25'5702649.8
2017-Jul-25 04:30N 29°56' E 122°19'388698478.4
2017-Jul-25 04:30N 24°32' E 118°19'380114095.1
2017-Jul-25 04:30N 29°54' E 122°06'460827622.2
2017-Jul-25 04:30N 37°33' E 121°23'4531632526.7
2017-Jul-25 04:30N 30°01' E 122°05'10151831.4
2017-Jul-25 04:30N 31°33' E 121°18'4641672098.5
2017-Jul-25 04:30N 24°26' E 117°50'39440517.9
2017-Jul-25 04:29N 29°56' E 121°51'61081312.4
2017-Jul-25 04:29N 22°59' E 113°34'4215.9
2017-Jul-25 04:28N 23°02' E 113°31'1062106243.2
2017-Jul-25 04:27N 39°56' E 119°42'22385.2
2017-Jul-25 04:27N 39°56' E 119°39'106538351.1
2017-Jul-25 04:26N 22°56' E 113°36'616100812.3
2017-Jul-25 04:25N 29°53' E 122°03'88742.7
2017-Jul-25 04:18N 31°19' E 121°41'23488.1
2017-Jul-25 04:15N 31°31' E 121°18'37150.7
2017-Jul-25 04:00N 31°09' E 121°53'4401584248.3
2017-Jul-25 04:00N 24°32' E 118°19'3801368780.4
2017-Jul-25 04:00N 29°54' E 122°06'10748087.0
2017-Jul-25 04:00N 31°33' E 121°18'360259193.9
2017-Jul-25 04:00N 37°33' E 121°23'808323064.9
2017-Jul-25 04:00N 24°26' E 117°50'250449949.0
2017-Jul-25 04:00N 22°59' E 113°34'622111916.9
2017-Jul-25 04:00N 30°01' E 122°05'62246683.9
2017-Jul-25 03:59N 23°02' E 113°31'658118461.2
2017-Jul-25 03:59N 31°31' E 121°19'10810770.0
2017-Jul-25 03:58N 29°56' E 122°19'61359673.5
2017-Jul-25 03:57N 39°56' E 119°42'27188.2
2017-Jul-25 03:57N 39°56' E 119°39'609199297.8
2017-Jul-25 03:57N 29°56' E 121°51'8317633.4
2017-Jul-25 03:57N 31°19' E 121°41'882984.9
2017-Jul-25 03:55N 29°53' E 122°03'6167647.8
2017-Jul-25 03:50N 22°56' E 113°36'6592001.8
2017-Jul-25 03:31N 31°33' E 121°18'449808411.8
2017-Jul-25 03:30N 24°32' E 118°19'276199040.5
2017-Jul-25 03:30N 22°59' E 113°34'659593249.9
2017-Jul-25 03:30N 31°33' E 121°19'10145254.1
2017-Jul-25 03:30N 30°01' E 122°05'453544175.6
2017-Jul-25 03:30N 37°33' E 121°23'3881395150.5
2017-Jul-25 03:30N 31°06' E 121°59'66353033.1
2017-Jul-25 03:29N 23°02' E 113°31'61833179.4
2017-Jul-25 03:28N 29°54' E 122°05'39837723.7
2017-Jul-25 03:28N 24°26' E 117°50'935210338.5
2017-Jul-25 03:27N 39°56' E 119°42'21745.2
2017-Jul-25 03:27N 39°56' E 119°39'52651174.8
2017-Jul-25 03:27N 31°19' E 121°41'895526.7
2017-Jul-25 03:26N 29°56' E 122°19'62987047.4
2017-Jul-25 03:25N 22°56' E 113°36'616277217.8
2017-Jul-25 03:25N 29°53' E 122°03'10935.3
2017-Jul-25 03:24N 29°56' E 121°51'37514074.8
2017-Jul-25 03:23N 24°33' E 118°17'2 4.4
2017-Jul-25 03:01N 24°32' E 118°19'279250816.7
2017-Jul-25 03:00N 23°02' E 113°31'658790060.3
2017-Jul-25 03:00N 31°33' E 121°18'10190704.9
2017-Jul-25 03:00N 30°01' E 122°05'64230294.5
2017-Jul-25 03:00N 31°05' E 122°04'390200391.5
2017-Jul-25 03:00N 37°33' E 121°23'7962864864.2
2017-Jul-25 03:00N 24°33' E 118°17'2513022.6
2017-Jul-25 03:00N 24°26' E 117°50'46746706.3
2017-Jul-25 02:59N 31°36' E 121°17'61071374164.8
2017-Jul-25 02:59N 33°37' W 117°55'6127393853.7
2017-Jul-25 02:58N 29°54' E 122°05'121936.9
2017-Jul-25 02:58N 29°56' E 122°19'61373591.9
2017-Jul-25 02:57N 39°56' E 119°42'23490.5
2017-Jul-25 02:57N 39°56' E 119°39'1065147509.5
2017-Jul-25 02:57N 22°56' E 113°36'66276926.6
2017-Jul-25 02:56N 31°19' E 121°41'884109.0
2017-Jul-25 02:55N 29°53' E 122°03'102089.0
2017-Jul-25 02:55N 29°56' E 121°51'147847.9
2017-Jul-25 02:44N 31°57' E 120°12'61264.9
2017-Jul-25 02:31N 31°33' E 121°18'449404205.9
2017-Jul-25 02:30N 24°32' E 118°19'385126024.9
2017-Jul-25 02:30N 30°01' E 122°05'622186528.2
2017-Jul-25 02:30N 22°59' E 113°34'963693127.6
2017-Jul-25 02:30N 37°33' E 121°23'3931413258.6
2017-Jul-25 02:30N 31°02' E 122°10'68122261.4
2017-Jul-25 02:30N 29°54' E 122°05'61261575375.8
2017-Jul-25 02:30N 33°37' W 117°55'68211292369.6
2017-Jul-25 02:29N 23°02' E 113°31'25215387.8
2017-Jul-25 02:28N 24°26' E 117°50'2498384.7
2017-Jul-25 02:27N 22°56' E 113°36'662183440.4
2017-Jul-25 02:26N 31°19' E 121°41'8450402.2
2017-Jul-25 02:26N 31°57' E 120°13'16212134.7
2017-Jul-25 02:25N 29°56' E 122°19'245392.9
2017-Jul-25 02:25N 29°57' E 121°51'6099487.6
2017-Jul-25 02:21N 39°56' E 119°42'21396.2
2017-Jul-25 02:21N 39°56' E 119°39'6134551.9
2017-Jul-25 02:13N 29°54' E 122°01'1158472.2
2017-Jul-25 02:12N 31°41' E 121°11'2 9.4
2017-Jul-25 02:01N 31°42' E 121°09'455409320.3
2017-Jul-25 02:00N 24°32' E 118°19'276248800.6
2017-Jul-25 02:00N 22°59' E 113°34'622203485.3
2017-Jul-25 02:00N 30°01' E 122°05'45390695.9
2017-Jul-25 02:00N 37°33' E 121°23'808290771.1
2017-Jul-25 02:00N 24°26' E 117°50'46464314.7
2017-Jul-25 01:59N 31°33' E 121°18'6581185099.1
2017-Jul-25 01:59N 23°02' E 113°31'617222286.4
2017-Jul-25 01:59N 29°54' E 122°05'617222213.0
2017-Jul-25 01:59N 22°56' E 113°37'66642041.3
2017-Jul-25 01:58N 30°57' E 122°13'55252332.4
2017-Jul-25 01:57N 39°56' E 119°42'609182655.6
2017-Jul-25 01:57N 29°56' E 121°51'835550.9
2017-Jul-25 01:56N 31°19' E 121°41'52694671.9
2017-Jul-25 01:56N 39°56' E 119°39'61424816.0
2017-Jul-25 01:54N 29°56' E 122°19'1618149.8
2017-Jul-25 01:53N 31°57' E 120°14'59156.0
2017-Jul-25 01:31N 31°33' E 121°18'449404205.9
2017-Jul-25 01:30N 24°32' E 118°19'385173281.9
2017-Jul-25 01:30N 30°01' E 122°05'453272091.4
2017-Jul-25 01:30N 37°33' E 121°23'401288951.7
2017-Jul-25 01:30N 30°54' E 122°14'6116821.4
2017-Jul-25 01:30N 29°53' E 122°04'39875354.7
2017-Jul-25 01:30N 24°26' E 117°50'4071465754.3
2017-Jul-25 01:30N 29°55' E 122°20'628161452.0
2017-Jul-25 01:29N 22°59' E 113°34'41808.4
2017-Jul-25 01:29N 23°02' E 113°31'8694.7
2017-Jul-25 01:29N 22°56' E 113°36'106653306.5
2017-Jul-25 01:27N 39°56' E 119°42'281.3
2017-Jul-25 01:26N 39°56' E 119°39'48013602.8
2017-Jul-25 01:24N 31°57' E 120°16'1462024.9
2017-Jul-25 01:19N 29°56' E 121°51'831985.9
2017-Jul-25 01:17N 31°19' E 121°41'42151.1
2017-Jul-25 01:00N 30°49' E 122°15'4311552105.3
2017-Jul-25 01:00N 24°32' E 118°19'449808411.8
2017-Jul-25 01:00N 31°33' E 121°18'658215474.1
2017-Jul-25 01:00N 23°02' E 113°31'41204.5
2017-Jul-25 01:00N 22°59' E 113°34'628753442.8
2017-Jul-25 01:00N 29°55' E 122°20'1416761.7
2017-Jul-25 01:00N 29°53' E 122°04'712999.0
2017-Jul-25 01:00N 30°01' E 122°05'453326505.3
2017-Jul-25 01:00N 37°33' E 121°23'45716445.2
2017-Jul-25 00:58N 29°56' E 121°51'611169073.7
2017-Jul-25 00:58N 22°56' E 113°36'1066112884.2
2017-Jul-25 00:57N 39°56' E 119°42'216.0
2017-Jul-25 00:50N 39°56' E 119°39'93415943.6
2017-Jul-25 00:46N 24°26' E 117°50'4613101.2
2017-Jul-25 00:37N 31°19' E 121°41'4443818.4
2017-Jul-25 00:31N 24°32' E 118°19'4491616823.7
2017-Jul-25 00:30N 31°33' E 121°18'3601295969.3
2017-Jul-25 00:30N 37°33' E 121°23'963693143.3
2017-Jul-25 00:30N 22°59' E 113°34'1063765361.4
2017-Jul-25 00:30N 39°56' E 119°39'615369128.3
2017-Jul-25 00:30N 29°55' E 122°20'143142.8
2017-Jul-25 00:30N 29°53' E 122°04'539469.5
2017-Jul-25 00:30N 30°45' E 122°15'446133818.4
2017-Jul-25 00:29N 24°26' E 117°50'394177270.6
2017-Jul-25 00:29N 29°56' E 121°51'838329.8
2017-Jul-25 00:29N 31°19' E 121°41'52624264.9
2017-Jul-25 00:27N 39°56' E 119°42'106671076.4
2017-Jul-25 00:26N 22°56' E 113°36'276636.8
2017-Jul-25 00:01N 24°32' E 118°19'796409466.5
2017-Jul-25 00:00N 37°33' E 121°23'414248180.8
2017-Jul-25 00:00N 30°41' E 122°15'4987859.3
2017-Jul-25 00:00N 29°53' E 122°04'115854.6
2017-Jul-25 00:00N 29°56' E 121°51'611157006.0
2017-Jul-25 00:00N 22°56' E 113°36'628161609.7
2017-Jul-25 00:00N 29°55' E 122°20'11157296.0
2017-Jul-25 00:00N 31°33' E 121°18'241405.2
2017-Jul-24 23:59N 31°19' E 121°41'52626657.3
2017-Jul-24 23:57N 39°56' E 119°42'2893.7
2017-Jul-24 23:57N 39°56' E 119°39'1062477736.7
2017-Jul-24 23:57N 23°02' E 113°31'4620.3
2017-Jul-24 23:57N 22°59' E 113°34'2508335.6
2017-Jul-24 23:55N 24°26' E 117°50'2765.0
2017-Jul-24 23:30N 24°32' E 118°19'276248849.1
2017-Jul-24 23:30N 22°59' E 113°34'963866434.2
2017-Jul-24 23:30N 37°33' E 121°23'36099689.9
2017-Jul-24 23:30N 31°33' E 121°18'10734985.2
2017-Jul-24 23:30N 29°53' E 122°04'141117.4
2017-Jul-24 23:29N 29°55' E 122°20'628174031.3
2017-Jul-24 23:29N 22°56' E 113°36'8845.2
2017-Jul-24 23:28N 23°02' E 113°31'662793956.6
2017-Jul-24 23:28N 31°19' E 121°41'8324991.3
2017-Jul-24 23:28N 29°56' E 121°51'60944735.2
2017-Jul-24 23:27N 39°56' E 119°42'21430.3
2017-Jul-24 23:27N 39°56' E 119°39'9348899.7
2017-Jul-24 23:21N 24°26' E 117°50'3941153.9
2017-Jul-24 23:00N 29°56' E 121°51'2589649.5
2017-Jul-24 23:00N 29°55' E 122°20'460828314.0
2017-Jul-24 23:00N 37°33' E 121°23'460207223.6
2017-Jul-24 23:00N 29°53' E 122°04'10754976.7
2017-Jul-24 23:00N 31°33' E 121°18'449538941.2
2017-Jul-24 23:00N 24°32' E 118°19'27943622.2
2017-Jul-24 23:00N 23°02' E 113°31'8563.1
2017-Jul-24 22:59N 22°56' E 113°36'106640400.9
2017-Jul-24 22:57N 39°56' E 119°42'21429.9
2017-Jul-24 22:57N 39°56' E 119°39'9345183.5
2017-Jul-24 22:46N 24°26' E 117°50'2507201.9
2017-Jul-24 22:44N 22°59' E 113°34'66127368.5
2017-Jul-24 22:43N 31°19' E 121°41'24115.1
2017-Jul-24 22:31N 31°33' E 121°18'658338609.6
2017-Jul-24 22:30N 23°02' E 113°31'616277306.7
2017-Jul-24 22:30N 29°53' E 122°03'460828891.3
2017-Jul-24 22:30N 37°33' E 121°23'7962866265.8
2017-Jul-24 22:30N 24°32' E 118°19'38742261.3
2017-Jul-24 22:30N 29°55' E 122°20'407122143.2
2017-Jul-24 22:29N 24°26' E 117°50'24974762.5
2017-Jul-24 22:29N 22°56' E 113°36'61133302.4
2017-Jul-24 22:28N 29°56' E 121°51'83149947.6
2017-Jul-24 22:28N 31°19' E 121°41'52637126.2
2017-Jul-24 22:27N 39°56' E 119°39'1063273344.8
2017-Jul-24 22:27N 22°59' E 113°34'106411198.2
2017-Jul-24 22:21N 39°56' E 119°42'5091469.2
2017-Jul-24 22:01N 31°33' E 121°18'658338612.0
2017-Jul-24 22:00N 23°02' E 113°31'44751.7
2017-Jul-24 22:00N 22°59' E 113°34'6281130154.7
2017-Jul-24 22:00N 29°55' E 122°20'460552309.6
2017-Jul-24 22:00N 37°33' E 121°23'46029024.6
2017-Jul-24 21:59N 29°54' E 122°03'37997395.4
2017-Jul-24 21:59N 24°32' E 118°19'37513782.4
2017-Jul-24 21:57N 29°56' E 121°51'609243558.4
2017-Jul-24 21:57N 39°56' E 119°42'21430.3
2017-Jul-24 21:57N 39°56' E 119°39'52613621.9
2017-Jul-24 21:55N 31°19' E 121°41'46157212.0
2017-Jul-24 21:54N 24°26' E 117°50'4286192.4
2017-Jul-24 21:50N 30°28' E 122°07'351863.9
2017-Jul-24 21:49N 29°54' E 121°59'6148700.9
2017-Jul-24 21:45N 22°56' E 113°36'6592744.6
2017-Jul-24 21:31N 31°33' E 121°18'111133737.0
2017-Jul-24 21:30N 29°55' E 122°20'3871394302.9
2017-Jul-24 21:30N 24°32' E 118°19'279501655.5
2017-Jul-24 21:30N 23°02' E 113°31'962164885.2
2017-Jul-24 21:30N 37°33' E 121°23'46033816.2
2017-Jul-24 21:29N 29°54' E 122°03'117693.7
2017-Jul-24 21:29N 29°56' E 121°51'61140702.9
2017-Jul-24 21:28N 22°56' E 113°36'4398.4
2017-Jul-24 21:28N 22°59' E 113°34'1064191488.4
2017-Jul-24 21:27N 39°56' E 119°42'2794.6
2017-Jul-24 21:27N 39°56' E 119°39'61317504.5
2017-Jul-24 21:25N 29°54' E 121°59'3963923.7
2017-Jul-24 21:19N 24°26' E 117°50'4714462.2
2017-Jul-24 21:13N 31°58' E 120°20'791595.6
2017-Jul-24 21:10N 31°19' E 121°41'24154.4
2017-Jul-24 21:01N 31°33' E 121°18'658474056.8
2017-Jul-24 21:00N 23°02' E 113°31'6291131439.7
2017-Jul-24 21:00N 29°55' E 122°20'1410387.4
2017-Jul-24 21:00N 29°53' E 122°03'378113446.0
2017-Jul-24 21:00N 24°32' E 118°19'796358288.5
2017-Jul-24 21:00N 37°33' E 121°23'965150987.0
2017-Jul-24 21:00N 22°56' E 113°36'24981559.1
2017-Jul-24 20:59N 24°26' E 117°50'25021429.9
2017-Jul-24 20:59N 22°59' E 113°34'66139682.5
2017-Jul-24 20:58N 31°19' E 121°41'52686029.3
2017-Jul-24 20:57N 39°56' E 119°42'21787.9
2017-Jul-24 20:57N 39°56' E 119°39'6134618.5
2017-Jul-24 20:49N 29°54' E 122°00'152899.5
2017-Jul-24 20:39N 31°56' E 120°15'58403.7
2017-Jul-24 20:31N 31°33' E 121°18'449538941.2
2017-Jul-24 20:30N 24°32' E 118°19'444319982.0
2017-Jul-24 20:30N 31°19' E 121°41'91109020.4
2017-Jul-24 20:30N 29°55' E 122°20'1513084.6
2017-Jul-24 20:30N 29°54' E 122°03'617185019.4
2017-Jul-24 20:30N 23°02' E 113°31'962346257.0
2017-Jul-24 20:30N 37°33' E 121°23'96591386.4
2017-Jul-24 20:29N 22°56' E 113°36'64441422.7
2017-Jul-24 20:28N 31°56' E 120°14'14652447.4
2017-Jul-24 20:28N 29°56' E 121°51'39467530.8
2017-Jul-24 20:28N 24°26' E 117°50'935124648.4
2017-Jul-24 20:27N 39°56' E 119°42'2893.9
2017-Jul-24 20:27N 39°56' E 119°39'6144620.5
2017-Jul-24 20:19N 29°54' E 122°05'107341.5
2017-Jul-24 20:01N 31°33' E 121°18'111100326.5
2017-Jul-24 20:00N 29°55' E 122°20'3871394213.9
2017-Jul-24 20:00N 24°32' E 118°19'4441599909.8
2017-Jul-24 20:00N 31°19' E 121°41'4611659167.6
2017-Jul-24 20:00N 24°26' E 117°50'397715419.8
2017-Jul-24 20:00N 29°54' E 122°03'115556.2
2017-Jul-24 20:00N 29°56' E 121°51'457822259.1
2017-Jul-24 20:00N 37°33' E 121°23'96276946.0
2017-Jul-24 19:59N 23°02' E 113°31'8370.5
2017-Jul-24 19:58N 22°56' E 113°36'106672416.7
2017-Jul-24 19:57N 39°56' E 119°42'2893.9
2017-Jul-24 19:57N 39°56' E 119°39'61318398.4
2017-Jul-24 19:55N 29°55' E 122°07'15818984.1
2017-Jul-24 19:55N 31°56' E 120°09'6401583.6
2017-Jul-24 19:30N 23°02' E 113°31'279501651.8
2017-Jul-24 19:30N 24°32' E 118°19'2747740.2
2017-Jul-24 19:30N 24°26' E 117°50'461207395.9
2017-Jul-24 19:30N 31°19' E 121°41'244761.4
2017-Jul-24 19:30N 31°33' E 121°18'360647984.7
2017-Jul-24 19:30N 37°33' E 121°23'4611657920.7
2017-Jul-24 19:30N 29°53' E 122°03'61669288.8
2017-Jul-24 19:29N 22°59' E 113°34'61830910.5
2017-Jul-24 19:28N 29°52' E 122°08'1518457.7
2017-Jul-24 19:28N 29°56' E 121°51'2511209.9
2017-Jul-24 19:28N 29°55' E 122°20'61550345.8
2017-Jul-24 19:27N 39°56' E 119°39'220.2
2017-Jul-24 19:21N 39°56' E 119°42'5091465.7
2017-Jul-24 19:01N 31°33' E 121°18'360431997.0
2017-Jul-24 19:00N 37°33' E 121°23'7961433143.4
2017-Jul-24 19:00N 24°32' E 118°19'387126749.9
2017-Jul-24 19:00N 29°55' E 122°20'628173861.5
2017-Jul-24 19:00N 22°59' E 113°34'4269.4
2017-Jul-24 18:59N 23°02' E 113°31'61253700.3
2017-Jul-24 18:58N 29°57' E 121°52'60831728.8
2017-Jul-24 18:57N 39°56' E 119°42'22383.9
2017-Jul-24 18:57N 39°56' E 119°39'526236679.7
2017-Jul-24 18:57N 31°19' E 121°41'921134.9
2017-Jul-24 18:52N 29°49' E 122°05'111305.0
2017-Jul-24 18:30N 31°33' E 121°18'3601295969.3
2017-Jul-24 18:30N 37°33' E 121°23'9631732858.4
2017-Jul-24 18:30N 22°59' E 113°34'41192.2
2017-Jul-24 18:30N 23°02' E 113°31'2791003274.1
2017-Jul-24 18:30N 24°32' E 118°19'378681165.7
2017-Jul-24 18:30N 29°53' E 122°04'7214.9
2017-Jul-24 18:28N 29°47' E 122°02'62041322.5
2017-Jul-24 18:27N 39°56' E 119°42'21191.9
2017-Jul-24 18:27N 39°56' E 119°39'5268889.4
2017-Jul-24 18:24N 31°19' E 121°41'832324.1
2017-Jul-24 18:22N 29°56' E 121°51'253449.5
2017-Jul-24 18:21N 29°55' E 122°20'407488446.8
2017-Jul-24 18:21N 24°26' E 117°50'4641356.2
2017-Jul-24 18:01N 31°33' E 121°18'100361545.0
2017-Jul-24 18:00N 29°56' E 121°51'6112197952.0
2017-Jul-24 18:00N 23°02' E 113°31'42411.1
2017-Jul-24 18:00N 22°59' E 113°34'963866409.6
2017-Jul-24 18:00N 37°33' E 121°23'9651736360.2
2017-Jul-24 18:00N 22°56' E 113°36'27699235.6
2017-Jul-24 18:00N 24°32' E 118°19'37864872.9
2017-Jul-24 18:00N 29°53' E 122°04'398715842.7
2017-Jul-24 18:00N 24°26' E 117°50'407366335.0
2017-Jul-24 18:00N 29°55' E 122°20'61515929.8
2017-Jul-24 17:57N 39°56' E 119°42'21021.7
2017-Jul-24 17:57N 39°56' E 119°39'52678893.2
2017-Jul-24 17:57N 31°19' E 121°41'2454.4
2017-Jul-24 17:31N 31°33' E 121°18'100120515.0
2017-Jul-24 17:30N 29°56' E 121°51'375450248.2
2017-Jul-24 17:30N 24°32' E 118°19'2748095.3
2017-Jul-24 17:30N 24°26' E 117°50'250449688.7
2017-Jul-24 17:30N 22°59' E 113°34'963385070.9
2017-Jul-24 17:30N 37°33' E 121°23'962692498.1
2017-Jul-24 17:30N 23°02' E 113°31'617555241.5
2017-Jul-24 17:30N 29°53' E 122°04'61746265.0
2017-Jul-24 17:29N 22°56' E 113°36'628161578.6
2017-Jul-24 17:29N 29°55' E 122°20'61521707.5
2017-Jul-24 17:27N 39°56' E 119°42'21021.7
2017-Jul-24 17:27N 39°56' E 119°39'49441376.1
2017-Jul-24 17:27N 31°46' E 121°03'42905.1
2017-Jul-24 17:24N 31°19' E 121°41'95758.2
2017-Jul-24 17:16N 29°46' E 122°00'113430.9
2017-Jul-24 17:01N 31°33' E 121°18'449538941.2
2017-Jul-24 17:00N 24°32' E 118°19'796204733.3
2017-Jul-24 17:00N 37°33' E 121°23'963315058.0
2017-Jul-24 17:00N 22°59' E 113°34'41846.0
2017-Jul-24 17:00N 22°56' E 113°36'628174007.8
2017-Jul-24 17:00N 29°55' E 122°20'9165450.1
2017-Jul-24 17:00N 31°19' E 121°41'8814418.7
2017-Jul-24 16:59N 29°53' E 122°04'398130189.7
2017-Jul-24 16:59N 24°26' E 117°50'39494587.2
2017-Jul-24 16:59N 29°57' E 121°51'131370.1
2017-Jul-24 16:58N 29°46' E 122°00'12750891.4
2017-Jul-24 16:58N 31°45' E 121°06'66154086.4
2017-Jul-24 16:57N 23°02' E 113°31'10623824754.2
2017-Jul-24 16:57N 39°56' E 119°42'21430.3
2017-Jul-24 16:57N 39°56' E 119°39'5091143.4
2017-Jul-24 16:31N 31°33' E 121°18'449404205.9
2017-Jul-24 16:30N 24°32' E 118°19'2732128.9
2017-Jul-24 16:30N 24°26' E 117°50'250299728.2
2017-Jul-24 16:30N 22°59' E 113°34'963266587.6
2017-Jul-24 16:30N 37°33' E 121°23'962314771.9
2017-Jul-24 16:30N 23°02' E 113°31'629125710.7
2017-Jul-24 16:30N 29°55' E 122°20'1412518.5
2017-Jul-24 16:30N 29°53' E 122°04'127114.4
2017-Jul-24 16:29N 29°57' E 121°51'61066576.0
2017-Jul-24 16:29N 22°56' E 113°36'106371367653.9
2017-Jul-24 16:28N 27°51' W 082°34'10659128339.8
2017-Jul-24 16:23N 31°19' E 121°41'2462.2
2017-Jul-24 16:01N 31°33' E 121°18'36086398.0
2017-Jul-24 16:00N 37°33' E 121°23'9653472740.4
2017-Jul-24 16:00N 22°56' E 113°36'628323175.1
2017-Jul-24 16:00N 29°55' E 122°20'387697151.4
2017-Jul-24 16:00N 24°32' E 118°19'2796206.3
2017-Jul-24 16:00N 24°26' E 117°50'252113415.8
2017-Jul-24 16:00N 23°02' E 113°31'617740322.0
2017-Jul-24 16:00N 29°53' E 122°04'616201670.0
2017-Jul-24 16:00N 22°59' E 113°34'610156746.4
2017-Jul-24 15:59N 29°57' E 121°51'1095663.2
2017-Jul-24 15:58N 31°40' E 121°13'121599.0
2017-Jul-24 15:46N 29°46' E 122°00'11340.8
2017-Jul-24 13:01N 31°33' E 121°18'449538941.2
2017-Jul-24 13:00N 24°32' E 118°19'796716566.4
2017-Jul-24 13:00N 37°33' E 121°23'965434085.3
2017-Jul-24 13:00N 22°56' E 113°36'6632386993.3
2017-Jul-24 13:00N 31°37' E 121°18'10575284.0
2017-Jul-24 13:00N 29°56' E 121°51'489135485.7
2017-Jul-24 13:00N 38°02' E 120°39'497198777.9
2017-Jul-24 13:00N 29°51' E 122°11'62055788.2
2017-Jul-24 12:59N 23°02' E 113°31'42378.0
2017-Jul-24 12:59N 22°59' E 113°34'616443705.6
2017-Jul-24 12:59N 29°53' E 122°04'8757.5
2017-Jul-24 12:58N 29°46' E 122°00'997724.1
2017-Jul-24 12:58N 31°22' E 121°36'462237509.5
2017-Jul-24 12:57N 24°26' E 117°50'4663167.4
2017-Jul-24 12:49N 31°56' E 120°10'63207.7
2017-Jul-24 12:31N 31°33' E 121°18'111200591.8
2017-Jul-24 12:30N 29°51' E 122°11'6201115763.9
2017-Jul-24 12:30N 23°02' E 113°31'662476625.1
2017-Jul-24 12:30N 31°37' E 121°18'356426700.4
2017-Jul-24 12:30N 37°33' E 121°23'796238855.5
2017-Jul-24 12:30N 24°32' E 118°19'378136235.0
2017-Jul-24 12:30N 29°53' E 122°04'9549020.2
2017-Jul-24 12:30N 31°25' E 121°32'660339434.9
2017-Jul-24 12:30N 22°59' E 113°34'61081298.0
2017-Jul-24 12:29N 29°57' E 121°51'6102197320.3
2017-Jul-24 12:29N 22°56' E 113°36'2493767.6
2017-Jul-24 12:25N 24°26' E 117°50'3917617.4
2017-Jul-24 12:22N 29°47' E 122°02'6202348.4
2017-Jul-24 12:06N 39°56' E 119°42'6176313.4
2017-Jul-24 12:00N 29°51' E 122°11'11180245.3
2017-Jul-24 12:00N 31°33' E 121°18'6581184985.5
2017-Jul-24 12:00N 22°59' E 113°34'963385081.9
2017-Jul-24 12:00N 37°33' E 121°23'398219.9
2017-Jul-24 12:00N 38°00' E 120°49'818294581.0
2017-Jul-24 12:00N 24°32' E 118°19'27632005.8
2017-Jul-24 11:59N 22°56' E 113°36'6612379835.7
2017-Jul-24 11:59N 31°28' E 121°27'46343902.6
2017-Jul-24 11:59N 24°26' E 117°50'398715898.1
2017-Jul-24 11:59N 29°53' E 122°04'617277629.9
2017-Jul-24 11:58N 23°02' E 113°31'61511018.7
2017-Jul-24 11:55N 29°50' E 122°05'111270.7
2017-Jul-24 11:31N 31°33' E 121°18'360431989.8
2017-Jul-24 11:30N 37°33' E 121°23'7961433132.9
2017-Jul-24 11:30N 24°32' E 118°19'379170764.6
2017-Jul-24 11:30N 29°51' E 122°11'67573.0
2017-Jul-24 11:30N 29°53' E 122°04'104124425.5
2017-Jul-24 11:30N 31°31' E 121°23'661132195.2
2017-Jul-24 11:30N 22°56' E 113°36'24999631.6
2017-Jul-24 11:30N 24°26' E 117°50'250299864.1
2017-Jul-24 11:30N 22°59' E 113°34'61014343.6
2017-Jul-24 11:27N 29°57' E 121°51'16190.5
2017-Jul-24 11:22N 29°53' E 122°08'6159581.0
2017-Jul-24 11:18N 39°56' E 119°42'219.4
2017-Jul-24 11:12N 39°56' E 119°39'9264701.6
2017-Jul-24 11:00N 24°32' E 118°19'378340582.9
2017-Jul-24 11:00N 29°53' E 122°04'6142209612.9
2017-Jul-24 11:00N 39°56' E 119°42'508457080.9
2017-Jul-24 11:00N 31°34' E 121°18'508914443.9
2017-Jul-24 11:00N 39°56' E 119°39'509366816.8
2017-Jul-24 11:00N 31°33' E 121°18'360647995.5
2017-Jul-24 11:00N 37°33' E 121°23'96282443.1
2017-Jul-24 10:59N 23°02' E 113°31'42851.0
2017-Jul-24 10:59N 22°59' E 113°34'42188.1
2017-Jul-24 10:59N 22°56' E 113°36'2494290.4
2017-Jul-24 10:56N 24°26' E 117°50'39937830.3
2017-Jul-24 10:55N 29°54' E 122°06'1343.9
2017-Jul-24 10:37N 29°57' E 121°51'19163.0
2017-Jul-24 10:30N 29°53' E 122°12'616554015.6
2017-Jul-24 10:30N 39°56' E 119°42'926196156.7
2017-Jul-24 10:30N 24°32' E 118°19'796955421.9
2017-Jul-24 10:30N 37°33' E 121°23'9633465736.7
2017-Jul-24 10:30N 22°59' E 113°34'6611189157.8
2017-Jul-24 10:30N 31°38' E 121°14'11368044.2
2017-Jul-24 10:30N 29°53' E 122°04'10721381.0
2017-Jul-24 10:30N 31°33' E 121°18'464167208.9
2017-Jul-24 10:29N 24°26' E 117°50'24974723.7
2017-Jul-24 10:29N 22°56' E 113°36'81929.7
2017-Jul-24 10:29N 23°02' E 113°31'61011442.7
2017-Jul-24 10:26N 29°57' E 121°51'100237.8
2017-Jul-24 10:01N 31°33' E 121°18'110132446.4
2017-Jul-24 10:00N 29°54' E 122°16'615553410.5
2017-Jul-24 10:00N 39°56' E 119°42'10621912429.1
2017-Jul-24 10:00N 23°02' E 113°31'617444208.1
2017-Jul-24 10:00N 29°53' E 122°04'378136233.1
2017-Jul-24 10:00N 24°32' E 118°19'796358283.2
2017-Jul-24 10:00N 37°33' E 121°23'808193831.9
2017-Jul-24 10:00N 24°26' E 117°50'24919078.6
2017-Jul-24 09:59N 22°56' E 113°36'6624625.8
2017-Jul-24 09:50N 31°44' E 121°07'1147713.3
2017-Jul-24 09:49N 29°57' E 121°51'3751183.3
2017-Jul-24 09:30N 24°32' E 118°19'926666932.7
2017-Jul-24 09:30N 39°56' E 119°42'614368215.3
2017-Jul-24 09:30N 29°54' E 122°05'10720259.3
2017-Jul-24 09:30N 31°33' E 121°18'360323992.3
2017-Jul-24 09:30N 37°33' E 121°23'45948580.1
2017-Jul-24 09:29N 29°56' E 122°19'40826678.6
2017-Jul-24 09:28N 24°26' E 117°50'250899784.9
2017-Jul-24 09:28N 22°59' E 113°34'1063637804.6
2017-Jul-24 09:28N 39°56' E 119°39'106279622.4
2017-Jul-24 09:27N 23°02' E 113°31'8370.3
2017-Jul-24 09:26N 22°56' E 113°36'6122395.8
2017-Jul-24 09:11N 29°58' E 121°53'99571.9
2017-Jul-24 09:01N 31°33' E 121°18'449404205.9
2017-Jul-24 09:00N 24°32' E 118°19'926555777.2
2017-Jul-24 09:00N 39°56' E 119°42'614441854.1
2017-Jul-24 09:00N 29°54' E 122°05'460828626.9
2017-Jul-24 09:00N 37°33' E 121°23'962150597.8
2017-Jul-24 09:00N 23°01' E 113°32'3369.6
2017-Jul-24 08:59N 22°59' E 113°34'25023678.5
2017-Jul-24 08:59N 24°26' E 117°50'394709238.3
2017-Jul-24 08:59N 29°57' E 121°51'61181411.3
2017-Jul-24 08:58N 22°56' E 113°36'10653835244.0
2017-Jul-24 08:58N 39°56' E 119°39'61414925.0
2017-Jul-24 08:56N 29°56' E 122°19'3185.3
2017-Jul-24 08:34N 30°20' E 121°56'26511.2
2017-Jul-24 08:31N 29°54' E 121°59'37733890.4
2017-Jul-24 08:30N 24°32' E 118°19'449404205.9
2017-Jul-24 08:30N 31°33' E 121°18'5091833529.8
2017-Jul-24 08:30N 39°56' E 119°42'614315613.1
2017-Jul-24 08:30N 29°54' E 122°05'273929.4
2017-Jul-24 08:30N 30°20' E 121°56'434780613.7
2017-Jul-24 08:30N 37°33' E 121°23'965289390.2
2017-Jul-24 08:30N 22°56' E 113°36'24917244.2
2017-Jul-24 08:29N 24°26' E 117°50'820737965.4
2017-Jul-24 08:29N 37°46' E 121°21'97332736.4
2017-Jul-24 08:27N 23°01' E 113°32'106213704.9
2017-Jul-24 08:22N 39°56' E 119°39'60710716.4
2017-Jul-24 08:19N 30°01' E 122°05'1141111.0
2017-Jul-24 08:13N 31°43' E 121°08'6623247.8
2017-Jul-24 08:00N 22°56' E 113°36'276496229.2
2017-Jul-24 08:00N 24°32' E 118°19'385277254.7
2017-Jul-24 08:00N 30°01' E 122°05'622280067.3
2017-Jul-24 08:00N 23°01' E 113°32'617123473.9
2017-Jul-24 08:00N 29°54' E 122°05'398119452.7
2017-Jul-24 08:00N 24°26' E 117°50'250899777.7
2017-Jul-24 08:00N 22°59' E 113°34'658236997.1
2017-Jul-24 08:00N 31°33' E 121°18'371190617.8
2017-Jul-24 07:59N 37°43' E 121°25'36132524.9
2017-Jul-24 07:59N 31°42' E 121°09'4992395.5
2017-Jul-24 07:46N 39°56' E 119°39'6144297.5
2017-Jul-24 07:38N 29°56' E 122°19'61327597.5
2017-Jul-24 07:36N 39°56' E 119°42'9269420.0
2017-Jul-24 07:30N 24°32' E 118°19'796716566.4
2017-Jul-24 07:30N 37°33' E 121°23'9653473180.6
2017-Jul-24 07:30N 22°56' E 113°36'617148190.9
2017-Jul-24 07:30N 29°54' E 122°05'467841416.3
2017-Jul-24 07:30N 37°40' E 121°29'8162937867.6
2017-Jul-24 07:30N 24°26' E 117°50'408293599.4
2017-Jul-24 07:30N 29°56' E 122°19'629377230.4
2017-Jul-24 07:30N 23°01' E 113°32'106239829.5
2017-Jul-24 07:28N 39°56' E 119°39'9261994.9
2017-Jul-24 07:00N 24°32' E 118°19'379123992.0
2017-Jul-24 07:00N 29°54' E 122°05'6171111258.4
2017-Jul-24 07:00N 23°01' E 113°32'658790166.5
2017-Jul-24 07:00N 31°33' E 121°18'464278684.9
2017-Jul-24 07:00N 24°26' E 117°50'80893791.0
2017-Jul-24 07:00N 37°33' E 121°23'96591391.1
2017-Jul-24 06:59N 22°56' E 113°36'97366088.3
2017-Jul-24 06:58N 37°39' E 121°29'46514183.2
2017-Jul-24 06:56N 29°56' E 122°19'171100.9
2017-Jul-24 06:55N 29°54' E 121°59'61245933.1
2017-Jul-24 06:54N 39°56' E 119°42'257.6
2017-Jul-24 06:52N 39°56' E 119°39'6095666.1
2017-Jul-24 06:46N 29°56' E 121°51'6106327.2
2017-Jul-24 06:40N 22°59' E 113°34'6584150.3
2017-Jul-24 06:31N 31°33' E 121°18'464238875.6
2017-Jul-24 06:30N 24°26' E 117°50'398716734.1
2017-Jul-24 06:30N 29°54' E 122°05'617317502.3
2017-Jul-24 06:30N 23°01' E 113°32'9623463749.8
2017-Jul-24 06:30N 37°33' E 121°23'796477714.5
2017-Jul-24 06:30N 24°32' E 118°19'276199040.5
2017-Jul-24 06:30N 22°59' E 113°34'4471.9
2017-Jul-24 06:30N 22°56' E 113°36'629150870.4
2017-Jul-24 06:29N 29°56' E 122°19'61433983.6
2017-Jul-24 06:28N 39°56' E 119°39'1613189.8
2017-Jul-24 06:25N 37°39' E 121°29'8041948.8
2017-Jul-24 06:00N 24°32' E 118°19'276198459.3
2017-Jul-24 06:00N 22°56' E 113°36'9653472980.7
2017-Jul-24 06:00N 37°33' E 121°23'164589680.3
2017-Jul-24 06:00N 39°56' E 119°42'6141104645.8
2017-Jul-24 06:00N 29°54' E 122°05'107384927.5
2017-Jul-24 06:00N 31°33' E 121°18'65855127.5
2017-Jul-24 06:00N 23°01' E 113°32'3339.2
2017-Jul-24 05:59N 22°59' E 113°34'106379726.2
2017-Jul-24 05:58N 39°56' E 119°39'16141468.4
2017-Jul-24 05:58N 37°39' E 121°29'46546487.1
2017-Jul-24 05:57N 29°56' E 122°19'40823674.7
2017-Jul-24 05:56N 24°26' E 117°50'2761.7
2017-Jul-24 05:30N 24°32' E 118°19'2731999.9
2017-Jul-24 05:30N 24°26' E 117°50'4641672149.2
2017-Jul-24 05:30N 31°33' E 121°18'6582369833.6
2017-Jul-24 05:30N 22°59' E 113°34'10643829693.4
2017-Jul-24 05:30N 39°56' E 119°42'1063956617.7
2017-Jul-24 05:30N 23°01' E 113°32'617740834.0
2017-Jul-24 05:30N 29°54' E 122°05'46017263.3
2017-Jul-24 05:29N 37°33' E 121°23'965157851.0
2017-Jul-24 05:28N 22°56' E 113°36'973291872.1
2017-Jul-24 05:28N 37°39' E 121°29'161543.6
2017-Jul-24 05:10N 39°56' E 119°39'60839085.9
2017-Jul-24 05:09N 29°58' E 121°52'3772549.6
2017-Jul-24 05:00N 24°32' E 118°19'449323364.7
2017-Jul-24 05:00N 31°33' E 121°18'10754989.6
2017-Jul-24 05:00N 29°54' E 122°05'460414318.8
2017-Jul-24 05:00N 37°33' E 121°23'808415363.0
2017-Jul-24 05:00N 24°26' E 117°50'24989683.8
2017-Jul-24 05:00N 22°56' E 113°36'4991.2
2017-Jul-24 05:00N 22°59' E 113°34'3216.4
2017-Jul-24 04:59N 23°01' E 113°32'61127479.9
2017-Jul-24 04:58N 29°56' E 121°51'4635023.6
2017-Jul-24 04:52N 37°39' E 121°29'8042231.2
2017-Jul-24 04:30N 24°32' E 118°19'926476380.5
2017-Jul-24 04:30N 39°56' E 119°42'614368215.3
2017-Jul-24 04:30N 29°54' E 122°05'617201839.6
2017-Jul-24 04:30N 22°59' E 113°34'963693127.6
2017-Jul-24 04:30N 37°33' E 121°23'9651736231.5
2017-Jul-24 04:30N 22°56' E 113°36'659395639.8
2017-Jul-24 04:30N 31°33' E 121°18'36712342.6
2017-Jul-24 04:28N 37°39' E 121°29'81536693.8
2017-Jul-24 04:27N 24°26' E 117°50'394283662.8
2017-Jul-24 04:27N 29°56' E 121°51'24271.9
2017-Jul-24 04:21N 29°56' E 122°19'22652.1
2017-Jul-24 04:19N 29°56' E 121°53'6145502.6
2017-Jul-24 04:13N 22°55' E 113°33'10678243.5
2017-Jul-24 04:05N 39°56' E 119°39'92612624.2
2017-Jul-24 04:00N 24°32' E 118°19'2748005.1
2017-Jul-24 04:00N 24°26' E 117°50'9351682694.3
2017-Jul-24 04:00N 39°56' E 119°42'16432761.1
2017-Jul-24 04:00N 37°33' E 121°23'9633465638.2
2017-Jul-24 04:00N 22°59' E 113°34'61733639.9
2017-Jul-24 03:59N 29°54' E 122°05'46731115.9
2017-Jul-24 03:58N 37°39' E 121°29'97185288.8
2017-Jul-24 03:57N 22°58' E 113°38'60816470.6
2017-Jul-24 03:55N 29°57' E 121°51'60912817.9
2017-Jul-24 03:52N 39°56' E 119°39'60911664.0
2017-Jul-24 03:49N 29°56' E 121°51'24209.0
2017-Jul-24 03:42N 29°56' E 122°19'1102546.0
2017-Jul-24 03:40N 31°33' E 121°18'5093250.9
2017-Jul-24 03:30N 39°56' E 119°42'16484242.8
2017-Jul-24 03:30N 37°33' E 121°23'457117463.4
2017-Jul-24 03:30N 29°56' E 121°51'10017215.9
2017-Jul-24 03:30N 31°33' E 121°18'449146984.0
2017-Jul-24 03:29N 24°32' E 118°19'379104916.3
2017-Jul-24 03:29N 29°54' E 122°05'615443121.8
2017-Jul-24 03:29N 22°58' E 113°38'247178102.5
2017-Jul-24 03:29N 24°26' E 117°50'25039111.1
2017-Jul-24 03:29N 22°59' E 113°34'97191983.1
2017-Jul-24 03:28N 37°39' E 121°29'1611682.9
2017-Jul-24 03:22N 39°56' E 119°39'5961665.2
2017-Jul-24 03:01N 30°10' E 121°52'38758113.5
2017-Jul-24 03:00N 24°32' E 118°19'2732003.4
2017-Jul-24 03:00N 24°26' E 117°50'406208772.0
2017-Jul-24 03:00N 30°10' E 121°52'44356973.4
2017-Jul-24 03:00N 37°33' E 121°23'963128357.0
2017-Jul-24 02:59N 22°59' E 113°34'658131657.4
2017-Jul-24 02:59N 31°33' E 121°18'36721649.0
2017-Jul-24 02:58N 37°39' E 121°29'46760008.4
2017-Jul-24 02:58N 29°54' E 122°05'127136.7
2017-Jul-24 02:57N 29°56' E 121°51'609168543.9
2017-Jul-24 02:57N 22°58' E 113°38'106412893.0
2017-Jul-24 02:52N 39°56' E 119°39'212.0
2017-Jul-24 02:42N 39°56' E 119°42'58712276.0
2017-Jul-24 02:39N 30°20' E 121°56'4342885.8
2017-Jul-24 02:30N 37°33' E 121°23'360323992.3
2017-Jul-24 02:30N 31°33' E 121°18'4641672169.2
2017-Jul-24 02:30N 24°26' E 117°50'9353365367.1
2017-Jul-24 02:30N 39°56' E 119°42'587175956.0
2017-Jul-24 02:30N 30°20' E 121°56'627150576.8
2017-Jul-24 02:30N 22°58' E 113°38'274123269.1
2017-Jul-24 02:30N 24°32' E 118°19'37942639.8
2017-Jul-24 02:29N 29°54' E 122°05'2381594.7
2017-Jul-24 02:29N 30°14' E 121°52'622186569.8
2017-Jul-24 02:29N 22°59' E 113°34'106386974.0
2017-Jul-24 02:28N 39°56' E 119°39'1612962.7
2017-Jul-24 02:25N 37°39' E 121°29'46330886.5
2017-Jul-24 02:24N 29°56' E 121°51'24227.2
2017-Jul-24 02:18N 29°56' E 122°19'110379.8
2017-Jul-24 02:01N 31°33' E 121°18'360185138.5
2017-Jul-24 02:00N 37°33' E 121°23'459206596.4
2017-Jul-24 02:00N 29°55' E 122°06'381171274.7
2017-Jul-24 02:00N 24°32' E 118°19'3751350781.6
2017-Jul-24 02:00N 29°56' E 121°51'61021316.6
2017-Jul-24 01:58N 22°59' E 113°34'1063765371.1
2017-Jul-24 01:58N 39°56' E 119°39'16134159.1
2017-Jul-24 01:58N 37°39' E 121°29'815163077.7
2017-Jul-24 01:58N 24°26' E 117°50'24710994.7
2017-Jul-24 01:56N 22°58' E 113°38'62766431.2
2017-Jul-24 01:56N 30°20' E 121°56'311815.4
2017-Jul-24 01:55N 29°56' E 122°19'0 0.0
2017-Jul-24 01:30N 29°56' E 122°19'3881397135.2
2017-Jul-24 01:30N 24°32' E 118°19'2724002.6
2017-Jul-24 01:30N 24°26' E 117°50'9353365388.6
2017-Jul-24 01:30N 39°56' E 119°42'164147424.8
2017-Jul-24 01:30N 37°33' E 121°23'16528227.8
2017-Jul-24 01:30N 39°56' E 119°39'586702883.5
2017-Jul-24 01:30N 30°21' E 121°54'285124.6
2017-Jul-24 01:30N 29°54' E 122°04'10722646.4
2017-Jul-24 01:29N 31°33' E 121°18'797292.8
2017-Jul-24 01:29N 30°21' E 121°56'6281130081.9
2017-Jul-24 01:29N 22°58' E 113°38'971105933.6
2017-Jul-24 01:28N 37°39' E 121°29'4631115.6
2017-Jul-24 01:03N 29°56' E 121°51'60913450.0
2017-Jul-24 01:00N 39°56' E 119°39'10641915477.2
2017-Jul-24 01:00N 22°58' E 113°33'634253648.2
2017-Jul-24 01:00N 30°25' E 121°57'4291543879.7
2017-Jul-24 01:00N 37°33' E 121°23'796477714.5
2017-Jul-24 01:00N 24°32' E 118°19'378194614.7
2017-Jul-24 01:00N 29°53' E 122°04'61549197.9
2017-Jul-24 00:59N 22°58' E 113°38'65822764.1
2017-Jul-24 00:58N 31°33' E 121°18'7912866.6
2017-Jul-24 00:57N 30°21' E 121°55'328834.7
2017-Jul-24 00:57N 29°56' E 122°19'40815785.8
2017-Jul-24 00:55N 24°26' E 117°50'815419339.6
2017-Jul-24 00:55N 37°39' E 121°29'590322923.0
2017-Jul-24 00:40N 33°27' W 117°42'591137732.8
2017-Jul-24 00:30N 37°33' E 121°23'9681161030.4
2017-Jul-24 00:30N 22°54' E 113°34'6202230944.7
2017-Jul-24 00:30N 29°53' E 122°03'289286.6
2017-Jul-24 00:30N 30°21' E 121°55'398477299.0
2017-Jul-24 00:30N 24°32' E 118°19'65291305826.5
2017-Jul-24 00:30N 33°27' W 117°41'5914380187.7
2017-Jul-24 00:29N 39°56' E 119°39'16112097.6
2017-Jul-24 00:28N 37°39' E 121°29'46557691.2
2017-Jul-24 00:28N 29°56' E 122°19'40815957.2
2017-Jul-24 00:26N 24°26' E 117°50'4642584.5
2017-Jul-24 00:15N 31°33' E 121°18'4491814.6
2017-Jul-24 00:00N 24°32' E 118°19'279251082.5
2017-Jul-24 00:00N 22°50' E 113°35'10731930518.7
2017-Jul-24 00:00N 39°56' E 119°42'2716.0
2017-Jul-24 00:00N 39°56' E 119°39'165296303.2
2017-Jul-24 00:00N 37°33' E 121°23'808726880.0
2017-Jul-24 00:00N 24°26' E 117°50'4641672109.3
2017-Jul-24 00:00N 31°33' E 121°18'7414859.5
2017-Jul-24 00:00N 30°31' E 122°07'38136639.2
2017-Jul-24 00:00N 29°54' E 122°03'6143425312.4
2017-Jul-23 23:59N 33°26' W 117°43'6135525821.1
2017-Jul-23 23:58N 30°21' E 121°55'4399299.6
2017-Jul-23 23:55N 37°39' E 121°29'4633706.3
2017-Jul-23 23:48N 29°56' E 121°51'243727.2
2017-Jul-23 23:47N 29°56' E 122°19'6276410.5
2017-Jul-23 23:42N 22°58' E 113°38'6153312.1
2017-Jul-23 23:30N 29°53' E 122°03'614122774.3
2017-Jul-23 23:30N 39°56' E 119°39'9261111122.5
2017-Jul-23 23:30N 24°32' E 118°19'449808422.0
2017-Jul-23 23:30N 31°33' E 121°18'6662399014.4
2017-Jul-23 23:30N 22°47' E 113°38'25245271.3
2017-Jul-23 23:30N 24°26' E 117°50'247127240.9
2017-Jul-23 23:30N 22°58' E 113°38'62762748.7
2017-Jul-23 23:29N 30°21' E 121°55'2011913.3
2017-Jul-23 23:29N 30°35' E 122°11'3923695.6
2017-Jul-23 23:29N 29°56' E 122°19'46535596.7
2017-Jul-23 23:28N 37°39' E 121°29'590335713.3
2017-Jul-23 23:18N 33°27' W 117°42'6151127262.0
2017-Jul-23 23:15N 29°58' E 121°52'2394.4
2017-Jul-23 23:01N 30°21' E 121°55'7925750.5
2017-Jul-23 23:00N 31°33' E 121°18'449124371.1
2017-Jul-23 23:00N 24°32' E 118°19'796358283.2
2017-Jul-23 23:00N 37°33' E 121°23'808193834.7
2017-Jul-23 23:00N 24°26' E 117°50'6558150365.2
2017-Jul-23 22:57N 33°27' W 117°42'6129380430.4
2017-Jul-23 22:56N 29°56' E 122°19'46526556.3
2017-Jul-23 22:55N 37°39' E 121°29'4172369.8
2017-Jul-23 22:45N 30°44' E 122°12'4261813.3
2017-Jul-23 22:30N 24°32' E 118°19'398179007.9
2017-Jul-23 22:30N 30°21' E 121°55'79283255.3
2017-Jul-23 22:30N 31°33' E 121°18'36051838.8
2017-Jul-23 22:30N 37°33' E 121°23'409184082.5
2017-Jul-23 22:30N 30°46' E 122°12'532566.3
2017-Jul-23 22:29N 29°53' E 122°04'398178940.7
2017-Jul-23 22:28N 24°26' E 117°50'815133421.5
2017-Jul-23 22:28N 37°39' E 121°29'97115677.8
2017-Jul-23 22:24N 22°58' E 113°38'659118552.9
2017-Jul-23 22:24N 31°44' E 121°03'1263217.3
2017-Jul-23 22:22N 29°56' E 122°19'4081153.2
2017-Jul-23 22:00N 24°26' E 117°50'808264321.9
2017-Jul-23 22:00N 37°33' E 121°23'796409469.6
2017-Jul-23 22:00N 24°32' E 118°19'4491616823.7
2017-Jul-23 22:00N 31°33' E 121°18'6328153.3
2017-Jul-23 22:00N 30°51' E 122°12'3413476.2
2017-Jul-23 22:00N 30°21' E 121°55'3222922.1
2017-Jul-23 22:00N 29°56' E 122°19'62716117.8
2017-Jul-23 21:57N 22°58' E 113°38'97124620.9
2017-Jul-23 21:55N 37°39' E 121°29'35512639.9
2017-Jul-23 21:53N 31°45' E 121°04'1233259.3
2017-Jul-23 21:51N 29°53' E 122°04'3981154.6
2017-Jul-23 21:30N 24°26' E 117°50'454181512.5
2017-Jul-23 21:30N 30°56' E 122°11'436174312.6
2017-Jul-23 21:30N 24°32' E 118°19'796159237.0
2017-Jul-23 21:30N 37°33' E 121°23'360117815.4
2017-Jul-23 21:30N 31°33' E 121°18'10717492.1
2017-Jul-23 21:29N 29°53' E 122°04'46724007.8
2017-Jul-23 21:28N 37°39' E 121°30'43934366.5
2017-Jul-23 21:27N 30°21' E 121°55'32142.1
2017-Jul-23 21:14N 29°56' E 122°19'4592055.9
2017-Jul-23 21:00N 37°33' E 121°23'808726880.0
2017-Jul-23 21:00N 24°26' E 117°50'416187234.7
2017-Jul-23 21:00N 30°21' E 121°55'4274824.4
2017-Jul-23 21:00N 31°01' E 122°07'438225247.9
2017-Jul-23 21:00N 24°32' E 118°19'80423150.1
2017-Jul-23 20:58N 37°39' E 121°30'46750926.9
2017-Jul-23 20:57N 29°53' E 122°04'378839.5
2017-Jul-23 20:30N 24°32' E 118°19'796955421.9
2017-Jul-23 20:30N 37°33' E 121°23'389350110.9
2017-Jul-23 20:30N 31°05' E 122°00'44159442.0
2017-Jul-23 20:30N 30°21' E 121°55'7947209.2
2017-Jul-23 20:30N 31°33' E 121°18'46446447.5
2017-Jul-23 20:30N 24°26' E 117°50'3982203.1
2017-Jul-23 20:19N 29°53' E 122°04'46710374.1
2017-Jul-23 20:16N 37°39' E 121°30'8404791.1
2017-Jul-23 20:06N 23°58' E 118°05'4855786.9
2017-Jul-23 20:01N 31°33' E 121°18'38138362.6
2017-Jul-23 20:01N 31°09' E 121°53'440527503.7
2017-Jul-23 20:00N 24°32' E 118°19'796318474.0
2017-Jul-23 20:00N 37°33' E 121°23'808290752.0
2017-Jul-23 20:00N 24°26' E 117°50'39827018.4
2017-Jul-23 19:59N 29°53' E 122°04'46723342.1
2017-Jul-23 19:58N 37°39' E 121°30'4632952.0
2017-Jul-23 19:49N 29°56' E 121°51'4083052.1
2017-Jul-23 19:41N 24°02' E 118°06'4313444.0
2017-Jul-23 19:33N 30°21' E 121°55'791803.9
2017-Jul-23 19:31N 31°33' E 121°18'449538941.2
2017-Jul-23 19:30N 24°32' E 118°19'796204733.3
2017-Jul-23 19:30N 37°33' E 121°23'4601657737.2
2017-Jul-23 19:30N 29°53' E 122°04'398159108.4
2017-Jul-23 19:30N 24°26' E 117°50'81524667.2
2017-Jul-23 19:28N 37°39' E 121°30'43916297.9
2017-Jul-23 19:26N 30°21' E 121°55'25377.2
2017-Jul-23 19:23N 29°56' E 121°51'40673040.1
2017-Jul-23 19:22N 24°04' E 118°05'4751310.8
2017-Jul-23 19:00N 31°18' E 121°43'58104645.1
2017-Jul-23 19:00N 30°21' E 121°55'3981432138.4
2017-Jul-23 19:00N 24°32' E 118°19'796220482.0
2017-Jul-23 19:00N 37°33' E 121°23'808726885.3
2017-Jul-23 19:00N 24°26' E 117°50'2280689.2
2017-Jul-23 19:00N 24°09' E 118°06'40527486.7
2017-Jul-23 18:59N 29°53' E 122°04'10776969.1
2017-Jul-23 18:59N 31°33' E 121°18'36719419.3
2017-Jul-23 18:58N 37°39' E 121°30'160459.4
2017-Jul-23 18:37N 39°56' E 119°42'5094653.6
2017-Jul-23 18:31N 31°33' E 121°18'449323368.8
2017-Jul-23 18:30N 24°32' E 118°19'2713712.8
2017-Jul-23 18:30N 24°26' E 117°50'2176167.0
2017-Jul-23 18:30N 24°12' E 118°07'819294687.2
2017-Jul-23 18:30N 37°33' E 121°23'43325124.5
2017-Jul-23 18:29N 30°21' E 121°55'43925093.3
2017-Jul-23 18:28N 37°39' E 121°30'160192503.0
2017-Jul-23 18:28N 39°56' E 119°42'614552390.4
2017-Jul-23 18:28N 29°53' E 122°04'397864.7
2017-Jul-23 18:00N 24°16' E 118°09'464417685.7
2017-Jul-23 18:00N 31°24' E 121°33'9484562.9
2017-Jul-23 18:00N 29°53' E 122°04'378151389.5
2017-Jul-23 18:00N 24°32' E 118°19'796716566.4
2017-Jul-23 18:00N 37°33' E 121°23'360107997.4
2017-Jul-23 18:00N 31°33' E 121°18'1053628.8
2017-Jul-23 17:58N 29°54' E 121°59'3962826.2
2017-Jul-23 17:50N 24°26' E 117°50'93541040.3
2017-Jul-23 17:48N 39°56' E 119°42'1604185.0
2017-Jul-23 17:46N 37°39' E 121°30'1612481.8
2017-Jul-23 17:42N 39°56' E 119°39'106415076.0
2017-Jul-23 17:38N 22°58' E 113°38'6585344.3
2017-Jul-23 17:31N 31°33' E 121°18'463555686.1
2017-Jul-23 17:30N 24°20' E 118°10'3931414304.5
2017-Jul-23 17:30N 29°53' E 122°04'614441912.3
2017-Jul-23 17:30N 39°56' E 119°42'518466129.6
2017-Jul-23 17:30N 31°26' E 121°30'518207232.5
2017-Jul-23 17:30N 39°56' E 119°39'16510396.6
2017-Jul-23 17:29N 37°33' E 121°23'796477711.0
2017-Jul-23 17:29N 24°32' E 118°19'271391.3
2017-Jul-23 17:28N 24°26' E 117°50'8158292.2
2017-Jul-23 17:22N 37°39' E 121°30'4657470.2
2017-Jul-23 17:18N 29°56' E 122°19'247128.3
2017-Jul-23 17:18N 29°56' E 121°51'3891316.9
2017-Jul-23 17:00N 24°23' E 118°06'392352988.8
2017-Jul-23 17:00N 29°53' E 122°04'6141104770.1
2017-Jul-23 17:00N 39°56' E 119°42'515231739.2
2017-Jul-23 17:00N 31°28' E 121°27'5151854454.2
2017-Jul-23 17:00N 39°56' E 119°39'926833341.9
2017-Jul-23 17:00N 24°32' E 118°19'796220483.6
2017-Jul-23 17:00N 37°33' E 121°23'45620022.0
2017-Jul-23 16:59N 29°57' E 121°52'395203096.1
2017-Jul-23 16:58N 24°26' E 117°50'815146773.1
2017-Jul-23 16:58N 37°39' E 121°30'9714931.3
2017-Jul-23 16:46N 22°58' E 113°38'6604392.2
2017-Jul-23 16:37N 31°42' E 121°09'4554027.5
2017-Jul-23 16:30N 24°32' E 118°19'926833665.8
2017-Jul-23 16:30N 39°56' E 119°42'614276192.5
2017-Jul-23 16:30N 29°53' E 122°04'460207214.5
2017-Jul-23 16:30N 37°33' E 121°23'362186362.0
2017-Jul-23 16:30N 31°30' E 121°23'7511226.7
2017-Jul-23 16:30N 30°21' E 121°55'241102.4
2017-Jul-23 16:28N 29°56' E 121°51'10030126.1
2017-Jul-23 16:28N 31°33' E 121°18'11254.0
2017-Jul-23 16:26N 31°41' E 121°10'35899256.4
2017-Jul-23 16:25N 37°39' E 121°30'81554361.2
2017-Jul-23 16:24N 24°26' E 117°50'4641166.1
2017-Jul-23 16:01N 31°33' E 121°18'23259.0
2017-Jul-23 16:00N 31°31' E 121°19'448537721.6
2017-Jul-23 16:00N 24°32' E 118°19'2796010.3
2017-Jul-23 16:00N 24°26' E 117°50'3981432047.9
2017-Jul-23 16:00N 29°53' E 122°04'614441912.3
2017-Jul-23 16:00N 39°56' E 119°42'16419022.6
2017-Jul-23 16:00N 37°33' E 121°23'35457848.3
2017-Jul-23 15:59N 31°39' E 121°14'10820407.0
2017-Jul-23 15:59N 29°56' E 121°51'46325270.6
2017-Jul-23 15:58N 37°39' E 121°30'97127530.3
2017-Jul-23 15:56N 22°58' E 113°38'62718979.7
2017-Jul-23 15:54N 30°21' E 121°55'79201.6
2017-Jul-23 15:31N 31°33' E 121°18'360431989.8
2017-Jul-23 15:30N 37°33' E 121°23'7961433132.9
2017-Jul-23 15:30N 24°32' E 118°19'3981431842.2
2017-Jul-23 15:30N 30°21' E 121°55'4161497706.6
2017-Jul-23 15:30N 24°26' E 117°50'24798961.9
2017-Jul-23 15:30N 22°58' E 113°38'6142211012.8
2017-Jul-23 15:30N 29°53' E 122°03'11033075.0
2017-Jul-23 15:30N 31°37' E 121°17'36311075.5
2017-Jul-23 15:28N 37°39' E 121°30'36812744.6
2017-Jul-23 15:26N 31°31' E 121°19'991806.9
2017-Jul-23 15:23N 29°56' E 121°51'6097745.3
2017-Jul-23 15:18N 39°56' E 119°42'9263104.9
2017-Jul-23 15:00N 24°32' E 118°19'796955429.0
2017-Jul-23 15:00N 37°33' E 121°23'164294840.2
2017-Jul-23 15:00N 39°56' E 119°42'1065638717.8
2017-Jul-23 15:00N 22°58' E 113°38'6581183760.8
2017-Jul-23 15:00N 31°33' E 121°18'100120511.1
2017-Jul-23 15:00N 29°56' E 121°51'10130189.8
2017-Jul-23 15:00N 31°33' E 121°20'107127839.6
2017-Jul-23 15:00N 29°54' E 122°03'39729197.4
2017-Jul-23 14:59N 24°26' E 117°50'4161497706.6
2017-Jul-23 14:59N 30°21' E 121°55'771701.3
2017-Jul-23 14:56N 31°31' E 121°19'3683033.0
2017-Jul-23 14:49N 37°39' E 121°30'4651605.8
2017-Jul-23 14:32N 29°56' E 122°19'38818144.1
2017-Jul-23 14:30N 24°32' E 118°19'926476380.5
2017-Jul-23 14:30N 39°56' E 119°42'164589699.3
2017-Jul-23 14:30N 37°33' E 121°23'460552376.2
2017-Jul-23 14:30N 29°54' E 122°02'61453916.0
2017-Jul-23 14:30N 22°58' E 113°38'657147835.9
2017-Jul-23 14:29N 31°31' E 121°19'4428.0
2017-Jul-23 14:29N 31°31' E 121°24'36831564.6
2017-Jul-23 14:28N 37°39' E 121°30'46350537.9
2017-Jul-23 14:27N 29°56' E 121°51'1003442.6
2017-Jul-23 14:26N 31°33' E 121°18'7918867.4
2017-Jul-23 14:25N 30°21' E 121°55'32115110.3
2017-Jul-23 14:25N 29°56' E 122°19'40828233.7
2017-Jul-23 14:25N 24°26' E 117°50'4641157.2
2017-Jul-23 14:01N 31°33' E 121°18'110131518.1
2017-Jul-23 14:00N 29°56' E 122°19'613315384.7
2017-Jul-23 14:00N 39°56' E 119°42'614441762.3
2017-Jul-23 14:00N 29°53' E 122°03'460552437.6
2017-Jul-23 14:00N 37°33' E 121°23'796106158.0
2017-Jul-23 14:00N 24°32' E 118°19'398143182.3
2017-Jul-23 14:00N 30°21' E 121°55'416115206.8
2017-Jul-23 13:59N 24°26' E 117°50'464333726.1
2017-Jul-23 13:59N 31°31' E 121°19'65756318.5
2017-Jul-23 13:59N 22°58' E 113°38'97121449.6
2017-Jul-23 13:56N 37°39' E 121°30'37129648.1
2017-Jul-23 13:55N 31°29' E 121°27'952838.8
2017-Jul-23 13:53N 29°56' E 121°51'6091603.4
2017-Jul-23 13:30N 39°56' E 119°42'516265527.3
2017-Jul-23 13:30N 31°27' E 121°29'3661316172.8
2017-Jul-23 13:30N 37°33' E 121°23'796477711.0
2017-Jul-23 13:30N 24°32' E 118°19'449538941.2
2017-Jul-23 13:30N 31°33' E 121°18'10712827.9
2017-Jul-23 13:30N 29°53' E 122°04'13989.9
2017-Jul-23 13:29N 29°56' E 122°19'408734038.2
2017-Jul-23 13:29N 24°26' E 117°50'81571596.6
2017-Jul-23 13:28N 37°39' E 121°30'97152183.4
2017-Jul-23 13:27N 22°58' E 113°38'65765704.9
2017-Jul-23 13:26N 31°31' E 121°19'99540.3
2017-Jul-23 13:15N 29°57' E 121°51'2493.8
2017-Jul-23 13:00N 29°56' E 122°19'388698532.7
2017-Jul-23 13:00N 24°32' E 118°19'449179647.1
2017-Jul-23 13:00N 31°33' E 121°18'10717492.6
2017-Jul-23 13:00N 29°53' E 122°04'10523689.8
2017-Jul-23 12:59N 31°31' E 121°19'123962.4
2017-Jul-23 12:59N 31°25' E 121°31'65932512.5
2017-Jul-23 12:58N 22°58' E 113°38'106517742.2
2017-Jul-23 12:54N 39°56' E 119°42'1604215.4
2017-Jul-23 12:52N 37°39' E 121°30'81544476.7
2017-Jul-23 12:51N 24°26' E 117°50'4169984.8
2017-Jul-23 12:48N 30°21' E 121°55'25262.0
2017-Jul-23 12:43N 29°56' E 121°51'3751820.3
2017-Jul-23 12:30N 24°32' E 118°19'4491616844.0
2017-Jul-23 12:30N 31°33' E 121°18'658215227.7
2017-Jul-23 12:30N 22°58' E 113°38'627282060.8
2017-Jul-23 12:30N 29°56' E 122°19'459412695.3
2017-Jul-23 12:30N 37°33' E 121°23'80885516.5
2017-Jul-23 12:29N 24°26' E 117°50'39895445.7
2017-Jul-23 12:29N 29°53' E 122°04'46724008.2
2017-Jul-23 12:28N 37°39' E 121°30'439175460.5
2017-Jul-23 12:28N 30°21' E 121°55'772930.0
2017-Jul-23 12:26N 31°31' E 121°19'51115325.2
2017-Jul-23 12:24N 39°56' E 119°42'6092300.0
2017-Jul-23 12:08N 29°56' E 121°51'3752808.0
2017-Jul-23 12:00N 24°32' E 118°19'926666932.7
2017-Jul-23 12:00N 39°56' E 119°42'509366706.0
2017-Jul-23 12:00N 31°33' E 121°18'110394465.6
2017-Jul-23 12:00N 29°56' E 122°19'1347507.6
2017-Jul-23 12:00N 29°53' E 122°04'46097517.0
2017-Jul-23 12:00N 37°33' E 121°23'45754814.8
2017-Jul-23 11:59N 29°56' E 121°51'46319854.2
2017-Jul-23 11:58N 37°39' E 121°30'36812869.6
2017-Jul-23 11:56N 31°31' E 121°19'5132243.0
2017-Jul-23 11:43N 23°35' E 117°42'4714015.5
2017-Jul-23 11:36N 30°26' E 121°60'75890.7
2017-Jul-23 11:31N 31°33' E 121°18'449404205.9
2017-Jul-23 11:30N 24°32' E 118°19'926833665.8
2017-Jul-23 11:30N 39°56' E 119°42'614110479.6
2017-Jul-23 11:30N 29°53' E 122°04'461184201.1
2017-Jul-23 11:30N 37°33' E 121°23'36140659.4
2017-Jul-23 11:29N 31°31' E 121°19'51280210.5
2017-Jul-23 11:29N 23°36' E 117°41'471130402.2
2017-Jul-23 11:29N 30°27' E 122°00'4337607.4
2017-Jul-23 11:25N 37°39' E 121°30'4631869.8
2017-Jul-23 11:10N 29°56' E 121°51'6098532.0
2017-Jul-23 11:06N 39°56' E 119°39'5095394.1
2017-Jul-23 11:01N 31°33' E 121°18'449323364.7
2017-Jul-23 11:00N 24°32' E 118°19'926833665.8
2017-Jul-23 11:00N 39°56' E 119°42'9831179128.0
2017-Jul-23 11:00N 23°39' E 117°39'442398122.5
2017-Jul-23 11:00N 29°54' E 122°02'460828349.5
2017-Jul-23 11:00N 37°33' E 121°23'165148151.6
2017-Jul-23 11:00N 39°56' E 119°39'51138322.9
2017-Jul-23 10:59N 31°31' E 121°19'36816779.6
2017-Jul-23 10:58N 37°39' E 121°30'8153584.1
2017-Jul-23 10:44N 24°26' E 117°50'2401046.3
2017-Jul-23 10:31N 22°18' E 114°09'674485195.8
2017-Jul-23 10:31N 31°33' E 121°18'509203725.5
2017-Jul-23 10:30N 39°56' E 119°42'9801764562.4
2017-Jul-23 10:30N 23°42' E 117°36'442397529.0
2017-Jul-23 10:30N 29°54' E 122°02'623112172.5
2017-Jul-23 10:30N 22°18' E 114°09'989445125.9
2017-Jul-23 10:30N 37°33' E 121°23'7961433132.9
2017-Jul-23 10:30N 24°32' E 118°19'80428094.6
2017-Jul-23 10:28N 37°39' E 121°30'46310830.1
2017-Jul-23 10:25N 29°56' E 121°51'39456728.2
2017-Jul-23 10:25N 24°26' E 117°50'93462291.6
2017-Jul-23 10:24N 39°56' E 119°39'51135374.5
2017-Jul-23 10:23N 31°31' E 121°19'108302.2
2017-Jul-23 10:02N 29°56' E 122°19'1104482.6
2017-Jul-23 10:00N 31°33' E 121°18'509916764.9
2017-Jul-23 10:00N 39°56' E 119°42'9771758481.4
2017-Jul-23 10:00N 23°45' E 117°35'976390596.8
2017-Jul-23 10:00N 39°56' E 119°39'16521164.5
2017-Jul-23 10:00N 37°33' E 121°23'796179141.6
2017-Jul-23 09:59N 24°32' E 118°19'448322609.5
2017-Jul-23 09:59N 31°31' E 121°19'6750.1
2017-Jul-23 09:59N 31°37' E 121°18'11023329.7
2017-Jul-23 09:59N 29°54' E 122°02'46650839.3
2017-Jul-23 09:58N 37°39' E 121°29'4637830.1
2017-Jul-23 09:54N 29°56' E 121°51'24291.6
2017-Jul-23 09:50N 29°56' E 122°19'4591433.0
2017-Jul-23 09:30N 37°33' E 121°23'164589699.3
2017-Jul-23 09:30N 39°56' E 119°42'2596.5
2017-Jul-23 09:30N 39°56' E 119°39'6082190205.1
2017-Jul-23 09:30N 29°57' E 121°52'376451475.5
2017-Jul-23 09:30N 24°32' E 118°19'44973492.0
2017-Jul-23 09:30N 31°33' E 121°18'4641672069.3
2017-Jul-23 09:30N 24°26' E 117°50'46993767.0
2017-Jul-23 09:29N 31°37' E 121°18'1115777.7
2017-Jul-23 09:28N 29°54' E 122°03'466111944.9
2017-Jul-23 09:28N 37°39' E 121°29'36813255.4
2017-Jul-23 09:26N 31°31' E 121°19'10811103.7
2017-Jul-23 09:26N 29°56' E 122°19'922933.9
2017-Jul-23 09:24N 31°20' E 121°33'4421132.2
2017-Jul-23 09:00N 24°32' E 118°19'926555777.2
2017-Jul-23 09:00N 39°56' E 119°42'9773517241.0
2017-Jul-23 09:00N 23°45' E 117°35'439395533.9
2017-Jul-23 09:00N 29°53' E 122°03'141789.8
2017-Jul-23 09:00N 29°56' E 122°19'459110052.1
2017-Jul-23 09:00N 37°33' E 121°23'36040499.0
2017-Jul-23 08:59N 31°33' E 121°18'182549.1
2017-Jul-23 08:59N 31°20' E 121°33'17446.5
2017-Jul-23 08:56N 31°31' E 121°19'36822092.3
2017-Jul-23 08:55N 37°39' E 121°29'81530575.5
2017-Jul-23 08:54N 24°26' E 117°50'3944840.3
2017-Jul-23 08:49N 29°56' E 121°51'60952205.9
2017-Jul-23 08:48N 39°56' E 119°39'9263138.7
2017-Jul-23 08:30N 24°32' E 118°19'378113332.5
2017-Jul-23 08:30N 29°54' E 122°02'4601656462.0
2017-Jul-23 08:30N 37°33' E 121°23'165197535.5
2017-Jul-23 08:30N 39°56' E 119°39'977439458.9
2017-Jul-23 08:30N 23°45' E 117°35'512131724.5
2017-Jul-23 08:30N 31°37' E 121°18'6776.7
2017-Jul-23 08:29N 31°31' E 121°19'2278.8
2017-Jul-23 08:29N 31°33' E 121°18'110197242.3
2017-Jul-23 08:29N 29°56' E 122°19'46530985.0
2017-Jul-23 08:28N 37°39' E 121°29'815172664.3
2017-Jul-23 08:28N 24°26' E 117°50'93516496.4
2017-Jul-23 08:24N 39°56' E 119°42'60968500.1
2017-Jul-23 08:24N 29°56' E 121°51'100258.7
2017-Jul-23 08:01N 31°33' E 121°18'360143996.6
2017-Jul-23 08:00N 37°33' E 121°23'164294849.7
2017-Jul-23 08:00N 39°56' E 119°42'2596.5
2017-Jul-23 08:00N 39°56' E 119°39'505363387.0
2017-Jul-23 08:00N 31°38' E 121°18'11114811.2
2017-Jul-23 08:00N 29°53' E 122°03'37810464.3
2017-Jul-23 07:57N 24°32' E 118°19'44824816.1
2017-Jul-23 07:56N 31°31' E 121°19'4632201.2
2017-Jul-23 07:44N 24°26' E 117°50'27120.3
2017-Jul-23 07:30N 24°32' E 118°19'9261111568.8
2017-Jul-23 07:30N 39°56' E 119°42'614315592.2
2017-Jul-23 07:30N 29°53' E 122°03'614441975.3
2017-Jul-23 07:30N 39°56' E 119°39'505139761.0
2017-Jul-23 07:30N 31°38' E 121°18'35547359.7
2017-Jul-23 07:30N 37°33' E 121°23'361144569.0
2017-Jul-23 07:29N 31°31' E 121°19'507608220.1
2017-Jul-23 07:29N 23°45' E 117°35'222400491.0
2017-Jul-23 07:29N 22°58' E 113°38'658131529.0
2017-Jul-23 07:29N 31°33' E 121°18'46449178.5
2017-Jul-23 07:28N 24°26' E 117°50'81524061.1
2017-Jul-23 07:26N 37°39' E 121°29'8041861.1
2017-Jul-23 07:00N 24°32' E 118°19'449538961.5
2017-Jul-23 07:00N 31°33' E 121°18'10642511.4
2017-Jul-23 07:00N 29°54' E 122°03'111398756.4
2017-Jul-23 07:00N 31°38' E 121°18'355116242.6
2017-Jul-23 07:00N 37°33' E 121°23'8717.7
2017-Jul-23 06:59N 37°39' E 121°29'81510559.6
2017-Jul-23 06:55N 24°26' E 117°50'935152967.3
2017-Jul-23 06:54N 39°56' E 119°42'1065638717.8
2017-Jul-23 06:54N 22°58' E 113°38'1064638217.9
2017-Jul-23 06:54N 39°56' E 119°39'51137541.2
2017-Jul-23 06:53N 31°31' E 121°19'507912320.2
2017-Jul-23 06:53N 23°45' E 117°35'50214563.8
2017-Jul-23 06:51N 31°20' E 121°33'857442.2
2017-Jul-23 06:51N 29°56' E 121°51'2496.2
2017-Jul-23 06:36N 29°56' E 122°19'3884449.4
2017-Jul-23 06:30N 24°32' E 118°19'926833682.0
2017-Jul-23 06:30N 39°56' E 119°42'509458382.4
2017-Jul-23 06:30N 31°33' E 121°18'509141075.2
2017-Jul-23 06:30N 39°56' E 119°39'9341681883.9
2017-Jul-23 06:30N 24°26' E 117°50'808581499.8
2017-Jul-23 06:30N 37°33' E 121°23'9631733272.0
2017-Jul-23 06:30N 22°58' E 113°38'6142211141.0
2017-Jul-23 06:30N 29°53' E 122°03'439158168.7
2017-Jul-23 06:30N 23°45' E 117°35'512108477.3
2017-Jul-23 06:29N 31°38' E 121°18'362325847.4
2017-Jul-23 06:29N 37°39' E 121°29'368265166.3
2017-Jul-23 06:29N 31°31' E 121°19'991223.4
2017-Jul-23 06:24N 29°56' E 121°51'14297.4
2017-Jul-23 06:22N 29°47' E 122°04'113321.4
2017-Jul-23 06:01N 31°33' E 121°18'449323376.9
2017-Jul-23 06:00N 24°32' E 118°19'926476389.7
2017-Jul-23 06:00N 39°56' E 119°42'16422680.0
2017-Jul-23 06:00N 37°33' E 121°23'808290754.1
2017-Jul-23 06:00N 24°26' E 117°50'24798965.2
2017-Jul-23 06:00N 22°58' E 113°38'657181926.8
2017-Jul-23 05:59N 31°31' E 121°19'622870.3
2017-Jul-23 05:59N 31°38' E 121°18'1154757.9
2017-Jul-23 05:58N 29°51' E 122°07'47018794.5
2017-Jul-23 05:56N 37°39' E 121°29'4657712.0
2017-Jul-23 05:53N 29°56' E 122°19'23918.8
2017-Jul-23 05:51N 29°58' E 121°53'3771085.7
2017-Jul-23 05:30N 24°32' E 118°19'381457616.5
2017-Jul-23 05:30N 29°55' E 122°08'459150378.6
2017-Jul-23 05:30N 37°33' E 121°23'360143999.0
2017-Jul-23 05:30N 31°33' E 121°18'46441803.2
2017-Jul-23 05:29N 24°26' E 117°50'469337641.1
2017-Jul-23 05:29N 31°38' E 121°18'622848.8
2017-Jul-23 05:29N 31°31' E 121°19'65755001.9
2017-Jul-23 05:29N 22°58' E 113°38'60925480.1
2017-Jul-23 05:27N 29°56' E 121°51'6094167.2
2017-Jul-23 05:18N 39°56' E 119°42'1601377.4
2017-Jul-23 05:11N 37°39' E 121°29'85929727.5
2017-Jul-23 05:10N 23°45' E 117°35'97712741.6
2017-Jul-23 05:05N 39°56' E 119°39'5096718.3
2017-Jul-23 05:01N 31°33' E 121°18'509166684.5
2017-Jul-23 05:00N 39°56' E 119°42'6141104770.1
2017-Jul-23 05:00N 29°53' E 122°04'615553561.8
2017-Jul-23 05:00N 22°58' E 113°38'65738146.5
2017-Jul-23 04:59N 31°31' E 121°19'9989009.2
2017-Jul-23 04:59N 29°56' E 121°51'375675333.5
2017-Jul-23 04:59N 24°32' E 118°19'454136106.0
2017-Jul-23 04:59N 31°38' E 121°18'46924116.7
2017-Jul-23 04:58N 24°26' E 117°50'808264320.0
2017-Jul-23 04:58N 37°33' E 121°23'851278498.3
2017-Jul-23 04:57N 23°45' E 117°35'44337999.1
2017-Jul-23 04:57N 29°58' E 122°03'46387632.4
2017-Jul-23 04:56N 37°39' E 121°29'1612961.2
2017-Jul-23 04:53N 39°56' E 119°39'5091354.6
2017-Jul-23 04:31N 31°33' E 121°18'360431997.0
2017-Jul-23 04:30N 37°33' E 121°23'851510573.2
2017-Jul-23 04:30N 23°45' E 117°35'9771172636.6
2017-Jul-23 04:30N 39°56' E 119°42'935210330.1
2017-Jul-23 04:30N 24°26' E 117°50'401206145.1
2017-Jul-23 04:30N 29°55' E 122°08'6191113497.2
2017-Jul-23 04:30N 22°58' E 113°38'27439448.0
2017-Jul-23 04:29N 24°32' E 118°19'804482316.4
2017-Jul-23 04:29N 37°39' E 121°29'368110471.2
2017-Jul-23 04:29N 31°31' E 121°19'6330.5
2017-Jul-23 04:28N 31°38' E 121°18'10529115.2
2017-Jul-23 04:28N 29°56' E 121°51'375823.6
2017-Jul-23 04:00N 24°32' E 118°19'796477721.6
2017-Jul-23 04:00N 37°33' E 121°23'164147424.8
2017-Jul-23 04:00N 39°56' E 119°42'935210335.4
2017-Jul-23 04:00N 24°26' E 117°50'46858155.1
2017-Jul-23 04:00N 31°37' E 121°18'45198.8
2017-Jul-23 04:00N 31°33' E 121°18'367132069.8
2017-Jul-23 03:59N 37°39' E 121°29'8591545725.7
2017-Jul-23 03:59N 23°45' E 117°35'507260723.5
2017-Jul-23 03:59N 31°31' E 121°19'65765697.2
2017-Jul-23 03:59N 22°58' E 113°38'609313042.7
2017-Jul-23 03:58N 29°56' E 121°51'243075.0
2017-Jul-23 03:58N 29°56' E 122°19'8430.3
2017-Jul-23 03:57N 29°52' E 122°11'3 7.9
2017-Jul-23 03:31N 29°55' E 122°09'382686960.0
2017-Jul-23 03:30N 24°32' E 118°19'6232012.1
2017-Jul-23 03:30N 23°45' E 117°35'9771172636.6
2017-Jul-23 03:30N 39°56' E 119°42'509916764.9
2017-Jul-23 03:30N 31°33' E 121°18'22058.6
2017-Jul-23 03:30N 31°35' E 121°19'66062517.1
2017-Jul-23 03:30N 22°58' E 113°38'65794601.9
2017-Jul-23 03:29N 31°31' E 121°19'46336270.1
2017-Jul-23 03:28N 24°26' E 117°50'81524260.4
2017-Jul-23 03:26N 37°39' E 121°29'161631.6
2017-Jul-23 03:11N 39°56' E 119°39'9265249.7
2017-Jul-23 03:00N 24°32' E 118°19'450202560.1
2017-Jul-23 03:00N 31°33' E 121°21'10676453.9
2017-Jul-23 03:00N 29°55' E 122°09'460413605.6
2017-Jul-23 03:00N 37°33' E 121°23'3601295969.3
2017-Jul-23 03:00N 31°33' E 121°18'65867643.0
2017-Jul-23 03:00N 22°58' E 113°38'24768513.8
2017-Jul-23 02:59N 24°26' E 117°50'463128343.0
2017-Jul-23 02:59N 31°31' E 121°19'511183949.9
2017-Jul-23 02:59N 39°56' E 119°39'97781778.3
2017-Jul-23 02:58N 23°45' E 117°35'85931225.1
2017-Jul-23 02:57N 37°39' E 121°29'9953084.0
2017-Jul-23 02:37N 22°19' E 114°12'2632318.5
2017-Jul-23 02:30N 24°32' E 118°19'450231181.2
2017-Jul-23 02:30N 31°31' E 121°24'5121841858.6
2017-Jul-23 02:30N 39°56' E 119°42'1065638717.8
2017-Jul-23 02:30N 22°58' E 113°38'6192227824.8
2017-Jul-23 02:30N 29°55' E 122°08'4591653657.2
2017-Jul-23 02:30N 37°33' E 121°23'808484597.2
2017-Jul-23 02:30N 24°26' E 117°50'46459720.3
2017-Jul-23 02:30N 31°33' E 121°18'2208.6
2017-Jul-23 02:29N 31°31' E 121°19'3688389.9
2017-Jul-23 02:27N 37°39' E 121°29'4655850.7
2017-Jul-23 02:22N 29°56' E 122°19'633207083.2
2017-Jul-23 02:22N 22°19' E 114°12'263746.5
2017-Jul-23 02:00N 24°32' E 118°19'449230955.6
2017-Jul-23 02:00N 31°30' E 121°26'513615924.6
2017-Jul-23 02:00N 39°56' E 119°42'613105082.7
2017-Jul-23 02:00N 29°54' E 122°04'46045964.7
2017-Jul-23 01:59N 37°33' E 121°23'361130104.0
2017-Jul-23 01:59N 31°31' E 121°19'65765699.1
2017-Jul-23 01:59N 22°58' E 113°38'65894700.2
2017-Jul-23 01:58N 31°33' E 121°18'464209023.6
2017-Jul-23 01:58N 24°26' E 117°50'81529063.1
2017-Jul-23 01:56N 37°39' E 121°29'85915456.8
2017-Jul-23 01:53N 23°45' E 117°35'4507296.2
2017-Jul-23 01:49N 29°56' E 122°19'110349.8
2017-Jul-23 01:31N 31°33' E 121°18'509166684.5
2017-Jul-23 01:30N 39°56' E 119°42'935197964.0
2017-Jul-23 01:30N 24°26' E 117°50'80861863.9
2017-Jul-23 01:29N 37°33' E 121°23'796358291.2
2017-Jul-23 01:29N 24°32' E 118°19'448403228.8
2017-Jul-23 01:29N 31°28' E 121°28'67386523.9
2017-Jul-23 01:29N 22°19' E 114°12'5090542.6
2017-Jul-23 01:29N 22°58' E 113°38'65798548.7
2017-Jul-23 01:28N 31°31' E 121°19'1054924.9
2017-Jul-23 01:27N 29°53' E 122°04'46793369.5
2017-Jul-23 01:27N 37°39' E 121°29'4653121.4
2017-Jul-23 01:18N 29°56' E 122°19'6132126.8
2017-Jul-23 01:00N 39°56' E 119°42'517265672.1
2017-Jul-23 01:00N 31°27' E 121°29'118252.3
2017-Jul-23 01:00N 31°33' E 121°18'11019726.8
2017-Jul-23 01:00N 29°56' E 122°19'388698603.9
2017-Jul-23 01:00N 24°32' E 118°19'278726.8
2017-Jul-23 01:00N 24°26' E 117°50'247445328.4
2017-Jul-23 01:00N 22°58' E 113°38'5022714.2
2017-Jul-23 00:59N 22°18' E 114°11'997598084.2
2017-Jul-23 00:59N 37°39' E 121°29'83737.2
2017-Jul-23 00:59N 37°33' E 121°23'36122431.7
2017-Jul-23 00:58N 31°31' E 121°19'1051613.7
2017-Jul-23 00:54N 29°53' E 122°04'61415455.4
2017-Jul-23 00:52N 39°56' E 119°39'2 5.5
2017-Jul-23 00:30N 39°56' E 119°42'509916764.9
2017-Jul-23 00:30N 31°33' E 121°18'107128285.7
2017-Jul-23 00:30N 29°53' E 122°04'461150710.0
2017-Jul-23 00:30N 37°33' E 121°23'45997103.5
2017-Jul-23 00:30N 29°56' E 122°19'46569709.3
2017-Jul-23 00:29N 37°39' E 121°29'374192188.1
2017-Jul-23 00:29N 31°26' E 121°31'659118692.9
2017-Jul-23 00:29N 22°58' E 113°38'274140884.8
2017-Jul-23 00:29N 24°32' E 118°19'2715999.1
2017-Jul-23 00:29N 24°26' E 117°50'46350561.2
2017-Jul-23 00:28N 31°31' E 121°19'673808039.8
2017-Jul-23 00:28N 22°18' E 114°09'1095281626.5
2017-Jul-23 00:28N 39°56' E 119°39'9342039.8
2017-Jul-23 00:00N 24°26' E 117°50'9351121796.2
2017-Jul-23 00:00N 39°56' E 119°42'509458382.4
2017-Jul-23 00:00N 31°33' E 121°18'107128186.1
2017-Jul-23 00:00N 29°53' E 122°04'461828956.1
2017-Jul-23 00:00N 37°33' E 121°23'36863161.6
2017-Jul-23 00:00N 31°24' E 121°32'9787019.4
2017-Jul-23 00:00N 29°56' E 122°19'38873532.6
2017-Jul-22 23:59N 24°32' E 118°19'804413397.7
2017-Jul-22 23:59N 37°39' E 121°30'36820392.4
2017-Jul-22 23:58N 31°31' E 121°19'6571182584.2
2017-Jul-22 23:58N 22°58' E 113°38'1064201530.6
2017-Jul-22 23:58N 39°56' E 119°39'97731394.2
2017-Jul-22 23:56N 23°45' E 117°35'208622.4
2017-Jul-22 23:36N 22°18' E 114°08'1 6.1
2017-Jul-22 23:30N 22°18' E 114°09'6732424378.9
2017-Jul-22 23:30N 31°33' E 121°18'154941.6
2017-Jul-22 23:30N 31°22' E 121°30'9317585.7
2017-Jul-22 23:30N 29°54' E 122°04'460207143.8
2017-Jul-22 23:30N 37°33' E 121°23'851382932.6
2017-Jul-22 23:30N 23°45' E 117°35'859206090.1
2017-Jul-22 23:29N 37°39' E 121°30'46545217.0
2017-Jul-22 23:29N 29°56' E 122°19'10811435.5
2017-Jul-22 23:28N 31°31' E 121°19'463166845.8
2017-Jul-22 23:28N 24°26' E 117°50'934373732.9
2017-Jul-22 23:28N 39°56' E 119°39'233.4
2017-Jul-22 23:24N 39°56' E 119°42'10657313.6
2017-Jul-22 23:16N 22°58' E 113°38'6152449.1
2017-Jul-22 23:01N 29°53' E 122°04'461414457.9
2017-Jul-22 23:00N 37°33' E 121°23'164147424.8
2017-Jul-22 23:00N 39°56' E 119°42'935210331.4
2017-Jul-22 23:00N 24°26' E 117°50'4415685.3
2017-Jul-22 23:00N 23°45' E 117°35'85996604.1
2017-Jul-22 22:59N 37°39' E 121°30'36817912.3
2017-Jul-22 22:58N 31°31' E 121°19'511122609.6
2017-Jul-22 22:58N 39°56' E 119°39'61320259.6
2017-Jul-22 22:56N 29°56' E 122°19'63673803.5
2017-Jul-22 22:56N 22°17' E 114°09'50423.6
2017-Jul-22 22:49N 22°58' E 113°38'6152038.7
2017-Jul-22 22:30N 29°53' E 122°04'1347517.5
2017-Jul-22 22:30N 29°56' E 122°19'408366997.0
2017-Jul-22 22:30N 24°26' E 117°50'8082907520.1
2017-Jul-22 22:30N 37°33' E 121°23'96372219.7
2017-Jul-22 22:30N 22°58' E 113°38'971349624.7
2017-Jul-22 22:29N 37°39' E 121°30'36818669.1
2017-Jul-22 22:28N 31°31' E 121°19'511102175.8
2017-Jul-22 22:28N 39°56' E 119°39'50935956.2
2017-Jul-22 22:27N 31°33' E 121°18'50911180.1
2017-Jul-22 22:24N 39°56' E 119°42'10954174.8
2017-Jul-22 22:09N 22°18' E 114°12'6724927.7
2017-Jul-22 22:00N 31°33' E 121°18'673345905.6
2017-Jul-22 22:00N 22°18' E 114°12'9883558283.4
2017-Jul-22 22:00N 37°33' E 121°23'461236830.0
2017-Jul-22 22:00N 29°53' E 122°04'39813381.3
2017-Jul-22 21:58N 24°26' E 117°50'463151676.2
2017-Jul-22 21:58N 31°31' E 121°19'10877769.1
2017-Jul-22 21:58N 29°56' E 122°19'613220834.3
2017-Jul-22 21:58N 39°56' E 119°39'1616830.5
2017-Jul-22 21:57N 37°39' E 121°30'97130140.1
2017-Jul-22 21:55N 22°58' E 113°38'1065255487.1
2017-Jul-22 21:54N 39°56' E 119°42'6123280.9
2017-Jul-22 21:43N 29°54' E 121°59'6122867.1
2017-Jul-22 21:30N 39°56' E 119°42'1065638717.8
2017-Jul-22 21:30N 22°58' E 113°38'9631733272.0
2017-Jul-22 21:30N 37°33' E 121°23'808323057.8
2017-Jul-22 21:30N 24°26' E 117°50'398238632.8
2017-Jul-22 21:30N 29°53' E 122°04'131439.9
2017-Jul-22 21:29N 29°56' E 122°19'465836536.2
2017-Jul-22 21:29N 37°39' E 121°30'998239433.6
2017-Jul-22 21:29N 22°18' E 114°09'67467411.9
2017-Jul-22 21:29N 31°33' E 121°18'50952393.3
2017-Jul-22 21:28N 39°56' E 119°39'5113509.9
2017-Jul-22 21:19N 31°31' E 121°19'103512.8
2017-Jul-22 21:07N 29°54' E 121°59'4604189.2
2017-Jul-22 21:01N 37°33' E 121°23'3601295990.9
2017-Jul-22 21:01N 31°33' E 121°18'509183353.0
2017-Jul-22 21:00N 39°56' E 119°42'935197959.0
2017-Jul-22 21:00N 24°26' E 117°50'24730713.3
2017-Jul-22 21:00N 22°58' E 113°38'971317844.1
2017-Jul-22 20:59N 37°39' E 121°30'46545219.3
2017-Jul-22 20:59N 29°56' E 122°19'10811109.9
2017-Jul-22 20:58N 31°31' E 121°19'105189617.2
2017-Jul-22 20:58N 29°53' E 122°04'614130008.5
2017-Jul-22 20:58N 39°56' E 119°39'53437688.7
2017-Jul-22 20:57N 31°09' E 121°27'2556.4
2017-Jul-22 20:31N 31°33' E 121°18'509166684.5
2017-Jul-22 20:30N 39°56' E 119°42'614552403.2
2017-Jul-22 20:30N 29°53' E 122°04'461207226.3
2017-Jul-22 20:30N 37°33' E 121°23'963288878.7
2017-Jul-22 20:30N 22°58' E 113°38'971102831.9
2017-Jul-22 20:29N 37°39' E 121°30'815163076.6
2017-Jul-22 20:29N 24°26' E 117°50'46332714.5
2017-Jul-22 20:28N 31°31' E 121°19'51196798.2
2017-Jul-22 20:28N 39°56' E 119°39'5091112.7
2017-Jul-22 20:00N 31°33' E 121°18'509458382.4
2017-Jul-22 20:00N 39°56' E 119°42'614368272.4
2017-Jul-22 20:00N 29°53' E 122°04'6152214020.0
2017-Jul-22 20:00N 22°58' E 113°38'97169925.3
2017-Jul-22 19:59N 37°39' E 121°30'84288.0
2017-Jul-22 19:59N 37°33' E 121°23'36120328.8
2017-Jul-22 19:58N 31°31' E 121°19'463185382.0
2017-Jul-22 19:58N 24°26' E 117°50'934336355.3
2017-Jul-22 19:58N 39°56' E 119°39'2 4.3
2017-Jul-22 19:30N 39°56' E 119°42'614138100.8
2017-Jul-22 19:30N 29°53' E 122°04'10754979.6
2017-Jul-22 19:30N 31°33' E 121°18'658107613.9
2017-Jul-22 19:30N 22°58' E 113°38'971317842.4
2017-Jul-22 19:29N 37°39' E 121°30'82308.9
2017-Jul-22 19:29N 37°33' E 121°23'808363440.0
2017-Jul-22 19:29N 24°26' E 117°50'46332085.0
2017-Jul-22 19:28N 31°31' E 121°19'511114949.2
2017-Jul-22 19:28N 39°56' E 119°39'5091114.8
2017-Jul-22 19:01N 31°33' E 121°18'509166684.5
2017-Jul-22 19:00N 39°56' E 119°42'614552403.2
2017-Jul-22 19:00N 29°53' E 122°04'6152214034.1
2017-Jul-22 19:00N 22°58' E 113°38'963495220.6
2017-Jul-22 19:00N 37°33' E 121°23'8666.6
2017-Jul-22 18:59N 37°39' E 121°30'81573383.4
2017-Jul-22 18:59N 24°26' E 117°50'46355613.3
2017-Jul-22 18:58N 31°31' E 121°19'51191960.4
2017-Jul-22 18:58N 39°56' E 119°39'9342039.8
2017-Jul-22 18:30N 24°26' E 117°50'935841325.6
2017-Jul-22 18:30N 39°56' E 119°42'614368268.8
2017-Jul-22 18:30N 29°53' E 122°04'461828905.1
2017-Jul-22 18:30N 37°33' E 121°23'360185138.5
2017-Jul-22 18:30N 31°33' E 121°18'658263056.1
2017-Jul-22 18:30N 22°58' E 113°38'97199892.8
2017-Jul-22 18:29N 37°39' E 121°30'36818936.4
2017-Jul-22 18:28N 31°31' E 121°19'511102178.2
2017-Jul-22 18:28N 39°56' E 119°39'6136534.2
2017-Jul-22 18:22N 29°56' E 122°19'4504343.0
2017-Jul-22 18:16N 23°45' E 117°35'44167.5
2017-Jul-22 18:00N 24°26' E 117°50'9351682651.3
2017-Jul-22 18:00N 39°56' E 119°42'509458382.4
2017-Jul-22 18:00N 31°33' E 121°18'658112738.3
2017-Jul-22 18:00N 22°58' E 113°38'6151107017.0
2017-Jul-22 18:00N 29°53' E 122°04'46155260.3
2017-Jul-22 17:59N 37°33' E 121°23'814999.4
2017-Jul-22 17:59N 37°39' E 121°30'36818935.6
2017-Jul-22 17:58N 31°31' E 121°19'1082103.9
2017-Jul-22 17:55N 29°56' E 122°19'4503491.1
2017-Jul-22 17:47N 23°45' E 117°35'659646289.4
2017-Jul-22 17:39N 33°27' W 117°42'591142308.7
2017-Jul-22 17:30N 37°33' E 121°23'808726885.3
2017-Jul-22 17:30N 24°26' E 117°50'9353365324.1
2017-Jul-22 17:30N 39°56' E 119°42'509458382.4
2017-Jul-22 17:30N 31°33' E 121°18'658789168.4
2017-Jul-22 17:30N 22°58' E 113°38'65719073.4
2017-Jul-22 17:28N 31°31' E 121°19'36812272.7
2017-Jul-22 17:26N 37°39' E 121°30'85949895.3
2017-Jul-22 17:25N 23°44' E 117°35'4508401.4
2017-Jul-22 17:22N 29°56' E 122°19'612950376.9
2017-Jul-22 17:15N 33°27' W 117°42'612425666.9
2017-Jul-22 17:01N 31°33' E 121°18'464209013.7
2017-Jul-22 17:00N 24°26' E 117°50'398178972.4
2017-Jul-22 17:00N 29°53' E 122°04'442106186.5
2017-Jul-22 17:00N 23°41' E 117°36'854133682.6
2017-Jul-22 17:00N 37°33' E 121°23'96382536.8
2017-Jul-22 16:59N 22°58' E 113°38'65755002.3
2017-Jul-22 16:58N 31°31' E 121°19'36812049.5
2017-Jul-22 16:56N 37°39' E 121°30'4653500.6
2017-Jul-22 16:48N 29°56' E 122°19'6129102628.3
2017-Jul-22 16:45N 33°27' W 117°42'659727268.5
2017-Jul-22 16:30N 23°39' E 117°37'8563081872.5
2017-Jul-22 16:30N 37°33' E 121°23'360215994.9
2017-Jul-22 16:30N 31°33' E 121°18'10710995.9
2017-Jul-22 16:30N 29°53' E 122°04'467129280.0
2017-Jul-22 16:29N 37°39' E 121°30'36819209.1
2017-Jul-22 16:28N 31°31' E 121°19'463166850.1
2017-Jul-22 16:28N 24°26' E 117°50'40821910.4
2017-Jul-22 16:27N 29°56' E 122°19'61292758111.6
2017-Jul-22 16:27N 33°27' W 117°42'612413972.0
2017-Jul-22 16:01N 31°33' E 121°18'464238884.2
2017-Jul-22 16:00N 24°26' E 117°50'3981431829.8
2017-Jul-22 16:00N 29°53' E 122°04'460150701.0
2017-Jul-22 16:00N 37°33' E 121°23'856256822.7
2017-Jul-22 16:00N 23°39' E 117°37'2249477.1
2017-Jul-22 15:59N 22°58' E 113°38'97131497.9
2017-Jul-22 15:57N 37°39' E 121°30'3684855.1
2017-Jul-22 15:52N 31°31' E 121°19'9116040.5
2017-Jul-22 15:43N 20°10' E 110°06'11995710.9
2017-Jul-22 15:31N 37°33' E 121°23'460127474.3
2017-Jul-22 15:30N 29°54' E 122°03'8723138793.5
2017-Jul-22 15:30N 20°11' E 110°08'25721514.3
2017-Jul-22 15:30N 22°58' E 113°38'971291357.1
2017-Jul-22 15:29N 37°39' E 121°30'367264102.6
2017-Jul-22 15:29N 31°33' E 121°18'46430403.4
2017-Jul-22 15:28N 24°26' E 117°50'4082872.8
2017-Jul-22 15:20N 29°56' E 122°19'10810243.4
2017-Jul-22 15:19N 31°31' E 121°19'6125265645.5
2017-Jul-22 15:18N 33°27' W 117°42'711824521.7
2017-Jul-22 15:00N 20°11' E 110°12'463237878.3
2017-Jul-22 15:00N 23°39' E 117°38'512263530.5
2017-Jul-22 15:00N 31°33' E 121°18'360259193.9
2017-Jul-22 15:00N 37°33' E 121°23'963266657.2
2017-Jul-22 15:00N 22°58' E 113°38'6272256505.4
2017-Jul-22 15:00N 29°56' E 122°19'40852429.1
2017-Jul-22 14:59N 24°26' E 117°50'46323174.2
2017-Jul-22 14:58N 31°31' E 121°19'463478.2
2017-Jul-22 14:00N 24°26' E 117°50'808415375.1
2017-Jul-22 14:00N 37°33' E 121°23'59113546879.0
2017-Jul-22 14:00N 33°27' W 117°42'61441474448.5
2017-Jul-22 14:00N 29°53' E 122°04'86367507.0
2017-Jul-22 13:59N 20°12' E 110°20'902270494.2
2017-Jul-22 13:59N 31°33' E 121°18'2555.6
2017-Jul-22 13:58N 31°31' E 121°19'1089048.4
2017-Jul-22 13:58N 29°56' E 122°19'627205143.2
2017-Jul-22 13:58N 22°58' E 113°38'97164746.7
2017-Jul-22 13:57N 37°39' E 121°30'3811729.8
2017-Jul-22 13:43N 31°19' E 121°34'89406.2
2017-Jul-22 13:30N 29°53' E 122°04'1347694.8
2017-Jul-22 13:30N 29°56' E 122°19'11035868.6
2017-Jul-22 13:30N 31°33' E 121°18'360431989.8
2017-Jul-22 13:30N 37°33' E 121°23'963577757.3
2017-Jul-22 13:30N 22°58' E 113°38'971112784.0
2017-Jul-22 13:29N 37°39' E 121°30'81571597.2
2017-Jul-22 13:29N 24°26' E 117°50'463119174.5
2017-Jul-22 13:28N 31°31' E 121°19'4631529.3
2017-Jul-22 13:10N 24°19' E 118°10'59472.1
2017-Jul-22 13:03N 24°54' E 119°03'41611015.6
2017-Jul-22 13:01N 31°33' E 121°18'466279385.9
2017-Jul-22 13:00N 24°18' E 118°10'395129282.9
2017-Jul-22 13:00N 29°53' E 122°04'461828905.1
2017-Jul-22 13:00N 37°33' E 121°23'8626.1
2017-Jul-22 12:59N 37°39' E 121°30'8152935483.4
2017-Jul-22 12:59N 24°26' E 117°50'717106.6
2017-Jul-22 12:59N 24°54' E 119°02'31895521.8
2017-Jul-22 12:59N 22°58' E 113°38'657295631.1
2017-Jul-22 12:58N 31°31' E 121°19'1085478.9
2017-Jul-22 12:57N 29°56' E 122°19'612917171.0
2017-Jul-22 12:36N 33°27' W 117°42'591166712.5
2017-Jul-22 12:31N 37°33' E 121°23'360647984.7
2017-Jul-22 12:31N 31°33' E 121°18'469187764.4
2017-Jul-22 12:30N 24°14' E 118°09'596242.3
2017-Jul-22 12:30N 24°51' E 118°59'353105865.5
2017-Jul-22 12:30N 29°56' E 122°19'6272256500.4
2017-Jul-22 12:30N 22°58' E 113°38'24728730.9
2017-Jul-22 12:29N 24°26' E 117°50'46347669.8
2017-Jul-22 12:28N 31°31' E 121°19'1055268.1
2017-Jul-22 12:27N 29°53' E 122°04'46746686.9
2017-Jul-22 12:27N 37°39' E 121°30'4662061.2
2017-Jul-22 12:13N 29°54' E 121°59'3582544.1
2017-Jul-22 12:05N 35°36' E 119°53'6919877.7
2017-Jul-22 12:00N 24°11' E 118°07'473170209.5
2017-Jul-22 12:00N 31°33' E 121°18'107128285.7
2017-Jul-22 12:00N 29°53' E 122°04'34746318.9
2017-Jul-22 12:00N 24°49' E 118°56'6457740.1
2017-Jul-22 12:00N 24°26' E 117°50'247111332.1
2017-Jul-22 12:00N 22°58' E 113°38'65736385.4
2017-Jul-22 11:59N 31°31' E 121°19'131100.0
2017-Jul-22 11:58N 31°24' E 121°32'968682.4
2017-Jul-22 11:57N 29°56' E 122°19'46555769.8
2017-Jul-22 11:57N 37°39' E 121°30'9858569.3
2017-Jul-22 11:50N 22°42' E 113°40'6225658.4
2017-Jul-22 11:43N 29°54' E 121°59'3961866.9
2017-Jul-22 11:30N 24°26' E 117°50'8082907541.2
2017-Jul-22 11:30N 37°33' E 121°23'461207226.3
2017-Jul-22 11:30N 29°53' E 122°04'135939.7
2017-Jul-22 11:30N 29°56' E 122°19'627205135.1
2017-Jul-22 11:30N 22°58' E 113°38'658789168.4
2017-Jul-22 11:30N 31°33' E 121°18'36744018.5
2017-Jul-22 11:29N 37°39' E 121°30'1604812.4
2017-Jul-22 11:27N 39°56' E 119°42'51116418.7
2017-Jul-22 11:26N 31°31' E 121°19'51130149.4
2017-Jul-22 11:24N 39°56' E 119°39'6131531.4
2017-Jul-22 11:00N 29°56' E 122°19'11043827.4
2017-Jul-22 11:00N 31°33' E 121°18'3601295969.3
2017-Jul-22 11:00N 37°33' E 121°23'16529621.0
2017-Jul-22 11:00N 39°56' E 119°39'16117074.2
2017-Jul-22 10:59N 37°39' E 121°30'467210090.8
2017-Jul-22 10:59N 29°53' E 122°04'61555350.9
2017-Jul-22 10:59N 22°58' E 113°38'657295631.1
2017-Jul-22 10:58N 31°31' E 121°19'51127446.2
2017-Jul-22 10:57N 39°56' E 119°42'935210330.1
2017-Jul-22 10:57N 24°26' E 117°50'3962979.9
2017-Jul-22 10:49N 29°54' E 121°59'3604464.1
2017-Jul-22 10:44N 35°36' E 119°47'2551068.1
2017-Jul-22 10:30N 31°33' E 121°18'5091833764.6
2017-Jul-22 10:30N 39°56' E 119°39'6141105072.1
2017-Jul-22 10:30N 29°53' E 122°04'461828905.1
2017-Jul-22 10:30N 37°33' E 121°23'45968782.5
2017-Jul-22 10:29N 29°56' E 122°19'465239016.5
2017-Jul-22 10:29N 37°39' E 121°30'815172670.5
2017-Jul-22 10:29N 24°26' E 117°50'24798965.2
2017-Jul-22 10:29N 22°58' E 113°38'65784466.0
2017-Jul-22 10:28N 31°31' E 121°19'51128290.7
2017-Jul-22 10:27N 39°56' E 119°42'6124445.1
2017-Jul-22 10:19N 29°54' E 121°59'1755.9
2017-Jul-22 10:00N 29°56' E 122°19'40861165.5
2017-Jul-22 10:00N 24°26' E 117°50'46488005.8
2017-Jul-22 10:00N 31°33' E 121°18'10764142.9
2017-Jul-22 10:00N 29°53' E 122°04'467120050.4
2017-Jul-22 09:59N 37°39' E 121°30'810017.0
2017-Jul-22 09:59N 37°33' E 121°23'96373756.3
2017-Jul-22 09:59N 22°58' E 113°38'657591262.2
2017-Jul-22 09:59N 31°31' E 121°19'51127042.6
2017-Jul-22 09:57N 39°56' E 119°42'212.7
2017-Jul-22 09:48N 39°56' E 119°39'10643609.0
2017-Jul-22 09:30N 22°58' E 113°38'6152214034.1
2017-Jul-22 09:30N 29°53' E 122°04'136787.5
2017-Jul-22 09:30N 29°56' E 122°19'4591650802.6
2017-Jul-22 09:30N 37°33' E 121°23'16534849.3
2017-Jul-22 09:30N 39°56' E 119°39'934560595.8
2017-Jul-22 09:30N 24°26' E 117°50'815139779.9
2017-Jul-22 09:29N 37°39' E 121°30'1604695.2
2017-Jul-22 09:27N 39°56' E 119°42'5116341.0
2017-Jul-22 09:23N 31°31' E 121°19'1760.2
2017-Jul-22 09:05N 31°19' E 121°33'6119160792.3
2017-Jul-22 09:03N 33°27' W 117°42'6129136203.6
2017-Jul-22 09:00N 29°56' E 122°19'408133450.3
2017-Jul-22 09:00N 24°26' E 117°50'8081453749.5
2017-Jul-22 09:00N 37°33' E 121°23'59112364587.3
2017-Jul-22 09:00N 33°27' W 117°42'61441228707.1
2017-Jul-22 09:00N 29°53' E 122°04'467140057.0
2017-Jul-22 08:59N 37°39' E 121°30'36823670.6
2017-Jul-22 08:58N 31°31' E 121°19'5119433.3
2017-Jul-22 08:55N 39°56' E 119°39'230.5
2017-Jul-22 08:51N 39°56' E 119°42'164458.6
2017-Jul-22 08:30N 37°33' E 121°23'9633466544.0
2017-Jul-22 08:30N 22°58' E 113°38'627322353.2
2017-Jul-22 08:30N 29°56' E 122°19'408244661.8
2017-Jul-22 08:30N 24°26' E 117°50'39723838.8
2017-Jul-22 08:29N 29°53' E 122°03'61426619.3
2017-Jul-22 08:27N 39°56' E 119°42'253.3
2017-Jul-22 08:25N 39°56' E 119°39'51111425.4
2017-Jul-22 08:22N 31°31' E 121°19'36810438.8
2017-Jul-22 08:20N 37°39' E 121°30'36726952.8
2017-Jul-22 08:20N 31°33' E 121°18'110344.5
2017-Jul-22 08:00N 29°56' E 122°19'408489329.4
2017-Jul-22 08:00N 24°26' E 117°50'39752981.4
2017-Jul-22 08:00N 29°54' E 122°03'6141106082.3
2017-Jul-22 08:00N 22°58' E 113°38'9631155514.7
2017-Jul-22 08:00N 37°33' E 121°23'3609191.3
2017-Jul-22 07:58N 31°33' E 121°18'509203725.5
2017-Jul-22 07:57N 39°56' E 119°42'16014078.5
2017-Jul-22 07:57N 37°39' E 121°29'36818414.0
2017-Jul-22 07:55N 31°31' E 121°19'51191974.6
2017-Jul-22 07:55N 39°56' E 119°39'10944416.6
2017-Jul-22 07:40N 22°19' E 114°08'9896083.7
2017-Jul-22 07:31N 37°33' E 121°23'36092569.2
2017-Jul-22 07:30N 31°33' E 121°18'6581183761.3
2017-Jul-22 07:30N 22°58' E 113°38'614184318.9
2017-Jul-22 07:30N 29°53' E 122°03'3971430057.0
2017-Jul-22 07:30N 24°26' E 117°50'40840777.4
2017-Jul-22 07:29N 29°56' E 122°19'465334676.7
2017-Jul-22 07:29N 37°39' E 121°29'99634160.6
2017-Jul-22 07:28N 22°19' E 114°09'1095246305.3
2017-Jul-22 07:27N 39°56' E 119°42'5116254.7
2017-Jul-22 07:22N 31°31' E 121°19'5119385.1
2017-Jul-22 07:19N 39°56' E 119°39'591434560.7
2017-Jul-22 07:09N 33°27' W 117°42'614443118.1
2017-Jul-22 07:00N 29°53' E 122°03'39775265.2
2017-Jul-22 07:00N 24°26' E 117°50'464278684.9
2017-Jul-22 07:00N 31°33' E 121°18'360129596.9
2017-Jul-22 07:00N 37°33' E 121°23'81201.7
2017-Jul-22 06:59N 37°39' E 121°29'1604730.6
2017-Jul-22 06:57N 39°56' E 119°42'253.7
2017-Jul-22 06:55N 39°56' E 119°39'51111285.2
2017-Jul-22 06:52N 31°31' E 121°19'6576048.7
2017-Jul-22 06:46N 22°58' E 113°38'743.1
2017-Jul-22 06:36N 22°51' E 113°35'63416177.1
2017-Jul-22 06:33N 29°56' E 122°19'14272.7
2017-Jul-22 06:30N 29°53' E 122°03'39740858.3
2017-Jul-22 06:30N 24°26' E 117°50'8081453760.0
2017-Jul-22 06:30N 37°33' E 121°23'963577757.3
2017-Jul-22 06:30N 22°58' E 113°38'971268950.8
2017-Jul-22 06:29N 37°39' E 121°29'36750798.6
2017-Jul-22 06:29N 31°33' E 121°18'2197.7
2017-Jul-22 06:28N 31°31' E 121°19'51127042.3
2017-Jul-22 06:27N 39°56' E 119°42'613157696.9
2017-Jul-22 06:27N 29°56' E 122°19'61418718.5
2017-Jul-22 06:25N 39°56' E 119°39'10945692.5
2017-Jul-22 06:14N 22°19' E 114°09'471817.0
2017-Jul-22 06:12N 22°52' E 113°34'13204.7
2017-Jul-22 06:08N 22°41' E 113°40'62433014.8
2017-Jul-22 06:07N 29°54' E 122°01'106934.5
2017-Jul-22 06:00N 31°33' E 121°18'360323997.7
2017-Jul-22 06:00N 37°33' E 121°23'46092089.7
2017-Jul-22 06:00N 29°53' E 122°03'614245767.9
2017-Jul-22 06:00N 22°58' E 113°38'24774223.9
2017-Jul-22 06:00N 24°26' E 117°50'815154502.3
2017-Jul-22 05:59N 37°39' E 121°29'36823675.1
2017-Jul-22 05:58N 31°31' E 121°19'1084803.5
2017-Jul-22 05:57N 29°56' E 122°19'61418718.7
2017-Jul-22 05:55N 39°56' E 119°39'6146087.9
2017-Jul-22 05:49N 29°54' E 122°04'61912319.6
2017-Jul-22 05:46N 22°56' E 113°33'106885414.5
2017-Jul-22 05:45N 39°56' E 119°42'9385298.3
2017-Jul-22 05:35N 24°21' E 118°13'21296.0
2017-Jul-22 05:30N 24°26' E 117°50'808415363.0
2017-Jul-22 05:30N 37°33' E 121°23'80885542.2
2017-Jul-22 05:30N 24°22' E 118°12'816146804.9
2017-Jul-22 05:29N 37°39' E 121°29'36733864.6
2017-Jul-22 05:29N 31°33' E 121°18'658295938.1
2017-Jul-22 05:29N 22°58' E 113°38'657295631.1
2017-Jul-22 05:28N 31°31' E 121°19'1055189.3
2017-Jul-22 05:27N 29°53' E 122°03'61874197.3
2017-Jul-22 05:27N 22°58' E 113°32'62124576.3
2017-Jul-22 05:25N 29°55' E 122°07'613441599.9
2017-Jul-22 05:25N 39°56' E 119°39'230.6
2017-Jul-22 05:21N 39°56' E 119°42'2603865.5
2017-Jul-22 05:17N 35°36' E 119°47'8513818.3
2017-Jul-22 05:04N 22°19' E 114°09'55936.3
2017-Jul-22 05:00N 23°01' E 113°31'962247491.5
2017-Jul-22 05:00N 37°33' E 121°23'808363442.6
2017-Jul-22 05:00N 24°26' E 117°50'177598.3
2017-Jul-22 05:00N 24°22' E 118°08'39367295.3
2017-Jul-22 05:00N 29°54' E 122°04'466167891.6
2017-Jul-22 04:59N 37°39' E 121°29'971317847.5
2017-Jul-22 04:59N 22°58' E 113°38'65752556.3
2017-Jul-22 04:58N 31°31' E 121°19'235.3
2017-Jul-22 04:56N 31°33' E 121°18'50947028.7
2017-Jul-22 04:55N 39°56' E 119°39'230.1
2017-Jul-22 04:51N 39°56' E 119°42'109542384.4
2017-Jul-22 04:50N 22°19' E 114°09'62654964.7
2017-Jul-22 04:49N 29°55' E 122°07'1057.0
2017-Jul-22 04:38N 29°56' E 122°19'612968738.6
2017-Jul-22 04:33N 33°27' W 117°42'6546145464.2
2017-Jul-22 04:30N 24°25' E 118°05'806967591.1
2017-Jul-22 04:30N 37°33' E 121°23'96393690.4
2017-Jul-22 04:30N 22°58' E 113°38'658591876.3
2017-Jul-22 04:30N 31°33' E 121°18'367220119.9
2017-Jul-22 04:29N 37°39' E 121°29'8152935523.3
2017-Jul-22 04:29N 24°26' E 117°50'397158987.8
2017-Jul-22 04:29N 29°53' E 122°03'1058060.3
2017-Jul-22 04:28N 31°31' E 121°19'658789232.7
2017-Jul-22 04:28N 23°01' E 113°32'6836273437.5
2017-Jul-22 04:27N 33°27' W 117°42'6140227883.0
2017-Jul-22 04:25N 29°55' E 122°07'613368066.6
2017-Jul-22 04:25N 39°56' E 119°39'109414809.0
2017-Jul-22 04:21N 22°19' E 114°09'109512091.2
2017-Jul-22 04:15N 39°56' E 119°42'6142485.1
2017-Jul-22 04:01N 29°53' E 122°03'46078942.6
2017-Jul-22 04:00N 37°33' E 121°23'8071452398.8
2017-Jul-22 04:00N 24°25' E 117°60'25527035.5
2017-Jul-22 04:00N 22°58' E 113°38'658591876.3
2017-Jul-22 04:00N 31°33' E 121°18'658592521.8
2017-Jul-22 03:59N 23°01' E 113°32'970698597.1
2017-Jul-22 03:59N 37°39' E 121°29'46598441.9
2017-Jul-22 03:59N 29°56' E 122°19'10810516.9
2017-Jul-22 03:58N 31°31' E 121°19'46369517.6
2017-Jul-22 03:58N 24°26' E 117°50'93580127.3
2017-Jul-22 03:57N 39°56' E 119°42'254.1
2017-Jul-22 03:55N 39°56' E 119°39'613441684.1
2017-Jul-22 03:55N 29°55' E 122°07'626204868.2
2017-Jul-22 03:55N 22°19' E 114°09'239587.5
2017-Jul-22 03:30N 24°26' E 117°50'464152008.1
2017-Jul-22 03:30N 31°33' E 121°18'10796211.4
2017-Jul-22 03:30N 29°53' E 122°04'615116538.6
2017-Jul-22 03:30N 22°58' E 113°38'25247689.3
2017-Jul-22 03:30N 24°24' E 117°56'816195888.7
2017-Jul-22 03:29N 37°39' E 121°29'97071285.0
2017-Jul-22 03:29N 23°01' E 113°32'658473542.9
2017-Jul-22 03:28N 31°31' E 121°19'1082882.9
2017-Jul-22 03:26N 29°56' E 122°19'10598.8
2017-Jul-22 03:25N 29°55' E 122°07'6132208399.5
2017-Jul-22 03:25N 39°56' E 119°39'211.9
2017-Jul-22 03:15N 39°56' E 119°42'6142438.8
2017-Jul-22 03:00N 29°53' E 122°04'460127518.2
2017-Jul-22 03:00N 37°33' E 121°23'962119421.1
2017-Jul-22 03:00N 23°01' E 113°32'970349296.6
2017-Jul-22 02:59N 37°39' E 121°29'971437033.0
2017-Jul-22 02:59N 22°58' E 113°38'65852611.2
2017-Jul-22 02:59N 31°33' E 121°18'46461932.2
2017-Jul-22 02:58N 24°26' E 117°50'46310904.7
2017-Jul-22 02:56N 31°31' E 121°19'672186155.2
2017-Jul-22 02:55N 22°19' E 114°09'1094656532.9
2017-Jul-22 02:55N 39°56' E 119°39'613736133.2
2017-Jul-22 02:55N 29°55' E 122°07'10299.5
2017-Jul-22 02:53N 29°56' E 122°19'8837601.7
2017-Jul-22 02:46N 20°06' E 110°15'2481640.5
2017-Jul-22 02:37N 22°44' E 113°40'107717631.0
2017-Jul-22 02:33N 39°56' E 119°42'61412275.3
2017-Jul-22 02:30N 29°53' E 122°04'615369038.8
2017-Jul-22 02:30N 22°58' E 113°38'963577757.3
2017-Jul-22 02:30N 37°33' E 121°23'459150082.4
2017-Jul-22 02:30N 29°56' E 122°19'635134457.0
2017-Jul-22 02:30N 22°44' E 113°40'187351.0
2017-Jul-22 02:30N 23°01' E 113°32'658790029.0
2017-Jul-22 02:30N 31°33' E 121°18'288.2
2017-Jul-22 02:28N 31°31' E 121°19'463556140.8
2017-Jul-22 02:28N 24°26' E 117°50'93553418.5
2017-Jul-22 02:27N 39°56' E 119°42'1609621.0
2017-Jul-22 02:26N 37°39' E 121°29'1618176.4
2017-Jul-22 02:25N 39°56' E 119°39'6131104199.7
2017-Jul-22 02:25N 29°55' E 122°07'87543161.8
2017-Jul-22 02:24N 20°02' E 110°16'2572733.2
2017-Jul-22 02:18N 22°19' E 114°09'682933177.6
2017-Jul-22 02:06N 33°27' W 117°42'655871537.4
2017-Jul-22 02:00N 24°26' E 117°50'24789067.2
2017-Jul-22 02:00N 22°58' E 113°38'658473501.0
2017-Jul-22 02:00N 31°33' E 121°18'61241574844.9
2017-Jul-22 02:00N 33°27' W 117°42'59114256257.2
2017-Jul-22 02:00N 37°33' E 121°23'81030.5
2017-Jul-22 01:59N 37°39' E 121°29'36823257.0
2017-Jul-22 01:58N 31°31' E 121°19'51127447.3
2017-Jul-22 01:57N 39°56' E 119°42'1063109311.5
2017-Jul-22 01:57N 23°01' E 113°32'106240671.1
2017-Jul-22 01:55N 39°56' E 119°39'6132208399.5
2017-Jul-22 01:55N 29°55' E 122°07'62522287.5
2017-Jul-22 01:53N 22°48' E 113°37'6342311.0
2017-Jul-22 01:37N 29°56' E 122°19'8910649.7
2017-Jul-22 01:37N 31°14' E 121°29'0 4.5
2017-Jul-22 01:30N 31°15' E 121°29'6582369885.0
2017-Jul-22 01:30N 22°49' E 113°36'252227212.3
2017-Jul-22 01:30N 24°26' E 117°50'398143203.0
2017-Jul-22 01:30N 29°53' E 122°04'615116538.6
2017-Jul-22 01:30N 22°58' E 113°38'78120.0
2017-Jul-22 01:30N 23°01' E 113°32'962692642.6
2017-Jul-22 01:30N 37°33' E 121°23'81196.6
2017-Jul-22 01:29N 37°39' E 121°29'36735688.8
2017-Jul-22 01:29N 31°33' E 121°18'6124202273.7
2017-Jul-22 01:27N 33°27' W 117°42'6125253430.6
2017-Jul-22 01:25N 31°31' E 121°19'511108208.4
2017-Jul-22 01:25N 39°56' E 119°39'230.3
2017-Jul-22 01:21N 39°56' E 119°42'61316597.7
2017-Jul-22 01:19N 29°55' E 122°07'10115.3
2017-Jul-22 01:14N 29°56' E 122°19'4592063.6
2017-Jul-22 01:00N 37°33' E 121°23'360129599.1
2017-Jul-22 01:00N 31°33' E 121°18'10722638.0
2017-Jul-22 01:00N 29°53' E 122°04'61796544.6
2017-Jul-22 01:00N 23°01' E 113°32'970232859.4
2017-Jul-22 00:59N 37°39' E 121°29'815587075.6
2017-Jul-22 00:59N 24°26' E 117°50'253101114.2
2017-Jul-22 00:59N 22°52' E 113°34'7737.9
2017-Jul-22 00:59N 22°58' E 113°38'657337876.5
2017-Jul-22 00:58N 31°31' E 121°19'6125247735.7
2017-Jul-22 00:57N 33°27' W 117°42'5914195315.3
2017-Jul-22 00:55N 39°56' E 119°39'6131104199.7
2017-Jul-22 00:55N 29°55' E 122°07'6139767.6
2017-Jul-22 00:51N 39°56' E 119°42'6133237.1
2017-Jul-22 00:40N 29°56' E 122°19'4592896.3
2017-Jul-22 00:31N 37°33' E 121°23'808264327.7
2017-Jul-22 00:30N 24°26' E 117°50'398357808.9
2017-Jul-22 00:30N 29°53' E 122°04'10738461.5
2017-Jul-22 00:30N 31°33' E 121°18'658263056.1
2017-Jul-22 00:30N 22°58' E 113°38'71282.1
2017-Jul-22 00:30N 23°01' E 113°32'970268682.5
2017-Jul-22 00:29N 37°39' E 121°29'976219570.3
2017-Jul-22 00:29N 22°54' E 113°34'66256749.7
2017-Jul-22 00:28N 31°31' E 121°19'6125253430.6
2017-Jul-22 00:27N 33°27' W 117°42'591263338.6
2017-Jul-22 00:21N 39°56' E 119°42'613147179.5
2017-Jul-22 00:21N 29°56' E 122°19'61418560.7
2017-Jul-22 00:19N 39°56' E 119°39'5091630.3
2017-Jul-22 00:00N 31°33' E 121°18'360185138.5
2017-Jul-22 00:00N 37°33' E 121°23'9621731606.5
2017-Jul-22 00:00N 23°01' E 113°32'6172219687.5
2017-Jul-22 00:00N 29°54' E 122°03'61538162.5
2017-Jul-21 23:59N 22°58' E 113°38'2479088.3
2017-Jul-21 23:58N 24°26' E 117°50'25231330.3
2017-Jul-21 23:57N 22°57' E 113°33'974109588.7
2017-Jul-21 23:57N 37°39' E 121°29'36818670.0
2017-Jul-21 23:55N 31°31' E 121°19'511108209.6
2017-Jul-21 23:55N 39°56' E 119°39'230.3
2017-Jul-21 23:51N 39°56' E 119°42'52416411.6
2017-Jul-21 23:49N 31°20' E 121°33'921037.3
2017-Jul-21 23:44N 29°56' E 122°19'15986.3
2017-Jul-21 23:43N 29°54' E 122°02'106497.7
2017-Jul-21 23:30N 31°33' E 121°18'658263343.0
2017-Jul-21 23:30N 23°01' E 113°32'617739841.6
2017-Jul-21 23:30N 29°53' E 122°04'461828936.9
2017-Jul-21 23:30N 37°33' E 121°23'459330151.9
2017-Jul-21 23:30N 29°56' E 122°19'62768378.8
2017-Jul-21 23:30N 22°58' E 113°38'971268936.0
2017-Jul-21 23:29N 37°39' E 121°29'36825991.1
2017-Jul-21 23:29N 31°31' E 121°19'65937632.0
2017-Jul-21 23:27N 22°59' E 113°34'1065766559.4
2017-Jul-21 23:27N 39°56' E 119°42'93576486.1
2017-Jul-21 23:27N 24°26' E 117°50'39616975.9
2017-Jul-21 23:25N 29°54' E 121°60'613551601.3
2017-Jul-21 23:25N 39°56' E 119°39'591484818.2
2017-Jul-21 23:21N 33°27' W 117°42'6120131924.5
2017-Jul-21 23:18N 31°21' E 121°32'3721261.1
2017-Jul-21 23:01N 37°33' E 121°23'459825379.8
2017-Jul-21 23:00N 29°56' E 122°19'110131475.8
2017-Jul-21 23:00N 31°33' E 121°18'1656595.5
2017-Jul-21 23:00N 31°21' E 121°30'656262418.3
2017-Jul-21 23:00N 22°58' E 113°38'71353.3
2017-Jul-21 23:00N 23°01' E 113°32'6171110263.3
2017-Jul-21 23:00N 29°53' E 122°04'616316976.1
2017-Jul-21 23:00N 22°59' E 113°34'971139820.8
2017-Jul-21 22:59N 37°39' E 121°29'815978445.3
2017-Jul-21 22:59N 24°26' E 117°50'46333368.8
2017-Jul-21 22:59N 31°31' E 121°19'51126271.0
2017-Jul-21 22:57N 39°56' E 119°42'253.7
2017-Jul-21 22:55N 39°56' E 119°39'591484818.2
2017-Jul-21 22:51N 33°27' W 117°42'614746987.1
2017-Jul-21 22:43N 29°54' E 121°59'3961879.2
2017-Jul-21 22:31N 24°26' E 117°50'250449912.8
2017-Jul-21 22:30N 22°59' E 113°34'31000.3
2017-Jul-21 22:30N 23°01' E 113°32'658474017.4
2017-Jul-21 22:30N 31°33' E 121°18'360259193.9
2017-Jul-21 22:30N 37°33' E 121°23'460138144.8
2017-Jul-21 22:30N 29°53' E 122°04'9415400.9
2017-Jul-21 22:30N 31°23' E 121°30'376135531.5
2017-Jul-21 22:29N 37°39' E 121°30'465104565.7
2017-Jul-21 22:29N 29°56' E 122°19'1089482.6
2017-Jul-21 22:28N 31°31' E 121°19'51128291.8
2017-Jul-21 22:27N 39°56' E 119°42'106545086.0
2017-Jul-21 22:26N 22°58' E 113°38'106483250.5
2017-Jul-21 22:25N 39°56' E 119°39'6131102808.9
2017-Jul-21 22:25N 29°54' E 121°59'614789237.7
2017-Jul-21 22:21N 33°27' W 117°42'612417939.6
2017-Jul-21 22:01N 31°33' E 121°18'36061712.8
2017-Jul-21 22:00N 37°33' E 121°23'962288601.1
2017-Jul-21 22:00N 23°01' E 113°32'629205726.5
2017-Jul-21 22:00N 29°56' E 122°19'133639.6
2017-Jul-21 22:00N 29°53' E 122°04'398357989.6
2017-Jul-21 22:00N 24°26' E 117°50'815419333.7
2017-Jul-21 21:59N 37°39' E 121°30'3751350616.1
2017-Jul-21 21:59N 31°24' E 121°31'13832.4
2017-Jul-21 21:58N 31°31' E 121°19'51128291.8
2017-Jul-21 21:57N 39°56' E 119°42'1064319161.3
2017-Jul-21 21:57N 22°59' E 113°34'4898.6
2017-Jul-21 21:57N 22°58' E 113°38'106436471.7
2017-Jul-21 21:55N 39°56' E 119°39'6133050.6
2017-Jul-21 21:43N 29°54' E 121°59'3961854.7
2017-Jul-21 21:30N 24°26' E 117°50'252905634.7
2017-Jul-21 21:30N 23°01' E 113°32'6171110263.3
2017-Jul-21 21:30N 29°53' E 122°04'10796211.4
2017-Jul-21 21:30N 31°33' E 121°18'36092569.2
2017-Jul-21 21:30N 37°33' E 121°23'9633466544.0
2017-Jul-21 21:30N 22°58' E 113°38'6591185762.4
2017-Jul-21 21:30N 31°27' E 121°28'66091321.5
2017-Jul-21 21:29N 22°59' E 113°34'6282261223.9
2017-Jul-21 21:29N 29°56' E 122°19'465334618.8
2017-Jul-21 21:29N 37°39' E 121°30'36824101.3
2017-Jul-21 21:28N 31°31' E 121°19'51127447.3
2017-Jul-21 21:27N 39°56' E 119°42'253.7
2017-Jul-21 21:25N 39°56' E 119°39'504870169.1
2017-Jul-21 21:21N 49°18' W 122°54'539616819.8
2017-Jul-21 21:02N 31°22' E 121°30'5397252316.5
2017-Jul-21 21:00N 49°18' W 122°53'54456534427.3
2017-Jul-21 21:00N 29°53' E 122°04'90161934.0
2017-Jul-21 21:00N 31°19' E 121°33'6572366323.9
2017-Jul-21 21:00N 23°01' E 113°32'6581185043.5
2017-Jul-21 21:00N 31°33' E 121°18'155929.4
2017-Jul-21 21:00N 31°22' E 121°30'656295287.6
2017-Jul-21 21:00N 22°58' E 113°38'9631733272.0
2017-Jul-21 21:00N 37°33' E 121°23'459330160.5
2017-Jul-21 21:00N 29°56' E 122°19'40852427.5
2017-Jul-21 20:59N 24°26' E 117°50'93528044.2
2017-Jul-21 20:57N 39°56' E 119°42'16014086.9
2017-Jul-21 20:57N 37°39' E 121°30'37019587.9
2017-Jul-21 20:56N 31°29' E 121°24'517883.9
2017-Jul-21 20:55N 31°31' E 121°19'511102198.0
2017-Jul-21 20:55N 39°56' E 119°39'165400.7
2017-Jul-21 20:31N 37°33' E 121°23'459330160.5
2017-Jul-21 20:30N 29°56' E 122°19'107127831.8
2017-Jul-21 20:30N 31°31' E 121°22'10446854.1
2017-Jul-21 20:30N 29°53' E 122°04'617116869.8
2017-Jul-21 20:30N 23°01' E 113°32'724359.9
2017-Jul-21 20:30N 22°58' E 113°38'97199892.8
2017-Jul-21 20:29N 37°39' E 121°30'815122305.7
2017-Jul-21 20:29N 24°26' E 117°50'5905332165.5
2017-Jul-21 20:28N 49°19' W 123°08'5385881196.7
2017-Jul-21 20:28N 31°33' E 121°18'509183353.0
2017-Jul-21 20:27N 39°56' E 119°42'51116131.3
2017-Jul-21 20:25N 31°31' E 121°19'511114972.7
2017-Jul-21 20:25N 39°56' E 119°39'165400.7
2017-Jul-21 20:01N 37°33' E 121°23'962865803.2
2017-Jul-21 20:00N 23°01' E 113°32'659339116.7
2017-Jul-21 20:00N 31°33' E 121°19'10755075.4
2017-Jul-21 20:00N 29°53' E 122°04'39889498.5
2017-Jul-21 20:00N 24°26' E 117°50'247296895.5
2017-Jul-21 20:00N 22°58' E 113°38'658215227.7
2017-Jul-21 20:00N 31°33' E 121°18'36762880.5
2017-Jul-21 19:59N 37°39' E 121°30'46536372.9
2017-Jul-21 19:59N 29°56' E 122°19'10838893.4
2017-Jul-21 19:58N 31°31' E 121°19'51127447.3
2017-Jul-21 19:57N 39°56' E 119°42'253.3
2017-Jul-21 19:55N 39°56' E 119°39'5226956.3
2017-Jul-21 19:51N 31°22' E 121°30'6571956.5
2017-Jul-21 19:31N 23°01' E 113°32'9621154410.7
2017-Jul-21 19:30N 37°33' E 121°23'808290754.1
2017-Jul-21 19:30N 24°26' E 117°50'39865089.8
2017-Jul-21 19:30N 29°53' E 122°04'615123013.8
2017-Jul-21 19:30N 22°58' E 113°38'65852611.6
2017-Jul-21 19:29N 31°33' E 121°18'2246.5
2017-Jul-21 19:28N 31°31' E 121°19'54707.5
2017-Jul-21 19:28N 31°36' E 121°17'50628446.2
2017-Jul-21 19:27N 39°56' E 119°42'16013431.3
2017-Jul-21 19:27N 37°39' E 121°30'1616753.6
2017-Jul-21 19:25N 39°56' E 119°39'5225275.8
2017-Jul-21 19:19N 31°22' E 121°30'612127716.1
2017-Jul-21 19:06N 33°27' W 117°42'612465618.5
2017-Jul-21 19:00N 31°33' E 121°18'360431989.8
2017-Jul-21 19:00N 37°33' E 121°23'460207217.2
2017-Jul-21 19:00N 29°53' E 122°04'617317218.1
2017-Jul-21 19:00N 23°01' E 113°32'72030.0
2017-Jul-21 19:00N 22°58' E 113°38'66037707.4
2017-Jul-21 18:59N 31°38' E 121°14'213664.8
2017-Jul-21 18:59N 31°22' E 121°30'1312008.8
2017-Jul-21 18:58N 31°31' E 121°19'46333367.6
2017-Jul-21 18:58N 24°26' E 117°50'935224352.1
2017-Jul-21 18:57N 39°56' E 119°42'59121064089.5
2017-Jul-21 18:57N 33°27' W 117°42'5903758901.3
2017-Jul-21 18:57N 37°39' E 121°30'1616997.7
2017-Jul-21 18:55N 39°56' E 119°39'6142556.6
2017-Jul-21 18:41N 29°56' E 122°19'6293650.1
2017-Jul-21 18:30N 23°01' E 113°32'962346321.3
2017-Jul-21 18:30N 37°33' E 121°23'460828868.6
2017-Jul-21 18:30N 29°53' E 122°04'46731709.2
2017-Jul-21 18:29N 37°39' E 121°30'815733839.3
2017-Jul-21 18:29N 24°26' E 117°50'247296895.5
2017-Jul-21 18:29N 22°58' E 113°38'65878916.8
2017-Jul-21 18:29N 31°33' E 121°18'2312.9
2017-Jul-21 18:28N 31°31' E 121°19'1086484.5
2017-Jul-21 18:27N 29°56' E 122°19'61416123.1
2017-Jul-21 18:25N 39°56' E 119°39'50127737.0
2017-Jul-21 18:24N 31°41' E 121°11'50111057.5
2017-Jul-21 18:21N 39°56' E 119°42'591223107.3
2017-Jul-21 18:06N 33°27' W 117°42'612467014.7
2017-Jul-21 18:01N 31°33' E 121°18'658592521.8
2017-Jul-21 18:00N 23°01' E 113°32'252100626.1
2017-Jul-21 18:00N 24°26' E 117°50'808415360.0
2017-Jul-21 18:00N 37°33' E 121°23'963203914.4
2017-Jul-21 18:00N 22°58' E 113°38'971116542.2
2017-Jul-21 17:59N 37°39' E 121°30'35833055.8
2017-Jul-21 17:59N 31°42' E 121°09'132518.3
2017-Jul-21 17:58N 31°31' E 121°19'6125256379.6
2017-Jul-21 17:57N 33°27' W 117°42'6129310773.1
2017-Jul-21 17:56N 29°56' E 122°19'61455222.3
2017-Jul-21 17:55N 39°56' E 119°39'230.2
2017-Jul-21 17:51N 39°56' E 119°42'106420052.1
2017-Jul-21 17:48N 22°59' E 113°34'65740783.8
2017-Jul-21 17:47N 31°22' E 121°30'1553.9
2017-Jul-21 17:31N 31°33' E 121°18'360161996.2
2017-Jul-21 17:30N 37°33' E 121°23'3501260504.3
2017-Jul-21 17:30N 31°43' E 121°07'470423115.8
2017-Jul-21 17:30N 24°26' E 117°50'39865089.8
2017-Jul-21 17:30N 29°53' E 122°04'615110711.6
2017-Jul-21 17:30N 22°58' E 113°38'7870.0
2017-Jul-21 17:29N 23°01' E 113°32'65859192.5
2017-Jul-21 17:28N 31°31' E 121°19'51127445.9
2017-Jul-21 17:27N 39°56' E 119°42'59121013418.6
2017-Jul-21 17:27N 33°27' W 117°42'68352050432.6
2017-Jul-21 17:27N 22°59' E 113°34'971249689.9
2017-Jul-21 17:27N 37°39' E 121°30'1617083.1
2017-Jul-21 17:25N 39°56' E 119°39'61410568.9
2017-Jul-21 17:22N 29°56' E 122°19'952435.8
2017-Jul-21 17:19N 31°22' E 121°30'1546.6
2017-Jul-21 17:00N 31°33' E 121°18'107127975.7
2017-Jul-21 17:00N 29°53' E 122°03'616316608.6
2017-Jul-21 17:00N 22°59' E 113°34'9633465915.8
2017-Jul-21 17:00N 37°33' E 121°23'80896917.3
2017-Jul-21 17:00N 24°26' E 117°50'247445343.2
2017-Jul-21 17:00N 22°58' E 113°38'971349624.7
2017-Jul-21 16:59N 37°39' E 121°30'36824099.8
2017-Jul-21 16:59N 31°31' E 121°19'10814965.6
2017-Jul-21 16:58N 29°56' E 122°19'629282860.2
2017-Jul-21 16:58N 23°01' E 113°32'657591386.1
2017-Jul-21 16:58N 31°22' E 121°30'52211736.4
2017-Jul-21 16:55N 39°56' E 119°39'5914295685.7
2017-Jul-21 16:54N 33°27' W 117°42'6153186137.7
2017-Jul-21 16:52N 31°59' E 120°26'47944189.8
2017-Jul-21 16:51N 39°56' E 119°42'5253869.5
2017-Jul-21 16:43N 31°19' E 121°33'90415.8
2017-Jul-21 16:30N 29°53' E 122°03'107384530.4
2017-Jul-21 16:30N 31°33' E 121°18'36099689.9
2017-Jul-21 16:30N 37°33' E 121°23'963495220.6
2017-Jul-21 16:30N 22°58' E 113°38'42244.9
2017-Jul-21 16:30N 22°59' E 113°34'971139825.6
2017-Jul-21 16:29N 37°39' E 121°30'815419333.7
2017-Jul-21 16:29N 24°26' E 117°50'25226636.3
2017-Jul-21 16:29N 23°01' E 113°32'658169121.3
2017-Jul-21 16:28N 31°31' E 121°19'51127042.3
2017-Jul-21 16:27N 39°56' E 119°42'59121120094.2
2017-Jul-21 16:27N 33°27' W 117°42'6153205096.3
2017-Jul-21 16:25N 31°59' E 120°26'479430857.9
2017-Jul-21 16:25N 39°56' E 119°39'5029111062.3
2017-Jul-21 16:22N 49°22' W 123°18'541174641.3
2017-Jul-21 16:18N 29°56' E 122°19'951368.3
2017-Jul-21 16:14N 31°22' E 121°30'6572934.7
2017-Jul-21 16:00N 22°59' E 113°34'658131673.7
2017-Jul-21 16:00N 31°33' E 121°18'36092570.8
2017-Jul-21 16:00N 37°33' E 121°23'808153026.3
2017-Jul-21 16:00N 24°26' E 117°50'815183455.9
2017-Jul-21 15:59N 37°39' E 121°30'466239751.3
2017-Jul-21 15:59N 29°54' E 122°04'5435425358.1
2017-Jul-21 15:58N 49°19' W 123°05'6180404488.1
2017-Jul-21 15:58N 22°58' E 113°38'7343.1
2017-Jul-21 15:56N 23°01' E 113°32'65843049.7
2017-Jul-21 15:55N 31°31' E 121°19'526506.9
2017-Jul-21 15:55N 31°59' E 120°26'615328507.6
2017-Jul-21 15:42N 33°27' W 117°42'612431317.9
2017-Jul-21 15:30N 31°33' E 121°18'65879004.8
2017-Jul-21 15:30N 22°59' E 113°34'41036.1
2017-Jul-21 15:30N 22°58' E 113°38'9631733272.0
2017-Jul-21 15:30N 37°33' E 121°23'82499.9
2017-Jul-21 15:29N 37°39' E 121°30'815122307.4
2017-Jul-21 15:29N 24°26' E 117°50'2528085.9
2017-Jul-21 15:27N 23°01' E 113°32'683612304685.4
2017-Jul-21 15:27N 33°27' W 117°42'9791174791.0
2017-Jul-21 15:27N 49°18' W 122°56'5395206625.1
2017-Jul-21 15:25N 31°31' E 121°19'52458.0
2017-Jul-21 15:19N 31°59' E 120°26'151497.8
2017-Jul-21 15:00N 29°53' E 122°03'10754915.7
2017-Jul-21 15:00N 31°33' E 121°18'658789168.4
2017-Jul-21 15:00N 22°58' E 113°38'9631155514.7
2017-Jul-21 15:00N 37°33' E 121°23'962494744.7
2017-Jul-21 15:00N 23°01' E 113°32'68366152342.7
2017-Jul-21 15:00N 33°27' W 117°42'68351892707.0
2017-Jul-21 15:00N 22°59' E 113°34'971134447.7
2017-Jul-21 14:59N 37°39' E 121°30'815139780.9
2017-Jul-21 14:59N 24°26' E 117°50'46350561.2
2017-Jul-21 14:58N 31°31' E 121°19'5218867.7
2017-Jul-21 14:58N 31°59' E 120°26'15631176.0
2017-Jul-21 14:58N 29°56' E 122°19'110239.3
2017-Jul-21 14:31N 31°33' E 121°18'658790036.4
2017-Jul-21 14:30N 22°59' E 113°34'32750.9
2017-Jul-21 14:30N 23°01' E 113°32'72706.7
2017-Jul-21 14:30N 22°58' E 113°38'963123805.8
2017-Jul-21 14:30N 37°33' E 121°23'460207065.5
2017-Jul-21 14:30N 29°53' E 121°58'14828053.8
2017-Jul-21 14:29N 31°59' E 120°26'523699.5
2017-Jul-21 14:28N 31°31' E 121°19'46321120.5
2017-Jul-21 14:27N 24°26' E 117°50'81581538.9
2017-Jul-21 14:27N 37°39' E 121°30'819.1
2017-Jul-21 14:00N 37°33' E 121°23'360185138.5
2017-Jul-21 14:00N 31°33' E 121°18'6581185043.5
2017-Jul-21 14:00N 23°01' E 113°32'31222.6
2017-Jul-21 14:00N 22°59' E 113°34'25029026.2
2017-Jul-21 14:00N 24°26' E 117°50'815172671.8
2017-Jul-21 13:59N 37°39' E 121°30'971499466.6
2017-Jul-21 13:59N 22°58' E 113°38'61154997.9
2017-Jul-21 13:59N 29°53' E 121°58'1486196.4
2017-Jul-21 13:57N 31°59' E 120°26'52676.3
2017-Jul-21 13:52N 31°31' E 121°19'108616.8
2017-Jul-21 13:42N 29°56' E 122°19'110575.2
2017-Jul-21 13:31N 31°33' E 121°18'5192103.0
2017-Jul-21 13:31N 31°59' E 120°26'6511172472.8
2017-Jul-21 13:30N 22°59' E 113°34'963577649.3
2017-Jul-21 13:30N 37°33' E 121°23'36111513.5
2017-Jul-21 13:28N 31°31' E 121°19'65725430.8
2017-Jul-21 13:27N 22°58' E 113°38'611109995.2
2017-Jul-21 13:27N 29°53' E 121°58'395284217.5
2017-Jul-21 13:27N 24°26' E 117°50'815489240.3
2017-Jul-21 13:26N 37°39' E 121°30'97081231.9
2017-Jul-21 13:26N 23°01' E 113°32'6294335.4
2017-Jul-21 13:17N 29°56' E 122°19'612948387.8
2017-Jul-21 13:09N 33°27' W 117°42'612441365.5
2017-Jul-21 13:01N 31°33' E 121°18'61243674638.0
2017-Jul-21 13:00N 33°27' W 117°42'59112660160.8
2017-Jul-21 13:00N 37°33' E 121°23'962203718.4
2017-Jul-21 13:00N 23°01' E 113°32'658169128.8
2017-Jul-21 13:00N 31°31' E 121°19'658139282.4
2017-Jul-21 12:59N 22°59' E 113°34'61264836.7
2017-Jul-21 12:59N 29°53' E 121°58'39518698.5
2017-Jul-21 12:58N 24°26' E 117°50'81545160.6
2017-Jul-21 12:57N 37°39' E 121°30'3453142.0
2017-Jul-21 12:50N 31°59' E 120°26'1562597.8
2017-Jul-21 12:46N 29°56' E 122°19'6282365.4
2017-Jul-21 12:30N 22°59' E 113°34'628226136.7
2017-Jul-21 12:30N 29°56' E 122°19'459330159.8
2017-Jul-21 12:30N 37°33' E 121°23'962288601.1
2017-Jul-21 12:30N 23°01' E 113°32'658263343.0
2017-Jul-21 12:30N 31°33' E 121°18'5126315.1
2017-Jul-21 12:30N 31°59' E 120°26'34556413.9
2017-Jul-21 12:29N 37°39' E 121°30'97176006.2
2017-Jul-21 12:29N 22°58' E 113°38'24749481.3
2017-Jul-21 12:28N 24°26' E 117°50'4641003.1
2017-Jul-21 12:01N 31°33' E 121°18'6581185054.6
2017-Jul-21 12:00N 22°59' E 113°34'9631155298.6
2017-Jul-21 12:00N 37°33' E 121°23'963315140.4
2017-Jul-21 12:00N 22°58' E 113°38'97165967.3
2017-Jul-21 11:59N 37°39' E 121°30'465119503.6
2017-Jul-21 11:59N 29°56' E 122°19'629323288.4
2017-Jul-21 11:59N 23°01' E 113°32'252452803.4
2017-Jul-21 11:59N 24°26' E 117°50'47316218.2
2017-Jul-21 11:57N 31°59' E 120°26'527555.6
2017-Jul-21 11:57N 31°31' E 121°19'104249.8
2017-Jul-21 11:32N 29°53' E 121°58'39516524.5
2017-Jul-21 11:31N 24°26' E 117°50'808126417.6
2017-Jul-21 11:30N 37°33' E 121°23'963173294.8
2017-Jul-21 11:30N 22°59' E 113°34'6582367801.2
2017-Jul-21 11:30N 31°31' E 121°19'10843200.8
2017-Jul-21 11:30N 29°56' E 122°19'465128696.2
2017-Jul-21 11:29N 37°39' E 121°30'970698594.2
2017-Jul-21 11:29N 23°01' E 113°32'65146881.4
2017-Jul-21 11:28N 31°59' E 120°26'65144214.4
2017-Jul-21 11:28N 22°58' E 113°38'6117665.1
2017-Jul-21 11:23N 29°53' E 121°58'6121645.1
2017-Jul-21 11:00N 22°59' E 113°34'963315083.3
2017-Jul-21 11:00N 37°33' E 121°23'3601295969.3
2017-Jul-21 11:00N 31°33' E 121°18'2176.0
2017-Jul-21 11:00N 31°31' E 121°19'65748268.7
2017-Jul-21 10:59N 22°58' E 113°38'71873.8
2017-Jul-21 10:59N 23°01' E 113°32'97026262.9
2017-Jul-21 10:57N 37°39' E 121°30'467111978.9
2017-Jul-21 10:56N 29°53' E 121°58'61319354.5
2017-Jul-21 10:54N 39°56' E 119°42'93532358.3
2017-Jul-21 10:53N 24°26' E 117°50'47317199.9
2017-Jul-21 10:51N 31°59' E 120°26'6704601.8
2017-Jul-21 10:42N 22°19' E 114°09'109431513.4
2017-Jul-21 10:40N 39°56' E 119°39'5093031.6
2017-Jul-21 10:30N 31°33' E 121°18'360185138.5
2017-Jul-21 10:30N 37°33' E 121°23'361108420.0
2017-Jul-21 10:30N 31°31' E 121°19'658107627.4
2017-Jul-21 10:29N 23°01' E 113°32'9703492970.9
2017-Jul-21 10:29N 37°39' E 121°30'46542899.8
2017-Jul-21 10:29N 29°56' E 122°19'61466929.8
2017-Jul-21 10:28N 39°56' E 119°39'106421883.0
2017-Jul-21 10:25N 22°58' E 113°38'491025.8
2017-Jul-21 10:22N 22°19' E 114°09'67010393.8
2017-Jul-21 10:19N 31°59' E 120°26'4735772.2
2017-Jul-21 10:14N 24°26' E 117°50'3952021.7
2017-Jul-21 10:02N 29°53' E 121°58'1054253.6
2017-Jul-21 10:00N 31°33' E 121°18'6582370087.0
2017-Jul-21 10:00N 23°01' E 113°32'1063765180.3
2017-Jul-21 10:00N 39°56' E 119°42'1065958076.6
2017-Jul-21 10:00N 22°58' E 113°38'963693308.8
2017-Jul-21 10:00N 37°33' E 121°23'80854858.1
2017-Jul-21 09:59N 24°26' E 117°50'395710632.1
2017-Jul-21 09:59N 29°53' E 121°58'620111545.5
2017-Jul-21 09:59N 22°19' E 114°09'63587860.8
2017-Jul-21 09:58N 29°56' E 122°19'15656096.8
2017-Jul-21 09:58N 31°59' E 120°26'479215429.0
2017-Jul-21 09:58N 39°56' E 119°39'51121143.9
2017-Jul-21 09:57N 31°31' E 121°19'368132555.1
2017-Jul-21 09:57N 37°39' E 121°30'9718610.0
2017-Jul-21 09:50N 22°59' E 113°34'52161.1
2017-Jul-21 09:30N 22°19' E 114°09'55198236.7
2017-Jul-21 09:30N 23°01' E 113°32'10633825901.4
2017-Jul-21 09:30N 39°56' E 119°42'1065638721.2
2017-Jul-21 09:30N 22°58' E 113°38'963866641.0
2017-Jul-21 09:30N 37°33' E 121°23'36061712.8
2017-Jul-21 09:30N 31°33' E 121°18'21126.3
2017-Jul-21 09:30N 31°31' E 121°19'36857632.6
2017-Jul-21 09:29N 37°39' E 121°30'465557712.3
2017-Jul-21 09:29N 29°56' E 122°19'1562710.1
2017-Jul-21 09:26N 31°59' E 120°26'4797693.9
2017-Jul-21 09:22N 39°56' E 119°39'61111273.3
2017-Jul-21 09:19N 29°56' E 121°59'39814909.3
2017-Jul-21 09:17N 24°26' E 117°50'8082890.2
2017-Jul-21 09:01N 37°33' E 121°23'9621154404.3
2017-Jul-21 09:00N 23°01' E 113°32'629323284.5
2017-Jul-21 09:00N 29°56' E 122°19'408293590.6
2017-Jul-21 09:00N 24°26' E 117°50'247890693.8
2017-Jul-21 09:00N 22°58' E 113°38'658124605.5
2017-Jul-21 09:00N 31°33' E 121°18'2433.2
2017-Jul-21 09:00N 31°31' E 121°19'10145414.8
2017-Jul-21 09:00N 29°56' E 121°59'61026153.5
2017-Jul-21 08:58N 39°56' E 119°39'47938298.5
2017-Jul-21 08:57N 31°59' E 120°26'34525328.7
2017-Jul-21 08:57N 37°39' E 121°30'99719604.7
2017-Jul-21 08:54N 22°19' E 114°09'52185.1
2017-Jul-21 08:37N 22°59' E 113°34'329.5
2017-Jul-21 08:30N 23°01' E 113°32'9621731606.5
2017-Jul-21 08:30N 37°33' E 121°23'96267.4
2017-Jul-21 08:30N 37°39' E 121°30'464238442.0
2017-Jul-21 08:30N 29°56' E 121°59'622203619.1
2017-Jul-21 08:30N 22°19' E 114°09'23933149.4
2017-Jul-21 08:30N 24°26' E 117°50'464238869.9
2017-Jul-21 08:30N 31°33' E 121°18'11013602.9
2017-Jul-21 08:29N 29°56' E 122°19'1082902.0
2017-Jul-21 08:27N 31°31' E 121°19'521765.4
2017-Jul-21 08:25N 31°59' E 120°26'4794297.8
2017-Jul-21 08:18N 39°56' E 119°42'106439081.2
2017-Jul-21 08:17N 22°59' E 113°34'311.3
2017-Jul-21 08:00N 23°01' E 113°32'9731751408.3
2017-Jul-21 08:00N 37°40' E 121°36'128737.3
2017-Jul-21 08:00N 37°33' E 121°23'37295699.1
2017-Jul-21 08:00N 31°21' E 121°32'162702.1
2017-Jul-21 08:00N 31°31' E 121°19'10877772.9
2017-Jul-21 08:00N 29°56' E 122°19'11098621.2
2017-Jul-21 08:00N 31°33' E 121°18'673807623.6
2017-Jul-21 08:00N 22°19' E 114°09'67066984.6
2017-Jul-21 07:59N 31°59' E 120°26'6519643.6
2017-Jul-21 07:55N 22°58' E 113°38'2477548.2
2017-Jul-21 07:53N 24°26' E 117°50'2504165.9
2017-Jul-21 07:49N 22°59' E 113°34'61558253.9
2017-Jul-21 07:49N 29°57' E 121°58'6152023.0
2017-Jul-21 07:30N 23°01' E 113°32'658474017.4
2017-Jul-21 07:30N 31°33' E 121°18'360185138.5
2017-Jul-21 07:30N 37°33' E 121°23'1657279.3
2017-Jul-21 07:30N 37°40' E 121°41'818173257.8
2017-Jul-21 07:30N 24°26' E 117°50'463128339.9
2017-Jul-21 07:30N 31°31' E 121°19'657215016.9
2017-Jul-21 07:30N 22°58' E 113°38'491161.9
2017-Jul-21 07:27N 22°19' E 114°09'670120679.0
2017-Jul-21 07:27N 31°22' E 121°30'6572364903.9
2017-Jul-21 07:27N 22°59' E 113°34'62898313.5
2017-Jul-21 07:26N 29°56' E 122°19'6134599.3
2017-Jul-21 07:18N 39°56' E 119°42'2189.1
2017-Jul-21 07:18N 39°56' E 119°39'6107195.4
2017-Jul-21 07:13N 29°57' E 121°58'69437.0
2017-Jul-21 07:03N 31°03' E 122°20'611367.8
2017-Jul-21 07:01N 31°33' E 121°18'368264930.3
2017-Jul-21 07:00N 37°40' E 121°47'167200959.2
2017-Jul-21 07:00N 39°56' E 119°42'613441539.6
2017-Jul-21 07:00N 29°56' E 122°19'6291131482.0
2017-Jul-21 07:00N 23°01' E 113°32'962144300.5
2017-Jul-21 07:00N 37°33' E 121°23'369166189.9
2017-Jul-21 07:00N 31°23' E 121°30'139186.5
2017-Jul-21 07:00N 31°31' E 121°19'463834209.2
2017-Jul-21 07:00N 24°26' E 117°50'23916262.0
2017-Jul-21 06:59N 22°19' E 114°09'4921930.8
2017-Jul-21 06:59N 22°58' E 113°38'673151349.8
2017-Jul-21 06:58N 31°04' E 122°20'70379.2
2017-Jul-21 06:47N 31°41' E 121°10'41180.2
2017-Jul-21 06:34N 31°58' E 120°26'3376786.8
2017-Jul-21 06:31N 37°33' E 121°23'2316421.2
2017-Jul-21 06:30N 37°40' E 121°51'980293855.9
2017-Jul-21 06:30N 22°58' E 113°38'660395736.2
2017-Jul-21 06:30N 31°42' E 121°08'124454.3
2017-Jul-21 06:30N 31°33' E 121°18'4641672109.3
2017-Jul-21 06:30N 24°26' E 117°50'252301878.2
2017-Jul-21 06:30N 23°01' E 113°32'65828527.7
2017-Jul-21 06:29N 31°31' E 121°19'10810233.3
2017-Jul-21 06:28N 29°56' E 122°19'983313.3
2017-Jul-21 06:26N 31°25' E 121°30'4713142.4
2017-Jul-21 06:26N 31°08' E 122°21'54420605.5
2017-Jul-21 06:24N 39°56' E 119°42'2 6.4
2017-Jul-21 06:06N 39°56' E 119°39'5095346.6
2017-Jul-21 06:00N 31°33' E 121°18'3681326353.6
2017-Jul-21 06:00N 37°40' E 121°54'263421.9
2017-Jul-21 05:59N 37°33' E 121°23'459825453.3
2017-Jul-21 05:59N 29°56' E 122°19'1087072.6
2017-Jul-21 05:59N 31°31' E 121°19'463119174.2
2017-Jul-21 05:58N 24°26' E 117°50'23920043.5
2017-Jul-21 05:58N 22°19' E 114°09'559439.8
2017-Jul-21 05:57N 23°01' E 113°32'7406.0
2017-Jul-21 05:56N 22°58' E 113°38'106534217.0
2017-Jul-21 05:54N 39°56' E 119°42'53939573.4
2017-Jul-21 05:54N 31°13' E 122°22'51224.4
2017-Jul-21 05:40N 31°29' E 121°25'635532.4
2017-Jul-21 05:39N 31°58' E 120°19'4797836.4
2017-Jul-21 05:36N 39°56' E 119°39'106212291.7
2017-Jul-21 05:30N 23°01' E 113°32'10623822703.8
2017-Jul-21 05:30N 39°56' E 119°39'513205348.2
2017-Jul-21 05:30N 31°29' E 121°24'6582370545.9
2017-Jul-21 05:30N 22°58' E 113°38'963288880.3
2017-Jul-21 05:30N 37°33' E 121°23'808969180.3
2017-Jul-21 05:30N 24°26' E 117°50'464836054.6
2017-Jul-21 05:30N 31°33' E 121°18'36925515.9
2017-Jul-21 05:29N 37°40' E 121°58'38324178.8
2017-Jul-21 05:28N 31°17' E 122°22'5519946.9
2017-Jul-21 05:28N 31°31' E 121°19'65817283.3
2017-Jul-21 05:26N 22°59' E 113°34'106449102.0
2017-Jul-21 05:24N 39°56' E 119°42'109520856.1
2017-Jul-21 05:21N 22°19' E 114°09'66436801.7
2017-Jul-21 05:20N 31°57' E 120°17'6461958.1
2017-Jul-21 05:00N 22°59' E 113°34'10641914977.9
2017-Jul-21 05:00N 39°56' E 119°42'16425639.1
2017-Jul-21 05:00N 37°33' E 121°23'36068208.9
2017-Jul-21 05:00N 31°33' E 121°18'4641672109.3
2017-Jul-21 05:00N 24°26' E 117°50'46475980.9
2017-Jul-21 04:59N 31°31' E 121°21'289.8
2017-Jul-21 04:58N 31°31' E 121°19'65855067.0
2017-Jul-21 04:57N 23°01' E 113°32'64313378.1
2017-Jul-21 04:54N 31°56' E 120°14'64314196.1
2017-Jul-21 04:52N 22°58' E 113°38'68714720.4
2017-Jul-21 04:49N 31°23' E 122°21'52933418.6
2017-Jul-21 04:48N 39°56' E 119°39'6132298.1
2017-Jul-21 04:32N 29°56' E 122°19'0 0.0
2017-Jul-21 04:30N 29°56' E 122°19'109391178.3
2017-Jul-21 04:30N 31°32' E 121°20'4651673644.3
2017-Jul-21 04:30N 24°26' E 117°50'46472700.4
2017-Jul-21 04:30N 31°33' E 121°18'6581183752.6
2017-Jul-21 04:30N 22°58' E 113°38'724359.9
2017-Jul-21 04:30N 23°01' E 113°32'9621731606.5
2017-Jul-21 04:30N 37°33' E 121°23'165592363.7
2017-Jul-21 04:30N 39°56' E 119°39'48115450.1
2017-Jul-21 04:28N 31°56' E 120°10'11422734.2
2017-Jul-21 04:28N 31°26' E 122°19'5269420.4
2017-Jul-21 04:24N 39°56' E 119°42'591260979.3
2017-Jul-21 04:19N 33°27' W 117°42'612763748.7
2017-Jul-21 04:13N 31°44' E 121°07'1154128.7
2017-Jul-21 04:11N 29°56' E 121°52'615234824.5
2017-Jul-21 04:00N 33°27' W 117°42'59122364643.4
2017-Jul-21 04:00N 39°56' E 119°42'1065766461.3
2017-Jul-21 04:00N 22°58' E 113°38'9631155514.7
2017-Jul-21 04:00N 37°33' E 121°23'459330207.8
2017-Jul-21 04:00N 29°56' E 122°19'11351018.0
2017-Jul-21 04:00N 31°36' E 121°17'467841236.0
2017-Jul-21 04:00N 24°26' E 117°50'934480501.4
2017-Jul-21 04:00N 39°56' E 119°39'1063136666.7
2017-Jul-21 03:59N 22°59' E 113°34'661793282.8
2017-Jul-21 03:59N 31°43' E 121°08'661339940.4
2017-Jul-21 03:59N 23°01' E 113°32'69185767.9
2017-Jul-21 03:59N 31°29' E 122°18'9614356.1
2017-Jul-21 03:58N 29°56' E 121°52'15030039.6
2017-Jul-21 03:58N 31°56' E 120°07'63420.4
2017-Jul-21 03:49N 31°36' E 121°17'3571156.9
2017-Jul-21 03:31N 37°33' E 121°23'353636251.9
2017-Jul-21 03:31N 31°39' E 121°13'502180784.4
2017-Jul-21 03:30N 39°56' E 119°42'61344157.8
2017-Jul-21 03:30N 29°56' E 122°19'1206101.6
2017-Jul-21 03:28N 31°41' E 121°10'66055280.0
2017-Jul-21 03:28N 22°58' E 113°38'2479182.4
2017-Jul-21 03:26N 24°26' E 117°50'46827163.4
2017-Jul-21 03:25N 31°37' E 121°15'6604276.2
2017-Jul-21 03:16N 22°59' E 113°34'68351892707.0
2017-Jul-21 03:15N 33°27' W 117°42'607346223.4
2017-Jul-21 03:08N 31°35' E 122°17'1065236.5
2017-Jul-21 03:06N 31°56' E 120°15'4689963.3
2017-Jul-21 03:04N 24°24' E 117°58'2575615.2
2017-Jul-21 03:01N 23°01' E 113°32'0 0.0
2017-Jul-21 03:01N 23°01' E 113°32'9621154404.3
2017-Jul-21 03:00N 37°33' E 121°23'353635321.2
2017-Jul-21 03:00N 31°40' E 121°13'502451507.6
2017-Jul-21 03:00N 39°56' E 119°42'1064191497.8
2017-Jul-21 03:00N 22°59' E 113°34'660108058.0
2017-Jul-21 03:00N 31°42' E 121°09'660593728.8
2017-Jul-21 03:00N 22°58' E 113°38'62735814.8
2017-Jul-21 02:59N 29°56' E 122°19'4088435.7
2017-Jul-21 02:56N 24°26' E 117°50'655894808.7
2017-Jul-21 02:51N 33°27' W 117°42'6125440973.5
2017-Jul-21 02:51N 31°39' E 121°13'4691398.6
2017-Jul-21 02:31N 24°25' E 117°53'936374303.2
2017-Jul-21 02:30N 39°56' E 119°42'164589699.3
2017-Jul-21 02:30N 37°33' E 121°23'962104945.8
2017-Jul-21 02:30N 23°01' E 113°32'66133513.8
2017-Jul-21 02:29N 31°38' E 121°16'660103351.2
2017-Jul-21 02:28N 22°58' E 113°38'660103295.2
2017-Jul-21 02:28N 31°45' E 121°04'66126132.5
2017-Jul-21 02:26N 22°59' E 113°34'25020450.3
2017-Jul-21 02:26N 24°26' E 117°50'655895191.0
2017-Jul-21 02:21N 33°27' W 117°42'612638553.0
2017-Jul-21 02:12N 31°41' E 121°11'1191350.5
2017-Jul-21 02:07N 29°56' E 122°19'4085644.0
2017-Jul-21 02:02N 24°25' E 117°52'46814896.8
2017-Jul-21 02:00N 31°36' E 121°18'506303648.9
2017-Jul-21 02:00N 39°56' E 119°42'164196566.4
2017-Jul-21 02:00N 37°33' E 121°23'807581221.8
2017-Jul-21 02:00N 24°26' E 117°53'25438049.0
2017-Jul-21 02:00N 23°01' E 113°32'252100623.0
2017-Jul-21 02:00N 24°26' E 117°50'2509181.7
2017-Jul-21 01:58N 22°59' E 113°34'41925.5
2017-Jul-21 01:58N 22°58' E 113°38'6603402.2
2017-Jul-21 01:46N 31°42' E 121°09'6127501274.1
2017-Jul-21 01:46N 33°27' W 117°42'612972107.3
2017-Jul-21 01:40N 29°56' E 122°19'4083007.1
2017-Jul-21 01:32N 24°25' E 117°52'6557216552.1
2017-Jul-21 01:30N 33°27' W 117°42'591121281286.1
2017-Jul-21 01:30N 37°33' E 121°23'16484242.8
2017-Jul-21 01:30N 39°56' E 119°42'935420542.1
2017-Jul-21 01:30N 24°26' E 117°53'25290841.5
2017-Jul-21 01:30N 22°59' E 113°34'66079248.5
2017-Jul-21 01:30N 31°34' E 121°20'46649364.4
2017-Jul-21 01:29N 24°26' E 117°50'25230186.9
2017-Jul-21 01:28N 23°01' E 113°32'7329.2
2017-Jul-21 01:27N 22°58' E 113°38'62725354.6
2017-Jul-21 01:26N 29°56' E 122°19'45133123.2
2017-Jul-21 01:25N 37°27' E 122°11'81310454.0
2017-Jul-21 01:20N 24°25' E 117°52'8082455.1
2017-Jul-21 01:01N 37°33' E 121°23'9621154404.3
2017-Jul-21 01:00N 23°01' E 113°32'31833.9
2017-Jul-21 01:00N 22°59' E 113°34'10641276645.0
2017-Jul-21 01:00N 39°56' E 119°42'511612938.9
2017-Jul-21 01:00N 31°32' E 121°23'464334302.7
2017-Jul-21 01:00N 24°26' E 117°53'812487215.1
2017-Jul-21 01:00N 37°27' E 122°11'976113366.5
2017-Jul-21 01:00N 22°58' E 113°38'2477547.9
2017-Jul-21 00:58N 24°26' E 117°50'213.2
2017-Jul-21 00:50N 24°25' E 117°52'3949102.5
2017-Jul-21 00:48N 29°59' E 121°47'27159.8
2017-Jul-21 00:37N 29°56' E 122°19'6129424323.9
2017-Jul-21 00:37N 33°27' W 117°42'587558108.7
2017-Jul-21 00:30N 37°27' E 122°11'3917356.3
2017-Jul-21 00:30N 37°33' E 121°23'8082907604.5
2017-Jul-21 00:30N 24°26' E 117°50'465558059.3
2017-Jul-21 00:30N 31°30' E 121°25'464556804.8
2017-Jul-21 00:30N 24°26' E 117°53'25282583.1
2017-Jul-21 00:30N 22°59' E 113°34'2513981.1
2017-Jul-21 00:26N 24°25' E 117°52'6557226963.1
2017-Jul-21 00:25N 33°27' W 117°42'59121934706.8
2017-Jul-21 00:24N 39°56' E 119°42'47925355.1
2017-Jul-21 00:23N 31°58' E 120°27'65137815.4
2017-Jul-21 00:22N 23°01' E 113°32'733.2
2017-Jul-21 00:10N 22°58' E 113°38'9766176.4
2017-Jul-21 00:00N 37°27' E 122°11'189136259.6
2017-Jul-21 00:00N 39°56' E 119°42'935420539.4
2017-Jul-21 00:00N 24°26' E 117°53'807264134.5
2017-Jul-21 00:00N 37°33' E 121°23'9633465895.9
2017-Jul-21 00:00N 22°59' E 113°34'4158.6
2017-Jul-20 23:59N 22°58' E 113°38'24722837.4
2017-Jul-20 23:58N 24°26' E 117°50'2527201.1
2017-Jul-20 23:56N 23°02' E 113°31'66113828.5
2017-Jul-20 23:53N 31°28' E 121°28'611150.7
2017-Jul-20 23:50N 31°59' E 120°26'47914851.7
2017-Jul-20 23:48N 39°56' E 119°39'6134198.4
2017-Jul-20 23:39N 29°56' E 122°19'1523728.4
2017-Jul-20 23:37N 32°00' E 120°35'3373256.8
2017-Jul-20 23:30N 37°27' E 122°11'189136263.0
2017-Jul-20 23:30N 39°56' E 119°42'517186131.6
2017-Jul-20 23:30N 31°27' E 121°30'675142973.8
2017-Jul-20 23:30N 22°18' E 114°09'243436540.9
2017-Jul-20 23:30N 24°26' E 117°53'47289497.3
2017-Jul-20 23:30N 31°59' E 120°26'651101915.3
2017-Jul-20 23:29N 23°02' E 113°31'41786.2
2017-Jul-20 23:29N 22°59' E 113°34'250299934.7
2017-Jul-20 23:29N 24°26' E 117°50'24737110.7
2017-Jul-20 23:29N 22°58' E 113°38'62721089.7
2017-Jul-20 23:27N 29°56' E 122°19'15419135.3
2017-Jul-20 23:26N 32°01' E 120°33'614626688.2
2017-Jul-20 23:13N 33°27' W 117°42'616644040.4
2017-Jul-20 23:04N 31°56' E 120°12'4677852.5
2017-Jul-20 23:01N 24°26' E 117°53'475570447.5
2017-Jul-20 23:00N 32°02' E 120°26'654336409.2
2017-Jul-20 23:00N 22°59' E 113°34'10641276645.0
2017-Jul-20 23:00N 39°56' E 119°42'1096986578.8
2017-Jul-20 23:00N 22°17' E 114°09'5740944.3
2017-Jul-20 23:00N 23°02' E 113°31'629565875.1
2017-Jul-20 23:00N 29°56' E 122°19'451180309.5
2017-Jul-20 23:00N 37°27' E 122°11'3927770.1
2017-Jul-20 23:00N 37°33' E 121°23'36888423.5
2017-Jul-20 23:00N 31°24' E 121°31'6118174796.5
2017-Jul-20 22:58N 33°27' W 117°42'6153963046.8
2017-Jul-20 22:57N 31°59' E 120°26'4733960.9
2017-Jul-20 22:50N 24°26' E 117°50'4677101.1
2017-Jul-20 22:46N 31°56' E 120°12'1481054.1
2017-Jul-20 22:38N 29°56' E 121°52'1471238.5
2017-Jul-20 22:31N 32°01' E 120°23'476142855.9
2017-Jul-20 22:30N 39°56' E 119°42'9353365388.6
2017-Jul-20 22:30N 24°26' E 117°50'8132925836.7
2017-Jul-20 22:30N 37°27' E 122°11'812730827.9
2017-Jul-20 22:30N 24°26' E 117°53'8072905500.5
2017-Jul-20 22:30N 37°33' E 121°23'371190780.1
2017-Jul-20 22:30N 31°22' E 121°30'65787605.0
2017-Jul-20 22:30N 23°02' E 113°31'4255.2
2017-Jul-20 22:29N 22°59' E 113°34'628282652.8
2017-Jul-20 22:29N 29°56' E 122°19'1563224.3
2017-Jul-20 22:26N 31°59' E 120°26'143950.9
2017-Jul-20 22:17N 29°56' E 121°53'60913536.2
2017-Jul-20 22:14N 22°58' E 113°38'2471091.5
2017-Jul-20 22:00N 24°26' E 117°50'813975244.1
2017-Jul-20 22:00N 37°27' E 122°11'451324557.1
2017-Jul-20 22:00N 29°56' E 122°19'629188627.5
2017-Jul-20 22:00N 23°02' E 113°31'86903.1
2017-Jul-20 22:00N 22°58' E 113°38'963433320.5
2017-Jul-20 22:00N 37°33' E 121°23'963866474.0
2017-Jul-20 22:00N 22°59' E 113°34'25229303.5
2017-Jul-20 21:59N 24°26' E 117°53'47639872.2
2017-Jul-20 21:58N 32°03' E 120°25'4227.8
2017-Jul-20 21:57N 31°59' E 120°26'692194.1
2017-Jul-20 21:55N 31°20' E 121°34'373895.6
2017-Jul-20 21:30N 37°33' E 121°23'9621154157.1
2017-Jul-20 21:30N 23°02' E 113°31'44741.4
2017-Jul-20 21:30N 22°59' E 113°34'976702845.1
2017-Jul-20 21:30N 37°27' E 122°11'812974437.3
2017-Jul-20 21:30N 24°26' E 117°53'25052895.8
2017-Jul-20 21:30N 22°58' E 113°38'627141030.4
2017-Jul-20 21:30N 29°56' E 122°19'408163105.8
2017-Jul-20 21:30N 24°26' E 117°50'47347307.6
2017-Jul-20 21:29N 31°59' E 120°26'6258.0
2017-Jul-20 21:28N 32°04' E 120°28'4739059.6
2017-Jul-20 21:24N 39°56' E 119°42'5291910.8
2017-Jul-20 21:08N 31°15' E 121°32'3783062.9
2017-Jul-20 21:00N 37°33' E 121°23'164294840.2
2017-Jul-20 21:00N 39°56' E 119°42'935373817.6
2017-Jul-20 21:00N 24°26' E 117°53'25059948.6
2017-Jul-20 21:00N 22°58' E 113°38'82297.2
2017-Jul-20 21:00N 23°02' E 113°31'65254621.9
2017-Jul-20 20:59N 31°15' E 121°31'45325482.3
2017-Jul-20 20:58N 24°26' E 117°50'4798177.3
2017-Jul-20 20:54N 32°04' E 120°29'6559.8
2017-Jul-20 20:54N 31°59' E 120°26'3408798.8
2017-Jul-20 20:51N 37°27' E 122°11'45127046.4
2017-Jul-20 20:50N 29°56' E 122°19'25153.0
2017-Jul-20 20:41N 30°01' E 121°50'615152225.7
2017-Jul-20 20:34N 33°27' W 117°42'6125117920.1
2017-Jul-20 20:30N 31°13' E 121°30'530636380.2
2017-Jul-20 20:30N 39°56' E 119°42'16498283.2
2017-Jul-20 20:30N 37°33' E 121°23'963216619.7
2017-Jul-20 20:30N 22°59' E 113°34'252100935.0
2017-Jul-20 20:30N 24°26' E 117°53'406292544.5
2017-Jul-20 20:30N 29°56' E 122°19'40850619.1
2017-Jul-20 20:29N 24°26' E 117°50'4795970.3
2017-Jul-20 20:24N 32°04' E 120°29'3347900.5
2017-Jul-20 20:22N 37°27' E 122°11'97628806.2
2017-Jul-20 20:20N 22°58' E 113°38'8320.4
2017-Jul-20 20:18N 23°02' E 113°31'683627467.2
2017-Jul-20 20:04N 33°27' W 117°42'5912112009.4
2017-Jul-20 20:00N 39°56' E 119°42'10643829955.9
2017-Jul-20 20:00N 22°59' E 113°34'963866479.0
2017-Jul-20 20:00N 37°33' E 121°23'8082907520.1
2017-Jul-20 20:00N 24°26' E 117°50'247445343.2
2017-Jul-20 20:00N 22°58' E 113°38'250449614.3
2017-Jul-20 20:00N 24°26' E 117°53'25414312.6
2017-Jul-20 19:59N 23°02' E 113°31'97548768.7
2017-Jul-20 19:58N 37°27' E 122°11'45114111.4
2017-Jul-20 19:56N 29°56' E 122°19'543127892.6
2017-Jul-20 19:44N 49°18' W 122°54'59161774820.1
2017-Jul-20 19:44N 24°25' E 117°52'2 7.1
2017-Jul-20 19:30N 24°26' E 117°50'468336628.1
2017-Jul-20 19:30N 31°56' E 120°13'4671680707.5
2017-Jul-20 19:30N 24°26' E 117°53'8072905521.5
2017-Jul-20 19:30N 37°33' E 121°23'962173125.5
2017-Jul-20 19:30N 23°02' E 113°31'41293.1
2017-Jul-20 19:30N 22°59' E 113°34'4127.1
2017-Jul-20 19:28N 22°58' E 113°38'62720701.7
2017-Jul-20 19:26N 29°56' E 122°19'61321227.3
2017-Jul-20 19:24N 39°56' E 119°42'93513311.0
2017-Jul-20 19:20N 24°25' E 117°52'48022425.4
2017-Jul-20 19:19N 32°04' E 120°29'4734016.1
2017-Jul-20 19:12N 39°56' E 119°39'190342516.9
2017-Jul-20 19:12N 37°27' E 122°11'30517710.4
2017-Jul-20 19:11N 32°22' E 121°59'4672694.3
2017-Jul-20 19:00N 39°56' E 119°42'935420544.8
2017-Jul-20 19:00N 24°26' E 117°53'807581104.3
2017-Jul-20 19:00N 37°33' E 121°23'962865622.6
2017-Jul-20 19:00N 23°02' E 113°31'252181478.1
2017-Jul-20 19:00N 24°26' E 117°50'25024995.8
2017-Jul-20 18:59N 22°59' E 113°34'62830149.8
2017-Jul-20 18:58N 29°56' E 122°19'62713195.8
2017-Jul-20 18:55N 22°58' E 113°38'106444012.0
2017-Jul-20 18:54N 39°56' E 119°39'1901082.2
2017-Jul-20 18:43N 37°27' E 122°11'3452493.7
2017-Jul-20 18:35N 31°56' E 120°13'542171485.7
2017-Jul-20 18:30N 49°18' W 122°59'542719538404.0
2017-Jul-20 18:30N 29°56' E 122°19'6131103902.0
2017-Jul-20 18:30N 39°56' E 119°42'164147424.8
2017-Jul-20 18:30N 37°33' E 121°23'807484250.1
2017-Jul-20 18:30N 24°26' E 117°53'25218539.1
2017-Jul-20 18:29N 22°59' E 113°34'25019561.8
2017-Jul-20 18:29N 24°26' E 117°50'247890686.4
2017-Jul-20 18:29N 22°58' E 113°38'650111466.0
2017-Jul-20 18:28N 31°60' E 120°22'91048.4
2017-Jul-20 18:28N 31°56' E 120°13'1437792.8
2017-Jul-20 18:27N 30°01' E 121°50'4475012.8
2017-Jul-20 18:21N 37°27' E 122°11'1903293.4
2017-Jul-20 18:18N 39°56' E 119°39'4592338.2
2017-Jul-20 18:06N 32°30' E 121°57'5318202.6
2017-Jul-20 18:02N 24°25' E 117°52'2518446.0
2017-Jul-20 18:00N 22°59' E 113°34'250179968.1
2017-Jul-20 18:00N 24°26' E 117°50'31809.4
2017-Jul-20 18:00N 24°26' E 117°53'807193698.6
2017-Jul-20 18:00N 37°33' E 121°23'962150543.1
2017-Jul-20 18:00N 23°02' E 113°31'81450.3
2017-Jul-20 17:59N 22°58' E 113°38'6438423.8
2017-Jul-20 17:55N 31°57' E 120°14'48090981.8
2017-Jul-20 17:54N 39°56' E 119°42'479143663.7
2017-Jul-20 17:54N 31°58' E 120°20'4794523.5
2017-Jul-20 17:48N 39°56' E 119°39'4564875.5
2017-Jul-20 17:42N 32°33' E 121°57'91464.5
2017-Jul-20 17:30N 31°57' E 120°17'645290456.4
2017-Jul-20 17:30N 22°58' E 113°38'963150719.3
2017-Jul-20 17:30N 37°33' E 121°23'807152921.1
2017-Jul-20 17:30N 24°26' E 117°53'25275701.3
2017-Jul-20 17:29N 22°59' E 113°34'250299949.3
2017-Jul-20 17:29N 24°26' E 117°50'25243209.4
2017-Jul-20 17:29N 23°02' E 113°31'6515689.7
2017-Jul-20 17:22N 31°59' E 120°26'4797624.9
2017-Jul-20 17:18N 39°56' E 119°42'2248.0
2017-Jul-20 17:18N 39°56' E 119°39'61341668.8
2017-Jul-20 17:17N 29°56' E 122°19'4513855.0
2017-Jul-20 17:10N 37°27' E 122°11'81327357.1
2017-Jul-20 17:08N 24°25' E 117°52'110.8
2017-Jul-20 17:01N 24°26' E 117°53'935373817.6
2017-Jul-20 17:00N 39°56' E 119°42'935673060.5
2017-Jul-20 17:00N 24°26' E 117°50'808581504.0
2017-Jul-20 17:00N 37°33' E 121°23'963315083.3
2017-Jul-20 17:00N 22°59' E 113°34'42244.9
2017-Jul-20 17:00N 22°58' E 113°38'65146872.9
2017-Jul-20 16:59N 31°59' E 120°26'103011.2
2017-Jul-20 16:59N 31°56' E 120°15'34516334.2
2017-Jul-20 16:58N 37°27' E 122°11'58757050525.8
2017-Jul-20 16:58N 33°27' W 117°42'6129216324.3
2017-Jul-20 16:56N 29°56' E 122°19'6271469.0
2017-Jul-20 16:30N 22°58' E 113°38'250224807.2
2017-Jul-20 16:30N 24°26' E 117°53'31130.8
2017-Jul-20 16:30N 24°26' E 117°50'250899847.8
2017-Jul-20 16:30N 22°59' E 113°34'963216619.7
2017-Jul-20 16:30N 37°33' E 121°23'3913885.0
2017-Jul-20 16:30N 37°27' E 122°11'975184807.7
2017-Jul-20 16:29N 23°02' E 113°31'64212974.2
2017-Jul-20 16:26N 31°56' E 120°12'162291032.3
2017-Jul-20 16:26N 29°56' E 122°19'61318710.4
2017-Jul-20 16:24N 39°56' E 119°42'218.4
2017-Jul-20 16:18N 39°56' E 119°39'4735255.7
2017-Jul-20 16:12N 32°04' E 120°29'6191.2
2017-Jul-20 16:10N 31°59' E 120°26'1431034.8
2017-Jul-20 16:02N 29°56' E 121°53'1495542.3
2017-Jul-20 16:01N 31°56' E 120°09'342307965.9
2017-Jul-20 16:00N 37°33' E 121°23'963577652.6
2017-Jul-20 16:00N 22°59' E 113°34'628141318.7
2017-Jul-20 16:00N 29°56' E 122°19'406121880.5
2017-Jul-20 16:00N 24°26' E 117°53'3646.2
2017-Jul-20 16:00N 24°26' E 117°50'25243208.7
2017-Jul-20 15:59N 23°02' E 113°31'9753511327.3
2017-Jul-20 15:59N 37°27' E 122°11'97634795.6
2017-Jul-20 15:58N 22°58' E 113°38'65117360.7
2017-Jul-20 15:55N 31°59' E 120°26'337810.0
2017-Jul-20 15:30N 37°33' E 121°23'807290547.9
2017-Jul-20 15:30N 24°26' E 117°53'472154586.3
2017-Jul-20 15:30N 31°59' E 120°26'172129.7
2017-Jul-20 15:30N 31°57' E 120°06'640177144.8
2017-Jul-20 15:29N 23°02' E 113°31'9751170435.9
2017-Jul-20 15:29N 37°27' E 122°11'97683675.2
2017-Jul-20 15:29N 22°58' E 113°38'24755667.4
2017-Jul-20 15:28N 24°26' E 117°50'39410280.5
2017-Jul-20 15:26N 29°56' E 121°52'4511058.6
2017-Jul-20 15:00N 37°27' E 122°11'3915428.1
2017-Jul-20 15:00N 37°33' E 121°23'963157572.0
2017-Jul-20 15:00N 22°58' E 113°38'41036.8
2017-Jul-20 15:00N 22°59' E 113°34'4179.4
2017-Jul-20 14:58N 23°02' E 113°31'6297371.7
2017-Jul-20 14:53N 29°56' E 122°19'25130.6
2017-Jul-20 14:42N 29°57' E 121°50'781275.3
2017-Jul-20 14:38N 31°12' E 121°30'380586.7
2017-Jul-20 13:59N 37°33' E 121°23'394628.3
2017-Jul-20 13:59N 37°27' E 122°11'976234283.0
2017-Jul-20 13:59N 22°59' E 113°34'472.4
2017-Jul-20 13:56N 22°58' E 113°38'65168913.4
2017-Jul-20 13:55N 31°15' E 121°30'727589.6
2017-Jul-20 13:54N 32°04' E 120°29'65715670.7
2017-Jul-20 13:52N 23°01' E 113°32'61018933.8
2017-Jul-20 13:50N 29°57' E 121°51'6094772.7
2017-Jul-20 13:42N 39°56' E 119°42'10645319.4
2017-Jul-20 13:30N 22°59' E 113°34'10641914967.5
2017-Jul-20 13:30N 39°56' E 119°42'10631275328.2
2017-Jul-20 13:30N 23°01' E 113°32'9763512027.7
2017-Jul-20 13:30N 37°27' E 122°11'3915427.8
2017-Jul-20 13:30N 37°33' E 121°23'37814461.3
2017-Jul-20 13:29N 31°15' E 121°32'6529868.2
2017-Jul-20 13:25N 22°58' E 113°38'60860842.1
2017-Jul-20 13:24N 29°57' E 121°51'24109.8
2017-Jul-20 13:11N 29°56' E 122°19'1238508.2
2017-Jul-20 13:10N 31°43' E 121°08'470140943.9
2017-Jul-20 13:10N 24°26' E 117°53'4799262.3
2017-Jul-20 13:06N 32°04' E 120°29'3312133.4
2017-Jul-20 12:57N 37°33' E 121°23'962692658.5
2017-Jul-20 12:57N 23°01' E 113°32'3280.8
2017-Jul-20 12:56N 22°59' E 113°34'656112390.3
2017-Jul-20 12:56N 31°17' E 121°34'332543.9
2017-Jul-20 12:55N 31°42' E 121°10'6602376561.4
2017-Jul-20 12:55N 22°58' E 113°38'65756323.2
2017-Jul-20 12:55N 32°04' E 120°29'47928242.5
2017-Jul-20 12:54N 24°26' E 117°53'93510887.8
2017-Jul-20 12:48N 39°56' E 119°42'4793419.0
2017-Jul-20 12:40N 31°59' E 120°26'4792976.2
2017-Jul-20 12:30N 39°56' E 119°42'1063212554.7
2017-Jul-20 12:30N 23°01' E 113°32'962692658.5
2017-Jul-20 12:30N 37°33' E 121°23'96363016.3
2017-Jul-20 12:29N 22°59' E 113°34'4481.4
2017-Jul-20 12:29N 22°58' E 113°38'65649222.1
2017-Jul-20 12:28N 31°19' E 121°33'45749845.7
2017-Jul-20 12:27N 24°26' E 117°53'47910973.1
2017-Jul-20 12:25N 32°04' E 120°29'6221.9
2017-Jul-20 12:23N 31°59' E 120°26'1482432.2
2017-Jul-20 12:19N 29°54' E 121°59'6121942.5
2017-Jul-20 12:00N 39°56' E 119°42'935420542.1
2017-Jul-20 12:00N 24°26' E 117°53'807264134.5
2017-Jul-20 12:00N 37°33' E 121°23'372133935.2
2017-Jul-20 12:00N 31°21' E 121°32'65778865.7
2017-Jul-20 11:59N 22°59' E 113°34'454.6
2017-Jul-20 11:55N 22°58' E 113°38'6272176.1
2017-Jul-20 11:38N 29°56' E 122°19'4593542.7
2017-Jul-20 11:30N 37°33' E 121°23'370444403.2
2017-Jul-20 11:30N 31°22' E 121°30'657157574.7
2017-Jul-20 11:30N 22°58' E 113°38'4421.2
2017-Jul-20 11:29N 22°59' E 113°34'6284884.1
2017-Jul-20 11:22N 29°56' E 122°19'40652241.6
2017-Jul-20 11:21N 24°26' E 117°53'93519674.4
2017-Jul-20 11:18N 39°56' E 119°42'4735114.7
2017-Jul-20 11:13N 32°04' E 120°29'65718343.4
2017-Jul-20 11:11N 23°01' E 113°32'6293680.0
2017-Jul-20 11:00N 29°56' E 122°19'6132207692.9
2017-Jul-20 11:00N 39°56' E 119°42'1065547472.4
2017-Jul-20 11:00N 22°58' E 113°38'4408.4
2017-Jul-20 11:00N 22°59' E 113°34'963119513.7
2017-Jul-20 10:59N 37°33' E 121°23'96264135.4
2017-Jul-20 10:58N 23°01' E 113°32'660237527.8
2017-Jul-20 10:58N 31°24' E 121°31'67252.5
2017-Jul-20 10:42N 32°04' E 120°29'4793331.1
2017-Jul-20 10:34N 24°26' E 117°50'3188.5
2017-Jul-20 10:33N 24°26' E 117°53'80719900.5
2017-Jul-20 10:30N 37°33' E 121°23'164117939.9
2017-Jul-20 10:30N 39°56' E 119°42'10643829935.0
2017-Jul-20 10:30N 22°59' E 113°34'6602375100.2
2017-Jul-20 10:30N 31°26' E 121°29'6601187668.3
2017-Jul-20 10:30N 23°01' E 113°32'78105.2
2017-Jul-20 10:30N 22°58' E 113°38'25040874.4
2017-Jul-20 10:30N 24°26' E 117°53'406208962.8
2017-Jul-20 10:30N 29°56' E 122°19'4083783.7
2017-Jul-20 10:23N 24°26' E 117°50'8082113.1
2017-Jul-20 10:00N 37°33' E 121°23'963182416.6
2017-Jul-20 10:00N 22°59' E 113°34'250179963.8
2017-Jul-20 10:00N 24°26' E 117°50'31809.7
2017-Jul-20 10:00N 24°26' E 117°53'406243787.0
2017-Jul-20 10:00N 29°56' E 122°19'629282884.9
2017-Jul-20 10:00N 23°01' E 113°32'71012.7
2017-Jul-20 09:59N 22°58' E 113°38'6592372009.0
2017-Jul-20 09:59N 31°29' E 121°26'5156321.5
2017-Jul-20 09:54N 39°56' E 119°42'591217121.3
2017-Jul-20 09:34N 33°27' W 117°42'6122110745.0
2017-Jul-20 09:30N 31°30' E 121°23'463238080.9
2017-Jul-20 09:30N 24°26' E 117°53'25416931.0
2017-Jul-20 09:29N 23°01' E 113°32'962692658.5
2017-Jul-20 09:29N 37°33' E 121°23'459235828.9
2017-Jul-20 09:29N 29°56' E 122°19'6278954.3
2017-Jul-20 09:25N 22°58' E 113°38'1065109494.5
2017-Jul-20 09:24N 39°56' E 119°42'935152965.4
2017-Jul-20 09:24N 24°26' E 117°50'934480492.2
2017-Jul-20 09:24N 39°56' E 119°39'47350084.2
2017-Jul-20 09:23N 32°04' E 120°29'6117.7
2017-Jul-20 09:20N 31°59' E 120°26'57762892.3
2017-Jul-20 09:20N 22°60' E 116°36'10293211.8
2017-Jul-20 09:00N 39°56' E 119°42'16473712.4
2017-Jul-20 09:00N 37°33' E 121°23'906171627.9
2017-Jul-20 09:00N 23°01' E 116°37'516265170.1
2017-Jul-20 09:00N 29°56' E 122°19'40816493.8
2017-Jul-20 08:58N 24°26' E 117°50'4657095.0
2017-Jul-20 08:54N 31°33' E 121°20'543116.4
2017-Jul-20 08:53N 32°04' E 120°29'636.6
2017-Jul-20 08:43N 31°59' E 120°26'47921807.5
2017-Jul-20 08:42N 39°56' E 119°39'5193375.4
2017-Jul-20 08:33N 31°24' E 121°32'972812.6
2017-Jul-20 08:31N 29°56' E 122°19'512263556.0
2017-Jul-20 08:30N 23°03' E 116°40'9033251297.7
2017-Jul-20 08:30N 37°33' E 121°23'807264134.5
2017-Jul-20 08:30N 24°26' E 117°53'254457137.8
2017-Jul-20 08:30N 23°01' E 113°32'25212406.6
2017-Jul-20 08:29N 24°26' E 117°50'46630519.2
2017-Jul-20 08:28N 31°35' E 121°18'5078303.3
2017-Jul-20 08:24N 39°56' E 119°42'2232.0
2017-Jul-20 08:24N 39°56' E 119°39'4793720.9
2017-Jul-20 08:16N 31°59' E 120°26'6523468.9
2017-Jul-20 08:16N 31°23' E 121°30'612058438.3
2017-Jul-20 08:10N 33°27' W 117°42'655541767.4
2017-Jul-20 08:00N 24°26' E 117°53'25414066.0
2017-Jul-20 07:59N 23°01' E 113°32'660339614.0
2017-Jul-20 07:59N 31°37' E 121°16'565254442.5
2017-Jul-20 07:59N 23°06' E 116°43'557222964.9
2017-Jul-20 07:59N 31°21' E 121°31'371133719.2
2017-Jul-20 07:59N 37°33' E 121°23'3377685.2
2017-Jul-20 07:56N 31°59' E 120°26'47321025.6
2017-Jul-20 07:55N 24°26' E 117°50'4082535.3
2017-Jul-20 07:45N 29°56' E 122°19'61311561.8
2017-Jul-20 07:42N 39°56' E 119°39'106330370.5
2017-Jul-20 07:40N 22°59' E 113°34'6589000.4
2017-Jul-20 07:35N 32°04' E 120°29'4735677.4
2017-Jul-20 07:30N 39°56' E 119°42'10191833948.0
2017-Jul-20 07:30N 23°08' E 116°46'563675682.9
2017-Jul-20 07:30N 31°39' E 121°13'468841670.9
2017-Jul-20 07:30N 24°26' E 117°53'254457134.0
2017-Jul-20 07:30N 23°01' E 113°32'96265344.8
2017-Jul-20 07:29N 37°33' E 121°23'45923582.9
2017-Jul-20 07:28N 29°56' E 122°19'628376870.6
2017-Jul-20 07:28N 22°59' E 113°34'25037493.7
2017-Jul-20 07:28N 24°26' E 117°50'93414882.8
2017-Jul-20 07:24N 39°56' E 119°39'4794979.2
2017-Jul-20 07:18N 31°59' E 120°26'652.9
2017-Jul-20 07:11N 32°04' E 120°29'4732665.5
2017-Jul-20 07:00N 39°56' E 119°42'935305848.8
2017-Jul-20 07:00N 24°26' E 117°53'254457134.0
2017-Jul-20 07:00N 23°01' E 113°32'18250537.1
2017-Jul-20 07:00N 23°11' E 116°50'1015609065.0
2017-Jul-20 07:00N 39°56' E 119°39'50026094.5
2017-Jul-20 06:59N 31°41' E 121°10'12025425.0
2017-Jul-20 06:58N 29°56' E 122°19'40854368.0
2017-Jul-20 06:58N 24°26' E 117°50'47310384.7
2017-Jul-20 06:55N 31°59' E 120°26'651195438.7
2017-Jul-20 06:55N 22°59' E 113°34'68351171675.8
2017-Jul-20 06:55N 33°27' W 117°42'591214616.6
2017-Jul-20 06:30N 39°56' E 119°42'935105135.5
2017-Jul-20 06:30N 24°26' E 117°53'8072905500.3
2017-Jul-20 06:30N 37°33' E 121°23'9621731655.9
2017-Jul-20 06:30N 23°01' E 113°32'10621911349.4
2017-Jul-20 06:30N 39°56' E 119°39'49832018.7
2017-Jul-20 06:29N 31°43' E 121°07'47017817.9
2017-Jul-20 06:27N 24°26' E 117°50'408122329.4
2017-Jul-20 06:27N 29°56' E 122°19'612932211.6
2017-Jul-20 06:16N 33°27' W 117°42'655825576.7
2017-Jul-20 06:00N 24°26' E 117°50'808581504.0
2017-Jul-20 06:00N 37°33' E 121°23'888228241.7
2017-Jul-20 06:00N 23°15' E 116°57'8762875.5
2017-Jul-20 06:00N 24°26' E 117°53'40650435.1
2017-Jul-20 05:59N 29°56' E 122°19'6137238.6
2017-Jul-20 05:54N 39°56' E 119°42'2256.9
2017-Jul-20 05:54N 39°56' E 119°39'106213319.4
2017-Jul-20 05:49N 23°01' E 113°32'349.2
2017-Jul-20 05:45N 22°59' E 113°34'65190202.5
2017-Jul-20 05:45N 31°59' E 120°26'615344838.2
2017-Jul-20 05:37N 33°27' W 117°42'591256004.7
2017-Jul-20 05:30N 39°56' E 119°42'935420542.1
2017-Jul-20 05:30N 24°26' E 117°53'934140106.8
2017-Jul-20 05:30N 39°56' E 119°39'165296172.4
2017-Jul-20 05:30N 37°33' E 121°23'96284471.0
2017-Jul-20 05:29N 23°01' E 113°32'62955193.3
2017-Jul-20 05:28N 29°56' E 122°19'40854362.9
2017-Jul-20 05:28N 24°26' E 117°50'47329878.1
2017-Jul-20 05:27N 31°59' E 120°26'65123689.2
2017-Jul-20 05:25N 22°59' E 113°34'10642553.3
2017-Jul-20 05:00N 39°56' E 119°42'4791723265.3
2017-Jul-20 05:00N 31°59' E 120°26'47256680.3
2017-Jul-20 05:00N 24°26' E 117°53'9341681281.6
2017-Jul-20 05:00N 39°56' E 119°39'934336348.9
2017-Jul-20 05:00N 24°26' E 117°50'25269666.5
2017-Jul-20 04:59N 23°01' E 113°32'962119423.2
2017-Jul-20 04:59N 37°33' E 121°23'9637967.6
2017-Jul-20 04:52N 22°59' E 113°34'420.9
2017-Jul-20 04:41N 22°58' E 113°38'738.8
2017-Jul-20 04:31N 23°01' E 113°32'1063546569.2
2017-Jul-20 04:30N 39°56' E 119°42'164589699.3
2017-Jul-20 04:30N 37°33' E 121°23'807290547.9
2017-Jul-20 04:30N 24°26' E 117°53'25052896.2
2017-Jul-20 04:30N 22°58' E 113°38'1064765808.1
2017-Jul-20 04:30N 39°56' E 119°39'934258729.9
2017-Jul-20 04:30N 24°26' E 117°50'25025709.9
2017-Jul-20 04:29N 22°59' E 113°34'65118466.2
2017-Jul-20 04:27N 31°59' E 120°26'156546.0
2017-Jul-20 04:10N 29°56' E 122°19'6133914.7
2017-Jul-20 04:00N 39°56' E 119°42'16498283.2
2017-Jul-20 04:00N 37°33' E 121°23'807726369.8
2017-Jul-20 04:00N 24°26' E 117°53'934140106.8
2017-Jul-20 04:00N 39°56' E 119°39'106298021.7
2017-Jul-20 03:59N 23°01' E 113°32'25275477.7
2017-Jul-20 03:59N 24°26' E 117°50'25024995.8
2017-Jul-20 03:58N 22°59' E 113°34'6514518.7
2017-Jul-20 03:50N 31°59' E 120°26'6515007.8
2017-Jul-20 03:42N 22°58' E 113°38'9635053.3
2017-Jul-20 03:30N 37°33' E 121°23'962138538.1
2017-Jul-20 03:30N 23°01' E 113°32'1062294065.0
2017-Jul-20 03:30N 39°56' E 119°39'93457975.2
2017-Jul-20 03:29N 24°26' E 117°53'3164.5
2017-Jul-20 03:28N 24°26' E 117°50'25052932.2
2017-Jul-20 03:28N 22°59' E 113°34'62847101.9
2017-Jul-20 03:27N 29°56' E 122°19'61314527.4
2017-Jul-20 03:24N 39°56' E 119°42'106518694.2
2017-Jul-20 03:21N 22°58' E 113°38'6271824.0
2017-Jul-20 03:00N 29°56' E 122°19'627564077.8
2017-Jul-20 03:00N 22°58' E 113°38'9631155514.7
2017-Jul-20 03:00N 37°33' E 121°23'808193834.7
2017-Jul-20 03:00N 24°26' E 117°50'934480501.4
2017-Jul-20 03:00N 39°56' E 119°39'1062546120.7
2017-Jul-20 03:00N 23°01' E 113°32'3543.1
2017-Jul-20 02:59N 22°59' E 113°34'683587875.7
2017-Jul-20 02:55N 33°27' W 117°42'6153103023.7
2017-Jul-20 02:51N 31°59' E 120°26'4791383.0
2017-Jul-20 02:30N 39°56' E 119°42'2857.1
2017-Jul-20 02:30N 39°56' E 119°39'9341681331.4
2017-Jul-20 02:30N 24°26' E 117°53'807581095.9
2017-Jul-20 02:30N 37°33' E 121°23'459550431.2
2017-Jul-20 02:30N 29°56' E 122°19'62777803.8
2017-Jul-20 02:30N 22°58' E 113°38'41036.1
2017-Jul-20 02:29N 22°59' E 113°34'250224958.4
2017-Jul-20 02:29N 24°26' E 117°50'47329364.4
2017-Jul-20 02:28N 31°59' E 120°26'6153101605.9
2017-Jul-20 02:25N 33°27' W 117°42'683516852.9
2017-Jul-20 02:00N 22°59' E 113°34'10643829955.9
2017-Jul-20 02:00N 39°56' E 119°42'1063212563.9
2017-Jul-20 02:00N 23°01' E 113°32'9623463451.6
2017-Jul-20 02:00N 37°33' E 121°23'807290552.2
2017-Jul-20 02:00N 24°26' E 117°53'655576370.9
2017-Jul-20 01:55N 33°27' W 117°42'65585901836.2
2017-Jul-20 01:55N 24°26' E 117°50'47368125.4
2017-Jul-20 01:54N 31°59' E 120°26'6516934.0
2017-Jul-20 01:49N 22°58' E 113°38'627250707.4
2017-Jul-20 01:48N 29°56' E 122°19'61412270.5
2017-Jul-20 01:45N 39°56' E 119°39'9343596.3
2017-Jul-20 01:30N 24°26' E 117°53'25024978.6
2017-Jul-20 01:29N 22°58' E 113°38'963144439.3
2017-Jul-20 01:29N 37°33' E 121°23'33719584.6
2017-Jul-20 01:28N 31°59' E 120°26'61532768759.6
2017-Jul-20 01:28N 33°27' W 117°42'6836315506.8
2017-Jul-20 01:26N 23°01' E 113°32'3472.2
2017-Jul-20 01:26N 22°59' E 113°34'25039122.9
2017-Jul-20 01:26N 24°26' E 117°50'93486245.0
2017-Jul-20 01:25N 39°56' E 119°39'2189.3
2017-Jul-20 01:24N 39°56' E 119°42'47329366.0
2017-Jul-20 01:23N 32°04' E 120°29'4731232.4
2017-Jul-20 01:00N 39°56' E 119°42'935841331.0
2017-Jul-20 01:00N 24°26' E 117°50'31809.5
2017-Jul-20 01:00N 24°26' E 117°53'807968493.1
2017-Jul-20 01:00N 37°33' E 121°23'337303566.5
2017-Jul-20 01:00N 31°59' E 120°26'651106571.3
2017-Jul-20 01:00N 23°01' E 113°32'7361.6
2017-Jul-20 00:59N 22°58' E 113°38'41036.1
2017-Jul-20 00:58N 22°59' E 113°34'6835615129.5
2017-Jul-20 00:58N 33°27' W 117°42'659916305.4
2017-Jul-20 00:33N 23°39' E 117°36'45410099.1
2017-Jul-20 00:31N 29°56' E 122°19'614184100.8
2017-Jul-20 00:31N 39°56' E 119°39'2716.4
2017-Jul-20 00:30N 39°56' E 119°42'16458969.9
2017-Jul-20 00:30N 37°33' E 121°23'807138356.2
2017-Jul-20 00:30N 24°26' E 117°53'50179088.6
2017-Jul-20 00:30N 23°39' E 117°36'22590188.2
2017-Jul-20 00:30N 22°59' E 113°34'651117262.3
2017-Jul-20 00:29N 31°59' E 120°26'651390613.3
2017-Jul-20 00:29N 22°58' E 113°38'1064765853.3
2017-Jul-20 00:29N 39°56' E 119°39'934168189.5
2017-Jul-20 00:29N 24°26' E 117°50'4085893.3
2017-Jul-20 00:25N 29°56' E 122°19'1595506.4
2017-Jul-20 00:23N 32°04' E 120°29'6147299045.3
2017-Jul-20 00:22N 33°27' W 117°42'6557173567.9
2017-Jul-20 00:19N 24°26' E 117°51'4071288.7
2017-Jul-20 00:00N 29°56' E 122°19'613276047.0
2017-Jul-20 00:00N 39°56' E 119°42'981271637.9
2017-Jul-20 00:00N 23°41' E 117°38'228164206.0
2017-Jul-20 00:00N 22°59' E 113°34'963216618.5
2017-Jul-20 00:00N 37°33' E 121°23'9623463451.6
2017-Jul-20 00:00N 23°01' E 113°32'25427707.1
2017-Jul-19 23:59N 24°26' E 117°53'2505023.7
2017-Jul-19 23:56N 22°58' E 113°38'65132105.0
2017-Jul-19 23:55N 31°59' E 120°26'47417231.4
2017-Jul-19 23:53N 24°24' E 117°54'43739.2
2017-Jul-19 23:53N 24°26' E 117°50'93423521.7
2017-Jul-19 23:51N 39°56' E 119°39'9343275.4
2017-Jul-19 23:34N 24°25' E 118°04'80614439.4
2017-Jul-19 23:30N 37°33' E 121°23'9621154137.1
2017-Jul-19 23:30N 23°02' E 113°31'10621912335.5
2017-Jul-19 23:30N 39°56' E 119°42'935336433.7
2017-Jul-19 23:30N 24°26' E 117°53'52821.3
2017-Jul-19 23:30N 24°24' E 117°58'6468.6
2017-Jul-19 23:29N 24°25' E 118°05'13264.0
2017-Jul-19 23:26N 24°26' E 117°50'40786228.4
2017-Jul-19 23:26N 29°55' E 122°20'6157189.7
2017-Jul-19 23:21N 39°56' E 119°39'106414841.2
2017-Jul-19 23:17N 22°58' E 113°38'49524.6
2017-Jul-19 23:11N 22°18' E 114°09'67147356.3
2017-Jul-19 23:10N 31°59' E 120°26'4702918.8
2017-Jul-19 23:00N 24°26' E 118°02'47062700.5
2017-Jul-19 23:00N 31°59' E 120°26'158567669.0
2017-Jul-19 23:00N 29°55' E 122°20'6351143607.1
2017-Jul-19 23:00N 22°17' E 114°09'5717085.5
2017-Jul-19 23:00N 23°02' E 113°31'962384710.1
2017-Jul-19 23:00N 37°33' E 121°23'807726375.1
2017-Jul-19 23:00N 24°26' E 117°53'25228388.0
2017-Jul-19 22:59N 22°59' E 113°34'106330131.1
2017-Jul-19 22:57N 39°56' E 119°39'106448468.9
2017-Jul-19 22:56N 22°58' E 113°38'61373614.4
2017-Jul-19 22:55N 29°54' E 122°01'39752888.3
2017-Jul-19 22:55N 24°26' E 117°50'935197964.0
2017-Jul-19 22:54N 39°56' E 119°42'591217204.4
2017-Jul-19 22:34N 33°27' W 117°42'6544120191.2
2017-Jul-19 22:30N 24°29' E 118°04'265318001.5
2017-Jul-19 22:30N 23°02' E 113°31'44833.4
2017-Jul-19 22:30N 22°59' E 113°34'10641276645.0
2017-Jul-19 22:30N 39°56' E 119°42'164294849.7
2017-Jul-19 22:30N 37°33' E 121°23'807726369.8
2017-Jul-19 22:30N 24°26' E 117°53'406243421.9
2017-Jul-19 22:30N 29°55' E 122°20'6129154297.3
2017-Jul-19 22:28N 33°27' W 117°42'65583934564.0
2017-Jul-19 22:28N 24°26' E 117°50'93473121.7
2017-Jul-19 22:27N 39°56' E 119°39'4797458.0
2017-Jul-19 22:23N 31°59' E 120°26'65112533.0
2017-Jul-19 22:20N 22°58' E 113°38'6145458.7
2017-Jul-19 22:13N 29°53' E 122°03'3967839.7
2017-Jul-19 22:10N 24°16' E 118°09'20125.3
2017-Jul-19 22:01N 24°26' E 117°50'935420673.6
2017-Jul-19 22:00N 39°56' E 119°42'935197902.1
2017-Jul-19 22:00N 24°26' E 117°53'111115.6
2017-Jul-19 22:00N 24°29' E 118°04'6544226514.0
2017-Jul-19 21:58N 33°27' W 117°42'6836984428.4
2017-Jul-19 21:57N 23°02' E 113°31'62910102.7
2017-Jul-19 21:54N 29°55' E 122°20'4601656649.5
2017-Jul-19 21:54N 37°33' E 121°23'33740475.5
2017-Jul-19 21:53N 31°59' E 120°26'3346.6
2017-Jul-19 21:53N 32°01' E 120°24'48282672.3
2017-Jul-19 21:52N 24°13' E 118°08'26226947.9
2017-Jul-19 21:52N 22°59' E 113°34'106381418.0
2017-Jul-19 21:51N 39°56' E 119°39'61423253.5
2017-Jul-19 21:49N 29°53' E 122°03'4601470.5
2017-Jul-19 21:31N 37°33' E 121°23'8081453802.3
2017-Jul-19 21:31N 24°26' E 117°50'472340120.5
2017-Jul-19 21:30N 31°59' E 120°21'478344033.1
2017-Jul-19 21:30N 39°56' E 119°42'931837782.9
2017-Jul-19 21:30N 24°29' E 118°04'1112643.7
2017-Jul-19 21:30N 24°26' E 117°53'25429552.3
2017-Jul-19 21:30N 23°02' E 113°31'657124523.0
2017-Jul-19 21:29N 32°04' E 120°29'6581183555.2
2017-Jul-19 21:29N 22°59' E 113°34'628132976.1
2017-Jul-19 21:29N 29°55' E 122°20'6129279297.7
2017-Jul-19 21:28N 33°27' W 117°42'5914425796.1
2017-Jul-19 21:27N 39°56' E 119°39'106413675.1
2017-Jul-19 21:22N 22°58' E 113°38'9727623.5
2017-Jul-19 21:15N 38°03' E 120°30'4953987.1
2017-Jul-19 21:07N 29°53' E 122°03'3973582.5
2017-Jul-19 21:01N 24°26' E 117°50'828993677.0
2017-Jul-19 21:00N 38°03' E 120°27'970873081.1
2017-Jul-19 21:00N 23°02' E 113°31'414474.1
2017-Jul-19 21:00N 22°59' E 113°34'10641914967.5
2017-Jul-19 21:00N 39°56' E 119°42'6151106911.3
2017-Jul-19 21:00N 29°55' E 122°20'460150606.5
2017-Jul-19 21:00N 37°33' E 121°23'963288878.7
2017-Jul-19 21:00N 22°58' E 113°38'250449618.0
2017-Jul-19 21:00N 24°26' E 117°53'93418785.3
2017-Jul-19 20:57N 39°56' E 119°39'9305896.9
2017-Jul-19 20:47N 24°29' E 118°04'4625470.8
2017-Jul-19 20:42N 31°56' E 120°15'14834.8
2017-Jul-19 20:41N 32°04' E 120°29'6147235418.8
2017-Jul-19 20:40N 33°27' W 117°42'655841709.0
2017-Jul-19 20:30N 24°26' E 117°50'829994634.5
2017-Jul-19 20:30N 38°05' E 120°22'8282982476.9
2017-Jul-19 20:30N 24°26' E 117°53'5916174566.6
2017-Jul-19 20:28N 49°17' W 122°52'5094116795.4
2017-Jul-19 20:26N 37°33' E 121°23'652180489.5
2017-Jul-19 20:25N 26°46' E 119°43'234120128.4
2017-Jul-19 20:25N 29°55' E 122°20'61540255.6
2017-Jul-19 20:24N 39°56' E 119°42'234.6
2017-Jul-19 20:21N 39°56' E 119°39'106273488.5
2017-Jul-19 20:20N 23°02' E 113°31'63715192.6
2017-Jul-19 20:18N 30°26' E 122°02'12716914.2
2017-Jul-19 20:17N 32°04' E 120°29'6585355.5
2017-Jul-19 20:10N 22°59' E 113°34'64142760.3
2017-Jul-19 20:09N 31°56' E 120°10'6414643.4
2017-Jul-19 20:01N 23°02' E 113°31'1062347701.1
2017-Jul-19 20:00N 39°56' E 119°42'935672867.3
2017-Jul-19 20:00N 24°26' E 117°53'406182540.5
2017-Jul-19 20:00N 29°55' E 122°20'628376740.5
2017-Jul-19 20:00N 22°59' E 113°34'963866479.0
2017-Jul-19 20:00N 37°33' E 121°23'80872687.5
2017-Jul-19 19:59N 24°26' E 117°50'47995857.1
2017-Jul-19 19:59N 32°04' E 120°29'19732.1
2017-Jul-19 19:57N 31°56' E 120°09'48057622.5
2017-Jul-19 19:57N 39°56' E 119°39'585150321.0
2017-Jul-19 19:57N 30°23' E 122°02'4121454.6
2017-Jul-19 19:40N 24°29' E 118°04'29203.5
2017-Jul-19 19:31N 24°00' E 117°58'261705.8
2017-Jul-19 19:30N 24°26' E 117°53'807121061.6
2017-Jul-19 19:30N 37°33' E 121°23'460236698.0
2017-Jul-19 19:30N 29°55' E 122°20'42495419.6
2017-Jul-19 19:29N 24°01' E 117°58'25250496.1
2017-Jul-19 19:29N 23°02' E 113°31'25269811.3
2017-Jul-19 19:29N 24°26' E 117°50'41757696.5
2017-Jul-19 19:29N 30°19' E 121°60'26163.1
2017-Jul-19 19:19N 29°53' E 122°03'61533566.0
2017-Jul-19 19:18N 22°59' E 113°34'26337851.3
2017-Jul-19 19:18N 24°29' E 118°04'46127652.9
2017-Jul-19 19:17N 31°58' E 120°03'47916725.0
2017-Jul-19 19:15N 39°56' E 119°39'247.3
2017-Jul-19 19:12N 39°56' E 119°42'9354634.1
2017-Jul-19 19:00N 24°26' E 117°53'3565.4
2017-Jul-19 19:00N 24°26' E 117°50'41716854.3
2017-Jul-19 18:59N 30°19' E 121°60'43534787.6
2017-Jul-19 18:58N 37°33' E 121°23'46059174.5
2017-Jul-19 18:57N 29°55' E 122°20'421216393.0
2017-Jul-19 18:57N 24°03' E 118°01'956215135.6
2017-Jul-19 18:57N 39°56' E 119°39'106237101.2
2017-Jul-19 18:55N 23°02' E 113°31'6162217779.5
2017-Jul-19 18:55N 29°53' E 122°03'61444172.6
2017-Jul-19 18:54N 39°56' E 119°42'93136825.6
2017-Jul-19 18:53N 24°29' E 118°04'263854.0
2017-Jul-19 18:34N 22°59' E 113°34'96315069.2
2017-Jul-19 18:31N 37°33' E 121°23'16465522.1
2017-Jul-19 18:30N 39°56' E 119°42'9541717579.3
2017-Jul-19 18:30N 24°05' E 118°03'234011.4
2017-Jul-19 18:30N 24°26' E 117°50'4071465639.2
2017-Jul-19 18:30N 29°55' E 122°20'30276.0
2017-Jul-19 18:24N 30°19' E 121°60'4832035.7
2017-Jul-19 18:09N 38°12' E 119°57'970232779.3
2017-Jul-19 18:09N 22°59' E 113°34'9706792.6
2017-Jul-19 18:00N 38°12' E 119°55'833272485.0
2017-Jul-19 18:00N 24°26' E 117°53'415106805.2
2017-Jul-19 18:00N 30°19' E 121°60'63011289.7
2017-Jul-19 17:57N 22°59' E 113°34'25042849.9
2017-Jul-19 17:56N 24°26' E 117°50'80810611.3
2017-Jul-19 17:52N 37°33' E 121°23'8222959659.6
2017-Jul-19 17:52N 24°08' E 118°05'260311981.8
2017-Jul-19 17:52N 23°02' E 113°31'6291131468.3
2017-Jul-19 17:52N 29°55' E 122°20'61549214.3
2017-Jul-19 17:51N 39°56' E 119°39'6092156.2
2017-Jul-19 17:34N 29°56' E 121°52'10216.3
2017-Jul-19 17:31N 29°53' E 122°03'40327928.7
2017-Jul-19 17:30N 24°10' E 118°06'2177242.7
2017-Jul-19 17:30N 24°26' E 117°50'40781424.4
2017-Jul-19 17:30N 29°55' E 122°20'514308279.5
2017-Jul-19 17:30N 38°13' E 119°50'8333000029.9
2017-Jul-19 17:30N 24°26' E 117°53'807152920.0
2017-Jul-19 17:30N 37°33' E 121°23'45711834.6
2017-Jul-19 17:27N 29°56' E 121°52'60984344.8
2017-Jul-19 17:27N 39°56' E 119°39'106354666.7
2017-Jul-19 17:26N 22°59' E 113°34'61571463.5
2017-Jul-19 17:25N 29°53' E 122°03'150593.7
2017-Jul-19 17:10N 31°59' E 120°26'4722988.5
2017-Jul-19 17:01N 24°26' E 117°53'1913823.8
2017-Jul-19 17:00N 24°12' E 118°07'260187295.3
2017-Jul-19 17:00N 22°59' E 113°34'44816.0
2017-Jul-19 17:00N 23°02' E 113°31'9621731235.4
2017-Jul-19 17:00N 37°33' E 121°23'89319057.0
2017-Jul-19 17:00N 38°15' E 119°44'51647648.4
2017-Jul-19 17:00N 29°55' E 122°20'301673.6
2017-Jul-19 16:59N 30°19' E 121°60'1282490.8
2017-Jul-19 16:55N 31°59' E 120°26'6153101142.0
2017-Jul-19 16:52N 33°27' W 117°42'591451177.4
2017-Jul-19 16:45N 39°56' E 119°39'93036015.4
2017-Jul-19 16:43N 24°29' E 118°04'38899713.4
2017-Jul-19 16:43N 29°53' E 122°03'3981879.0
2017-Jul-19 16:30N 24°14' E 118°09'2036852.4
2017-Jul-19 16:30N 24°26' E 117°50'31507.8
2017-Jul-19 16:30N 24°26' E 117°53'406365039.9
2017-Jul-19 16:30N 29°55' E 122°20'62877939.9
2017-Jul-19 16:30N 22°59' E 113°34'44816.0
2017-Jul-19 16:30N 23°02' E 113°31'962577078.5
2017-Jul-19 16:30N 37°33' E 121°23'80241856.7
2017-Jul-19 16:28N 24°29' E 118°04'83162359.9
2017-Jul-19 16:28N 38°16' E 119°39'4918671.6
2017-Jul-19 16:24N 30°19' E 121°60'58810748.8
2017-Jul-19 16:21N 39°56' E 119°39'246.1
2017-Jul-19 16:18N 39°56' E 119°42'9413152.9
2017-Jul-19 16:00N 24°18' E 118°10'265476189.5
2017-Jul-19 16:00N 22°59' E 113°34'963346591.6
2017-Jul-19 16:00N 37°33' E 121°23'808193833.3
2017-Jul-19 16:00N 24°26' E 117°50'3201.0
2017-Jul-19 15:59N 24°26' E 117°53'25412380.5
2017-Jul-19 15:58N 23°02' E 113°31'6314005.3
2017-Jul-19 15:49N 30°19' E 121°60'4087267.5
2017-Jul-19 15:45N 24°29' E 118°04'930239245.3
2017-Jul-19 15:45N 39°56' E 119°39'5914168966.7
2017-Jul-19 15:43N 33°27' W 117°42'614177847.6
2017-Jul-19 15:38N 29°55' E 122°06'617246782.6
2017-Jul-19 15:38N 22°58' E 113°38'106539508.3
2017-Jul-19 15:36N 39°56' E 119°42'47321836.0
2017-Jul-19 15:35N 32°04' E 120°29'145174423.0
2017-Jul-19 15:35N 29°57' E 121°50'26925.8
2017-Jul-19 15:33N 29°55' E 122°20'4018654.4
2017-Jul-19 15:31N 24°21' E 118°09'412212004.5
2017-Jul-19 15:30N 30°19' E 121°60'6302269252.8
2017-Jul-19 15:30N 22°59' E 113°34'10641914977.9
2017-Jul-19 15:30N 39°56' E 119°42'935373815.2
2017-Jul-19 15:30N 24°26' E 117°53'807726369.8
2017-Jul-19 15:30N 37°33' E 121°23'962384719.0
2017-Jul-19 15:30N 23°02' E 113°31'65762263.9
2017-Jul-19 15:29N 32°04' E 120°29'65794623.6
2017-Jul-19 15:29N 22°58' E 113°38'24724072.8
2017-Jul-19 15:28N 24°26' E 117°50'93441018.4
2017-Jul-19 15:27N 39°56' E 119°39'61320067.3
2017-Jul-19 15:25N 29°55' E 122°07'111548.3
2017-Jul-19 15:25N 29°55' E 122°20'39871560.3
2017-Jul-19 15:24N 24°29' E 118°04'654434042.6
2017-Jul-19 15:13N 33°27' W 117°42'591228489.7
2017-Jul-19 15:00N 39°56' E 119°42'615553535.1
2017-Jul-19 15:00N 29°55' E 122°20'401120325.5
2017-Jul-19 15:00N 24°24' E 118°05'1140379.6
2017-Jul-19 15:00N 24°26' E 117°53'8071452760.7
2017-Jul-19 15:00N 37°33' E 121°23'962384721.1
2017-Jul-19 15:00N 23°02' E 113°31'61922971.0
2017-Jul-19 14:58N 29°52' E 122°08'6141106281.0
2017-Jul-19 14:55N 33°27' W 117°42'65581311517.7
2017-Jul-19 14:55N 24°26' E 117°50'250128549.7
2017-Jul-19 14:54N 22°59' E 113°34'60915992.0
2017-Jul-19 14:52N 29°59' E 121°47'492.8
2017-Jul-19 14:50N 29°57' E 121°50'60813520.6
2017-Jul-19 14:47N 22°58' E 113°38'6576998.8
2017-Jul-19 14:41N 32°04' E 120°29'1311079.7
2017-Jul-19 14:34N 30°19' E 121°60'4137071.9
2017-Jul-19 14:31N 24°25' E 118°01'935336515.2
2017-Jul-19 14:30N 39°56' E 119°42'16424570.8
2017-Jul-19 14:30N 37°33' E 121°23'4611658597.5
2017-Jul-19 14:30N 29°54' E 122°17'6262254613.1
2017-Jul-19 14:30N 23°02' E 113°31'631567760.7
2017-Jul-19 14:30N 30°19' E 121°60'222092.9
2017-Jul-19 14:29N 29°59' E 121°50'61043940.9
2017-Jul-19 14:28N 22°59' E 113°34'615201204.5
2017-Jul-19 14:28N 29°50' E 122°05'395118607.0
2017-Jul-19 14:28N 24°26' E 117°50'3161.6
2017-Jul-19 14:27N 24°26' E 117°53'25018734.1
2017-Jul-19 14:26N 22°58' E 113°38'6833282727.2
2017-Jul-19 14:25N 33°27' W 117°42'6153115979.6
2017-Jul-19 14:22N 29°57' E 121°50'1421511.8
2017-Jul-19 14:16N 31°59' E 120°26'142547.3
2017-Jul-19 14:00N 29°58' E 121°53'608364678.9
2017-Jul-19 14:00N 39°56' E 119°42'935841084.1
2017-Jul-19 14:00N 24°26' E 117°53'415249212.1
2017-Jul-19 14:00N 30°19' E 121°60'631103228.6
2017-Jul-19 14:00N 23°02' E 113°31'4314.1
2017-Jul-19 13:59N 22°59' E 113°34'25074986.7
2017-Jul-19 13:59N 24°26' E 117°50'808121146.7
2017-Jul-19 13:58N 37°33' E 121°23'80840414.5
2017-Jul-19 13:57N 24°24' E 117°56'47321036.9
2017-Jul-19 13:56N 31°59' E 120°26'1552576.7
2017-Jul-19 13:52N 29°46' E 122°01'6091095388.6
2017-Jul-19 13:52N 22°58' E 113°38'6095508.3
2017-Jul-19 13:46N 29°56' E 121°52'1471845.4
2017-Jul-19 13:41N 32°04' E 120°29'614791823.1
2017-Jul-19 13:37N 33°27' W 117°42'591254850.0
2017-Jul-19 13:30N 39°56' E 119°42'16419656.6
2017-Jul-19 13:30N 37°33' E 121°23'463119160.7
2017-Jul-19 13:30N 29°51' E 122°11'620223334.8
2017-Jul-19 13:29N 23°02' E 113°31'4215.6
2017-Jul-19 13:28N 22°59' E 113°34'609438807.6
2017-Jul-19 13:28N 29°46' E 122°01'6151790789.9
2017-Jul-19 13:28N 33°27' W 117°42'6833217674.9
2017-Jul-19 13:26N 22°58' E 113°38'2476185.4
2017-Jul-19 13:24N 24°26' E 117°50'371.8
2017-Jul-19 13:21N 24°26' E 117°53'254728.8
2017-Jul-19 13:00N 23°02' E 113°31'620557922.1
2017-Jul-19 13:00N 29°51' E 122°11'619743094.4
2017-Jul-19 13:00N 22°59' E 113°34'10643829955.9
2017-Jul-19 13:00N 39°56' E 119°42'16417869.7
2017-Jul-19 13:00N 37°33' E 121°23'96347486.9
2017-Jul-19 12:59N 22°58' E 113°38'6092246.8
2017-Jul-19 12:42N 29°56' E 121°52'39330742.6
2017-Jul-19 12:42N 24°26' E 117°53'332.2
2017-Jul-19 12:37N 24°26' E 117°50'655811803652.8
2017-Jul-19 12:37N 33°27' W 117°42'613289376.9
2017-Jul-19 12:33N 30°19' E 121°60'63117204.4
2017-Jul-19 12:31N 23°02' E 113°31'9621154137.1
2017-Jul-19 12:30N 37°33' E 121°23'16498283.2
2017-Jul-19 12:30N 39°56' E 119°42'6172222307.8
2017-Jul-19 12:30N 29°51' E 122°11'1731275.7
2017-Jul-19 12:30N 29°56' E 121°52'61062767.3
2017-Jul-19 12:30N 22°59' E 113°34'6302269238.2
2017-Jul-19 12:30N 30°19' E 121°60'41548234.6
2017-Jul-19 12:29N 24°26' E 117°53'333.4
2017-Jul-19 12:25N 24°26' E 117°50'2472193.8
2017-Jul-19 12:18N 22°58' E 113°38'3492440.1
2017-Jul-19 12:09N 25°32' E 119°21'3532402.9
2017-Jul-19 12:01N 23°02' E 113°31'962432798.9
2017-Jul-19 12:00N 37°33' E 121°23'164589699.3
2017-Jul-19 12:00N 39°56' E 119°42'1065766461.3
2017-Jul-19 12:00N 22°58' E 113°38'61879450.2
2017-Jul-19 12:00N 29°51' E 122°11'619171488.6
2017-Jul-19 12:00N 22°59' E 113°34'252908422.2
2017-Jul-19 12:00N 24°26' E 117°53'396.3
2017-Jul-19 11:58N 24°26' E 117°50'655821638.3
2017-Jul-19 11:40N 33°27' W 117°42'591451300.7
2017-Jul-19 11:33N 39°56' E 119°39'106126910.7
2017-Jul-19 11:31N 23°02' E 113°31'620446345.0
2017-Jul-19 11:30N 29°51' E 122°11'617444444.6
2017-Jul-19 11:30N 39°56' E 119°42'164117936.1
2017-Jul-19 11:30N 37°33' E 121°23'80727937.3
2017-Jul-19 11:29N 24°26' E 117°53'25047328.6
2017-Jul-19 11:28N 22°58' E 113°38'68331118057.5
2017-Jul-19 11:28N 33°27' W 117°42'655811803685.6
2017-Jul-19 11:28N 24°26' E 117°50'93461155.9
2017-Jul-19 11:27N 39°56' E 119°39'86776135.6
2017-Jul-19 11:26N 25°29' E 119°23'35132431.2
2017-Jul-19 11:26N 22°59' E 113°34'10642533.0
2017-Jul-19 11:00N 39°56' E 119°42'164117939.9
2017-Jul-19 11:00N 37°33' E 121°23'962494624.5
2017-Jul-19 11:00N 23°02' E 113°31'62092987.4
2017-Jul-19 11:00N 29°51' E 122°11'61943712.8
2017-Jul-19 10:59N 22°59' E 113°34'106331366.1
2017-Jul-19 10:57N 39°56' E 119°39'93440525.0
2017-Jul-19 10:56N 24°26' E 117°50'330.4
2017-Jul-19 10:51N 24°26' E 117°53'4793033.1
2017-Jul-19 10:41N 32°04' E 120°29'1591371.6
2017-Jul-19 10:34N 29°46' E 122°00'4677789.1
2017-Jul-19 10:31N 37°33' E 121°23'9621731185.7
2017-Jul-19 10:31N 23°02' E 113°31'620744085.5
2017-Jul-19 10:30N 29°53' E 122°09'615369197.4
2017-Jul-19 10:30N 39°56' E 119°42'1064638322.5
2017-Jul-19 10:30N 22°59' E 113°34'252454207.3
2017-Jul-19 10:30N 24°26' E 117°53'34524.2
2017-Jul-19 10:30N 24°26' E 117°50'131375.2
2017-Jul-19 10:30N 24°29' E 118°04'47368129.4
2017-Jul-19 10:29N 32°04' E 120°29'47312250.6
2017-Jul-19 10:27N 39°56' E 119°39'106424388.8
2017-Jul-19 10:24N 22°58' E 113°38'60817799.6
2017-Jul-19 10:22N 29°46' E 122°01'2916059.9
2017-Jul-19 10:19N 25°31' E 119°22'1051537.3
2017-Jul-19 10:15N 24°25' E 117°52'4021637.0
2017-Jul-19 10:00N 29°54' E 122°13'615245989.1
2017-Jul-19 10:00N 39°56' E 119°42'931418891.4
2017-Jul-19 10:00N 24°29' E 118°04'802577622.9
2017-Jul-19 10:00N 37°33' E 121°23'963288824.7
2017-Jul-19 10:00N 22°59' E 113°34'252302804.8
2017-Jul-19 10:00N 24°26' E 117°53'25431590.4
2017-Jul-19 09:59N 23°02' E 113°31'252181497.7
2017-Jul-19 09:59N 24°26' E 117°50'24720242.5
2017-Jul-19 09:59N 22°58' E 113°38'60899515.9
2017-Jul-19 09:58N 29°46' E 122°01'62028268.3
2017-Jul-19 09:57N 39°56' E 119°39'591420872.4
2017-Jul-19 09:40N 33°27' W 117°42'613278284.1
2017-Jul-19 09:35N 30°19' E 121°60'29361.3
2017-Jul-19 09:30N 29°55' E 122°18'614553018.0
2017-Jul-19 09:30N 39°56' E 119°42'935673069.1
2017-Jul-19 09:30N 24°26' E 117°50'31508.0
2017-Jul-19 09:30N 24°26' E 117°53'254101791.3
2017-Jul-19 09:30N 23°02' E 113°31'41812.5
2017-Jul-19 09:30N 22°59' E 113°34'96391207.8
2017-Jul-19 09:29N 37°33' E 121°23'9631155514.7
2017-Jul-19 09:29N 22°58' E 113°38'6833296352.6
2017-Jul-19 09:28N 33°27' W 117°42'65447852485.0
2017-Jul-19 09:28N 24°29' E 118°04'4732604.4
2017-Jul-19 09:17N 32°04' E 120°29'47313957.4
2017-Jul-19 09:15N 39°56' E 119°39'58834713.2
2017-Jul-19 09:14N 30°19' E 121°60'128735.0
2017-Jul-19 09:03N 31°59' E 120°26'4799520.4
2017-Jul-19 09:00N 39°56' E 119°42'588176418.9
2017-Jul-19 09:00N 30°19' E 121°60'435111817.4
2017-Jul-19 09:00N 37°33' E 121°23'80850130.7
2017-Jul-19 08:59N 24°26' E 117°50'31131.0
2017-Jul-19 08:59N 24°26' E 117°53'406487527.8
2017-Jul-19 08:59N 29°56' E 122°19'62990540.3
2017-Jul-19 08:58N 23°02' E 113°31'265119253.3
2017-Jul-19 08:58N 24°29' E 118°04'26311828.4
2017-Jul-19 08:57N 22°59' E 113°34'432.1
2017-Jul-19 08:50N 22°58' E 113°38'65639376.6
2017-Jul-19 08:49N 31°22' E 121°30'96309.5
2017-Jul-19 08:30N 29°56' E 122°19'6131103902.0
2017-Jul-19 08:30N 39°56' E 119°42'935336433.7
2017-Jul-19 08:30N 24°26' E 117°53'807223496.8
2017-Jul-19 08:30N 37°33' E 121°23'96327950.8
2017-Jul-19 08:28N 22°59' E 113°34'2636027.3
2017-Jul-19 08:25N 24°29' E 118°04'13290.3
2017-Jul-19 08:23N 24°26' E 117°50'41723437.8
2017-Jul-19 08:22N 30°19' E 121°60'1283438.9
2017-Jul-19 08:19N 31°59' E 120°26'65173254.4
2017-Jul-19 08:19N 23°02' E 113°31'61013641.1
2017-Jul-19 08:16N 29°46' E 122°00'991030.6
2017-Jul-19 08:10N 31°22' E 121°30'6564871.4
2017-Jul-19 08:02N 22°58' E 113°38'106534217.2
2017-Jul-19 08:00N 39°56' E 119°42'935841309.5
2017-Jul-19 08:00N 24°26' E 117°50'31809.3
2017-Jul-19 08:00N 24°26' E 117°53'8072905479.3
2017-Jul-19 08:00N 37°33' E 121°23'459117926.8
2017-Jul-19 08:00N 29°56' E 122°19'629205774.8
2017-Jul-19 08:00N 23°02' E 113°31'26579503.4
2017-Jul-19 08:00N 24°29' E 118°04'45119121.0
2017-Jul-19 07:58N 31°22' E 121°30'61211296125.3
2017-Jul-19 07:58N 33°27' W 117°42'6150132582.9
2017-Jul-19 07:55N 29°46' E 122°01'620148863.6
2017-Jul-19 07:55N 39°56' E 119°39'588111447.7
2017-Jul-19 07:55N 30°19' E 121°60'128481.0
2017-Jul-19 07:39N 31°59' E 120°26'4723380.6
2017-Jul-19 07:30N 24°26' E 117°53'406243761.0
2017-Jul-19 07:30N 29°56' E 122°19'45991720.8
2017-Jul-19 07:30N 37°33' E 121°23'802160450.8
2017-Jul-19 07:29N 24°29' E 118°04'265954055.7
2017-Jul-19 07:29N 23°02' E 113°31'61430257.2
2017-Jul-19 07:28N 29°49' E 122°04'15511601.3
2017-Jul-19 07:27N 31°59' E 120°26'6153143831.8
2017-Jul-19 07:25N 33°27' W 117°42'59147096601.0
2017-Jul-19 07:25N 39°56' E 119°39'2266.5
2017-Jul-19 07:24N 39°56' E 119°42'935841309.5
2017-Jul-19 07:24N 24°26' E 117°50'2402391.5
2017-Jul-19 07:18N 22°19' E 114°09'6718270.6
2017-Jul-19 07:13N 31°22' E 121°30'3711712.7
2017-Jul-19 07:00N 37°33' E 121°23'164147424.8
2017-Jul-19 07:00N 39°56' E 119°42'1062478094.3
2017-Jul-19 07:00N 23°02' E 113°31'26586732.3
2017-Jul-19 07:00N 24°29' E 118°04'136676.0
2017-Jul-19 07:00N 24°26' E 117°50'32261.7
2017-Jul-19 07:00N 24°26' E 117°53'40658502.6
2017-Jul-19 06:59N 29°56' E 122°19'12541.9
2017-Jul-19 06:58N 29°51' E 122°07'61610932.2
2017-Jul-19 06:55N 39°56' E 119°39'47916726.3
2017-Jul-19 06:53N 31°59' E 120°26'651226.4
2017-Jul-19 06:50N 31°22' E 121°30'612152462.2
2017-Jul-19 06:43N 33°27' W 117°42'655531846.9
2017-Jul-19 06:31N 24°26' E 117°53'807290550.0
2017-Jul-19 06:30N 37°33' E 121°23'45947171.3
2017-Jul-19 06:30N 29°56' E 122°19'39836761.0
2017-Jul-19 06:29N 24°29' E 118°04'13203.2
2017-Jul-19 06:25N 24°26' E 117°50'6558944292.2
2017-Jul-19 06:25N 33°27' W 117°42'6153131845.8
2017-Jul-19 06:22N 31°59' E 120°26'67065213.2
2017-Jul-19 06:21N 22°19' E 114°08'67116213.1
2017-Jul-19 06:19N 31°22' E 121°30'521234647.3
2017-Jul-19 06:19N 39°56' E 119°39'6132000.4
2017-Jul-19 06:00N 29°56' E 122°19'613367977.9
2017-Jul-19 06:00N 39°56' E 119°42'935116011.6
2017-Jul-19 06:00N 24°26' E 117°53'807145274.0
2017-Jul-19 06:00N 37°33' E 121°23'80236101.4
2017-Jul-19 05:58N 24°29' E 118°04'45112599.1
2017-Jul-19 05:56N 31°22' E 121°30'45925428.6
2017-Jul-19 05:55N 24°26' E 117°50'934373718.6
2017-Jul-19 05:55N 39°56' E 119°39'47931902.8
2017-Jul-19 05:54N 31°59' E 120°26'1511926.4
2017-Jul-19 05:49N 29°55' E 122°07'1032.7
2017-Jul-19 05:30N 29°56' E 122°19'398204808.5
2017-Jul-19 05:30N 24°29' E 118°04'26553003.1
2017-Jul-19 05:30N 23°02' E 113°31'254183233.4
2017-Jul-19 05:30N 24°26' E 117°53'8072905500.3
2017-Jul-19 05:30N 37°33' E 121°23'80818880.0
2017-Jul-19 05:27N 24°26' E 117°50'93422726.3
2017-Jul-19 05:25N 39°56' E 119°39'6136650.6
2017-Jul-19 05:19N 29°55' E 122°07'93335881.8
2017-Jul-19 05:19N 31°22' E 121°30'65610642.5
2017-Jul-19 05:16N 22°58' E 113°38'60840538.1
2017-Jul-19 05:15N 29°57' E 121°50'6093298.4
2017-Jul-19 05:04N 22°59' E 113°34'106419742.0
2017-Jul-19 05:00N 39°56' E 119°42'164196566.4
2017-Jul-19 05:00N 37°33' E 121°23'9631155305.3
2017-Jul-19 05:00N 22°59' E 113°34'252181684.4
2017-Jul-19 05:00N 24°26' E 117°53'406487522.0
2017-Jul-19 05:00N 29°56' E 122°19'39829868.3
2017-Jul-19 04:59N 24°29' E 118°04'26522715.6
2017-Jul-19 04:59N 23°02' E 113°31'25245378.1
2017-Jul-19 04:58N 24°26' E 117°50'24710862.2
2017-Jul-19 04:57N 22°58' E 113°38'106430149.9
2017-Jul-19 04:55N 39°56' E 119°39'6137168.8
2017-Jul-19 04:50N 29°55' E 122°07'614054045.6
2017-Jul-19 04:43N 33°27' W 117°42'654431368.1
2017-Jul-19 04:30N 24°29' E 118°04'9311675565.8
2017-Jul-19 04:30N 39°56' E 119°42'935480619.5
2017-Jul-19 04:30N 24°26' E 117°53'807581100.1
2017-Jul-19 04:30N 37°33' E 121°23'808103840.0
2017-Jul-19 04:30N 24°26' E 117°50'25226692.6
2017-Jul-19 04:29N 23°02' E 113°31'106215045.0
2017-Jul-19 04:25N 39°56' E 119°39'6136494.1
2017-Jul-19 04:19N 29°55' E 122°07'10100.0
2017-Jul-19 04:13N 29°56' E 122°19'3981903.8
2017-Jul-19 04:00N 24°29' E 118°04'265238513.9
2017-Jul-19 04:00N 23°02' E 113°31'1062764950.8
2017-Jul-19 04:00N 39°56' E 119°42'935480619.5
2017-Jul-19 04:00N 24°26' E 117°53'807264136.4
2017-Jul-19 04:00N 37°33' E 121°23'808726880.0
2017-Jul-19 04:00N 24°26' E 117°50'4004917.5
2017-Jul-19 03:55N 29°55' E 122°07'1036910.4
2017-Jul-19 03:55N 29°56' E 122°19'62817664.2
2017-Jul-19 03:53N 22°59' E 113°34'424.0
2017-Jul-19 03:44N 22°58' E 113°38'10649454.4
2017-Jul-19 03:37N 39°56' E 119°39'9348602.3
2017-Jul-19 03:30N 24°26' E 117°50'31292.4
2017-Jul-19 03:30N 24°26' E 117°53'807193698.6
2017-Jul-19 03:30N 37°33' E 121°23'962865622.7
2017-Jul-19 03:30N 23°02' E 113°31'26515640.3
2017-Jul-19 03:29N 24°29' E 118°04'39141390.1
2017-Jul-19 03:28N 29°55' E 122°07'61835874.1
2017-Jul-19 03:27N 22°58' E 113°38'106425871.9
2017-Jul-19 03:25N 39°56' E 119°39'61451363.1
2017-Jul-19 03:24N 29°56' E 122°19'156769.0
2017-Jul-19 03:12N 31°59' E 120°26'4792490.2
2017-Jul-19 03:00N 39°56' E 119°42'935305848.8
2017-Jul-19 03:00N 24°26' E 117°53'3170.7
2017-Jul-19 02:59N 24°26' E 117°50'808415357.0
2017-Jul-19 02:59N 37°33' E 121°23'963192585.8
2017-Jul-19 02:59N 22°58' E 113°38'26015882.5
2017-Jul-19 02:58N 24°29' E 118°04'2639960.9
2017-Jul-19 02:56N 22°59' E 113°34'106342051.3
2017-Jul-19 02:55N 39°56' E 119°39'61488345.4
2017-Jul-19 02:54N 29°56' E 122°19'6293766.4
2017-Jul-19 02:44N 23°02' E 113°31'651156280.9
2017-Jul-19 02:44N 31°59' E 120°26'15111125.8
2017-Jul-19 02:43N 29°55' E 122°07'4001844.9
2017-Jul-19 02:30N 24°26' E 117°50'808484586.7
2017-Jul-19 02:30N 37°33' E 121°23'962494641.5
2017-Jul-19 02:30N 23°02' E 113°31'1062293957.1
2017-Jul-19 02:30N 39°56' E 119°39'1063347878.8
2017-Jul-19 02:30N 22°59' E 113°34'65150984.0
2017-Jul-19 02:29N 31°59' E 120°26'467420244.3
2017-Jul-19 02:29N 24°29' E 118°04'39849436.1
2017-Jul-19 02:28N 29°56' E 122°19'62780585.5
2017-Jul-19 02:28N 22°58' E 113°38'61813239.3
2017-Jul-19 02:25N 29°55' E 122°07'61346967.8
2017-Jul-19 02:24N 39°56' E 119°42'2 5.0
2017-Jul-19 02:01N 39°56' E 119°39'2716.7
2017-Jul-19 02:00N 39°56' E 119°42'931186174.0
2017-Jul-19 02:00N 24°29' E 118°04'1311685.3
2017-Jul-19 02:00N 24°26' E 117°50'31507.9
2017-Jul-19 02:00N 24°26' E 117°53'807581095.9
2017-Jul-19 02:00N 37°33' E 121°23'9621154163.6
2017-Jul-19 02:00N 23°02' E 113°31'42887.0
2017-Jul-19 02:00N 22°59' E 113°34'6289621.9
2017-Jul-19 01:56N 29°56' E 122°19'612954080.9
2017-Jul-19 01:49N 33°27' W 117°42'614363730.4
2017-Jul-19 01:43N 29°54' E 122°04'6165910.0
2017-Jul-19 01:37N 22°58' E 113°38'9638957.5
2017-Jul-19 01:30N 37°33' E 121°23'16498283.2
2017-Jul-19 01:30N 39°56' E 119°42'1065766461.3
2017-Jul-19 01:30N 22°58' E 113°38'250299745.3
2017-Jul-19 01:30N 24°26' E 117°53'113450.4
2017-Jul-19 01:30N 24°29' E 118°04'26553004.6
2017-Jul-19 01:30N 23°02' E 113°31'43608.8
2017-Jul-19 01:30N 22°59' E 113°34'651106603.7
2017-Jul-19 01:29N 31°59' E 120°26'47342578.9
2017-Jul-19 01:29N 24°26' E 117°50'6558549008.0
2017-Jul-19 01:28N 33°27' W 117°42'591463551.7
2017-Jul-19 01:22N 39°56' E 119°39'61418560.1
2017-Jul-19 01:20N 29°56' E 122°19'6131843.1
2017-Jul-19 01:00N 39°56' E 119°42'164589699.3
2017-Jul-19 01:00N 37°33' E 121°23'9631732957.9
2017-Jul-19 01:00N 22°59' E 113°34'263236568.8
2017-Jul-19 01:00N 24°29' E 118°04'260937060.3
2017-Jul-19 01:00N 22°58' E 113°38'250449614.3
2017-Jul-19 01:00N 24°26' E 117°53'47922087.6
2017-Jul-19 00:59N 32°04' E 120°29'657197170.5
2017-Jul-19 00:59N 23°02' E 113°31'1062181972.5
2017-Jul-19 00:58N 39°56' E 119°39'934840882.9
2017-Jul-19 00:58N 24°26' E 117°50'4735372.7
2017-Jul-19 00:53N 31°59' E 120°26'6153330598.0
2017-Jul-19 00:52N 33°27' W 117°42'683619092.9
2017-Jul-19 00:30N 23°02' E 113°31'265318013.8
2017-Jul-19 00:30N 24°29' E 118°04'9313351153.0
2017-Jul-19 00:30N 39°56' E 119°42'9351121774.7
2017-Jul-19 00:30N 24°26' E 117°50'8082907541.2
2017-Jul-19 00:30N 37°33' E 121°23'9631733272.0
2017-Jul-19 00:30N 22°58' E 113°38'250299742.9
2017-Jul-19 00:30N 24°26' E 117°53'40630470.7
2017-Jul-19 00:29N 29°56' E 122°19'62815812.4
2017-Jul-19 00:27N 22°59' E 113°34'106313766.1
2017-Jul-19 00:22N 39°56' E 119°39'4735355.5
2017-Jul-19 00:17N 32°04' E 120°29'6147320715.0
2017-Jul-19 00:16N 33°27' W 117°42'614745073.2
2017-Jul-19 00:08N 29°54' E 121°59'255975.3
2017-Jul-19 00:08N 30°19' E 121°60'4353700.8
2017-Jul-19 00:00N 37°33' E 121°23'808290756.2
2017-Jul-19 00:00N 24°26' E 117°50'32262.0
2017-Jul-19 00:00N 24°26' E 117°53'40647179.8
2017-Jul-19 00:00N 29°56' E 122°19'2850307.1
2017-Jul-19 00:00N 30°19' E 121°60'62987117.3
2017-Jul-18 23:59N 22°58' E 113°38'4962.1
2017-Jul-18 23:59N 22°59' E 113°34'26386025.0
2017-Jul-18 23:59N 24°29' E 118°04'26563602.3
2017-Jul-18 23:59N 23°02' E 113°31'1062293957.0
2017-Jul-18 23:58N 39°56' E 119°39'61311309.0
2017-Jul-18 23:55N 29°54' E 121°59'831216.8
2017-Jul-18 23:51N 31°13' E 121°30'5303683.6
2017-Jul-18 23:42N 39°56' E 119°42'5882932.2
2017-Jul-18 23:30N 30°19' E 121°60'629566262.6
2017-Jul-18 23:30N 22°58' E 113°38'963866640.8
2017-Jul-18 23:30N 37°33' E 121°23'8072905500.3
2017-Jul-18 23:30N 24°26' E 117°53'25461075.8
2017-Jul-18 23:30N 23°02' E 113°31'26521680.9
2017-Jul-18 23:29N 24°29' E 118°04'44584295.9
2017-Jul-18 23:29N 31°15' E 121°30'4531629351.4
2017-Jul-18 23:29N 24°26' E 117°50'934108503.8
2017-Jul-18 23:28N 39°56' E 119°39'61418405.5
2017-Jul-18 23:26N 29°56' E 122°19'61318098.3
2017-Jul-18 23:24N 39°56' E 119°42'6137329.6
2017-Jul-18 23:19N 29°54' E 122°00'6224006.5
2017-Jul-18 23:10N 22°18' E 114°09'10966848.9
2017-Jul-18 23:00N 39°56' E 119°42'588176418.9
2017-Jul-18 23:00N 30°19' E 121°60'435391360.7
2017-Jul-18 23:00N 37°33' E 121°23'808363447.9
2017-Jul-18 23:00N 24°26' E 117°50'31508.1
2017-Jul-18 23:00N 24°26' E 117°53'98456.6
2017-Jul-18 23:00N 24°26' E 118°03'40157732.1
2017-Jul-18 22:59N 29°56' E 122°19'627225640.8
2017-Jul-18 22:59N 22°58' E 113°38'106473636.2
2017-Jul-18 22:58N 39°56' E 119°39'109546942.4
2017-Jul-18 22:57N 22°17' E 114°09'5768253.9
2017-Jul-18 22:57N 23°02' E 113°31'449.0
2017-Jul-18 22:52N 22°59' E 113°34'61512881.8
2017-Jul-18 22:49N 29°53' E 122°03'614559785.3
2017-Jul-18 22:43N 33°27' W 117°42'61261160749.5
2017-Jul-18 22:43N 31°41' E 121°10'1111838.4
2017-Jul-18 22:39N 29°56' E 121°53'3892702.0
2017-Jul-18 22:30N 24°24' E 118°07'9361684360.6
2017-Jul-18 22:30N 39°56' E 119°42'164589699.3
2017-Jul-18 22:30N 37°33' E 121°23'807581095.9
2017-Jul-18 22:30N 24°26' E 117°53'415299054.6
2017-Jul-18 22:30N 30°19' E 121°60'2820115.9
2017-Jul-18 22:30N 29°56' E 122°19'629452713.8
2017-Jul-18 22:30N 23°02' E 113°31'81209.9
2017-Jul-18 22:30N 22°58' E 113°38'4898.6
2017-Jul-18 22:29N 22°59' E 113°34'660264104.7
2017-Jul-18 22:29N 31°42' E 121°09'47054545.8
2017-Jul-18 22:29N 24°26' E 117°50'934197859.9
2017-Jul-18 22:28N 39°56' E 119°39'5914760349.2
2017-Jul-18 22:28N 33°27' W 117°42'6145130889.8
2017-Jul-18 22:25N 29°53' E 122°03'396965.8
2017-Jul-18 22:01N 24°26' E 117°53'169691.9
2017-Jul-18 22:00N 24°21' E 118°10'265159167.4
2017-Jul-18 22:00N 22°59' E 113°34'963192549.8
2017-Jul-18 22:00N 37°33' E 121°23'1655924.0
2017-Jul-18 21:58N 39°56' E 119°39'1061382137.9
2017-Jul-18 21:58N 23°02' E 113°31'8158.2
2017-Jul-18 21:55N 22°58' E 113°38'249179042.9
2017-Jul-18 21:55N 24°25' E 117°52'233.0
2017-Jul-18 21:52N 24°26' E 117°50'40834137.9
2017-Jul-18 21:51N 29°56' E 122°19'282793.7
2017-Jul-18 21:51N 30°19' E 121°60'261083.6
2017-Jul-18 21:49N 29°53' E 122°03'8329.4
2017-Jul-18 21:48N 29°57' E 121°54'3951380.4
2017-Jul-18 21:31N 24°16' E 118°10'943484827.0
2017-Jul-18 21:30N 39°56' E 119°42'935841347.2
2017-Jul-18 21:30N 24°26' E 117°50'31292.7
2017-Jul-18 21:30N 24°26' E 117°53'8071452739.7
2017-Jul-18 21:30N 37°33' E 121°23'43438131.4
2017-Jul-18 21:29N 30°19' E 122°00'632133736.7
2017-Jul-18 21:29N 23°02' E 113°31'41317.0
2017-Jul-18 21:29N 22°59' E 113°34'106398120.2
2017-Jul-18 21:28N 39°56' E 119°39'614147240.9
2017-Jul-18 21:28N 29°56' E 122°19'61292206494.3
2017-Jul-18 21:28N 33°27' W 117°42'68331069446.3
2017-Jul-18 21:28N 22°58' E 113°38'61414939.8
2017-Jul-18 21:25N 29°53' E 122°03'3951327.7
2017-Jul-18 21:07N 24°24' E 117°58'40310597.2
2017-Jul-18 21:05N 30°07' E 121°57'6007792.8
2017-Jul-18 21:00N 39°56' E 119°42'16465522.1
2017-Jul-18 21:00N 37°33' E 121°23'963266607.4
2017-Jul-18 21:00N 22°59' E 113°34'43369.7
2017-Jul-18 21:00N 22°58' E 113°38'258927780.1
2017-Jul-18 21:00N 24°14' E 118°07'1731136.7
2017-Jul-18 21:00N 24°26' E 117°53'52808.4
2017-Jul-18 21:00N 24°24' E 117°59'81050.1
2017-Jul-18 20:59N 24°26' E 117°50'93461157.1
2017-Jul-18 20:58N 39°56' E 119°39'613138031.7
2017-Jul-18 20:58N 29°56' E 122°19'61292451653.4
2017-Jul-18 20:58N 33°27' W 117°42'6151671025.0
2017-Jul-18 20:57N 29°56' E 121°53'9391.8
2017-Jul-18 20:56N 29°53' E 122°03'14347.8
2017-Jul-18 20:54N 30°07' E 121°57'62138541.5
2017-Jul-18 20:53N 23°02' E 113°31'10622856.3
2017-Jul-18 20:30N 39°56' E 119°42'10641914967.5
2017-Jul-18 20:30N 22°59' E 113°34'414474.1
2017-Jul-18 20:30N 23°02' E 113°31'259116650.5
2017-Jul-18 20:30N 24°11' E 118°03'1450371.4
2017-Jul-18 20:30N 24°25' E 118°02'806223253.7
2017-Jul-18 20:30N 37°33' E 121°23'807581095.9
2017-Jul-18 20:30N 24°26' E 117°53'25059949.1
2017-Jul-18 20:30N 22°58' E 113°38'62710163.9
2017-Jul-18 20:26N 29°56' E 122°19'141162.0
2017-Jul-18 20:25N 29°53' E 122°03'61451701567.4
2017-Jul-18 20:25N 33°27' W 117°42'6142311408.1
2017-Jul-18 20:24N 30°06' E 121°58'60125445.1
2017-Jul-18 20:22N 39°56' E 119°39'61013549.2
2017-Jul-18 20:20N 29°56' E 121°53'39413909.8
2017-Jul-18 20:18N 24°26' E 117°50'8082769.1
2017-Jul-18 20:00N 37°33' E 121°23'9621731215.5
2017-Jul-18 20:00N 23°02' E 113°31'10621274897.3
2017-Jul-18 20:00N 39°56' E 119°42'935673073.4
2017-Jul-18 20:00N 24°26' E 117°50'402482642.9
2017-Jul-18 20:00N 30°03' E 121°57'4011442962.4
2017-Jul-18 20:00N 24°26' E 117°53'1214776.1
2017-Jul-18 20:00N 24°24' E 118°06'26330561.3
2017-Jul-18 20:00N 22°59' E 113°34'6158145.8
2017-Jul-18 19:55N 29°53' E 122°03'61453160081.8
2017-Jul-18 19:55N 33°27' W 117°42'5914135603.7
2017-Jul-18 19:52N 39°56' E 119°39'106456310.0
2017-Jul-18 19:51N 22°58' E 113°38'6151772.8
2017-Jul-18 19:30N 29°60' E 121°57'3981432774.0
2017-Jul-18 19:30N 24°26' E 117°53'807726369.8
2017-Jul-18 19:30N 37°33' E 121°23'963433318.0
2017-Jul-18 19:30N 22°58' E 113°38'263315123.8
2017-Jul-18 19:30N 24°22' E 118°10'26815286.3
2017-Jul-18 19:29N 23°02' E 113°31'4301.0
2017-Jul-18 19:28N 22°59' E 113°34'250299951.7
2017-Jul-18 19:28N 24°26' E 117°50'3977769.7
2017-Jul-18 19:25N 29°53' E 122°03'14148.2
2017-Jul-18 19:19N 29°56' E 122°19'6129760864.3
2017-Jul-18 19:19N 33°27' W 117°42'591441339.4
2017-Jul-18 19:10N 39°56' E 119°39'10626401.1
2017-Jul-18 19:00N 23°02' E 113°31'1062764946.7
2017-Jul-18 19:00N 39°56' E 119°42'10641914977.9
2017-Jul-18 19:00N 22°59' E 113°34'9631155311.7
2017-Jul-18 19:00N 37°33' E 121°23'807581100.1
2017-Jul-18 19:00N 24°26' E 117°53'3148.3
2017-Jul-18 18:59N 24°26' E 117°50'408244638.7
2017-Jul-18 18:59N 29°56' E 122°19'193598.3
2017-Jul-18 18:59N 29°57' E 121°57'39158626.6
2017-Jul-18 18:58N 24°21' E 118°13'9383376111.1
2017-Jul-18 18:58N 39°56' E 119°39'106483240.9
2017-Jul-18 18:58N 22°58' E 113°38'61414741.4
2017-Jul-18 18:55N 29°53' E 122°03'6161500.8
2017-Jul-18 18:30N 23°02' E 113°31'1062637459.0
2017-Jul-18 18:30N 39°56' E 119°42'10643829955.9
2017-Jul-18 18:30N 22°59' E 113°34'252908422.2
2017-Jul-18 18:30N 24°26' E 117°53'39552708.6
2017-Jul-18 18:30N 29°57' E 121°57'61259572.4
2017-Jul-18 18:29N 22°58' E 113°38'106472246.8
2017-Jul-18 18:28N 39°56' E 119°39'61358118.2
2017-Jul-18 18:28N 29°56' E 122°19'40823298.6
2017-Jul-18 18:27N 24°26' E 117°50'3971764.8
2017-Jul-18 18:13N 29°54' E 122°02'4602170.8
2017-Jul-18 18:00N 37°33' E 121°23'16484242.8
2017-Jul-18 18:00N 39°56' E 119°42'935420542.1
2017-Jul-18 18:00N 24°26' E 117°53'25435236.9
2017-Jul-18 18:00N 23°02' E 113°31'65747320.6
2017-Jul-18 17:59N 32°04' E 120°29'658147945.5
2017-Jul-18 17:59N 22°59' E 113°34'250224962.0
2017-Jul-18 17:59N 24°26' E 117°50'247445346.9
2017-Jul-18 17:59N 22°58' E 113°38'1064319090.1
2017-Jul-18 17:58N 39°56' E 119°39'5914887074.1
2017-Jul-18 17:58N 33°27' W 117°42'6129298176.9
2017-Jul-18 17:57N 29°56' E 122°19'6131394.7
2017-Jul-18 17:30N 39°56' E 119°42'935841320.3
2017-Jul-18 17:30N 24°26' E 117°50'247445346.9
2017-Jul-18 17:30N 22°58' E 113°38'963866636.0
2017-Jul-18 17:30N 37°33' E 121°23'45971783.4
2017-Jul-18 17:30N 29°56' E 122°19'629102886.8
2017-Jul-18 17:29N 23°02' E 113°31'65787631.3
2017-Jul-18 17:29N 32°04' E 120°29'6582367146.3
2017-Jul-18 17:29N 22°59' E 113°34'1063106297.4
2017-Jul-18 17:28N 39°56' E 119°39'6091339.7
2017-Jul-18 17:01N 29°56' E 121°53'60946653.1
2017-Jul-18 17:00N 39°56' E 119°42'6132207867.5
2017-Jul-18 17:00N 29°56' E 122°19'406292506.3
2017-Jul-18 17:00N 24°26' E 117°53'807264134.5
2017-Jul-18 17:00N 37°33' E 121°23'962494641.5
2017-Jul-18 17:00N 23°02' E 113°31'25224528.5
2017-Jul-18 16:59N 24°26' E 117°50'93461155.1
2017-Jul-18 16:58N 39°56' E 119°39'106479772.5
2017-Jul-18 16:58N 22°58' E 113°38'60914618.4
2017-Jul-18 16:55N 29°56' E 121°52'6106368.7
2017-Jul-18 16:49N 22°59' E 113°34'0 0.0
2017-Jul-18 16:30N 22°59' E 113°34'10643829955.9
2017-Jul-18 16:30N 39°56' E 119°42'935480619.5
2017-Jul-18 16:30N 24°26' E 117°53'807181592.5
2017-Jul-18 16:30N 37°33' E 121°23'963157570.2
2017-Jul-18 16:30N 22°58' E 113°38'24715626.2
2017-Jul-18 16:29N 24°26' E 117°50'934197854.8
2017-Jul-18 16:28N 39°56' E 119°39'60911668.7
2017-Jul-18 16:25N 29°56' E 121°52'4343227.7
2017-Jul-18 16:17N 23°46' E 117°39'2323438.7
2017-Jul-18 16:13N 23°02' E 113°31'2301084.2
2017-Jul-18 16:00N 23°44' E 117°37'9783519093.9
2017-Jul-18 16:00N 39°56' E 119°42'935420542.1
2017-Jul-18 16:00N 24°26' E 117°53'807242123.3
2017-Jul-18 16:00N 37°33' E 121°23'963138661.8
2017-Jul-18 16:00N 22°58' E 113°38'106453181.7
2017-Jul-18 15:58N 39°56' E 119°39'6141104308.9
2017-Jul-18 15:58N 29°56' E 122°19'40861154.6
2017-Jul-18 15:58N 24°26' E 117°50'25217795.2
2017-Jul-18 15:57N 23°02' E 113°31'42405.8
2017-Jul-18 15:57N 22°59' E 113°34'61019272.4
2017-Jul-18 15:55N 29°56' E 121°52'615217521.5
2017-Jul-18 15:34N 33°27' W 117°42'5911101339.4
2017-Jul-18 15:31N 37°33' E 121°23'16458968.0
2017-Jul-18 15:30N 39°56' E 119°42'935673056.2
2017-Jul-18 15:30N 24°26' E 117°50'31809.4
2017-Jul-18 15:30N 24°26' E 117°53'25419086.8
2017-Jul-18 15:29N 23°02' E 113°31'8991.8
2017-Jul-18 15:29N 22°58' E 113°38'6833447223.0
2017-Jul-18 15:28N 33°27' W 117°42'6152410133.8
2017-Jul-18 15:27N 29°56' E 121°52'2384.5
2017-Jul-18 15:11N 29°56' E 122°19'62822166.7
2017-Jul-18 15:09N 22°59' E 113°34'428.0
2017-Jul-18 15:00N 23°02' E 113°31'10623824754.2
2017-Jul-18 15:00N 39°56' E 119°42'16421060.7
2017-Jul-18 15:00N 37°33' E 121°23'4577694.6
2017-Jul-18 14:56N 29°56' E 121°53'609365485.8
2017-Jul-18 14:56N 22°58' E 113°38'60935364.6
2017-Jul-18 14:55N 29°56' E 121°52'39335348.4
2017-Jul-18 14:55N 24°26' E 117°53'40613295.8
2017-Jul-18 14:53N 29°56' E 122°19'6281130573.9
2017-Jul-18 14:53N 22°59' E 113°34'6835600126.6
2017-Jul-18 14:52N 33°27' W 117°42'68367949.2
2017-Jul-18 14:00N 23°02' E 113°31'9621731235.4
2017-Jul-18 14:00N 37°33' E 121°23'164294849.7
2017-Jul-18 14:00N 39°56' E 119°42'106585162.4
2017-Jul-18 14:00N 22°58' E 113°38'60912602.9
2017-Jul-18 13:57N 29°56' E 121°53'39394253.5
2017-Jul-18 13:56N 24°26' E 117°53'39320198.8
2017-Jul-18 13:55N 29°56' E 121°52'61022649.9
2017-Jul-18 13:54N 22°59' E 113°34'65867632.2
2017-Jul-18 13:53N 32°04' E 120°29'614728298.4
2017-Jul-18 13:40N 33°27' W 117°42'683642505.7
2017-Jul-18 13:30N 23°02' E 113°31'10623824754.2
2017-Jul-18 13:30N 39°56' E 119°42'6102194564.6
2017-Jul-18 13:30N 29°56' E 121°53'45791481.6
2017-Jul-18 13:30N 37°33' E 121°23'807415071.5
2017-Jul-18 13:30N 24°26' E 117°53'25021932.4
2017-Jul-18 13:29N 22°58' E 113°38'683356938.1
2017-Jul-18 13:22N 33°27' W 117°42'611355576.5
2017-Jul-18 13:15N 31°23' E 121°37'5212072.9
2017-Jul-18 13:00N 39°56' E 119°42'10641276652.0
2017-Jul-18 13:00N 22°59' E 113°34'662794876.1
2017-Jul-18 13:00N 31°23' E 121°37'369332472.5
2017-Jul-18 13:00N 37°33' E 121°23'34061248.8
2017-Jul-18 13:00N 31°57' E 120°17'1444641.9
2017-Jul-18 12:58N 29°57' E 121°50'608547459.5
2017-Jul-18 12:58N 22°58' E 113°38'25010705.2
2017-Jul-18 12:57N 24°26' E 117°53'4621062.3
2017-Jul-18 12:30N 31°23' E 121°37'78282026.5
2017-Jul-18 12:30N 31°56' E 120°13'481865803.1
2017-Jul-18 12:30N 39°56' E 119°42'608730120.3
2017-Jul-18 12:30N 29°57' E 121°50'608364988.0
2017-Jul-18 12:30N 22°58' E 113°38'9631733272.0
2017-Jul-18 12:30N 37°33' E 121°23'962865622.7
2017-Jul-18 12:30N 23°02' E 113°31'6299314.6
2017-Jul-18 12:26N 29°56' E 122°19'4069197.9
2017-Jul-18 12:23N 24°26' E 117°53'2521953.6
2017-Jul-18 12:16N 22°59' E 113°34'10644158.5
2017-Jul-18 12:00N 39°56' E 119°42'521468986.4
2017-Jul-18 12:00N 31°23' E 121°37'369147765.5
2017-Jul-18 12:00N 37°33' E 121°23'963495130.8
2017-Jul-18 12:00N 22°59' E 113°34'610109716.4
2017-Jul-18 12:00N 29°57' E 121°50'608364985.6
2017-Jul-18 12:00N 22°58' E 113°38'25021932.6
2017-Jul-18 11:59N 24°26' E 117°53'4064227.0
2017-Jul-18 11:53N 29°56' E 122°19'62916168.5
2017-Jul-18 11:51N 23°02' E 113°31'6408965.2
2017-Jul-18 11:47N 31°56' E 120°08'6170106784.0
2017-Jul-18 11:43N 33°27' W 117°42'591227965.6
2017-Jul-18 11:30N 39°56' E 119°42'1065638717.8
2017-Jul-18 11:30N 22°58' E 113°38'662264624.3
2017-Jul-18 11:30N 31°23' E 121°37'369332483.3
2017-Jul-18 11:30N 37°33' E 121°23'9631155311.7
2017-Jul-18 11:30N 22°59' E 113°34'65838179.8
2017-Jul-18 11:29N 32°04' E 120°29'6147417534.7
2017-Jul-18 11:28N 33°27' W 117°42'612993102.0
2017-Jul-18 11:24N 29°56' E 122°19'61421653.5
2017-Jul-18 11:22N 39°56' E 119°39'934280217.2
2017-Jul-18 11:22N 24°26' E 117°53'3947714.0
2017-Jul-18 11:19N 29°54' E 121°59'3501459.3
2017-Jul-18 11:05N 24°45' E 118°54'91212480.0
2017-Jul-18 11:00N 39°56' E 119°42'1064159581.5
2017-Jul-18 11:00N 22°59' E 113°34'662596153.1
2017-Jul-18 11:00N 31°23' E 121°37'369664955.7
2017-Jul-18 11:00N 37°33' E 121°23'778399968.0
2017-Jul-18 11:00N 24°45' E 118°54'596443.3
2017-Jul-18 10:59N 24°26' E 117°53'25425448.2
2017-Jul-18 10:59N 23°02' E 113°31'1061272955.7
2017-Jul-18 10:58N 39°56' E 119°39'1064478635.2
2017-Jul-18 10:58N 22°58' E 113°38'6275014.2
2017-Jul-18 10:51N 29°56' E 122°19'24109.4
2017-Jul-18 10:37N 29°57' E 121°51'6095241.4
2017-Jul-18 10:30N 39°56' E 119°42'521133997.6
2017-Jul-18 10:30N 31°23' E 121°37'36988660.8
2017-Jul-18 10:30N 37°33' E 121°23'807968493.1
2017-Jul-18 10:30N 24°26' E 117°53'6231714.4
2017-Jul-18 10:30N 24°48' E 118°57'31643771.2
2017-Jul-18 10:29N 23°02' E 113°31'106165885.8
2017-Jul-18 10:28N 39°56' E 119°39'106485090.7
2017-Jul-18 10:28N 22°58' E 113°38'60818879.7
2017-Jul-18 10:26N 29°57' E 121°51'251606.4
2017-Jul-18 10:25N 29°56' E 122°19'4088842.1
2017-Jul-18 10:22N 24°26' E 117°50'25023680.4
2017-Jul-18 10:21N 22°59' E 113°34'10643046.9
2017-Jul-18 10:00N 39°56' E 119°42'6131103973.5
2017-Jul-18 10:00N 29°56' E 122°19'6281130594.0
2017-Jul-18 10:00N 22°59' E 113°34'250449927.2
2017-Jul-18 10:00N 24°26' E 117°50'808581491.3
2017-Jul-18 10:00N 37°33' E 121°23'369132989.0
2017-Jul-18 10:00N 31°23' E 121°37'662397467.0
2017-Jul-18 10:00N 23°06' E 113°25'142391.5
2017-Jul-18 10:00N 22°58' E 113°38'81545.9
2017-Jul-18 09:59N 23°02' E 113°31'106168238.9
2017-Jul-18 09:58N 39°56' E 119°39'6082190434.1
2017-Jul-18 09:58N 29°57' E 121°50'34232437.8
2017-Jul-18 09:58N 24°50' E 118°59'418917.0
2017-Jul-18 09:30N 31°23' E 121°37'462151229.6
2017-Jul-18 09:30N 24°26' E 117°53'807152918.9
2017-Jul-18 09:30N 37°33' E 121°23'963266607.4
2017-Jul-18 09:30N 22°59' E 113°34'250899847.2
2017-Jul-18 09:30N 24°26' E 117°50'255459455.4
2017-Jul-18 09:30N 23°06' E 113°25'63061254.0
2017-Jul-18 09:29N 29°56' E 122°19'35166574.6
2017-Jul-18 09:29N 24°52' E 119°01'904171321.4
2017-Jul-18 09:28N 39°56' E 119°39'106186849.5
2017-Jul-18 09:28N 23°02' E 113°31'8193.2
2017-Jul-18 09:25N 22°58' E 113°38'6501909.3
2017-Jul-18 09:05N 31°60' E 120°22'3374629.3
2017-Jul-18 09:00N 37°33' E 121°23'369443289.4
2017-Jul-18 09:00N 31°23' E 121°37'521937962.1
2017-Jul-18 09:00N 39°56' E 119°42'10643829935.0
2017-Jul-18 09:00N 22°59' E 113°34'43621.8
2017-Jul-18 09:00N 23°02' E 113°31'622519.7
2017-Jul-18 09:00N 23°06' E 113°25'64863084.1
2017-Jul-18 09:00N 31°59' E 120°21'47265301.1
2017-Jul-18 08:59N 24°26' E 117°53'655594773.4
2017-Jul-18 08:55N 33°27' W 117°42'6833491945.1
2017-Jul-18 08:54N 22°58' E 113°38'6276695.9
2017-Jul-18 08:49N 29°56' E 122°19'4591517.4
2017-Jul-18 08:30N 37°33' E 121°23'16484245.5
2017-Jul-18 08:30N 39°56' E 119°42'5211875902.9
2017-Jul-18 08:30N 31°23' E 121°37'462184842.6
2017-Jul-18 08:30N 24°26' E 117°53'25461075.8
2017-Jul-18 08:30N 23°02' E 113°31'1062166148.7
2017-Jul-18 08:30N 39°56' E 119°39'1063255113.9
2017-Jul-18 08:29N 22°59' E 113°34'250899847.2
2017-Jul-18 08:29N 24°26' E 117°50'2471927.9
2017-Jul-18 08:22N 22°58' E 113°38'62711006.8
2017-Jul-18 08:18N 29°56' E 122°19'6129179390.7
2017-Jul-18 08:16N 33°27' W 117°42'591122377.8
2017-Jul-18 08:00N 37°33' E 121°23'459412732.9
2017-Jul-18 08:00N 29°56' E 122°19'94169295.9
2017-Jul-18 08:00N 31°23' E 121°37'663265025.8
2017-Jul-18 08:00N 23°02' E 113°31'25491616.7
2017-Jul-18 08:00N 24°26' E 117°53'25269878.6
2017-Jul-18 08:00N 22°59' E 113°34'250899833.4
2017-Jul-18 08:00N 24°26' E 117°50'934672719.2
2017-Jul-18 08:00N 39°56' E 119°39'5914241929.2
2017-Jul-18 07:58N 33°27' W 117°42'6833163981.8
2017-Jul-18 07:56N 22°58' E 113°38'10658809.9
2017-Jul-18 07:48N 39°56' E 119°42'9353095.1
2017-Jul-18 07:30N 24°26' E 117°53'8072905479.3
2017-Jul-18 07:30N 37°33' E 121°23'962432813.8
2017-Jul-18 07:30N 23°02' E 113°31'663108422.5
2017-Jul-18 07:30N 31°23' E 121°37'463416868.9
2017-Jul-18 07:30N 24°26' E 117°50'25047360.8
2017-Jul-18 07:29N 22°59' E 113°34'44489.8
2017-Jul-18 07:29N 22°58' E 113°38'62772786.3
2017-Jul-18 07:29N 29°56' E 122°19'6137055.8
2017-Jul-18 07:24N 39°56' E 119°39'4731343.1
2017-Jul-18 07:02N 32°04' E 120°29'33110196.1
2017-Jul-18 07:00N 37°33' E 121°23'963577652.6
2017-Jul-18 07:00N 22°59' E 113°34'250299954.1
2017-Jul-18 07:00N 24°26' E 117°50'31809.3
2017-Jul-18 07:00N 24°26' E 117°53'4621663592.5
2017-Jul-18 07:00N 31°23' E 121°37'663238527.9
2017-Jul-18 07:00N 23°02' E 113°31'629754526.9
2017-Jul-18 07:00N 29°56' E 122°19'62734713.5
2017-Jul-18 06:59N 22°58' E 113°38'106447867.6
2017-Jul-18 06:58N 39°56' E 119°39'5211143.8
2017-Jul-18 06:30N 31°23' E 121°37'369665036.9
2017-Jul-18 06:30N 37°33' E 121°23'459330194.9
2017-Jul-18 06:30N 29°56' E 122°19'628452225.5
2017-Jul-18 06:30N 22°59' E 113°34'252100935.8
2017-Jul-18 06:30N 24°26' E 117°53'25011832.1
2017-Jul-18 06:29N 22°58' E 113°38'8841.2
2017-Jul-18 06:28N 23°02' E 113°31'252151261.5
2017-Jul-18 06:28N 24°26' E 117°50'93432655.4
2017-Jul-18 06:26N 39°56' E 119°39'10622463.9
2017-Jul-18 06:00N 23°02' E 113°31'962865632.5
2017-Jul-18 06:00N 37°33' E 121°23'8081453770.5
2017-Jul-18 06:00N 24°26' E 117°50'463111165.1
2017-Jul-18 06:00N 31°23' E 121°37'46259413.3
2017-Jul-18 06:00N 24°26' E 117°53'25044961.8
2017-Jul-18 05:59N 22°58' E 113°38'4182.0
2017-Jul-18 05:58N 22°59' E 113°34'62829751.5
2017-Jul-18 05:57N 29°56' E 122°19'61325096.5
2017-Jul-18 05:55N 39°56' E 119°39'591416776.8
2017-Jul-18 05:34N 33°27' W 117°42'612988614.8
2017-Jul-18 05:30N 29°56' E 122°19'4591650996.1
2017-Jul-18 05:30N 37°33' E 121°23'807581100.1
2017-Jul-18 05:30N 24°26' E 117°53'4621663573.1
2017-Jul-18 05:30N 31°23' E 121°37'66391740.9
2017-Jul-18 05:29N 23°02' E 113°31'4576.9
2017-Jul-18 05:29N 22°59' E 113°34'6835447367.1
2017-Jul-18 05:28N 33°27' W 117°42'6558843119.0
2017-Jul-18 05:28N 24°26' E 117°50'47922114.4
2017-Jul-18 05:26N 32°04' E 120°29'47327918.8
2017-Jul-18 05:25N 39°56' E 119°39'10642580.2
2017-Jul-18 05:01N 22°58' E 113°38'627376057.9
2017-Jul-18 05:00N 29°56' E 122°19'9484610.4
2017-Jul-18 05:00N 31°23' E 121°37'463277912.7
2017-Jul-18 05:00N 24°26' E 117°50'31809.4
2017-Jul-18 05:00N 24°26' E 117°53'254305393.9
2017-Jul-18 05:00N 23°02' E 113°31'962216408.2
2017-Jul-18 05:00N 37°33' E 121°23'963101938.7
2017-Jul-18 04:59N 22°59' E 113°34'106315683.2
2017-Jul-18 04:55N 39°56' E 119°39'4735547.4
2017-Jul-18 04:50N 32°04' E 120°29'65744619.4
2017-Jul-18 04:49N 22°58' E 113°38'824.7
2017-Jul-18 04:31N 23°02' E 113°31'25275629.6
2017-Jul-18 04:30N 24°26' E 117°50'9341121184.4
2017-Jul-18 04:30N 39°56' E 119°39'165197467.0
2017-Jul-18 04:30N 37°33' E 121°23'459165099.6
2017-Jul-18 04:30N 29°56' E 122°19'6281130549.9
2017-Jul-18 04:30N 22°59' E 113°34'252129774.6
2017-Jul-18 04:30N 24°26' E 117°53'2501877.3
2017-Jul-18 04:22N 22°58' E 113°38'65915196.9
2017-Jul-18 04:19N 31°15' E 121°42'611424160.4
2017-Jul-18 04:04N 33°27' W 117°42'611398251.1
2017-Jul-18 04:00N 31°23' E 121°37'462166357.3
2017-Jul-18 04:00N 24°26' E 117°53'25264887.3
2017-Jul-18 04:00N 22°59' E 113°34'42693.9
2017-Jul-18 04:00N 22°58' E 113°38'24752393.3
2017-Jul-18 04:00N 24°26' E 117°50'25210431.8
2017-Jul-18 03:58N 23°02' E 113°31'106225649.9
2017-Jul-18 03:56N 39°56' E 119°39'5914608274.1
2017-Jul-18 03:55N 33°27' W 117°42'612919914.3
2017-Jul-18 03:37N 29°56' E 122°19'94922.1
2017-Jul-18 03:31N 31°23' E 121°37'6632385295.9
2017-Jul-18 03:31N 23°02' E 113°31'25275630.2
2017-Jul-18 03:30N 24°26' E 117°50'31809.4
2017-Jul-18 03:30N 24°26' E 117°53'807726369.8
2017-Jul-18 03:30N 37°33' E 121°23'963385101.8
2017-Jul-18 03:30N 22°59' E 113°34'4207.2
2017-Jul-18 03:29N 22°58' E 113°38'106419841.5
2017-Jul-18 03:26N 39°56' E 119°39'5914608273.7
2017-Jul-18 03:25N 33°27' W 117°42'644371367.6
2017-Jul-18 03:20N 25°16' E 119°27'31931030.3
2017-Jul-18 03:19N 29°56' E 122°19'1584936.3
2017-Jul-18 03:17N 32°02' E 120°28'71255.1
2017-Jul-18 03:01N 31°23' E 121°37'369665015.3
2017-Jul-18 03:00N 37°33' E 121°23'962314773.7
2017-Jul-18 03:00N 23°02' E 113°31'254183234.9
2017-Jul-18 03:00N 24°26' E 117°53'3251.3
2017-Jul-18 03:00N 24°26' E 117°50'25056240.0
2017-Jul-18 02:59N 22°59' E 113°34'62810665.9
2017-Jul-18 02:56N 29°56' E 122°19'614276121.4
2017-Jul-18 02:56N 39°56' E 119°39'10649895.1
2017-Jul-18 02:49N 22°58' E 113°38'683345049.9
2017-Jul-18 02:40N 33°27' W 117°42'611338142.5
2017-Jul-18 02:31N 31°23' E 121°37'36995005.3
2017-Jul-18 02:30N 37°33' E 121°23'963203878.5
2017-Jul-18 02:30N 22°59' E 113°34'4141.4
2017-Jul-18 02:28N 23°02' E 113°31'68362461080.3
2017-Jul-18 02:28N 33°27' W 117°42'64371219708.5
2017-Jul-18 02:28N 25°18' E 119°32'35316925.6
2017-Jul-18 02:27N 22°58' E 113°38'627141027.2
2017-Jul-18 02:26N 29°56' E 122°19'61463112.9
2017-Jul-18 02:26N 39°56' E 119°39'4781485.2
2017-Jul-18 02:06N 31°59' E 120°21'4724641.5
2017-Jul-18 02:00N 24°26' E 117°50'31809.4
2017-Jul-18 02:00N 24°26' E 117°53'8072905500.3
2017-Jul-18 02:00N 37°33' E 121°23'962314775.4
2017-Jul-18 02:00N 23°02' E 113°31'35986207.2
2017-Jul-18 02:00N 25°18' E 119°35'35749464.1
2017-Jul-18 01:59N 22°59' E 113°34'42693.9
2017-Jul-18 01:59N 22°58' E 113°38'6833367123.3
2017-Jul-18 01:58N 33°27' W 117°42'5914143848.5
2017-Jul-18 01:56N 39°56' E 119°39'4793654.1
2017-Jul-18 01:48N 31°58' E 120°19'75260.2
2017-Jul-18 01:31N 31°23' E 121°37'369443350.7
2017-Jul-18 01:30N 37°33' E 121°23'808290752.0
2017-Jul-18 01:30N 24°26' E 117°50'31809.4
2017-Jul-18 01:30N 24°26' E 117°53'25429554.0
2017-Jul-18 01:30N 23°02' E 113°31'8408.2
2017-Jul-18 01:29N 22°58' E 113°38'68331024886.0
2017-Jul-18 01:28N 33°27' W 117°42'5914144827.2
2017-Jul-18 01:26N 39°56' E 119°39'614129939.5
2017-Jul-18 01:25N 29°56' E 122°19'6282291.0
2017-Jul-18 01:09N 22°59' E 113°34'64415354.2
2017-Jul-18 01:06N 31°56' E 120°15'77757.1
2017-Jul-18 01:00N 31°23' E 121°37'463416869.1
2017-Jul-18 01:00N 24°26' E 117°50'808484586.7
2017-Jul-18 01:00N 37°33' E 121°23'96361902.6
2017-Jul-18 00:59N 22°58' E 113°38'250299742.9
2017-Jul-18 00:59N 24°26' E 117°53'46757952.2
2017-Jul-18 00:59N 31°56' E 120°14'64396511.6
2017-Jul-18 00:58N 22°59' E 113°34'628205561.4
2017-Jul-18 00:58N 29°56' E 122°19'6136418.6
2017-Jul-18 00:52N 39°56' E 119°42'59121330111.9
2017-Jul-18 00:52N 33°27' W 117°42'5914143848.6
2017-Jul-18 00:50N 39°56' E 119°39'5211634.9
2017-Jul-18 00:31N 31°23' E 121°37'369102310.0
2017-Jul-18 00:30N 37°33' E 121°23'8082907520.1
2017-Jul-18 00:30N 24°26' E 117°50'31507.9
2017-Jul-18 00:30N 24°26' E 117°53'25476346.6
2017-Jul-18 00:30N 23°02' E 113°31'1062181990.0
2017-Jul-18 00:30N 39°56' E 119°39'1064159558.7
2017-Jul-18 00:29N 22°58' E 113°38'627141025.5
2017-Jul-18 00:29N 29°56' E 122°19'61361333.6
2017-Jul-18 00:28N 39°56' E 119°42'5912109700.0
2017-Jul-18 00:25N 33°27' W 117°42'6835276462.8
2017-Jul-18 00:24N 22°59' E 113°34'6621716.9
2017-Jul-18 00:01N 31°23' E 121°37'9442357.8
2017-Jul-18 00:00N 29°56' E 122°19'628753720.5
2017-Jul-18 00:00N 22°59' E 113°34'250449916.7
2017-Jul-18 00:00N 24°26' E 117°50'31507.9
2017-Jul-18 00:00N 24°26' E 117°53'807322833.4
2017-Jul-18 00:00N 37°33' E 121°23'9621154157.0
2017-Jul-18 00:00N 23°02' E 113°31'85556.3
2017-Jul-18 00:00N 22°58' E 113°38'106541207.6
2017-Jul-17 23:58N 39°56' E 119°42'5912110268.3
2017-Jul-17 23:55N 33°27' W 117°42'659831587.8
2017-Jul-17 23:43N 23°39' E 117°36'49245.6
2017-Jul-17 23:31N 24°26' E 117°53'462166354.5
2017-Jul-17 23:30N 31°23' E 121°37'510612400.9
2017-Jul-17 23:30N 23°40' E 117°35'855384802.1
2017-Jul-17 23:30N 37°33' E 121°23'963203914.4
2017-Jul-17 23:30N 22°58' E 113°38'4898.0
2017-Jul-17 23:30N 22°59' E 113°34'62862810.0
2017-Jul-17 23:29N 29°56' E 122°19'61356615.7
2017-Jul-17 23:28N 39°56' E 119°42'59121330111.9
2017-Jul-17 23:28N 33°27' W 117°42'6558262303.8
2017-Jul-17 23:27N 24°26' E 117°50'2526624.4
2017-Jul-17 23:24N 23°02' E 113°31'6571804.2
2017-Jul-17 23:03N 32°04' E 120°29'47814472.9
2017-Jul-17 23:01N 24°26' E 117°53'462207935.9
2017-Jul-17 23:00N 31°23' E 121°37'507456659.5
2017-Jul-17 23:00N 23°44' E 117°35'44159908.9
2017-Jul-17 23:00N 24°26' E 117°50'25223883.0
2017-Jul-17 23:00N 23°02' E 113°31'33323527.9
2017-Jul-17 22:59N 25°07' E 119°09'33142600.7
2017-Jul-17 22:58N 22°59' E 113°34'96346212.2
2017-Jul-17 22:57N 37°33' E 121°23'963288878.7
2017-Jul-17 22:57N 22°58' E 113°38'106514089.4
2017-Jul-17 22:52N 39°56' E 119°42'591257363.3
2017-Jul-17 22:46N 33°27' W 117°42'611323413.3
2017-Jul-17 22:31N 31°23' E 121°37'46287554.0
2017-Jul-17 22:30N 24°26' E 117°53'3646.2
2017-Jul-17 22:30N 24°26' E 117°50'4310332.6
2017-Jul-17 22:30N 23°45' E 117°35'22819110.4
2017-Jul-17 22:29N 23°02' E 113°31'1062103371.2
2017-Jul-17 22:28N 39°56' E 119°42'59121520127.9
2017-Jul-17 22:28N 33°27' W 117°42'6835848454.9
2017-Jul-17 22:28N 22°59' E 113°34'465.7
2017-Jul-17 22:24N 22°58' E 113°38'9637772.6
2017-Jul-17 22:17N 37°33' E 121°23'8082934.0
2017-Jul-17 22:00N 24°26' E 117°50'463277907.8
2017-Jul-17 22:00N 31°23' E 121°37'369664966.5
2017-Jul-17 22:00N 37°33' E 121°23'80778527.0
2017-Jul-17 22:00N 24°26' E 117°53'93548062.0
2017-Jul-17 21:58N 39°56' E 119°42'106461773.1
2017-Jul-17 21:57N 22°59' E 113°34'4293.2
2017-Jul-17 21:57N 22°58' E 113°38'22314848.3
2017-Jul-17 21:56N 23°45' E 117°35'22841088.5
2017-Jul-17 21:55N 23°02' E 113°31'6295156.2
2017-Jul-17 21:48N 29°56' E 122°19'61478882.1
2017-Jul-17 21:48N 39°56' E 119°39'165578.5
2017-Jul-17 21:31N 37°33' E 121°23'369166241.6
2017-Jul-17 21:30N 31°23' E 121°37'662396933.8
2017-Jul-17 21:30N 22°58' E 113°38'250224809.0
2017-Jul-17 21:30N 24°26' E 117°53'25476346.6
2017-Jul-17 21:30N 23°02' E 113°31'4687.4
2017-Jul-17 21:30N 22°59' E 113°34'22610688.5
2017-Jul-17 21:28N 23°45' E 117°35'9773515956.5
2017-Jul-17 21:28N 39°56' E 119°42'935841347.2
2017-Jul-17 21:28N 24°26' E 117°50'40818348.9
2017-Jul-17 21:27N 29°56' E 122°19'6143909.1
2017-Jul-17 21:18N 39°56' E 119°39'9343245.8
2017-Jul-17 21:00N 24°26' E 117°53'462127965.0
2017-Jul-17 21:00N 31°23' E 121°37'94112951.0
2017-Jul-17 21:00N 29°56' E 122°19'627376072.7
2017-Jul-17 21:00N 22°58' E 113°38'4842.4
2017-Jul-17 21:00N 22°59' E 113°34'1063637781.2
2017-Jul-17 21:00N 39°56' E 119°39'934210227.4
2017-Jul-17 20:59N 24°26' E 117°50'25253383.1
2017-Jul-17 20:59N 23°02' E 113°31'1062100650.9
2017-Jul-17 20:58N 39°56' E 119°42'16413401.8
2017-Jul-17 20:58N 37°33' E 121°23'85056694.0
2017-Jul-17 20:57N 23°45' E 117°35'4398.4
2017-Jul-17 20:31N 24°26' E 117°50'463208438.2
2017-Jul-17 20:30N 31°23' E 121°37'662794865.1
2017-Jul-17 20:30N 22°59' E 113°34'252129773.5
2017-Jul-17 20:30N 24°26' E 117°53'25476346.6
2017-Jul-17 20:30N 23°02' E 113°31'962247320.7
2017-Jul-17 20:30N 37°33' E 121°23'963346656.3
2017-Jul-17 20:30N 22°58' E 113°38'106553226.5
2017-Jul-17 20:28N 39°56' E 119°42'97754936.8
2017-Jul-17 20:27N 23°45' E 117°35'9763710.8
2017-Jul-17 20:12N 39°56' E 119°39'165893.5
2017-Jul-17 20:01N 37°33' E 121°23'850306145.5
2017-Jul-17 20:00N 23°45' E 117°35'4351601.6
2017-Jul-17 20:00N 24°26' E 117°50'463416911.5
2017-Jul-17 20:00N 31°23' E 121°37'66244162.4
2017-Jul-17 19:59N 22°59' E 113°34'4306.3
2017-Jul-17 19:59N 22°58' E 113°38'1065348391.5
2017-Jul-17 19:58N 39°56' E 119°42'106232971.8
2017-Jul-17 19:56N 23°02' E 113°31'6293429.8
2017-Jul-17 19:45N 29°56' E 122°19'6292515.2
2017-Jul-17 19:30N 23°02' E 113°31'228117395.7
2017-Jul-17 19:30N 23°45' E 117°35'4351601.6
2017-Jul-17 19:30N 24°26' E 117°50'808181725.3
2017-Jul-17 19:30N 37°33' E 121°23'369132996.6
2017-Jul-17 19:30N 31°23' E 121°37'46227727.5
2017-Jul-17 19:29N 24°26' E 117°53'935116011.6
2017-Jul-17 19:28N 39°56' E 119°42'10641276645.0
2017-Jul-17 19:28N 22°59' E 113°34'450.9
2017-Jul-17 19:24N 22°58' E 113°38'6279896.4
2017-Jul-17 19:20N 29°56' E 122°19'4061244.8
2017-Jul-17 19:01N 24°26' E 117°53'462184845.8
2017-Jul-17 19:00N 31°23' E 121°37'506910900.2
2017-Jul-17 19:00N 23°45' E 117°35'4351622.0
2017-Jul-17 19:00N 24°26' E 117°50'247296893.0
2017-Jul-17 19:00N 22°58' E 113°38'106533914.2
2017-Jul-17 18:58N 39°56' E 119°42'10643829935.0
2017-Jul-17 18:58N 22°59' E 113°34'96332091.6
2017-Jul-17 18:57N 37°33' E 121°23'4598972.5
2017-Jul-17 18:53N 29°56' E 122°19'62916168.4
2017-Jul-17 18:51N 23°02' E 113°31'6631912.8
2017-Jul-17 18:30N 31°23' E 121°37'462332722.4
2017-Jul-17 18:30N 24°26' E 117°53'31507.9
2017-Jul-17 18:30N 24°26' E 117°50'25074985.5
2017-Jul-17 18:30N 22°59' E 113°34'41439.6
2017-Jul-17 18:30N 23°02' E 113°31'22863227.5
2017-Jul-17 18:30N 23°45' E 117°35'97748833.6
2017-Jul-17 18:28N 39°56' E 119°42'106579839.7
2017-Jul-17 18:28N 22°58' E 113°38'96322957.2
2017-Jul-17 18:25N 37°33' E 121°23'45918549.8
2017-Jul-17 18:24N 29°56' E 122°19'94242.9
2017-Jul-17 18:00N 31°23' E 121°37'506910879.4
2017-Jul-17 18:00N 23°45' E 117°35'223114568.7
2017-Jul-17 18:00N 22°58' E 113°38'24752393.3
2017-Jul-17 18:00N 24°26' E 117°50'25052931.8
2017-Jul-17 18:00N 22°59' E 113°34'963231061.1
2017-Jul-17 17:59N 37°33' E 121°23'962230836.7
2017-Jul-17 17:59N 23°02' E 113°31'25424110.1
2017-Jul-17 17:59N 24°26' E 117°53'406146260.1
2017-Jul-17 17:58N 29°56' E 122°19'6132207803.9
2017-Jul-17 17:58N 39°56' E 119°42'5211117.4
2017-Jul-17 17:30N 31°23' E 121°37'5061821778.6
2017-Jul-17 17:30N 23°45' E 117°35'4351641.3
2017-Jul-17 17:30N 24°26' E 117°50'247296897.9
2017-Jul-17 17:30N 22°58' E 113°38'85547.3
2017-Jul-17 17:30N 23°02' E 113°31'9623462550.4
2017-Jul-17 17:30N 37°33' E 121°23'963385101.8
2017-Jul-17 17:30N 22°59' E 113°34'25213558.4
2017-Jul-17 17:29N 24°26' E 117°53'935112145.3
2017-Jul-17 17:28N 39°56' E 119°42'6138557.3
2017-Jul-17 17:24N 29°56' E 122°19'94239.3
2017-Jul-17 17:01N 31°23' E 121°37'663238531.4
2017-Jul-17 17:00N 23°02' E 113°31'252302525.9
2017-Jul-17 17:00N 24°26' E 117°50'247222671.6
2017-Jul-17 17:00N 22°58' E 113°38'250449618.0
2017-Jul-17 17:00N 24°26' E 117°53'444524.9
2017-Jul-17 17:00N 23°45' E 117°35'22645137.4
2017-Jul-17 16:59N 22°59' E 113°34'106469635.6
2017-Jul-17 16:58N 39°56' E 119°42'16473712.4
2017-Jul-17 16:58N 37°33' E 121°23'45947170.1
2017-Jul-17 16:58N 29°56' E 122°19'449987.0
2017-Jul-17 16:30N 23°45' E 117°35'228821932.5
2017-Jul-17 16:30N 23°02' E 113°31'84620.9
2017-Jul-17 16:30N 22°58' E 113°38'250449614.3
2017-Jul-17 16:30N 24°26' E 117°53'4621663592.8
2017-Jul-17 16:30N 31°23' E 121°37'66245860.9
2017-Jul-17 16:29N 22°59' E 113°34'106466033.7
2017-Jul-17 16:28N 39°56' E 119°42'16458969.9
2017-Jul-17 16:28N 37°33' E 121°23'80821697.8
2017-Jul-17 16:26N 24°26' E 117°50'4084572.7
2017-Jul-17 16:21N 29°56' E 122°19'612918956.2
2017-Jul-17 16:01N 33°27' W 117°42'6835473176.7
2017-Jul-17 16:00N 22°59' E 113°34'252113551.9
2017-Jul-17 16:00N 24°26' E 117°53'4621663592.8
2017-Jul-17 16:00N 31°23' E 121°37'369443350.7
2017-Jul-17 16:00N 37°33' E 121°23'851612371.1
2017-Jul-17 16:00N 23°45' E 117°35'228410857.5
2017-Jul-17 16:00N 23°02' E 113°31'25220626.8
2017-Jul-17 15:59N 24°26' E 117°50'24738725.5
2017-Jul-17 15:59N 22°58' E 113°38'1065123622.8
2017-Jul-17 15:58N 39°56' E 119°42'6139315.6
2017-Jul-17 15:54N 29°56' E 122°19'94235.2
2017-Jul-17 15:30N 31°23' E 121°37'663397552.3
2017-Jul-17 15:30N 23°02' E 113°31'44794.4
2017-Jul-17 15:30N 22°59' E 113°34'43367.3
2017-Jul-17 15:30N 22°58' E 113°38'963315140.4
2017-Jul-17 15:30N 37°33' E 121°23'80833419.5
2017-Jul-17 15:29N 24°26' E 117°50'3139.2
2017-Jul-17 15:28N 24°26' E 117°53'97561557.2
2017-Jul-17 15:27N 40°18' E 122°02'6218163.5
2017-Jul-17 15:22N 29°56' E 122°19'6201721.3
2017-Jul-17 15:00N 40°16' E 122°05'533639653.2
2017-Jul-17 15:00N 31°23' E 121°37'36939119.2
2017-Jul-17 15:00N 37°33' E 121°23'962577095.0
2017-Jul-17 15:00N 23°02' E 113°31'6631357.6
2017-Jul-17 14:30N 31°23' E 121°37'611345006.6
2017-Jul-17 14:22N 33°27' W 117°42'655562101.6
2017-Jul-17 14:16N 24°26' E 117°53'312.5
2017-Jul-17 14:04N 24°26' E 117°50'342.5
2017-Jul-17 14:00N 24°26' E 117°53'462332718.6
2017-Jul-17 14:00N 31°23' E 121°37'0 0.0
2017-Jul-17 13:30N 31°23' E 121°37'462415893.4
2017-Jul-17 13:30N 24°26' E 117°53'313.1
2017-Jul-17 13:19N 24°26' E 117°50'4631507.7
2017-Jul-17 13:00N 31°23' E 121°37'4632159.9
2017-Jul-17 12:48N 24°26' E 117°50'331.5
2017-Jul-17 12:43N 24°26' E 117°53'4622209.3
2017-Jul-17 12:30N 31°23' E 121°37'46375795.3
2017-Jul-17 12:30N 24°26' E 117°50'313.2
2017-Jul-17 12:18N 24°26' E 117°53'655527730.4
2017-Jul-17 12:04N 33°27' W 117°42'0 0.0
2017-Jul-17 11:55N 33°27' W 117°42'655567424.5
2017-Jul-17 11:49N 24°26' E 117°53'315.7
2017-Jul-17 11:40N 24°26' E 117°50'46315720.2
2017-Jul-17 11:38N 31°23' E 121°38'1 4.8
2017-Jul-17 11:30N 31°22' E 121°39'6113234113.5
2017-Jul-17 11:28N 33°27' W 117°42'655543300.2
2017-Jul-17 11:19N 24°26' E 117°53'4611445.8
2017-Jul-17 11:00N 31°21' E 121°41'4623181.1
2017-Jul-17 10:51N 24°26' E 117°50'655835499.8
2017-Jul-17 10:40N 33°27' W 117°42'655553270.0
2017-Jul-17 10:33N 24°26' E 117°53'46010968.3
2017-Jul-17 10:30N 31°19' E 121°43'460184024.3
2017-Jul-17 10:30N 24°26' E 117°53'395.2
2017-Jul-17 10:29N 24°26' E 117°50'65581124158.0
2017-Jul-17 10:28N 33°27' W 117°42'611113204.5
2017-Jul-17 10:01N 31°16' E 121°45'45986946.6
2017-Jul-17 10:00N 24°26' E 117°53'358.7
2017-Jul-17 09:58N 24°26' E 117°50'4591010.2
2017-Jul-17 09:30N 31°14' E 121°48'458137296.1
2017-Jul-17 09:30N 24°26' E 117°53'324.2
2017-Jul-17 09:24N 24°26' E 117°50'4581164.3
2017-Jul-17 09:00N 31°11' E 121°51'458411879.3
2017-Jul-17 09:00N 24°26' E 117°50'3361.9
2017-Jul-17 09:00N 24°26' E 117°53'456932.2
2017-Jul-17 08:31N 31°09' E 121°54'6108164082.9
2017-Jul-17 08:28N 33°27' W 117°42'610613186.2
2017-Jul-17 08:01N 31°07' E 121°58'610644677.6
2017-Jul-17 07:52N 33°27' W 117°42'655521689.9
2017-Jul-17 07:34N 24°26' E 117°53'4556883.7
2017-Jul-17 07:30N 31°05' E 122°01'4551638309.6
2017-Jul-17 07:30N 24°26' E 117°53'3266.1
2017-Jul-17 07:30N 24°26' E 117°50'149.9
2017-Jul-17 07:28N 24°27' E 117°50'456978.9
2017-Jul-17 07:00N 31°03' E 122°04'45552832.6
2017-Jul-17 07:00N 24°26' E 117°53'346.6
2017-Jul-17 06:57N 24°26' E 117°50'1 2.9
2017-Jul-17 06:34N 24°27' E 117°50'343.8
2017-Jul-17 06:30N 24°26' E 117°53'45516209.5
2017-Jul-17 06:28N 31°01' E 122°07'4569480.3
2017-Jul-17 06:25N 24°27' E 117°50'114.1
2017-Jul-17 06:21N 24°26' E 117°50'3 7.4
2017-Jul-17 06:00N 24°26' E 117°53'3603.1
2017-Jul-17 06:00N 24°26' E 117°50'139.1
2017-Jul-17 05:58N 24°27' E 117°50'655865943.4
2017-Jul-17 05:52N 33°27' W 117°42'655517263.0
2017-Jul-17 05:30N 24°26' E 117°53'6555323268.2
2017-Jul-17 05:28N 33°27' W 117°42'6558233735.7
2017-Jul-17 05:27N 24°26' E 117°50'3 5.6
2017-Jul-17 05:00N 24°26' E 117°53'3646.2
2017-Jul-17 05:00N 24°26' E 117°50'6558295091.3
2017-Jul-17 04:58N 33°27' W 117°42'655513988.5
2017-Jul-17 04:30N 24°26' E 117°53'3122.3
2017-Jul-17 04:29N 24°26' E 117°50'3 5.2
2017-Jul-17 04:00N 24°26' E 117°53'343.6
2017-Jul-17 03:55N 24°27' E 117°50'110.0
2017-Jul-17 03:49N 24°26' E 117°50'3 8.0
2017-Jul-17 03:30N 24°26' E 117°53'3258.5
2017-Jul-17 03:30N 24°26' E 117°50'148.6
2017-Jul-17 03:28N 24°27' E 117°50'1 2.3
2017-Jul-17 03:00N 24°26' E 117°50'31809.4
2017-Jul-17 03:00N 24°26' E 117°53'318.0
2017-Jul-17 02:49N 24°27' E 117°50'655826289.2
2017-Jul-17 02:34N 33°27' W 117°42'655897149.4
2017-Jul-17 02:30N 24°26' E 117°50'3141.4
2017-Jul-17 02:29N 24°26' E 117°53'3210.2
2017-Jul-17 02:28N 24°27' E 117°50'655832925.7
2017-Jul-17 02:16N 33°27' W 117°42'655824015.6
2017-Jul-17 02:00N 24°26' E 117°50'3393.4
2017-Jul-17 02:00N 24°26' E 117°53'655592907.8
2017-Jul-17 01:55N 33°27' W 117°42'612815928.6
2017-Jul-17 01:32N 31°46' E 121°04'47110467.8
2017-Jul-17 01:30N 24°26' E 117°53'81749829.5
2017-Jul-17 01:29N 37°52' E 120°29'81781708.0
2017-Jul-17 01:28N 24°26' E 117°50'4721843.3
2017-Jul-17 01:13N 31°45' E 121°06'4722300.3
2017-Jul-17 01:00N 24°26' E 117°50'3135.0
2017-Jul-17 00:59N 24°26' E 117°53'81783998.9
2017-Jul-17 00:59N 37°52' E 120°29'3709371.3
2017-Jul-17 00:56N 31°43' E 121°07'612716811.6
2017-Jul-17 00:34N 33°27' W 117°42'612689287.4
2017-Jul-17 00:30N 31°42' E 121°10'46973393.8
2017-Jul-17 00:30N 24°26' E 117°53'81737692.5
2017-Jul-17 00:29N 37°52' E 120°29'81750715.9
2017-Jul-17 00:28N 24°26' E 117°50'655822787.0
2017-Jul-17 00:10N 33°27' W 117°42'612536443.7
2017-Jul-17 00:00N 31°40' E 121°13'46993835.6
2017-Jul-17 00:00N 24°26' E 117°50'31507.9
2017-Jul-17 00:00N 24°26' E 117°53'81711439.6
2017-Jul-16 23:56N 37°52' E 120°29'376894.1
2017-Jul-16 23:30N 31°37' E 121°16'46735780.2
2017-Jul-16 23:30N 24°26' E 117°53'81752497.9
2017-Jul-16 23:29N 37°52' E 120°28'81711313.1
2017-Jul-16 23:24N 24°26' E 117°50'2401737.5
2017-Jul-16 23:16N 22°18' E 114°08'6762604.6
2017-Jul-16 23:00N 31°35' E 121°19'466139652.4
2017-Jul-16 23:00N 24°26' E 117°53'3565.4
2017-Jul-16 23:00N 24°26' E 117°50'81735438.1
2017-Jul-16 22:59N 37°52' E 120°28'990101869.3
2017-Jul-16 22:58N 22°17' E 114°09'6761470.8
2017-Jul-16 22:30N 31°32' E 121°22'465209386.4
2017-Jul-16 22:30N 24°26' E 117°50'32261.8
2017-Jul-16 22:30N 24°26' E 117°53'81729998.6
2017-Jul-16 22:29N 37°52' E 120°28'8171734.3
2017-Jul-16 22:00N 24°26' E 117°50'465334502.1
2017-Jul-16 22:00N 31°30' E 121°26'46440703.3
2017-Jul-16 22:00N 24°26' E 117°53'81752499.0
2017-Jul-16 21:59N 37°52' E 120°28'8171744.8
2017-Jul-16 21:31N 24°26' E 117°53'3696.0
2017-Jul-16 21:30N 24°26' E 117°50'46369439.3
2017-Jul-16 21:30N 31°26' E 121°29'38817264.7
2017-Jul-16 21:29N 37°52' E 120°28'8171737.5
2017-Jul-16 21:00N 24°26' E 117°50'462332913.5
2017-Jul-16 21:00N 31°24' E 121°34'461553554.3
2017-Jul-16 21:00N 24°26' E 117°53'81730308.5
2017-Jul-16 20:59N 37°52' E 120°28'594557378.7
2017-Jul-16 20:52N 33°27' W 117°42'1 3.3
2017-Jul-16 20:30N 33°26' W 117°42'611322008570.5
2017-Jul-16 20:30N 31°22' E 121°38'462237667.0
2017-Jul-16 20:30N 24°26' E 117°50'3361.9
2017-Jul-16 20:30N 24°26' E 117°53'47094083.4
2017-Jul-16 20:30N 31°47' E 120°59'36621947.1
2017-Jul-16 20:29N 37°52' E 120°28'398846.4
2017-Jul-16 20:00N 31°19' E 121°43'461332090.3
2017-Jul-16 20:00N 24°26' E 117°50'3192.5
2017-Jul-16 20:00N 24°26' E 117°53'81752498.6
2017-Jul-16 19:59N 37°52' E 120°28'5945314722.7
2017-Jul-16 19:57N 33°25' W 117°44'611013569.0
2017-Jul-16 19:30N 31°15' E 121°47'45997266.4
2017-Jul-16 19:30N 24°26' E 117°50'3532.3
2017-Jul-16 19:30N 24°26' E 117°53'5904442766.7
2017-Jul-16 19:29N 48°40' W 123°24'5115657581.5
2017-Jul-16 19:29N 37°52' E 120°28'594576991.2
2017-Jul-16 19:24N 33°27' W 117°42'611015566.1
2017-Jul-16 19:00N 31°11' E 121°51'456126398.4
2017-Jul-16 19:00N 24°26' E 117°53'3274.2
2017-Jul-16 19:00N 24°26' E 117°50'5917687182.2
2017-Jul-16 18:59N 48°38' W 123°11'5126576657.7
2017-Jul-16 18:59N 37°52' E 120°29'8171744.8
2017-Jul-16 18:31N 24°26' E 117°53'456205024.1
2017-Jul-16 18:30N 31°08' E 121°55'45768521.4
2017-Jul-16 18:30N 24°26' E 117°50'81734606.0
2017-Jul-16 18:29N 37°52' E 120°28'513446209.9
2017-Jul-16 18:22N 48°35' W 123°01'5409183692.1
2017-Jul-16 18:20N 31°43' E 121°08'1 3.9
2017-Jul-16 18:01N 31°42' E 121°09'5612712.4
2017-Jul-16 18:00N 31°06' E 121°60'455819864.8
2017-Jul-16 18:00N 24°26' E 117°53'3266.1
2017-Jul-16 18:00N 24°26' E 117°50'81746690.7
2017-Jul-16 17:59N 37°52' E 120°28'1 1.4
2017-Jul-16 17:30N 37°52' E 120°28'817735145.8
2017-Jul-16 17:30N 24°26' E 117°53'4561642701.6
2017-Jul-16 17:30N 31°04' E 122°04'458274532.8
2017-Jul-16 17:30N 24°26' E 117°50'469211204.7
2017-Jul-16 17:30N 31°41' E 121°10'468948.3
2017-Jul-16 17:01N 24°26' E 117°53'468843105.1
2017-Jul-16 17:01N 31°41' E 121°10'3751351257.2
2017-Jul-16 17:00N 37°54' E 120°23'420116443.6
2017-Jul-16 17:00N 31°03' E 122°09'45828456.2
2017-Jul-16 16:59N 24°26' E 117°50'8201708.7
2017-Jul-16 16:31N 37°56' E 120°18'3781360276.4
2017-Jul-16 16:30N 31°41' E 121°10'468421552.5
2017-Jul-16 16:30N 24°26' E 117°53'31292.4
2017-Jul-16 16:30N 24°26' E 117°50'4567047.7
2017-Jul-16 16:26N 30°59' E 122°12'431997.4
2017-Jul-16 16:01N 37°59' E 120°14'821197133.6
2017-Jul-16 16:00N 24°26' E 117°53'468337242.0
2017-Jul-16 16:00N 31°41' E 121°10'4693746.3
2017-Jul-16 15:53N 24°26' E 117°50'3 6.8
2017-Jul-16 15:31N 24°26' E 117°53'468843105.1
2017-Jul-16 15:30N 31°41' E 121°10'383153299.5
2017-Jul-16 15:30N 38°01' E 120°09'823128885.4
2017-Jul-16 15:30N 24°26' E 117°50'469955.6
2017-Jul-16 15:00N 31°41' E 121°10'468140515.8
2017-Jul-16 15:00N 24°26' E 117°53'468944.7
2017-Jul-16 14:31N 31°41' E 121°10'46864854.2
2017-Jul-16 14:30N 24°26' E 117°53'468938.3
2017-Jul-16 14:00N 31°41' E 121°10'468129708.5
2017-Jul-16 14:00N 24°26' E 117°53'4531232.2
2017-Jul-16 13:38N 30°57' E 122°11'68551.0
2017-Jul-16 13:31N 31°41' E 121°10'4683697.8
2017-Jul-16 13:23N 24°26' E 117°53'4547364.6
2017-Jul-16 13:19N 30°59' E 122°10'66211.1
2017-Jul-16 13:01N 31°41' E 121°10'6313441.4
2017-Jul-16 13:00N 31°00' E 122°08'45416353.0
2017-Jul-16 12:59N 24°26' E 117°53'4701179.8
2017-Jul-16 12:35N 31°45' E 121°01'9136.0
2017-Jul-16 12:31N 31°41' E 121°10'604471.8
2017-Jul-16 12:30N 31°03' E 122°04'4557576.6
2017-Jul-16 12:26N 24°26' E 117°53'47012160.7
2017-Jul-16 12:24N 31°45' E 121°02'64164.6
2017-Jul-16 12:00N 31°05' E 122°00'563952.3
2017-Jul-16 12:00N 31°41' E 121°11'4699079.3
2017-Jul-16 11:56N 24°26' E 117°53'4699653.9
2017-Jul-16 11:53N 31°45' E 121°02'60156.1
2017-Jul-16 11:31N 31°07' E 121°56'5294061.4
2017-Jul-16 11:30N 31°42' E 121°10'4699595.2
2017-Jul-16 11:28N 24°26' E 117°53'4551004.7
2017-Jul-16 11:00N 31°09' E 121°53'4914579.1
2017-Jul-16 11:00N 31°42' E 121°10'46993822.6
2017-Jul-16 11:00N 24°26' E 117°53'3 5.2
2017-Jul-16 10:31N 24°26' E 117°50'3215.4
2017-Jul-16 10:30N 24°26' E 117°53'469241282.5
2017-Jul-16 10:30N 31°42' E 121°11'470153850.5
2017-Jul-16 10:30N 24°26' E 117°50'470957.2
2017-Jul-16 10:01N 31°42' E 121°10'46999345.1
2017-Jul-16 10:00N 24°26' E 117°53'3603.1
2017-Jul-16 10:00N 24°26' E 117°50'470925.2
2017-Jul-16 09:29N 31°42' E 121°10'470169220.4
2017-Jul-16 09:29N 24°26' E 117°50'3347.9
2017-Jul-16 09:29N 24°26' E 117°53'469991.7
2017-Jul-16 09:01N 31°42' E 121°10'46999342.8
2017-Jul-16 09:00N 24°26' E 117°53'3266.1
2017-Jul-16 09:00N 24°26' E 117°50'3 5.1
2017-Jul-16 08:30N 24°26' E 117°53'469562889.1
2017-Jul-16 08:30N 31°41' E 121°10'47015243.6
2017-Jul-16 08:28N 24°26' E 117°50'4701013.9
2017-Jul-16 08:00N 31°41' E 121°11'470153828.0
2017-Jul-16 08:00N 24°26' E 117°50'31809.3
2017-Jul-16 08:00N 24°26' E 117°53'469963.7
2017-Jul-16 07:31N 31°45' E 121°02'8988.6
2017-Jul-16 07:31N 31°41' E 121°11'470141010.7
2017-Jul-16 07:30N 24°26' E 117°50'31507.9
2017-Jul-16 07:30N 24°26' E 117°53'4692499.2
2017-Jul-16 07:19N 31°45' E 121°02'611527345.0
2017-Jul-16 07:06N 33°37' W 117°55'610972346.9
2017-Jul-16 07:00N 31°41' E 121°11'469562896.4
2017-Jul-16 07:00N 24°26' E 117°53'3323.2
2017-Jul-16 07:00N 24°26' E 117°50'6542113776.5
2017-Jul-16 06:57N 33°37' W 117°55'611579468.2
2017-Jul-16 06:52N 31°45' E 121°02'822.3
2017-Jul-16 06:31N 31°41' E 121°11'46949667.3
2017-Jul-16 06:30N 24°26' E 117°53'330.3
2017-Jul-16 06:25N 24°26' E 117°50'654237502.8
2017-Jul-16 06:14N 33°37' W 117°55'610926213.9
2017-Jul-16 06:01N 31°41' E 121°11'46993817.2
2017-Jul-16 06:00N 24°26' E 117°53'337.4
2017-Jul-16 05:56N 24°26' E 117°50'6542147198.4
2017-Jul-16 05:54N 33°37' W 117°55'610915948.8
2017-Jul-16 05:31N 31°41' E 121°11'46988880.5
2017-Jul-16 05:30N 24°26' E 117°53'355.9
2017-Jul-16 05:28N 24°26' E 117°50'6542399182.0
2017-Jul-16 05:27N 33°37' W 117°55'610914098.4
2017-Jul-16 05:01N 31°41' E 121°11'4701692169.0
2017-Jul-16 05:01N 24°26' E 117°50'3502.7
2017-Jul-16 05:00N 24°26' E 117°53'4699491.3
2017-Jul-16 04:57N 31°45' E 121°02'817.9
2017-Jul-16 04:30N 31°41' E 121°11'470153831.7
2017-Jul-16 04:30N 24°26' E 117°50'31809.5
2017-Jul-16 04:30N 24°26' E 117°53'3 5.0
2017-Jul-16 04:00N 24°26' E 117°50'31292.4
2017-Jul-16 04:00N 24°26' E 117°53'4691688800.4
2017-Jul-16 04:00N 31°41' E 121°11'610999969.4
2017-Jul-16 03:57N 33°37' W 117°55'610914098.2
2017-Jul-16 03:31N 31°41' E 121°11'46999341.2
2017-Jul-16 03:30N 24°26' E 117°53'3258.5
2017-Jul-16 03:30N 24°26' E 117°50'654218588.6
2017-Jul-16 03:09N 33°37' W 117°55'609478356.8
2017-Jul-16 03:04N 31°11' E 121°50'0 2.0
2017-Jul-16 03:01N 31°11' E 121°50'4516370.8
2017-Jul-16 03:00N 31°41' E 121°11'469187646.7
2017-Jul-16 03:00N 24°26' E 117°53'388.7
2017-Jul-16 02:59N 24°26' E 117°50'  
Track history (hours):
 
Tides and Currents Weather Stations Pressure Air Temp Water Temp Dewpoint Dewpoint Depression Visibility Wind Speed Wind Dir Waves Ship Positions

Graceful Lady

Last reported at 2017-Jul-26 02:31 UTC. Time now 2017-Jul-26 02:44 UTC.
Position N 29°55' E 122°04'.

Length 6 m.

Type: Pollution control. MMSI: 316014038.

Date/timePositionNaut miles runAvg speedWind from/ knotsBaromVisibWave heightAir tempDewpointWater temp
2017-Jul-26 02:31N 29°55' E 122°04'105379742.3
2017-Jul-26 02:31N 31°33' E 121°18'100180871.5
2017-Jul-26 02:30N 29°56' E 121°51'375450237.3
2017-Jul-26 02:30N 24°32' E 118°19'278100213.4
2017-Jul-26 02:30N 22°59' E 113°32'9641156355.5
2017-Jul-26 02:30N 37°33' E 121°23'459275151.1
2017-Jul-26 02:30N 29°56' E 122°19'408366873.5
2017-Jul-26 02:30N 24°26' E 117°50'39031193.7
2017-Jul-26 02:29N 29°46' E 122°00'61013467.0
2017-Jul-26 02:27N 22°56' E 113°37'9431131045.1
2017-Jul-26 02:27N 38°10' E 118°05'1293825.2
2017-Jul-26 02:25N 39°56' E 119°39'276.0
2017-Jul-26 02:23N 39°56' E 119°42'50111781.1
2017-Jul-26 02:20N 31°41' E 121°11'40613783.9
2017-Jul-26 02:19N 38°11' E 118°57'110363.0
2017-Jul-26 02:01N 39°56' E 119°39'934420428.4
2017-Jul-26 02:00N 24°26' E 117°50'464334314.9
2017-Jul-26 02:00N 31°33' E 121°18'6592370826.3
2017-Jul-26 02:00N 23°01' E 113°32'962866047.1
2017-Jul-26 02:00N 37°33' E 121°23'796106158.0
2017-Jul-26 02:00N 24°32' E 118°19'455818422.4
2017-Jul-26 02:00N 31°41' E 121°09'111199901.5
2017-Jul-26 02:00N 29°56' E 121°51'246123.3
2017-Jul-26 01:59N 29°56' E 122°19'173919.0
2017-Jul-26 01:59N 29°56' E 121°59'9225.2
2017-Jul-26 01:57N 29°48' E 122°03'6199775.4
2017-Jul-26 01:53N 39°56' E 119°42'1101998.8
2017-Jul-26 01:50N 38°10' E 119°01'51352729.8
2017-Jul-26 01:49N 30°01' E 122°05'101325.4
2017-Jul-26 01:30N 31°33' E 121°18'4491616823.7
2017-Jul-26 01:30N 24°32' E 118°19'2747839.6
2017-Jul-26 01:30N 24°26' E 117°50'807181687.0
2017-Jul-26 01:30N 37°33' E 121°23'962577091.7
2017-Jul-26 01:30N 23°02' E 113°31'61573844.1
2017-Jul-26 01:30N 29°56' E 121°59'83001.8
2017-Jul-26 01:29N 29°51' E 122°06'10423.9
2017-Jul-26 01:28N 30°01' E 122°05'13677.2
2017-Jul-26 01:27N 29°56' E 121°51'61116525.9
2017-Jul-26 01:25N 22°56' E 113°36'106638379.8
2017-Jul-26 01:23N 39°56' E 119°42'6136290.1
2017-Jul-26 01:17N 29°56' E 122°19'6148032.4
2017-Jul-26 01:13N 39°56' E 119°39'1131387.2
2017-Jul-26 01:08N 38°07' E 119°02'9498037.2
2017-Jul-26 01:01N 23°02' E 113°31'279200662.2
2017-Jul-26 01:00N 24°32' E 118°19'2731891.4
2017-Jul-26 01:00N 24°26' E 117°50'394708920.3
2017-Jul-26 01:00N 29°56' E 121°51'45786545.6
2017-Jul-26 01:00N 37°33' E 121°23'360259193.9
2017-Jul-26 01:00N 31°33' E 121°18'10215314.5
2017-Jul-26 01:00N 29°57' E 121°59'92080.2
2017-Jul-26 00:59N 29°53' E 122°08'517103346.0
2017-Jul-26 00:59N 38°06' E 119°01'50979646.4
2017-Jul-26 00:59N 30°01' E 122°05'62297417.3
2017-Jul-26 00:58N 22°56' E 113°36'6297857.7
2017-Jul-26 00:53N 29°56' E 122°19'61381772.7
2017-Jul-26 00:53N 39°56' E 119°42'9352481.4
2017-Jul-26 00:30N 24°26' E 117°50'464557191.6
2017-Jul-26 00:30N 31°33' E 121°18'658263366.8
2017-Jul-26 00:30N 23°02' E 113°31'279250829.6
2017-Jul-26 00:30N 24°32' E 118°19'385277254.7
2017-Jul-26 00:30N 30°01' E 122°05'622320097.9
2017-Jul-26 00:30N 22°56' E 113°37'616138683.0
2017-Jul-26 00:30N 29°55' E 122°02'459206542.3
2017-Jul-26 00:30N 37°33' E 121°23'457822328.4
2017-Jul-26 00:29N 29°56' E 121°51'2442862.9
2017-Jul-26 00:29N 29°56' E 122°19'61376132.5
2017-Jul-26 00:29N 39°56' E 119°42'61313217.9
2017-Jul-26 00:26N 29°54' E 122°05'6134460.9
2017-Jul-26 00:18N 39°56' E 119°39'10755417.9
2017-Jul-26 00:06N 22°46' E 113°39'6346832.2
2017-Jul-26 00:00N 29°56' E 122°19'388698505.2
2017-Jul-26 00:00N 24°32' E 118°19'378339982.2
2017-Jul-26 00:00N 29°54' E 122°02'10627319.7
2017-Jul-26 00:00N 31°33' E 121°18'464417893.7
2017-Jul-26 00:00N 24°26' E 117°50'934420409.6
2017-Jul-26 00:00N 39°56' E 119°39'165197535.5
2017-Jul-26 00:00N 37°33' E 121°23'457328935.7
2017-Jul-26 00:00N 29°56' E 121°51'616369815.5
2017-Jul-26 00:00N 22°46' E 113°39'628133016.9
2017-Jul-25 23:59N 30°01' E 122°05'62245726.5
2017-Jul-25 23:59N 22°56' E 113°36'7118.7
2017-Jul-25 23:55N 23°02' E 113°31'106234458.4
2017-Jul-25 23:53N 39°56' E 119°42'5091360.2
2017-Jul-25 23:31N 31°33' E 121°18'449404205.9
2017-Jul-25 23:30N 24°32' E 118°19'27941802.4
2017-Jul-25 23:30N 22°49' E 113°36'1073551693.2
2017-Jul-25 23:30N 39°56' E 119°39'165296303.2
2017-Jul-25 23:30N 37°33' E 121°23'460150500.3
2017-Jul-25 23:30N 29°54' E 122°02'616158481.2
2017-Jul-25 23:29N 23°02' E 113°31'1062127496.0
2017-Jul-25 23:29N 39°56' E 119°42'609104388.7
2017-Jul-25 23:29N 29°56' E 121°51'6111098975.2
2017-Jul-25 23:29N 22°56' E 113°36'62214740.8
2017-Jul-25 23:26N 30°01' E 122°05'40418183.8
2017-Jul-25 23:25N 24°26' E 117°50'2765.7
2017-Jul-25 23:00N 24°32' E 118°19'449808411.8
2017-Jul-25 23:00N 31°33' E 121°18'106127245.8
2017-Jul-25 23:00N 29°54' E 122°02'154070.1
2017-Jul-25 23:00N 29°56' E 122°19'614169907.9
2017-Jul-25 23:00N 39°56' E 119°39'16574075.8
2017-Jul-25 23:00N 37°33' E 121°23'969134135.3
2017-Jul-25 22:59N 22°53' E 113°34'9978.6
2017-Jul-25 22:59N 23°02' E 113°31'62289636.7
2017-Jul-25 22:58N 30°01' E 122°05'4049091.9
2017-Jul-25 22:56N 24°26' E 117°50'249128144.2
2017-Jul-25 22:56N 22°56' E 113°36'61316966.4
2017-Jul-25 22:53N 29°58' E 121°53'6085622.1
2017-Jul-25 22:47N 39°56' E 119°42'6092223.3
2017-Jul-25 22:31N 29°56' E 121°51'457548226.1
2017-Jul-25 22:30N 37°33' E 121°23'7961433132.9
2017-Jul-25 22:30N 24°32' E 118°19'378453290.8
2017-Jul-25 22:30N 29°54' E 122°02'152944.4
2017-Jul-25 22:30N 29°56' E 122°19'4081467390.2
2017-Jul-25 22:30N 24°26' E 117°50'934480468.1
2017-Jul-25 22:30N 39°56' E 119°39'106546768.0
2017-Jul-25 22:29N 22°56' E 113°36'7364.0
2017-Jul-25 22:27N 23°02' E 113°31'62254656.5
2017-Jul-25 22:27N 30°01' E 122°05'101684.6
2017-Jul-25 22:18N 31°33' E 121°18'5094461.1
2017-Jul-25 22:11N 39°56' E 119°42'5092887.4
2017-Jul-25 22:00N 31°33' E 121°18'3601295990.9
2017-Jul-25 22:00N 37°33' E 121°23'4601657666.1
2017-Jul-25 22:00N 29°53' E 122°03'37885041.9
2017-Jul-25 22:00N 24°32' E 118°19'926303031.5
2017-Jul-25 22:00N 39°56' E 119°39'1062477729.1
2017-Jul-25 22:00N 23°02' E 113°31'629323394.1
2017-Jul-25 22:00N 29°56' E 122°19'62857972.0
2017-Jul-25 21:59N 22°59' E 113°34'1064765930.4
2017-Jul-25 21:59N 39°56' E 119°42'106635542.2
2017-Jul-25 21:57N 22°56' E 113°36'623224112.1
2017-Jul-25 21:57N 30°01' E 122°05'40496980.4
2017-Jul-25 21:57N 24°26' E 117°50'87126803.9
2017-Jul-25 21:55N 38°57' E 118°25'515038869.9
2017-Jul-25 21:47N 49°18' W 122°54'545230288.7
2017-Jul-25 21:36N 29°56' E 121°51'3754043.9
2017-Jul-25 21:30N 24°32' E 118°19'276199040.5
2017-Jul-25 21:30N 22°59' E 113°34'963866414.4
2017-Jul-25 21:30N 37°33' E 121°23'460828879.4
2017-Jul-25 21:30N 29°53' E 122°04'136801.8
2017-Jul-25 21:30N 29°56' E 122°19'408244575.2
2017-Jul-25 21:30N 24°26' E 117°50'934560546.1
2017-Jul-25 21:30N 39°56' E 119°39'84303049.0
2017-Jul-25 21:30N 38°53' E 118°26'865318.1
2017-Jul-25 21:29N 39°56' E 119°42'10623824879.0
2017-Jul-25 21:29N 23°02' E 113°31'62212660.5
2017-Jul-25 21:26N 30°01' E 122°05'1015759.0
2017-Jul-25 21:25N 31°33' E 121°18'100930.0
2017-Jul-25 21:18N 29°56' E 121°51'544863267.5
2017-Jul-25 21:13N 49°18' W 122°58'588527443.4
2017-Jul-25 21:00N 24°32' E 118°19'2731893.1
2017-Jul-25 21:00N 24°26' E 117°50'249897379.9
2017-Jul-25 21:00N 22°56' E 113°36'827169.0
2017-Jul-25 21:00N 23°02' E 113°31'617317322.2
2017-Jul-25 21:00N 29°53' E 122°04'4601657758.8
2017-Jul-25 21:00N 37°33' E 121°23'459206405.9
2017-Jul-25 21:00N 29°56' E 122°19'628753657.1
2017-Jul-25 21:00N 22°59' E 113°34'1063637778.5
2017-Jul-25 21:00N 39°56' E 119°39'2119.3
2017-Jul-25 20:59N 39°56' E 119°42'607109257.7
2017-Jul-25 20:59N 30°01' E 122°05'543499809.1
2017-Jul-25 20:55N 49°18' W 122°58'5448612902.9
2017-Jul-25 20:55N 29°56' E 121°51'1001010.6
2017-Jul-25 20:49N 31°33' E 121°18'101328.9
2017-Jul-25 20:30N 30°01' E 122°05'3851386273.6
2017-Jul-25 20:30N 24°32' E 118°19'2731893.1
2017-Jul-25 20:30N 24°26' E 117°50'808290701.3
2017-Jul-25 20:30N 37°33' E 121°23'16532921.5
2017-Jul-25 20:30N 39°56' E 119°39'1063318889.3
2017-Jul-25 20:30N 22°59' E 113°34'4654.2
2017-Jul-25 20:29N 23°02' E 113°31'617317320.2
2017-Jul-25 20:29N 29°53' E 122°04'614147305.5
2017-Jul-25 20:29N 39°56' E 119°42'609219185.8
2017-Jul-25 20:29N 29°56' E 121°51'10019022.0
2017-Jul-25 20:29N 31°33' E 121°18'66032087.5
2017-Jul-25 20:27N 22°56' E 113°36'618746696.9
2017-Jul-25 20:19N 49°18' W 122°58'588518715.8
2017-Jul-25 20:00N 24°32' E 118°19'279200662.2
2017-Jul-25 20:00N 23°02' E 113°31'962247329.2
2017-Jul-25 20:00N 37°33' E 121°23'808581402.7
2017-Jul-25 20:00N 24°26' E 117°50'464278595.8
2017-Jul-25 20:00N 31°33' E 121°18'509916988.8
2017-Jul-25 20:00N 39°56' E 119°39'1063294359.3
2017-Jul-25 20:00N 22°59' E 113°34'622746112.6
2017-Jul-25 20:00N 30°01' E 122°05'71080.2
2017-Jul-25 19:59N 29°53' E 122°04'617170863.4
2017-Jul-25 19:59N 22°56' E 113°36'1066767707.0
2017-Jul-25 19:59N 39°56' E 119°42'61319200.8
2017-Jul-25 19:57N 29°56' E 122°19'246637.6
2017-Jul-25 19:57N 29°56' E 121°51'5448222877.6
2017-Jul-25 19:55N 49°18' W 122°58'542713078.1
2017-Jul-25 19:30N 29°56' E 122°19'408366808.7
2017-Jul-25 19:30N 24°26' E 117°50'250449964.0
2017-Jul-25 19:30N 22°59' E 113°34'6162218568.9
2017-Jul-25 19:30N 29°53' E 122°04'46097515.2
2017-Jul-25 19:30N 37°33' E 121°23'360215998.5
2017-Jul-25 19:30N 31°33' E 121°18'509916988.8
2017-Jul-25 19:30N 39°56' E 119°39'2121.4
2017-Jul-25 19:29N 39°56' E 119°42'1062201305.0
2017-Jul-25 19:29N 23°02' E 113°31'61029698.6
2017-Jul-25 19:27N 29°56' E 121°51'5448158171.1
2017-Jul-25 19:25N 49°18' W 122°58'543482195.7
2017-Jul-25 19:21N 30°01' E 122°05'62333956.1
2017-Jul-25 19:20N 22°56' E 113°36'66128348.7
2017-Jul-25 19:19N 31°44' E 121°06'1 3.3
2017-Jul-25 19:04N 31°44' E 121°06'4577980.9
2017-Jul-25 19:00N 24°32' E 118°19'2731893.1
2017-Jul-25 19:00N 24°26' E 117°50'250449964.0
2017-Jul-25 19:00N 22°59' E 113°34'661396473.8
2017-Jul-25 19:00N 31°44' E 121°07'49789462.5
2017-Jul-25 19:00N 39°56' E 119°39'509458494.4
2017-Jul-25 19:00N 31°33' E 121°18'6601187161.0
2017-Jul-25 19:00N 22°56' E 113°36'8846.6
2017-Jul-25 18:59N 23°02' E 113°31'962865637.4
2017-Jul-25 18:59N 37°33' E 121°23'16442120.0
2017-Jul-25 18:59N 39°56' E 119°42'6098732.1
2017-Jul-25 18:55N 29°57' E 121°51'11228817.6
2017-Jul-25 18:55N 31°42' E 121°09'1249470.6
2017-Jul-25 18:54N 29°55' E 122°20'14241.7
2017-Jul-25 18:50N 30°01' E 122°05'543446247.2
2017-Jul-25 18:43N 49°18' W 122°58'539225276.3
2017-Jul-25 18:31N 31°33' E 121°18'100120512.0
2017-Jul-25 18:30N 29°56' E 121°51'375675448.4
2017-Jul-25 18:30N 24°32' E 118°19'378123862.5
2017-Jul-25 18:30N 29°53' E 122°04'6172221103.3
2017-Jul-25 18:30N 22°56' E 113°36'629377116.9
2017-Jul-25 18:30N 29°55' E 122°20'407293061.9
2017-Jul-25 18:30N 24°26' E 117°50'934420409.6
2017-Jul-25 18:30N 39°56' E 119°39'165296303.2
2017-Jul-25 18:30N 37°33' E 121°23'50896106242.4
2017-Jul-25 18:30N 49°18' W 122°58'61872783947.1
2017-Jul-25 18:30N 22°59' E 113°34'4578.2
2017-Jul-25 18:29N 23°02' E 113°31'1062191238.7
2017-Jul-25 18:29N 39°56' E 119°42'60710925.8
2017-Jul-25 18:26N 30°01' E 122°05'1072236.7
2017-Jul-25 18:23N 31°39' E 121°14'4821917.8
2017-Jul-25 18:08N 24°07' E 118°04'4827991.9
2017-Jul-25 18:04N 31°39' E 121°14'1181970.4
2017-Jul-25 18:00N 29°55' E 122°20'11136462.8
2017-Jul-25 18:00N 31°33' E 121°18'360215994.9
2017-Jul-25 18:00N 37°33' E 121°23'963385070.9
2017-Jul-25 18:00N 22°59' E 113°34'257308789.7
2017-Jul-25 18:00N 24°08' E 118°05'9511711927.1
2017-Jul-25 18:00N 39°56' E 119°39'5071826690.4
2017-Jul-25 18:00N 31°35' E 121°18'466139909.3
2017-Jul-25 18:00N 24°26' E 117°50'39494515.8
2017-Jul-25 17:59N 29°56' E 121°51'10716691.9
2017-Jul-25 17:59N 31°38' E 121°15'503258824.9
2017-Jul-25 17:59N 39°56' E 119°42'10623824754.2
2017-Jul-25 17:59N 23°02' E 113°31'81231.4
2017-Jul-25 17:59N 22°56' E 113°36'62245733.4
2017-Jul-25 17:58N 30°01' E 122°05'543438737.7
2017-Jul-25 17:49N 49°18' W 122°58'618719676.6
2017-Jul-25 17:30N 22°56' E 113°36'276496101.1
2017-Jul-25 17:30N 24°32' E 118°19'449538941.2
2017-Jul-25 17:30N 31°33' E 121°18'4641671574.7
2017-Jul-25 17:30N 24°26' E 117°50'252113487.5
2017-Jul-25 17:30N 23°02' E 113°31'264474477.1
2017-Jul-25 17:30N 24°11' E 118°08'473283830.9
2017-Jul-25 17:30N 31°31' E 121°24'36268534.6
2017-Jul-25 17:30N 37°33' E 121°23'963577606.4
2017-Jul-25 17:30N 22°59' E 113°34'628753438.2
2017-Jul-25 17:30N 29°55' E 122°20'61552709.6
2017-Jul-25 17:29N 39°56' E 119°42'614110478.1
2017-Jul-25 17:29N 29°53' E 122°04'7336.4
2017-Jul-25 17:27N 30°01' E 122°05'13241.3
2017-Jul-25 17:24N 29°56' E 121°51'609219246.7
2017-Jul-25 17:24N 39°56' E 119°39'50714140.8
2017-Jul-25 17:22N 31°35' E 121°18'539093734.0
2017-Jul-25 17:18N 49°18' W 122°59'508817055.7
2017-Jul-25 17:00N 37°33' E 121°23'7962866265.8
2017-Jul-25 17:00N 24°32' E 118°19'58855296528.1
2017-Jul-25 17:00N 49°18' W 122°59'618622270588.5
2017-Jul-25 17:00N 22°59' E 113°34'628161451.0
2017-Jul-25 17:00N 29°55' E 122°20'102366546.8
2017-Jul-25 17:00N 31°27' E 121°29'517155047.8
2017-Jul-25 17:00N 39°56' E 119°39'50976331.3
2017-Jul-25 17:00N 31°34' E 121°20'10725685.3
2017-Jul-25 16:59N 29°53' E 122°04'614122753.4
2017-Jul-25 16:59N 39°56' E 119°42'946309501.7
2017-Jul-25 16:59N 24°13' E 118°12'46976773.5
2017-Jul-25 16:58N 31°33' E 121°18'10022589.4
2017-Jul-25 16:58N 29°56' E 121°51'611156989.5
2017-Jul-25 16:58N 23°02' E 113°31'622131813.3
2017-Jul-25 16:58N 30°01' E 122°05'622560172.4
2017-Jul-25 16:58N 22°56' E 113°36'6412789.9
2017-Jul-25 16:44N 31°60' E 119°60'4562052.2
2017-Jul-25 16:30N 24°32' E 118°19'3871394605.0
2017-Jul-25 16:30N 29°55' E 122°20'407488436.4
2017-Jul-25 16:30N 24°26' E 117°50'4621663753.3
2017-Jul-25 16:30N 31°24' E 121°35'52172098.7
2017-Jul-25 16:30N 39°56' E 119°39'16532922.6
2017-Jul-25 16:30N 37°33' E 121°23'9651157567.4
2017-Jul-25 16:30N 22°56' E 113°36'641144204.7
2017-Jul-25 16:29N 31°59' E 120°00'165197490.0
2017-Jul-25 16:29N 29°53' E 122°04'614116292.7
2017-Jul-25 16:29N 39°56' E 119°42'1062546393.5
2017-Jul-25 16:29N 23°02' E 113°31'2715801.9
2017-Jul-25 16:26N 24°16' E 118°15'40180206.9
2017-Jul-25 16:26N 30°01' E 122°05'1018849.3
2017-Jul-25 16:25N 31°33' E 121°18'10024095.3
2017-Jul-25 16:25N 29°56' E 121°51'544816426.0
2017-Jul-25 16:05N 49°18' W 122°59'618784688.0
2017-Jul-25 16:01N 23°02' E 113°31'279250818.5
2017-Jul-25 16:00N 24°32' E 118°19'2723919.8
2017-Jul-25 16:00N 24°26' E 117°50'807581398.5
2017-Jul-25 16:00N 37°33' E 121°23'9651157554.1
2017-Jul-25 16:00N 22°56' E 113°36'61871113673.9
2017-Jul-25 16:00N 49°18' W 122°59'53852769566.4
2017-Jul-25 16:00N 31°20' E 121°41'8964246.1
2017-Jul-25 16:00N 29°53' E 122°04'10719242.3
2017-Jul-25 15:59N 31°33' E 121°18'10010326.0
2017-Jul-25 15:59N 29°56' E 121°51'610365915.4
2017-Jul-25 15:59N 22°59' E 113°34'62830137.5
2017-Jul-25 15:57N 29°55' E 122°20'17168438.6
2017-Jul-25 15:57N 31°58' E 120°02'1585878.5
2017-Jul-25 15:56N 30°01' E 122°05'3971924.0
2017-Jul-25 15:43N 24°18' E 118°20'4618092.5
2017-Jul-25 15:40N 31°28' E 121°28'4482845.5
2017-Jul-25 15:30N 24°32' E 118°19'2723919.8
2017-Jul-25 15:30N 24°26' E 117°50'250449964.0
2017-Jul-25 15:30N 22°59' E 113°34'42610.2
2017-Jul-25 15:30N 22°56' E 113°36'9651157560.8
2017-Jul-25 15:30N 37°33' E 121°23'460331328.7
2017-Jul-25 15:30N 29°55' E 122°20'147021.7
2017-Jul-25 15:30N 29°53' E 122°04'162116620.6
2017-Jul-25 15:30N 31°58' E 120°03'78140901.2
2017-Jul-25 15:30N 31°28' E 121°28'109142.3
2017-Jul-25 15:30N 31°33' E 121°18'100180714.9
2017-Jul-25 15:30N 29°56' E 121°51'61138558.8
2017-Jul-25 15:29N 23°02' E 113°31'622149388.4
2017-Jul-25 15:29N 30°01' E 122°05'811292.4
2017-Jul-25 15:25N 31°19' E 121°41'91224.0
2017-Jul-25 15:01N 29°54' E 122°18'4611658318.0
2017-Jul-25 15:00N 37°33' E 121°23'3671320402.0
2017-Jul-25 15:00N 31°26' E 121°30'447804076.5
2017-Jul-25 15:00N 24°32' E 118°19'4491616823.7
2017-Jul-25 15:00N 31°33' E 121°18'658789944.5
2017-Jul-25 15:00N 22°59' E 113°34'616369761.5
2017-Jul-25 15:00N 29°53' E 122°04'6172220808.5
2017-Jul-25 15:00N 22°56' E 113°36'642135929.4
2017-Jul-25 15:00N 31°58' E 120°05'156280859.6
2017-Jul-25 15:00N 30°01' E 122°05'40427975.1
2017-Jul-25 14:59N 24°26' E 117°50'25233625.9
2017-Jul-25 14:59N 23°02' E 113°31'6625698.2
2017-Jul-25 14:52N 31°19' E 121°41'831106.1
2017-Jul-25 14:47N 29°56' E 121°51'100129.3
2017-Jul-25 14:01N 31°33' E 121°18'111100240.7
2017-Jul-25 14:00N 29°52' E 122°14'3821376480.3
2017-Jul-25 14:00N 24°32' E 118°19'385346568.4
2017-Jul-25 14:00N 30°01' E 122°05'73700.5
2017-Jul-25 14:00N 29°53' E 122°04'460127518.2
2017-Jul-25 14:00N 37°33' E 121°23'457822209.7
2017-Jul-25 14:00N 29°56' E 121°51'6111099099.0
2017-Jul-25 14:00N 23°02' E 113°31'658118402.9
2017-Jul-25 14:00N 31°23' E 121°30'65937640.3
2017-Jul-25 13:59N 22°56' E 113°36'66233122.1
2017-Jul-25 13:57N 31°19' E 121°41'87922.1
2017-Jul-25 13:52N 31°57' E 120°09'164462.1
2017-Jul-25 13:31N 29°51' E 122°11'620223339.7
2017-Jul-25 13:30N 23°02' E 113°31'85403.1
2017-Jul-25 13:30N 22°56' E 113°36'6172220808.5
2017-Jul-25 13:30N 29°53' E 122°04'378170313.2
2017-Jul-25 13:30N 24°32' E 118°19'4491616823.7
2017-Jul-25 13:30N 31°33' E 121°18'10136281.9
2017-Jul-25 13:30N 30°01' E 122°05'62242232.8
2017-Jul-25 13:29N 22°59' E 113°34'963385070.9
2017-Jul-25 13:29N 37°33' E 121°23'37414013.1
2017-Jul-25 13:27N 31°19' E 121°41'461118473.8
2017-Jul-25 13:27N 24°26' E 117°50'4672838.1
2017-Jul-25 13:17N 31°57' E 120°12'1471068.1
2017-Jul-25 13:09N 29°56' E 121°51'100718.8
2017-Jul-25 13:01N 31°33' E 121°18'111133726.7
2017-Jul-25 13:00N 29°51' E 122°11'399478865.5
2017-Jul-25 13:00N 24°26' E 117°50'404181838.3
2017-Jul-25 13:00N 30°01' E 122°05'81146674.5
2017-Jul-25 13:00N 31°19' E 121°41'8817621.7
2017-Jul-25 13:00N 29°53' E 122°04'460552579.1
2017-Jul-25 13:00N 37°33' E 121°23'796409469.6
2017-Jul-25 13:00N 24°32' E 118°19'279200660.9
2017-Jul-25 13:00N 23°02' E 113°31'4800.2
2017-Jul-25 12:59N 22°59' E 113°34'64320861.1
2017-Jul-25 12:58N 31°57' E 120°13'1474295.3
2017-Jul-25 12:55N 29°56' E 121°51'6119393.2
2017-Jul-25 12:52N 22°56' E 113°36'6201759.5
2017-Jul-25 12:30N 29°51' E 122°11'111401219.8
2017-Jul-25 12:30N 31°33' E 121°18'464835787.4
2017-Jul-25 12:30N 24°26' E 117°50'3981431453.1
2017-Jul-25 12:30N 29°53' E 122°04'617555313.8
2017-Jul-25 12:30N 23°02' E 113°31'4846.6
2017-Jul-25 12:30N 22°59' E 113°34'9633465638.2
2017-Jul-25 12:30N 37°33' E 121°23'374448417.6
2017-Jul-25 12:30N 31°19' E 121°41'662103681.2
2017-Jul-25 12:30N 22°56' E 113°36'64683004.9
2017-Jul-25 12:29N 31°57' E 120°15'14643790.0
2017-Jul-25 12:29N 29°56' E 121°51'13461.7
2017-Jul-25 12:27N 30°01' E 122°05'1123.9
2017-Jul-25 12:00N 29°51' E 122°11'111200621.4
2017-Jul-25 12:00N 31°33' E 121°18'659263781.0
2017-Jul-25 12:00N 22°56' E 113°36'6172220808.5
2017-Jul-25 12:00N 29°53' E 122°04'116863.2
2017-Jul-25 12:00N 29°56' E 121°51'3751350781.6
2017-Jul-25 12:00N 24°32' E 118°19'444133324.2
2017-Jul-25 12:00N 31°19' E 121°41'374192179.0
2017-Jul-25 12:00N 37°33' E 121°23'807726748.1
2017-Jul-25 12:00N 24°26' E 117°50'404181838.3
2017-Jul-25 12:00N 30°01' E 122°05'622159881.3
2017-Jul-25 11:59N 22°59' E 113°34'4236.1
2017-Jul-25 11:58N 23°02' E 113°31'645178711.5
2017-Jul-25 11:58N 31°57' E 120°17'2201822.8
2017-Jul-25 11:51N 35°36' E 119°48'2602809.7
2017-Jul-25 11:45N 39°56' E 119°42'212.7
2017-Jul-25 11:36N 39°56' E 119°39'1651795.8
2017-Jul-25 11:30N 37°33' E 121°23'360323992.3
2017-Jul-25 11:30N 31°33' E 121°18'6582370284.1
2017-Jul-25 11:30N 23°02' E 113°31'6202231295.8
2017-Jul-25 11:30N 29°51' E 122°11'16071953.0
2017-Jul-25 11:30N 31°58' E 120°18'458235749.8
2017-Jul-25 11:30N 24°32' E 118°19'276199040.5
2017-Jul-25 11:30N 22°59' E 113°34'42175.1
2017-Jul-25 11:30N 22°56' E 113°36'662119233.4
2017-Jul-25 11:30N 31°19' E 121°41'52614124.4
2017-Jul-25 11:27N 39°56' E 119°42'60791048.1
2017-Jul-25 11:27N 30°01' E 122°05'60711752.3
2017-Jul-25 11:24N 39°56' E 119°39'6096040.0
2017-Jul-25 11:18N 29°56' E 121°51'3559134.4
2017-Jul-25 11:15N 35°36' E 119°48'2381238.0
2017-Jul-25 11:04N 31°47' E 121°01'1282209.2
2017-Jul-25 11:00N 29°52' E 122°09'400287706.7
2017-Jul-25 11:00N 24°26' E 117°50'8082907013.4
2017-Jul-25 11:00N 37°33' E 121°23'9633465657.5
2017-Jul-25 11:00N 22°59' E 113°34'616316940.4
2017-Jul-25 11:00N 29°53' E 122°04'378170315.5
2017-Jul-25 11:00N 24°32' E 118°19'449179647.1
2017-Jul-25 11:00N 31°33' E 121°18'5616706.9
2017-Jul-25 11:00N 31°60' E 120°21'649779280.5
2017-Jul-25 11:00N 23°02' E 113°31'662140111.0
2017-Jul-25 10:59N 31°19' E 121°41'837891.4
2017-Jul-25 10:59N 29°56' E 121°51'60941371.5
2017-Jul-25 10:58N 39°56' E 119°39'2210.4
2017-Jul-25 10:57N 39°56' E 119°42'607437030.8
2017-Jul-25 10:57N 30°01' E 122°05'11913397.9
2017-Jul-25 10:57N 31°46' E 121°02'4571043.4
2017-Jul-25 10:30N 24°32' E 118°19'378123864.2
2017-Jul-25 10:30N 29°53' E 122°04'616184880.7
2017-Jul-25 10:30N 22°59' E 113°34'963115521.3
2017-Jul-25 10:30N 37°33' E 121°23'360143996.6
2017-Jul-25 10:29N 31°33' E 121°18'1720553.1
2017-Jul-25 10:29N 31°46' E 121°05'662397318.9
2017-Jul-25 10:29N 22°56' E 113°36'62222184.9
2017-Jul-25 10:28N 30°01' E 122°05'607182096.2
2017-Jul-25 10:27N 39°56' E 119°42'106264828.5
2017-Jul-25 10:26N 23°02' E 113°31'25247786.2
2017-Jul-25 10:26N 24°26' E 117°50'47514613.9
2017-Jul-25 10:24N 32°02' E 120°23'47612972.0
2017-Jul-25 10:22N 39°56' E 119°39'85440.3
2017-Jul-25 10:10N 38°53' E 118°25'5723452.4
2017-Jul-25 10:00N 29°54' E 122°15'102672.4
2017-Jul-25 10:00N 29°53' E 122°04'4601657737.2
2017-Jul-25 10:00N 37°33' E 121°23'796409466.5
2017-Jul-25 10:00N 24°32' E 118°19'276199040.5
2017-Jul-25 10:00N 22°59' E 113°34'661339846.2
2017-Jul-25 10:00N 31°44' E 121°07'1417052.1
2017-Jul-25 10:00N 31°33' E 121°18'658338612.0
2017-Jul-25 10:00N 23°02' E 113°31'62243094.3
2017-Jul-25 09:59N 30°01' E 122°05'62239312.6
2017-Jul-25 09:58N 22°56' E 113°36'10651278398.5
2017-Jul-25 09:58N 39°56' E 119°39'2223.5
2017-Jul-25 09:57N 39°56' E 119°42'935210299.3
2017-Jul-25 09:57N 24°26' E 117°50'4783154.6
2017-Jul-25 09:48N 32°03' E 120°26'775359.9
2017-Jul-25 09:47N 31°19' E 121°41'44411749.0
2017-Jul-25 09:45N 38°05' E 118°03'5243759.3
2017-Jul-25 09:36N 29°56' E 121°51'3753731.3
2017-Jul-25 09:30N 24°32' E 118°19'449538941.2
2017-Jul-25 09:30N 31°33' E 121°18'6582370301.3
2017-Jul-25 09:30N 23°02' E 113°31'414391.4
2017-Jul-25 09:30N 22°59' E 113°34'9631155219.2
2017-Jul-25 09:30N 37°33' E 121°23'9651157567.2
2017-Jul-25 09:30N 22°56' E 113°36'6172220808.5
2017-Jul-25 09:30N 29°53' E 122°04'125575.8
2017-Jul-25 09:30N 29°55' E 122°18'40633239.6
2017-Jul-25 09:29N 24°26' E 117°50'461103664.6
2017-Jul-25 09:29N 31°19' E 121°41'876281.7
2017-Jul-25 09:28N 29°54' E 122°01'61388301.8
2017-Jul-25 09:28N 39°56' E 119°39'2230.8
2017-Jul-25 09:27N 39°56' E 119°42'13353301.8
2017-Jul-25 09:27N 38°07' E 118°03'52618762.7
2017-Jul-25 09:26N 30°01' E 122°05'1395.6
2017-Jul-25 09:17N 29°56' E 121°51'56331187.7
2017-Jul-25 09:16N 38°53' E 118°25'85125758.9
2017-Jul-25 09:14N 24°42' E 118°51'31133.3
2017-Jul-25 09:00N 24°32' E 118°19'2731893.1
2017-Jul-25 09:00N 24°26' E 117°50'9341681683.0
2017-Jul-25 09:00N 39°56' E 119°39'6141104602.2
2017-Jul-25 09:00N 29°54' E 122°02'616443431.8
2017-Jul-25 09:00N 22°56' E 113°36'9421695458.4
2017-Jul-25 09:00N 38°10' E 118°04'420302261.7
2017-Jul-25 09:00N 31°40' E 121°13'118105889.2
2017-Jul-25 09:00N 29°56' E 122°19'628113054.8
2017-Jul-25 09:00N 22°59' E 113°34'963866409.6
2017-Jul-25 09:00N 37°33' E 121°23'360647984.7
2017-Jul-25 09:00N 31°33' E 121°18'242143.0
2017-Jul-25 08:59N 31°19' E 121°41'48154161.1
2017-Jul-25 08:58N 38°53' E 118°25'865001.6
2017-Jul-25 08:57N 39°56' E 119°42'61416734.1
2017-Jul-25 08:55N 29°53' E 122°03'7688.5
2017-Jul-25 08:55N 30°01' E 122°05'13215.8
2017-Jul-25 08:51N 29°56' E 121°51'35022937.2
2017-Jul-25 08:50N 24°44' E 118°53'33102.0
2017-Jul-25 08:30N 24°32' E 118°19'279501644.4
2017-Jul-25 08:30N 23°02' E 113°31'314141205.6
2017-Jul-25 08:30N 24°45' E 118°55'351420698.0
2017-Jul-25 08:30N 29°54' E 122°02'397119108.9
2017-Jul-25 08:30N 24°26' E 117°50'464334311.0
2017-Jul-25 08:30N 31°33' E 121°18'11012336.4
2017-Jul-25 08:29N 29°56' E 122°19'6132208592.1
2017-Jul-25 08:29N 39°56' E 119°39'10631275482.0
2017-Jul-25 08:29N 22°59' E 113°34'66172149.1
2017-Jul-25 08:29N 31°19' E 121°41'811481.6
2017-Jul-25 08:26N 30°01' E 122°05'1347.9
2017-Jul-25 08:09N 29°56' E 121°51'609243549.0
2017-Jul-25 08:09N 39°56' E 119°42'862673.4
2017-Jul-25 08:07N 38°53' E 118°25'569136544.7
2017-Jul-25 08:07N 29°53' E 122°03'14128.5
2017-Jul-25 08:00N 29°56' E 122°19'388465634.4
2017-Jul-25 08:00N 24°32' E 118°19'4491616823.7
2017-Jul-25 08:00N 31°33' E 121°18'4641671554.8
2017-Jul-25 08:00N 24°26' E 117°50'397158751.5
2017-Jul-25 08:00N 29°53' E 122°02'347625057.3
2017-Jul-25 08:00N 24°48' E 118°57'314102913.3
2017-Jul-25 08:00N 22°59' E 113°34'963866409.6
2017-Jul-25 08:00N 37°33' E 121°23'45360464.0
2017-Jul-25 08:00N 30°01' E 122°05'622448180.4
2017-Jul-25 07:59N 23°02' E 113°31'10621273862.4
2017-Jul-25 07:59N 39°56' E 119°39'52641154.3
2017-Jul-25 07:59N 31°19' E 121°41'52624903.2
2017-Jul-25 07:57N 39°56' E 119°42'862650.6
2017-Jul-25 07:55N 38°53' E 118°25'569227574.6
2017-Jul-25 07:55N 29°53' E 122°03'61656865.2
2017-Jul-25 07:55N 22°56' E 113°36'6117136.3
2017-Jul-25 07:49N 29°56' E 121°51'1340.6
2017-Jul-25 07:31N 30°01' E 122°05'98117147.5
2017-Jul-25 07:30N 31°31' E 121°23'449808932.8
2017-Jul-25 07:30N 24°32' E 118°19'276248800.6
2017-Jul-25 07:30N 22°59' E 113°34'318103926.8
2017-Jul-25 07:30N 24°50' E 118°60'6834755.1
2017-Jul-25 07:30N 24°26' E 117°50'4081467320.6
2017-Jul-25 07:30N 29°56' E 122°19'158749.7
2017-Jul-25 07:30N 29°54' E 122°02'6161108557.9
2017-Jul-25 07:30N 22°56' E 113°36'9651736360.2
2017-Jul-25 07:30N 37°33' E 121°23'962138502.8
2017-Jul-25 07:29N 23°02' E 113°31'66239047.3
2017-Jul-25 07:28N 31°19' E 121°41'52629117.6
2017-Jul-25 07:27N 39°56' E 119°42'862650.7
2017-Jul-25 07:25N 38°53' E 118°25'852496.3
2017-Jul-25 07:23N 39°56' E 119°39'1152904.7
2017-Jul-25 07:21N 38°05' E 118°57'3731925.5
2017-Jul-25 07:09N 31°57' E 120°10'4553062.1
2017-Jul-25 07:00N 24°32' E 118°19'2723919.8
2017-Jul-25 07:00N 24°26' E 117°50'408733669.2
2017-Jul-25 07:00N 29°56' E 122°19'127450.6
2017-Jul-25 07:00N 30°01' E 122°05'453816263.4
2017-Jul-25 07:00N 37°33' E 121°23'769922913.3
2017-Jul-25 07:00N 24°53' E 119°02'3231162173.0
2017-Jul-25 07:00N 23°02' E 113°31'658197523.7
2017-Jul-25 07:00N 31°33' E 121°18'10625516.7
2017-Jul-25 07:00N 29°54' E 122°02'6152214871.1
2017-Jul-25 07:00N 22°59' E 113°34'1063255095.0
2017-Jul-25 06:59N 39°56' E 119°39'106575193.5
2017-Jul-25 06:59N 22°56' E 113°36'66288325.0
2017-Jul-25 06:58N 31°19' E 121°41'881861.2
2017-Jul-25 06:55N 29°53' E 122°03'1061.4
2017-Jul-25 06:46N 29°58' E 121°53'1142.9
2017-Jul-25 06:31N 30°01' E 122°05'9080587.3
2017-Jul-25 06:30N 31°25' E 121°31'4461607365.6
2017-Jul-25 06:30N 24°32' E 118°19'3781360003.8
2017-Jul-25 06:30N 29°54' E 122°02'10663791.9
2017-Jul-25 06:30N 31°33' E 121°18'110394801.6
2017-Jul-25 06:30N 29°56' E 122°19'40897822.6
2017-Jul-25 06:30N 24°26' E 117°50'250449964.0
2017-Jul-25 06:30N 22°59' E 113°34'963266587.6
2017-Jul-25 06:30N 37°33' E 121°23'16523696.0
2017-Jul-25 06:29N 39°56' E 119°39'1062238847.9
2017-Jul-25 06:29N 23°02' E 113°31'106236083.4
2017-Jul-25 06:27N 39°56' E 119°42'60956202.8
2017-Jul-25 06:27N 29°56' E 121°51'56325988.6
2017-Jul-25 06:25N 38°53' E 118°25'4818372.5
2017-Jul-25 06:22N 31°19' E 121°41'6627406.1
2017-Jul-25 06:17N 22°56' E 113°36'61610766.4
2017-Jul-25 06:13N 29°53' E 122°03'735.4
2017-Jul-25 06:01N 30°01' E 122°05'453816274.1
2017-Jul-25 06:00N 37°33' E 121°23'7961433143.4
2017-Jul-25 06:00N 24°32' E 118°19'3881396938.9
2017-Jul-25 06:00N 29°56' E 122°19'4081467372.9
2017-Jul-25 06:00N 24°26' E 117°50'397158749.2
2017-Jul-25 06:00N 29°54' E 122°02'106069.1
2017-Jul-25 06:00N 29°56' E 121°51'611104658.3
2017-Jul-25 06:00N 23°02' E 113°31'4571.7
2017-Jul-25 05:59N 22°59' E 113°34'66123810.6
2017-Jul-25 05:58N 31°19' E 121°41'48112650.5
2017-Jul-25 05:55N 38°53' E 118°25'569136544.7
2017-Jul-25 05:55N 29°53' E 122°03'6149688.2
2017-Jul-25 05:51N 39°56' E 119°42'230.0
2017-Jul-25 05:47N 39°56' E 119°39'106556394.0
2017-Jul-25 05:46N 22°56' E 113°36'6592514.8
2017-Jul-25 05:31N 31°33' E 121°18'100180756.3
2017-Jul-25 05:30N 29°56' E 121°51'375450209.8
2017-Jul-25 05:30N 24°32' E 118°19'2747822.3
2017-Jul-25 05:30N 24°26' E 117°50'250899898.1
2017-Jul-25 05:30N 22°59' E 113°34'662340550.1
2017-Jul-25 05:30N 31°21' E 121°40'9119175.7
2017-Jul-25 05:30N 29°56' E 122°19'139214.0
2017-Jul-25 05:30N 29°54' E 122°04'71054.1
2017-Jul-25 05:30N 30°01' E 122°05'622140052.6
2017-Jul-25 05:29N 23°02' E 113°31'66225072.0
2017-Jul-25 05:28N 31°19' E 121°41'52617054.8
2017-Jul-25 05:26N 39°56' E 119°39'8512688.0
2017-Jul-25 05:25N 38°53' E 118°25'98823721.9
2017-Jul-25 05:23N 22°56' E 113°36'6169727.0
2017-Jul-25 05:19N 29°53' E 122°03'153